<?xml version="1.0" encoding="UTF-8" standalone="no" ?>
<gpx xmlns="http://www.topografix.com/GPX/1/1" xmlns:xsi="http://www.w3.org/2001/XMLSchema-instance" xsi:schemaLocation="http://www.topografix.com/GPX/1/1 http://www.topografix.com/GPX/1/1/gpx.xsd" version="1.1" creator="VisuGPX - https://www.visugpx.com">
  <metadata>
    <name>MB. Sortie du 15/08/2019</name>
    <desc><![CDATA[Sortie VTT estivale du jeudi 15 août 2019]]></desc>
  </metadata>
  <trk>
    <name><![CDATA[Pornichet Cyclisme]]></name>
    <trkseg>
      <trkpt lat="47.26405" lon="-2.31636">
        <ele>9.1</ele>
        <time>2019-08-15T06:37:14.000Z</time>
      </trkpt>
      <trkpt lat="47.26408" lon="-2.31653">
        <ele>8.5</ele>
        <time>2019-08-15T06:37:17.000Z</time>
      </trkpt>
      <trkpt lat="47.26408" lon="-2.31658">
        <ele>0.80000001192093</ele>
        <time>2019-08-15T06:37:18.000Z</time>
      </trkpt>
      <trkpt lat="47.26406" lon="-2.31661">
        <ele>2.2000000476837</ele>
        <time>2019-08-15T06:37:19.000Z</time>
      </trkpt>
      <trkpt lat="47.26403" lon="-2.31662">
        <ele>3.5999999046326</ele>
        <time>2019-08-15T06:37:20.000Z</time>
      </trkpt>
      <trkpt lat="47.26396" lon="-2.31665">
        <ele>3.5999999046326</ele>
        <time>2019-08-15T06:37:22.000Z</time>
      </trkpt>
      <trkpt lat="47.26375" lon="-2.31678">
        <ele>3.5999999046326</ele>
        <time>2019-08-15T06:37:28.000Z</time>
      </trkpt>
      <trkpt lat="47.26372" lon="-2.31681">
        <ele>3.5999999046326</ele>
        <time>2019-08-15T06:37:29.000Z</time>
      </trkpt>
      <trkpt lat="47.26354" lon="-2.31692">
        <ele>3.5999999046326</ele>
        <time>2019-08-15T06:37:33.000Z</time>
      </trkpt>
      <trkpt lat="47.2635" lon="-2.31694">
        <ele>3.5999999046326</ele>
        <time>2019-08-15T06:37:34.000Z</time>
      </trkpt>
      <trkpt lat="47.26345" lon="-2.31697">
        <ele>2.4000000953674</ele>
        <time>2019-08-15T06:37:35.000Z</time>
      </trkpt>
      <trkpt lat="47.2634" lon="-2.31699">
        <ele>1.2000000476837</ele>
        <time>2019-08-15T06:37:36.000Z</time>
      </trkpt>
      <trkpt lat="47.26334" lon="-2.31702">
        <ele>-0.20000000298023</ele>
        <time>2019-08-15T06:37:37.000Z</time>
      </trkpt>
      <trkpt lat="47.26328" lon="-2.31706">
        <ele>-1.3999999761581</ele>
        <time>2019-08-15T06:37:38.000Z</time>
      </trkpt>
      <trkpt lat="47.26323" lon="-2.31709">
        <ele>-2.5999999046326</ele>
        <time>2019-08-15T06:37:39.000Z</time>
      </trkpt>
      <trkpt lat="47.26318" lon="-2.31712">
        <ele>-2.5999999046326</ele>
        <time>2019-08-15T06:37:40.000Z</time>
      </trkpt>
      <trkpt lat="47.26305" lon="-2.31722">
        <ele>-2.5999999046326</ele>
        <time>2019-08-15T06:37:43.000Z</time>
      </trkpt>
      <trkpt lat="47.26302" lon="-2.31727">
        <ele>-3.2000000476837</ele>
        <time>2019-08-15T06:37:44.000Z</time>
      </trkpt>
      <trkpt lat="47.26302" lon="-2.31733">
        <ele>-3.5999999046326</ele>
        <time>2019-08-15T06:37:45.000Z</time>
      </trkpt>
      <trkpt lat="47.26303" lon="-2.3174">
        <ele>-4</ele>
        <time>2019-08-15T06:37:46.000Z</time>
      </trkpt>
      <trkpt lat="47.26304" lon="-2.31746">
        <ele>-4.4000000953674</ele>
        <time>2019-08-15T06:37:47.000Z</time>
      </trkpt>
      <trkpt lat="47.26305" lon="-2.31752">
        <ele>-4.8000001907349</ele>
        <time>2019-08-15T06:37:48.000Z</time>
      </trkpt>
      <trkpt lat="47.26306" lon="-2.31784">
        <ele>-4.8000001907349</ele>
        <time>2019-08-15T06:37:53.000Z</time>
      </trkpt>
      <trkpt lat="47.26306" lon="-2.31802">
        <ele>-4.8000001907349</ele>
        <time>2019-08-15T06:37:56.000Z</time>
      </trkpt>
      <trkpt lat="47.26305" lon="-2.31821">
        <ele>-4.8000001907349</ele>
        <time>2019-08-15T06:37:59.000Z</time>
      </trkpt>
      <trkpt lat="47.26301" lon="-2.31859">
        <ele>-4.8000001907349</ele>
        <time>2019-08-15T06:38:05.000Z</time>
      </trkpt>
      <trkpt lat="47.26301" lon="-2.31866">
        <ele>-4.8000001907349</ele>
        <time>2019-08-15T06:38:06.000Z</time>
      </trkpt>
      <trkpt lat="47.26298" lon="-2.31883">
        <ele>-4.8000001907349</ele>
        <time>2019-08-15T06:38:09.000Z</time>
      </trkpt>
      <trkpt lat="47.26295" lon="-2.31887">
        <ele>-4.8000001907349</ele>
        <time>2019-08-15T06:38:10.000Z</time>
      </trkpt>
      <trkpt lat="47.26279" lon="-2.319">
        <ele>-4.8000001907349</ele>
        <time>2019-08-15T06:38:14.000Z</time>
      </trkpt>
      <trkpt lat="47.26276" lon="-2.31905">
        <ele>-4.8000001907349</ele>
        <time>2019-08-15T06:38:15.000Z</time>
      </trkpt>
      <trkpt lat="47.26268" lon="-2.3192">
        <ele>-4.8000001907349</ele>
        <time>2019-08-15T06:38:18.000Z</time>
      </trkpt>
      <trkpt lat="47.26261" lon="-2.31934">
        <ele>-4.8000001907349</ele>
        <time>2019-08-15T06:38:21.000Z</time>
      </trkpt>
      <trkpt lat="47.26259" lon="-2.31939">
        <ele>-4.8000001907349</ele>
        <time>2019-08-15T06:38:22.000Z</time>
      </trkpt>
      <trkpt lat="47.26244" lon="-2.31969">
        <ele>-4.8000001907349</ele>
        <time>2019-08-15T06:38:28.000Z</time>
      </trkpt>
      <trkpt lat="47.26233" lon="-2.31968">
        <ele>-4.8000001907349</ele>
        <time>2019-08-15T06:38:31.000Z</time>
      </trkpt>
      <trkpt lat="47.26224" lon="-2.31978">
        <ele>-4.8000001907349</ele>
        <time>2019-08-15T06:38:35.000Z</time>
      </trkpt>
      <trkpt lat="47.26212" lon="-2.31992">
        <ele>-4.8000001907349</ele>
        <time>2019-08-15T06:38:40.000Z</time>
      </trkpt>
      <trkpt lat="47.2621" lon="-2.31996">
        <ele>-4.8000001907349</ele>
        <time>2019-08-15T06:38:41.000Z</time>
      </trkpt>
      <trkpt lat="47.26209" lon="-2.32006">
        <ele>-4.8000001907349</ele>
        <time>2019-08-15T06:38:43.000Z</time>
      </trkpt>
      <trkpt lat="47.26204" lon="-2.32014">
        <ele>-4.8000001907349</ele>
        <time>2019-08-15T06:38:46.000Z</time>
      </trkpt>
      <trkpt lat="47.26202" lon="-2.32015">
        <ele>-4.8000001907349</ele>
        <time>2019-08-15T06:38:47.000Z</time>
      </trkpt>
      <trkpt lat="47.26186" lon="-2.32019">
        <ele>-4.8000001907349</ele>
        <time>2019-08-15T06:38:52.000Z</time>
      </trkpt>
      <trkpt lat="47.26173" lon="-2.32026">
        <ele>-4.8000001907349</ele>
        <time>2019-08-15T06:38:56.000Z</time>
      </trkpt>
      <trkpt lat="47.26164" lon="-2.32032">
        <ele>-4.8000001907349</ele>
        <time>2019-08-15T06:38:58.000Z</time>
      </trkpt>
      <trkpt lat="47.26158" lon="-2.32043">
        <ele>-4.8000001907349</ele>
        <time>2019-08-15T06:39:00.000Z</time>
      </trkpt>
      <trkpt lat="47.26152" lon="-2.32062">
        <ele>-4.8000001907349</ele>
        <time>2019-08-15T06:39:03.000Z</time>
      </trkpt>
      <trkpt lat="47.26145" lon="-2.32081">
        <ele>-4.8000001907349</ele>
        <time>2019-08-15T06:39:06.000Z</time>
      </trkpt>
      <trkpt lat="47.26131" lon="-2.32125">
        <ele>-4.8000001907349</ele>
        <time>2019-08-15T06:39:13.000Z</time>
      </trkpt>
      <trkpt lat="47.26129" lon="-2.32131">
        <ele>-4.8000001907349</ele>
        <time>2019-08-15T06:39:14.000Z</time>
      </trkpt>
      <trkpt lat="47.26118" lon="-2.32163">
        <ele>-4.8000001907349</ele>
        <time>2019-08-15T06:39:19.000Z</time>
      </trkpt>
      <trkpt lat="47.26107" lon="-2.32194">
        <ele>-4.8000001907349</ele>
        <time>2019-08-15T06:39:24.000Z</time>
      </trkpt>
      <trkpt lat="47.26099" lon="-2.3221">
        <ele>-4.8000001907349</ele>
        <time>2019-08-15T06:39:27.000Z</time>
      </trkpt>
      <trkpt lat="47.26095" lon="-2.32215">
        <ele>-4.8000001907349</ele>
        <time>2019-08-15T06:39:28.000Z</time>
      </trkpt>
      <trkpt lat="47.2608" lon="-2.32235">
        <ele>-4.8000001907349</ele>
        <time>2019-08-15T06:39:32.000Z</time>
      </trkpt>
      <trkpt lat="47.26072" lon="-2.32244">
        <ele>-4.8000001907349</ele>
        <time>2019-08-15T06:39:34.000Z</time>
      </trkpt>
      <trkpt lat="47.26061" lon="-2.32257">
        <ele>-4.8000001907349</ele>
        <time>2019-08-15T06:39:37.000Z</time>
      </trkpt>
      <trkpt lat="47.2603" lon="-2.32293">
        <ele>-4.8000001907349</ele>
        <time>2019-08-15T06:39:45.000Z</time>
      </trkpt>
      <trkpt lat="47.26018" lon="-2.32306">
        <ele>-4.8000001907349</ele>
        <time>2019-08-15T06:39:48.000Z</time>
      </trkpt>
      <trkpt lat="47.26008" lon="-2.32322">
        <ele>-4.8000001907349</ele>
        <time>2019-08-15T06:39:51.000Z</time>
      </trkpt>
      <trkpt lat="47.26005" lon="-2.32326">
        <ele>-4.8000001907349</ele>
        <time>2019-08-15T06:39:52.000Z</time>
      </trkpt>
      <trkpt lat="47.25989" lon="-2.32345">
        <ele>-4.8000001907349</ele>
        <time>2019-08-15T06:39:56.000Z</time>
      </trkpt>
      <trkpt lat="47.25963" lon="-2.32379">
        <ele>-4.8000001907349</ele>
        <time>2019-08-15T06:40:03.000Z</time>
      </trkpt>
      <trkpt lat="47.25931" lon="-2.32422">
        <ele>-4.8000001907349</ele>
        <time>2019-08-15T06:40:12.000Z</time>
      </trkpt>
      <trkpt lat="47.25916" lon="-2.3244">
        <ele>-4.8000001907349</ele>
        <time>2019-08-15T06:40:16.000Z</time>
      </trkpt>
      <trkpt lat="47.25905" lon="-2.32453">
        <ele>-4.8000001907349</ele>
        <time>2019-08-15T06:40:19.000Z</time>
      </trkpt>
      <trkpt lat="47.25903" lon="-2.32458">
        <ele>-4.8000001907349</ele>
        <time>2019-08-15T06:40:20.000Z</time>
      </trkpt>
      <trkpt lat="47.25904" lon="-2.32465">
        <ele>-4.8000001907349</ele>
        <time>2019-08-15T06:40:22.000Z</time>
      </trkpt>
      <trkpt lat="47.25911" lon="-2.32474">
        <ele>-4.8000001907349</ele>
        <time>2019-08-15T06:40:25.000Z</time>
      </trkpt>
      <trkpt lat="47.25922" lon="-2.32485">
        <ele>-4.8000001907349</ele>
        <time>2019-08-15T06:40:28.000Z</time>
      </trkpt>
      <trkpt lat="47.25925" lon="-2.32492">
        <ele>-4.8000001907349</ele>
        <time>2019-08-15T06:40:29.000Z</time>
      </trkpt>
      <trkpt lat="47.25933" lon="-2.32518">
        <ele>-4.8000001907349</ele>
        <time>2019-08-15T06:40:33.000Z</time>
      </trkpt>
      <trkpt lat="47.25944" lon="-2.32557">
        <ele>-4.8000001907349</ele>
        <time>2019-08-15T06:40:39.000Z</time>
      </trkpt>
      <trkpt lat="47.25946" lon="-2.32563">
        <ele>-4.8000001907349</ele>
        <time>2019-08-15T06:40:40.000Z</time>
      </trkpt>
      <trkpt lat="47.25955" lon="-2.32598">
        <ele>-4.8000001907349</ele>
        <time>2019-08-15T06:40:45.000Z</time>
      </trkpt>
      <trkpt lat="47.25961" lon="-2.32637">
        <ele>-4.8000001907349</ele>
        <time>2019-08-15T06:40:51.000Z</time>
      </trkpt>
      <trkpt lat="47.25961" lon="-2.32643">
        <ele>-4.8000001907349</ele>
        <time>2019-08-15T06:40:52.000Z</time>
      </trkpt>
      <trkpt lat="47.25965" lon="-2.32659">
        <ele>-4.8000001907349</ele>
        <time>2019-08-15T06:40:56.000Z</time>
      </trkpt>
      <trkpt lat="47.25977" lon="-2.32657">
        <ele>-4.8000001907349</ele>
        <time>2019-08-15T06:40:59.000Z</time>
      </trkpt>
      <trkpt lat="47.25995" lon="-2.32657">
        <ele>-4.8000001907349</ele>
        <time>2019-08-15T06:41:03.000Z</time>
      </trkpt>
      <trkpt lat="47.26" lon="-2.32656">
        <ele>-4.8000001907349</ele>
        <time>2019-08-15T06:41:04.000Z</time>
      </trkpt>
      <trkpt lat="47.26038" lon="-2.3265">
        <ele>-4.8000001907349</ele>
        <time>2019-08-15T06:41:12.000Z</time>
      </trkpt>
      <trkpt lat="47.26052" lon="-2.32647">
        <ele>-4.8000001907349</ele>
        <time>2019-08-15T06:41:15.000Z</time>
      </trkpt>
      <trkpt lat="47.26065" lon="-2.32646">
        <ele>-4.8000001907349</ele>
        <time>2019-08-15T06:41:18.000Z</time>
      </trkpt>
      <trkpt lat="47.26102" lon="-2.3264">
        <ele>-4.8000001907349</ele>
        <time>2019-08-15T06:41:26.000Z</time>
      </trkpt>
      <trkpt lat="47.2614" lon="-2.32642">
        <ele>-4.8000001907349</ele>
        <time>2019-08-15T06:41:34.000Z</time>
      </trkpt>
      <trkpt lat="47.26167" lon="-2.32654">
        <ele>-4.4000000953674</ele>
        <time>2019-08-15T06:41:40.000Z</time>
      </trkpt>
      <trkpt lat="47.26172" lon="-2.32657">
        <ele>-4</ele>
        <time>2019-08-15T06:41:41.000Z</time>
      </trkpt>
      <trkpt lat="47.26176" lon="-2.3266">
        <ele>-3.5999999046326</ele>
        <time>2019-08-15T06:41:42.000Z</time>
      </trkpt>
      <trkpt lat="47.26181" lon="-2.32663">
        <ele>-3.2000000476837</ele>
        <time>2019-08-15T06:41:43.000Z</time>
      </trkpt>
      <trkpt lat="47.26184" lon="-2.32666">
        <ele>-2.7999999523163</ele>
        <time>2019-08-15T06:41:44.000Z</time>
      </trkpt>
      <trkpt lat="47.262" lon="-2.32682">
        <ele>-2.7999999523163</ele>
        <time>2019-08-15T06:41:48.000Z</time>
      </trkpt>
      <trkpt lat="47.2623" lon="-2.32721">
        <ele>-2.7999999523163</ele>
        <time>2019-08-15T06:41:56.000Z</time>
      </trkpt>
      <trkpt lat="47.26261" lon="-2.32766">
        <ele>-2.7999999523163</ele>
        <time>2019-08-15T06:42:04.000Z</time>
      </trkpt>
      <trkpt lat="47.26268" lon="-2.32778">
        <ele>-2.7999999523163</ele>
        <time>2019-08-15T06:42:06.000Z</time>
      </trkpt>
      <trkpt lat="47.26279" lon="-2.32804">
        <ele>-2.7999999523163</ele>
        <time>2019-08-15T06:42:10.000Z</time>
      </trkpt>
      <trkpt lat="47.26286" lon="-2.32823">
        <ele>-3.7999999523163</ele>
        <time>2019-08-15T06:42:13.000Z</time>
      </trkpt>
      <trkpt lat="47.26287" lon="-2.32828">
        <ele>-4.1999998092651</ele>
        <time>2019-08-15T06:42:14.000Z</time>
      </trkpt>
      <trkpt lat="47.26287" lon="-2.32834">
        <ele>-4.5999999046326</ele>
        <time>2019-08-15T06:42:15.000Z</time>
      </trkpt>
      <trkpt lat="47.26285" lon="-2.3284">
        <ele>-5.1999998092651</ele>
        <time>2019-08-15T06:42:16.000Z</time>
      </trkpt>
      <trkpt lat="47.26291" lon="-2.32856">
        <ele>-5.1999998092651</ele>
        <time>2019-08-15T06:42:19.000Z</time>
      </trkpt>
      <trkpt lat="47.26304" lon="-2.32863">
        <ele>-5.1999998092651</ele>
        <time>2019-08-15T06:42:22.000Z</time>
      </trkpt>
      <trkpt lat="47.26309" lon="-2.32865">
        <ele>-5.1999998092651</ele>
        <time>2019-08-15T06:42:23.000Z</time>
      </trkpt>
      <trkpt lat="47.26317" lon="-2.32872">
        <ele>-5.1999998092651</ele>
        <time>2019-08-15T06:42:25.000Z</time>
      </trkpt>
      <trkpt lat="47.26323" lon="-2.32885">
        <ele>-5.1999998092651</ele>
        <time>2019-08-15T06:42:27.000Z</time>
      </trkpt>
      <trkpt lat="47.26327" lon="-2.32899">
        <ele>-5.1999998092651</ele>
        <time>2019-08-15T06:42:29.000Z</time>
      </trkpt>
      <trkpt lat="47.26335" lon="-2.32926">
        <ele>-5.1999998092651</ele>
        <time>2019-08-15T06:42:33.000Z</time>
      </trkpt>
      <trkpt lat="47.26356" lon="-2.32976">
        <ele>-5.1999998092651</ele>
        <time>2019-08-15T06:42:41.000Z</time>
      </trkpt>
      <trkpt lat="47.26366" lon="-2.32993">
        <ele>-5.1999998092651</ele>
        <time>2019-08-15T06:42:44.000Z</time>
      </trkpt>
      <trkpt lat="47.26367" lon="-2.33001">
        <ele>-5.1999998092651</ele>
        <time>2019-08-15T06:42:45.000Z</time>
      </trkpt>
      <trkpt lat="47.26369" lon="-2.3304">
        <ele>-5.1999998092651</ele>
        <time>2019-08-15T06:42:50.000Z</time>
      </trkpt>
      <trkpt lat="47.2637" lon="-2.33108">
        <ele>-5.1999998092651</ele>
        <time>2019-08-15T06:42:59.000Z</time>
      </trkpt>
      <trkpt lat="47.26371" lon="-2.33162">
        <ele>-5.1999998092651</ele>
        <time>2019-08-15T06:43:06.000Z</time>
      </trkpt>
      <trkpt lat="47.26374" lon="-2.3323">
        <ele>-5.1999998092651</ele>
        <time>2019-08-15T06:43:15.000Z</time>
      </trkpt>
      <trkpt lat="47.26376" lon="-2.33251">
        <ele>-5.1999998092651</ele>
        <time>2019-08-15T06:43:18.000Z</time>
      </trkpt>
      <trkpt lat="47.26382" lon="-2.33263">
        <ele>-5.1999998092651</ele>
        <time>2019-08-15T06:43:20.000Z</time>
      </trkpt>
      <trkpt lat="47.26395" lon="-2.33271">
        <ele>-5.1999998092651</ele>
        <time>2019-08-15T06:43:23.000Z</time>
      </trkpt>
      <trkpt lat="47.26405" lon="-2.33273">
        <ele>-5.1999998092651</ele>
        <time>2019-08-15T06:43:25.000Z</time>
      </trkpt>
      <trkpt lat="47.26426" lon="-2.33276">
        <ele>-5.1999998092651</ele>
        <time>2019-08-15T06:43:29.000Z</time>
      </trkpt>
      <trkpt lat="47.26482" lon="-2.33279">
        <ele>-5.1999998092651</ele>
        <time>2019-08-15T06:43:40.000Z</time>
      </trkpt>
      <trkpt lat="47.26508" lon="-2.33286">
        <ele>-5.1999998092651</ele>
        <time>2019-08-15T06:43:46.000Z</time>
      </trkpt>
      <trkpt lat="47.26512" lon="-2.3329">
        <ele>-5.1999998092651</ele>
        <time>2019-08-15T06:43:47.000Z</time>
      </trkpt>
      <trkpt lat="47.26521" lon="-2.33298">
        <ele>-5.1999998092651</ele>
        <time>2019-08-15T06:43:49.000Z</time>
      </trkpt>
      <trkpt lat="47.26526" lon="-2.33308">
        <ele>-5.1999998092651</ele>
        <time>2019-08-15T06:43:51.000Z</time>
      </trkpt>
      <trkpt lat="47.26528" lon="-2.33316">
        <ele>-5.1999998092651</ele>
        <time>2019-08-15T06:43:52.000Z</time>
      </trkpt>
      <trkpt lat="47.26526" lon="-2.33338">
        <ele>-5.1999998092651</ele>
        <time>2019-08-15T06:43:55.000Z</time>
      </trkpt>
      <trkpt lat="47.26529" lon="-2.33361">
        <ele>-5.1999998092651</ele>
        <time>2019-08-15T06:43:58.000Z</time>
      </trkpt>
      <trkpt lat="47.2654" lon="-2.33407">
        <ele>-5.1999998092651</ele>
        <time>2019-08-15T06:44:04.000Z</time>
      </trkpt>
      <trkpt lat="47.26554" lon="-2.33483">
        <ele>-5.1999998092651</ele>
        <time>2019-08-15T06:44:14.000Z</time>
      </trkpt>
      <trkpt lat="47.26562" lon="-2.33546">
        <ele>-5.1999998092651</ele>
        <time>2019-08-15T06:44:23.000Z</time>
      </trkpt>
      <trkpt lat="47.26569" lon="-2.33604">
        <ele>-5.1999998092651</ele>
        <time>2019-08-15T06:44:31.000Z</time>
      </trkpt>
      <trkpt lat="47.26574" lon="-2.33631">
        <ele>-4.5999999046326</ele>
        <time>2019-08-15T06:44:35.000Z</time>
      </trkpt>
      <trkpt lat="47.26575" lon="-2.33638">
        <ele>-4.1999998092651</ele>
        <time>2019-08-15T06:44:36.000Z</time>
      </trkpt>
      <trkpt lat="47.26576" lon="-2.33644">
        <ele>-3.7999999523163</ele>
        <time>2019-08-15T06:44:37.000Z</time>
      </trkpt>
      <trkpt lat="47.26577" lon="-2.3365">
        <ele>-3.4000000953674</ele>
        <time>2019-08-15T06:44:38.000Z</time>
      </trkpt>
      <trkpt lat="47.26578" lon="-2.33656">
        <ele>-3</ele>
        <time>2019-08-15T06:44:39.000Z</time>
      </trkpt>
      <trkpt lat="47.26582" lon="-2.33667">
        <ele>-3</ele>
        <time>2019-08-15T06:44:41.000Z</time>
      </trkpt>
      <trkpt lat="47.26587" lon="-2.33677">
        <ele>-3</ele>
        <time>2019-08-15T06:44:43.000Z</time>
      </trkpt>
      <trkpt lat="47.26593" lon="-2.33687">
        <ele>-3</ele>
        <time>2019-08-15T06:44:45.000Z</time>
      </trkpt>
      <trkpt lat="47.26605" lon="-2.33705">
        <ele>-2.5999999046326</ele>
        <time>2019-08-15T06:44:49.000Z</time>
      </trkpt>
      <trkpt lat="47.26607" lon="-2.3371">
        <ele>-2.2000000476837</ele>
        <time>2019-08-15T06:44:50.000Z</time>
      </trkpt>
      <trkpt lat="47.26607" lon="-2.33716">
        <ele>-1.7999999523163</ele>
        <time>2019-08-15T06:44:51.000Z</time>
      </trkpt>
      <trkpt lat="47.26607" lon="-2.33722">
        <ele>-1.3999999761581</ele>
        <time>2019-08-15T06:44:52.000Z</time>
      </trkpt>
      <trkpt lat="47.26606" lon="-2.33729">
        <ele>-1</ele>
        <time>2019-08-15T06:44:53.000Z</time>
      </trkpt>
      <trkpt lat="47.26602" lon="-2.33783">
        <ele>-1</ele>
        <time>2019-08-15T06:45:01.000Z</time>
      </trkpt>
      <trkpt lat="47.26599" lon="-2.3381">
        <ele>-0.60000002384186</ele>
        <time>2019-08-15T06:45:05.000Z</time>
      </trkpt>
      <trkpt lat="47.26598" lon="-2.33817">
        <ele>0.40000000596046</ele>
        <time>2019-08-15T06:45:06.000Z</time>
      </trkpt>
      <trkpt lat="47.26597" lon="-2.33824">
        <ele>0.80000001192093</ele>
        <time>2019-08-15T06:45:07.000Z</time>
      </trkpt>
      <trkpt lat="47.26596" lon="-2.33831">
        <ele>1.2000000476837</ele>
        <time>2019-08-15T06:45:08.000Z</time>
      </trkpt>
      <trkpt lat="47.26596" lon="-2.33838">
        <ele>1.2000000476837</ele>
        <time>2019-08-15T06:45:09.000Z</time>
      </trkpt>
      <trkpt lat="47.26594" lon="-2.3385">
        <ele>1.2000000476837</ele>
        <time>2019-08-15T06:45:11.000Z</time>
      </trkpt>
      <trkpt lat="47.26593" lon="-2.33864">
        <ele>1.2000000476837</ele>
        <time>2019-08-15T06:45:13.000Z</time>
      </trkpt>
      <trkpt lat="47.26593" lon="-2.33871">
        <ele>1.2000000476837</ele>
        <time>2019-08-15T06:45:14.000Z</time>
      </trkpt>
      <trkpt lat="47.2659" lon="-2.33914">
        <ele>1.2000000476837</ele>
        <time>2019-08-15T06:45:20.000Z</time>
      </trkpt>
      <trkpt lat="47.26583" lon="-2.33966">
        <ele>1.2000000476837</ele>
        <time>2019-08-15T06:45:27.000Z</time>
      </trkpt>
      <trkpt lat="47.26579" lon="-2.34001">
        <ele>1.2000000476837</ele>
        <time>2019-08-15T06:45:32.000Z</time>
      </trkpt>
      <trkpt lat="47.26573" lon="-2.3403">
        <ele>1.2000000476837</ele>
        <time>2019-08-15T06:45:36.000Z</time>
      </trkpt>
      <trkpt lat="47.26571" lon="-2.34037">
        <ele>1.2000000476837</ele>
        <time>2019-08-15T06:45:37.000Z</time>
      </trkpt>
      <trkpt lat="47.26575" lon="-2.34052">
        <ele>1.2000000476837</ele>
        <time>2019-08-15T06:45:40.000Z</time>
      </trkpt>
      <trkpt lat="47.26584" lon="-2.34058">
        <ele>1.2000000476837</ele>
        <time>2019-08-15T06:45:42.000Z</time>
      </trkpt>
      <trkpt lat="47.26592" lon="-2.34063">
        <ele>1.2000000476837</ele>
        <time>2019-08-15T06:45:44.000Z</time>
      </trkpt>
      <trkpt lat="47.26597" lon="-2.34066">
        <ele>1.2000000476837</ele>
        <time>2019-08-15T06:45:45.000Z</time>
      </trkpt>
      <trkpt lat="47.26624" lon="-2.34088">
        <ele>1.2000000476837</ele>
        <time>2019-08-15T06:45:51.000Z</time>
      </trkpt>
      <trkpt lat="47.26629" lon="-2.34091">
        <ele>1.2000000476837</ele>
        <time>2019-08-15T06:45:52.000Z</time>
      </trkpt>
      <trkpt lat="47.26662" lon="-2.34113">
        <ele>1.2000000476837</ele>
        <time>2019-08-15T06:45:59.000Z</time>
      </trkpt>
      <trkpt lat="47.26695" lon="-2.34137">
        <ele>1.2000000476837</ele>
        <time>2019-08-15T06:46:06.000Z</time>
      </trkpt>
      <trkpt lat="47.26723" lon="-2.34156">
        <ele>1.2000000476837</ele>
        <time>2019-08-15T06:46:12.000Z</time>
      </trkpt>
      <trkpt lat="47.26728" lon="-2.34159">
        <ele>1.2000000476837</ele>
        <time>2019-08-15T06:46:13.000Z</time>
      </trkpt>
      <trkpt lat="47.26746" lon="-2.34172">
        <ele>1.2000000476837</ele>
        <time>2019-08-15T06:46:17.000Z</time>
      </trkpt>
      <trkpt lat="47.26793" lon="-2.34206">
        <ele>1.2000000476837</ele>
        <time>2019-08-15T06:46:27.000Z</time>
      </trkpt>
      <trkpt lat="47.26822" lon="-2.34228">
        <ele>1.2000000476837</ele>
        <time>2019-08-15T06:46:33.000Z</time>
      </trkpt>
      <trkpt lat="47.26848" lon="-2.34246">
        <ele>1.2000000476837</ele>
        <time>2019-08-15T06:46:38.000Z</time>
      </trkpt>
      <trkpt lat="47.26882" lon="-2.3427">
        <ele>1.2000000476837</ele>
        <time>2019-08-15T06:46:45.000Z</time>
      </trkpt>
      <trkpt lat="47.26905" lon="-2.34286">
        <ele>1.2000000476837</ele>
        <time>2019-08-15T06:46:50.000Z</time>
      </trkpt>
      <trkpt lat="47.26909" lon="-2.3429">
        <ele>1.2000000476837</ele>
        <time>2019-08-15T06:46:51.000Z</time>
      </trkpt>
      <trkpt lat="47.26927" lon="-2.34313">
        <ele>1.2000000476837</ele>
        <time>2019-08-15T06:46:56.000Z</time>
      </trkpt>
      <trkpt lat="47.26938" lon="-2.34337">
        <ele>1.2000000476837</ele>
        <time>2019-08-15T06:47:00.000Z</time>
      </trkpt>
      <trkpt lat="47.26942" lon="-2.3435">
        <ele>1.2000000476837</ele>
        <time>2019-08-15T06:47:02.000Z</time>
      </trkpt>
      <trkpt lat="47.2695" lon="-2.34368">
        <ele>1.2000000476837</ele>
        <time>2019-08-15T06:47:05.000Z</time>
      </trkpt>
      <trkpt lat="47.26955" lon="-2.34395">
        <ele>1.2000000476837</ele>
        <time>2019-08-15T06:47:10.000Z</time>
      </trkpt>
      <trkpt lat="47.26965" lon="-2.34431">
        <ele>1.2000000476837</ele>
        <time>2019-08-15T06:47:16.000Z</time>
      </trkpt>
      <trkpt lat="47.2697" lon="-2.34454">
        <ele>1.2000000476837</ele>
        <time>2019-08-15T06:47:21.000Z</time>
      </trkpt>
      <trkpt lat="47.26978" lon="-2.34474">
        <ele>1.2000000476837</ele>
        <time>2019-08-15T06:47:26.000Z</time>
      </trkpt>
      <trkpt lat="47.26983" lon="-2.34482">
        <ele>1.2000000476837</ele>
        <time>2019-08-15T06:47:28.000Z</time>
      </trkpt>
      <trkpt lat="47.26989" lon="-2.34487">
        <ele>1.2000000476837</ele>
        <time>2019-08-15T06:47:30.000Z</time>
      </trkpt>
      <trkpt lat="47.2701" lon="-2.34501">
        <ele>1.2000000476837</ele>
        <time>2019-08-15T06:47:36.000Z</time>
      </trkpt>
      <trkpt lat="47.27024" lon="-2.34505">
        <ele>1.2000000476837</ele>
        <time>2019-08-15T06:47:41.000Z</time>
      </trkpt>
      <trkpt lat="47.27027" lon="-2.34505">
        <ele>1.2000000476837</ele>
        <time>2019-08-15T06:47:45.000Z</time>
      </trkpt>
      <trkpt lat="47.27034" lon="-2.34494">
        <ele>5.1999998092651</ele>
        <time>2019-08-15T07:02:16.000Z</time>
      </trkpt>
      <trkpt lat="47.27034" lon="-2.3449">
        <ele>5.1999998092651</ele>
        <time>2019-08-15T07:02:19.000Z</time>
      </trkpt>
      <trkpt lat="47.27034" lon="-2.34489">
        <ele>5.1999998092651</ele>
        <time>2019-08-15T07:02:20.000Z</time>
      </trkpt>
      <trkpt lat="47.2703" lon="-2.34481">
        <ele>5.1999998092651</ele>
        <time>2019-08-15T07:03:24.000Z</time>
      </trkpt>
      <trkpt lat="47.27029" lon="-2.34477">
        <ele>5.1999998092651</ele>
        <time>2019-08-15T07:03:26.000Z</time>
      </trkpt>
      <trkpt lat="47.27033" lon="-2.34458">
        <ele>5.1999998092651</ele>
        <time>2019-08-15T07:03:31.000Z</time>
      </trkpt>
      <trkpt lat="47.27033" lon="-2.34454">
        <ele>5.1999998092651</ele>
        <time>2019-08-15T07:03:32.000Z</time>
      </trkpt>
      <trkpt lat="47.27032" lon="-2.34438">
        <ele>5.1999998092651</ele>
        <time>2019-08-15T07:03:37.000Z</time>
      </trkpt>
      <trkpt lat="47.27028" lon="-2.34419">
        <ele>5.1999998092651</ele>
        <time>2019-08-15T07:03:43.000Z</time>
      </trkpt>
      <trkpt lat="47.27023" lon="-2.34394">
        <ele>5.1999998092651</ele>
        <time>2019-08-15T07:03:49.000Z</time>
      </trkpt>
      <trkpt lat="47.27022" lon="-2.34385">
        <ele>5.1999998092651</ele>
        <time>2019-08-15T07:03:53.000Z</time>
      </trkpt>
      <trkpt lat="47.27019" lon="-2.34383">
        <ele>5.1999998092651</ele>
        <time>2019-08-15T07:03:58.000Z</time>
      </trkpt>
      <trkpt lat="47.27017" lon="-2.34379">
        <ele>5.1999998092651</ele>
        <time>2019-08-15T07:04:00.000Z</time>
      </trkpt>
      <trkpt lat="47.27016" lon="-2.34376">
        <ele>5.1999998092651</ele>
        <time>2019-08-15T07:04:03.000Z</time>
      </trkpt>
      <trkpt lat="47.27016" lon="-2.34372">
        <ele>5.1999998092651</ele>
        <time>2019-08-15T07:04:10.000Z</time>
      </trkpt>
      <trkpt lat="47.27015" lon="-2.34369">
        <ele>5.1999998092651</ele>
        <time>2019-08-15T07:04:11.000Z</time>
      </trkpt>
      <trkpt lat="47.27011" lon="-2.34346">
        <ele>5.1999998092651</ele>
        <time>2019-08-15T07:04:16.000Z</time>
      </trkpt>
      <trkpt lat="47.27009" lon="-2.34326">
        <ele>5.1999998092651</ele>
        <time>2019-08-15T07:04:20.000Z</time>
      </trkpt>
      <trkpt lat="47.27012" lon="-2.34322">
        <ele>5.1999998092651</ele>
        <time>2019-08-15T07:04:22.000Z</time>
      </trkpt>
      <trkpt lat="47.27022" lon="-2.34321">
        <ele>5.1999998092651</ele>
        <time>2019-08-15T07:04:26.000Z</time>
      </trkpt>
      <trkpt lat="47.27025" lon="-2.34321">
        <ele>5.1999998092651</ele>
        <time>2019-08-15T07:04:27.000Z</time>
      </trkpt>
      <trkpt lat="47.27047" lon="-2.3432">
        <ele>5.1999998092651</ele>
        <time>2019-08-15T07:04:33.000Z</time>
      </trkpt>
      <trkpt lat="47.27055" lon="-2.34311">
        <ele>5.1999998092651</ele>
        <time>2019-08-15T07:04:36.000Z</time>
      </trkpt>
      <trkpt lat="47.27054" lon="-2.34296">
        <ele>5.1999998092651</ele>
        <time>2019-08-15T07:04:39.000Z</time>
      </trkpt>
      <trkpt lat="47.27053" lon="-2.34291">
        <ele>5.1999998092651</ele>
        <time>2019-08-15T07:04:40.000Z</time>
      </trkpt>
      <trkpt lat="47.27045" lon="-2.34259">
        <ele>5.1999998092651</ele>
        <time>2019-08-15T07:04:46.000Z</time>
      </trkpt>
      <trkpt lat="47.27045" lon="-2.34253">
        <ele>5.1999998092651</ele>
        <time>2019-08-15T07:04:47.000Z</time>
      </trkpt>
      <trkpt lat="47.27044" lon="-2.34237">
        <ele>5.1999998092651</ele>
        <time>2019-08-15T07:04:50.000Z</time>
      </trkpt>
      <trkpt lat="47.27042" lon="-2.34218">
        <ele>5.1999998092651</ele>
        <time>2019-08-15T07:04:55.000Z</time>
      </trkpt>
      <trkpt lat="47.27042" lon="-2.3421">
        <ele>5.1999998092651</ele>
        <time>2019-08-15T07:04:57.000Z</time>
      </trkpt>
      <trkpt lat="47.27043" lon="-2.34199">
        <ele>5.1999998092651</ele>
        <time>2019-08-15T07:05:00.000Z</time>
      </trkpt>
      <trkpt lat="47.27043" lon="-2.34171">
        <ele>5.1999998092651</ele>
        <time>2019-08-15T07:05:08.000Z</time>
      </trkpt>
      <trkpt lat="47.27046" lon="-2.34151">
        <ele>5.1999998092651</ele>
        <time>2019-08-15T07:05:12.000Z</time>
      </trkpt>
      <trkpt lat="47.27046" lon="-2.34134">
        <ele>5.1999998092651</ele>
        <time>2019-08-15T07:05:15.000Z</time>
      </trkpt>
      <trkpt lat="47.27046" lon="-2.3412">
        <ele>5.1999998092651</ele>
        <time>2019-08-15T07:05:17.000Z</time>
      </trkpt>
      <trkpt lat="47.27046" lon="-2.34068">
        <ele>5.1999998092651</ele>
        <time>2019-08-15T07:05:24.000Z</time>
      </trkpt>
      <trkpt lat="47.27046" lon="-2.34025">
        <ele>5.1999998092651</ele>
        <time>2019-08-15T07:05:30.000Z</time>
      </trkpt>
      <trkpt lat="47.27045" lon="-2.33985">
        <ele>5.1999998092651</ele>
        <time>2019-08-15T07:05:36.000Z</time>
      </trkpt>
      <trkpt lat="47.27046" lon="-2.33959">
        <ele>5.1999998092651</ele>
        <time>2019-08-15T07:05:40.000Z</time>
      </trkpt>
      <trkpt lat="47.27046" lon="-2.33953">
        <ele>5.5999999046326</ele>
        <time>2019-08-15T07:05:41.000Z</time>
      </trkpt>
      <trkpt lat="47.27047" lon="-2.33946">
        <ele>6.4000000953674</ele>
        <time>2019-08-15T07:05:42.000Z</time>
      </trkpt>
      <trkpt lat="47.27046" lon="-2.33939">
        <ele>6.8000001907349</ele>
        <time>2019-08-15T07:05:43.000Z</time>
      </trkpt>
      <trkpt lat="47.27046" lon="-2.33933">
        <ele>7.1999998092651</ele>
        <time>2019-08-15T07:05:44.000Z</time>
      </trkpt>
      <trkpt lat="47.27045" lon="-2.33899">
        <ele>7.1999998092651</ele>
        <time>2019-08-15T07:05:49.000Z</time>
      </trkpt>
      <trkpt lat="47.27045" lon="-2.33893">
        <ele>7.8000001907349</ele>
        <time>2019-08-15T07:05:50.000Z</time>
      </trkpt>
      <trkpt lat="47.27043" lon="-2.33888">
        <ele>8.1999998092651</ele>
        <time>2019-08-15T07:05:51.000Z</time>
      </trkpt>
      <trkpt lat="47.27042" lon="-2.33884">
        <ele>8.6000003814697</ele>
        <time>2019-08-15T07:05:52.000Z</time>
      </trkpt>
      <trkpt lat="47.27039" lon="-2.33881">
        <ele>9</ele>
        <time>2019-08-15T07:05:53.000Z</time>
      </trkpt>
      <trkpt lat="47.27036" lon="-2.33878">
        <ele>9.3999996185303</ele>
        <time>2019-08-15T07:05:54.000Z</time>
      </trkpt>
      <trkpt lat="47.27029" lon="-2.33872">
        <ele>9.3999996185303</ele>
        <time>2019-08-15T07:05:56.000Z</time>
      </trkpt>
      <trkpt lat="47.27025" lon="-2.33869">
        <ele>9.3999996185303</ele>
        <time>2019-08-15T07:05:57.000Z</time>
      </trkpt>
      <trkpt lat="47.26997" lon="-2.33849">
        <ele>9.3999996185303</ele>
        <time>2019-08-15T07:06:03.000Z</time>
      </trkpt>
      <trkpt lat="47.26976" lon="-2.33838">
        <ele>9.3999996185303</ele>
        <time>2019-08-15T07:06:06.000Z</time>
      </trkpt>
      <trkpt lat="47.26969" lon="-2.33833">
        <ele>9.3999996185303</ele>
        <time>2019-08-15T07:06:07.000Z</time>
      </trkpt>
      <trkpt lat="47.26955" lon="-2.33825">
        <ele>9</ele>
        <time>2019-08-15T07:06:09.000Z</time>
      </trkpt>
      <trkpt lat="47.26948" lon="-2.33822">
        <ele>8.6000003814697</ele>
        <time>2019-08-15T07:06:10.000Z</time>
      </trkpt>
      <trkpt lat="47.26942" lon="-2.33818">
        <ele>8.1999998092651</ele>
        <time>2019-08-15T07:06:11.000Z</time>
      </trkpt>
      <trkpt lat="47.26937" lon="-2.33812">
        <ele>7.5999999046326</ele>
        <time>2019-08-15T07:06:12.000Z</time>
      </trkpt>
      <trkpt lat="47.26933" lon="-2.33804">
        <ele>7.1999998092651</ele>
        <time>2019-08-15T07:06:13.000Z</time>
      </trkpt>
      <trkpt lat="47.26929" lon="-2.33797">
        <ele>7.1999998092651</ele>
        <time>2019-08-15T07:06:14.000Z</time>
      </trkpt>
      <trkpt lat="47.26928" lon="-2.33773">
        <ele>7.1999998092651</ele>
        <time>2019-08-15T07:06:17.000Z</time>
      </trkpt>
      <trkpt lat="47.26929" lon="-2.33764">
        <ele>6.8000001907349</ele>
        <time>2019-08-15T07:06:18.000Z</time>
      </trkpt>
      <trkpt lat="47.26931" lon="-2.33757">
        <ele>6.4000000953674</ele>
        <time>2019-08-15T07:06:19.000Z</time>
      </trkpt>
      <trkpt lat="47.26933" lon="-2.33749">
        <ele>5.8000001907349</ele>
        <time>2019-08-15T07:06:20.000Z</time>
      </trkpt>
      <trkpt lat="47.26935" lon="-2.33741">
        <ele>5.4000000953674</ele>
        <time>2019-08-15T07:06:21.000Z</time>
      </trkpt>
      <trkpt lat="47.26937" lon="-2.33733">
        <ele>5</ele>
        <time>2019-08-15T07:06:22.000Z</time>
      </trkpt>
      <trkpt lat="47.26939" lon="-2.33717">
        <ele>5</ele>
        <time>2019-08-15T07:06:24.000Z</time>
      </trkpt>
      <trkpt lat="47.26938" lon="-2.33701">
        <ele>5</ele>
        <time>2019-08-15T07:06:26.000Z</time>
      </trkpt>
      <trkpt lat="47.26934" lon="-2.33684">
        <ele>5</ele>
        <time>2019-08-15T07:06:28.000Z</time>
      </trkpt>
      <trkpt lat="47.26929" lon="-2.33652">
        <ele>5</ele>
        <time>2019-08-15T07:06:32.000Z</time>
      </trkpt>
      <trkpt lat="47.26916" lon="-2.33596">
        <ele>5</ele>
        <time>2019-08-15T07:06:39.000Z</time>
      </trkpt>
      <trkpt lat="47.26912" lon="-2.33588">
        <ele>5</ele>
        <time>2019-08-15T07:06:40.000Z</time>
      </trkpt>
      <trkpt lat="47.26902" lon="-2.33564">
        <ele>5</ele>
        <time>2019-08-15T07:06:43.000Z</time>
      </trkpt>
      <trkpt lat="47.26899" lon="-2.33556">
        <ele>5</ele>
        <time>2019-08-15T07:06:44.000Z</time>
      </trkpt>
      <trkpt lat="47.26895" lon="-2.33548">
        <ele>5</ele>
        <time>2019-08-15T07:06:45.000Z</time>
      </trkpt>
      <trkpt lat="47.26891" lon="-2.33542">
        <ele>4.5999999046326</ele>
        <time>2019-08-15T07:06:46.000Z</time>
      </trkpt>
      <trkpt lat="47.26887" lon="-2.33538">
        <ele>4.1999998092651</ele>
        <time>2019-08-15T07:06:47.000Z</time>
      </trkpt>
      <trkpt lat="47.26882" lon="-2.33535">
        <ele>3.7999999523163</ele>
        <time>2019-08-15T07:06:48.000Z</time>
      </trkpt>
      <trkpt lat="47.26876" lon="-2.33534">
        <ele>3.4000000953674</ele>
        <time>2019-08-15T07:06:49.000Z</time>
      </trkpt>
      <trkpt lat="47.2687" lon="-2.33534">
        <ele>3</ele>
        <time>2019-08-15T07:06:50.000Z</time>
      </trkpt>
      <trkpt lat="47.26864" lon="-2.33534">
        <ele>3</ele>
        <time>2019-08-15T07:06:51.000Z</time>
      </trkpt>
      <trkpt lat="47.26845" lon="-2.33541">
        <ele>3</ele>
        <time>2019-08-15T07:06:54.000Z</time>
      </trkpt>
      <trkpt lat="47.26839" lon="-2.33544">
        <ele>2.5999999046326</ele>
        <time>2019-08-15T07:06:55.000Z</time>
      </trkpt>
      <trkpt lat="47.26833" lon="-2.33547">
        <ele>1.7999999523163</ele>
        <time>2019-08-15T07:06:56.000Z</time>
      </trkpt>
      <trkpt lat="47.26827" lon="-2.33551">
        <ele>1.2000000476837</ele>
        <time>2019-08-15T07:06:57.000Z</time>
      </trkpt>
      <trkpt lat="47.26821" lon="-2.33554">
        <ele>0.80000001192093</ele>
        <time>2019-08-15T07:06:58.000Z</time>
      </trkpt>
      <trkpt lat="47.2681" lon="-2.33558">
        <ele>0.80000001192093</ele>
        <time>2019-08-15T07:07:00.000Z</time>
      </trkpt>
      <trkpt lat="47.26784" lon="-2.33569">
        <ele>0.80000001192093</ele>
        <time>2019-08-15T07:07:06.000Z</time>
      </trkpt>
      <trkpt lat="47.2678" lon="-2.33567">
        <ele>0.80000001192093</ele>
        <time>2019-08-15T07:07:09.000Z</time>
      </trkpt>
      <trkpt lat="47.26779" lon="-2.33564">
        <ele>0.80000001192093</ele>
        <time>2019-08-15T07:07:10.000Z</time>
      </trkpt>
      <trkpt lat="47.26776" lon="-2.33542">
        <ele>0.80000001192093</ele>
        <time>2019-08-15T07:07:14.000Z</time>
      </trkpt>
      <trkpt lat="47.26773" lon="-2.3353">
        <ele>0.80000001192093</ele>
        <time>2019-08-15T07:07:16.000Z</time>
      </trkpt>
      <trkpt lat="47.26769" lon="-2.33508">
        <ele>0.80000001192093</ele>
        <time>2019-08-15T07:07:19.000Z</time>
      </trkpt>
      <trkpt lat="47.26759" lon="-2.33454">
        <ele>0.80000001192093</ele>
        <time>2019-08-15T07:07:26.000Z</time>
      </trkpt>
      <trkpt lat="47.26754" lon="-2.33408">
        <ele>0.80000001192093</ele>
        <time>2019-08-15T07:07:32.000Z</time>
      </trkpt>
      <trkpt lat="47.26749" lon="-2.33367">
        <ele>0.40000000596046</ele>
        <time>2019-08-15T07:07:38.000Z</time>
      </trkpt>
      <trkpt lat="47.26748" lon="-2.33362">
        <ele>3</ele>
        <time>2019-08-15T07:07:39.000Z</time>
      </trkpt>
      <trkpt lat="47.26748" lon="-2.33358">
        <ele>-0.40000000596046</ele>
        <time>2019-08-15T07:07:40.000Z</time>
      </trkpt>
      <trkpt lat="47.26747" lon="-2.33355">
        <ele>-0.80000001192093</ele>
        <time>2019-08-15T07:07:41.000Z</time>
      </trkpt>
      <trkpt lat="47.26747" lon="-2.33353">
        <ele>-1.2000000476837</ele>
        <time>2019-08-15T07:07:42.000Z</time>
      </trkpt>
      <trkpt lat="47.26743" lon="-2.3334">
        <ele>-1.2000000476837</ele>
        <time>2019-08-15T07:07:49.000Z</time>
      </trkpt>
      <trkpt lat="47.26742" lon="-2.33338">
        <ele>-1.2000000476837</ele>
        <time>2019-08-15T07:07:50.000Z</time>
      </trkpt>
      <trkpt lat="47.26736" lon="-2.33335">
        <ele>-1.2000000476837</ele>
        <time>2019-08-15T07:07:53.000Z</time>
      </trkpt>
      <trkpt lat="47.2672" lon="-2.33326">
        <ele>-1.2000000476837</ele>
        <time>2019-08-15T07:07:59.000Z</time>
      </trkpt>
      <trkpt lat="47.26711" lon="-2.33307">
        <ele>-1.2000000476837</ele>
        <time>2019-08-15T07:08:03.000Z</time>
      </trkpt>
      <trkpt lat="47.26706" lon="-2.33279">
        <ele>-1.2000000476837</ele>
        <time>2019-08-15T07:08:08.000Z</time>
      </trkpt>
      <trkpt lat="47.26704" lon="-2.33261">
        <ele>-1.2000000476837</ele>
        <time>2019-08-15T07:08:13.000Z</time>
      </trkpt>
      <trkpt lat="47.26704" lon="-2.33259">
        <ele>-1.2000000476837</ele>
        <time>2019-08-15T07:08:14.000Z</time>
      </trkpt>
      <trkpt lat="47.26703" lon="-2.33249">
        <ele>-1.2000000476837</ele>
        <time>2019-08-15T07:08:17.000Z</time>
      </trkpt>
      <trkpt lat="47.26698" lon="-2.33231">
        <ele>-1.2000000476837</ele>
        <time>2019-08-15T07:08:22.000Z</time>
      </trkpt>
      <trkpt lat="47.26695" lon="-2.33212">
        <ele>-1.2000000476837</ele>
        <time>2019-08-15T07:08:27.000Z</time>
      </trkpt>
      <trkpt lat="47.26693" lon="-2.33199">
        <ele>-1.2000000476837</ele>
        <time>2019-08-15T07:08:32.000Z</time>
      </trkpt>
      <trkpt lat="47.2669" lon="-2.33189">
        <ele>-1.2000000476837</ele>
        <time>2019-08-15T07:08:40.000Z</time>
      </trkpt>
      <trkpt lat="47.26689" lon="-2.33179">
        <ele>-1.2000000476837</ele>
        <time>2019-08-15T07:08:46.000Z</time>
      </trkpt>
      <trkpt lat="47.2668" lon="-2.33169">
        <ele>-1.2000000476837</ele>
        <time>2019-08-15T07:08:52.000Z</time>
      </trkpt>
      <trkpt lat="47.2667" lon="-2.33168">
        <ele>-1.2000000476837</ele>
        <time>2019-08-15T07:08:57.000Z</time>
      </trkpt>
      <trkpt lat="47.26656" lon="-2.33183">
        <ele>-1.2000000476837</ele>
        <time>2019-08-15T07:09:01.000Z</time>
      </trkpt>
      <trkpt lat="47.26651" lon="-2.33187">
        <ele>-1.2000000476837</ele>
        <time>2019-08-15T07:09:02.000Z</time>
      </trkpt>
      <trkpt lat="47.26635" lon="-2.33204">
        <ele>-1.2000000476837</ele>
        <time>2019-08-15T07:09:06.000Z</time>
      </trkpt>
      <trkpt lat="47.26612" lon="-2.33227">
        <ele>-1.2000000476837</ele>
        <time>2019-08-15T07:09:11.000Z</time>
      </trkpt>
      <trkpt lat="47.26588" lon="-2.33251">
        <ele>-1.2000000476837</ele>
        <time>2019-08-15T07:09:17.000Z</time>
      </trkpt>
      <trkpt lat="47.26563" lon="-2.33275">
        <ele>-1.2000000476837</ele>
        <time>2019-08-15T07:09:23.000Z</time>
      </trkpt>
      <trkpt lat="47.26543" lon="-2.33299">
        <ele>-1.2000000476837</ele>
        <time>2019-08-15T07:09:29.000Z</time>
      </trkpt>
      <trkpt lat="47.26536" lon="-2.33299">
        <ele>-1.2000000476837</ele>
        <time>2019-08-15T07:09:31.000Z</time>
      </trkpt>
      <trkpt lat="47.26533" lon="-2.33295">
        <ele>-1.2000000476837</ele>
        <time>2019-08-15T07:09:32.000Z</time>
      </trkpt>
      <trkpt lat="47.2653" lon="-2.33284">
        <ele>-1.2000000476837</ele>
        <time>2019-08-15T07:09:35.000Z</time>
      </trkpt>
      <trkpt lat="47.26526" lon="-2.33281">
        <ele>-1.2000000476837</ele>
        <time>2019-08-15T07:09:36.000Z</time>
      </trkpt>
      <trkpt lat="47.26514" lon="-2.33285">
        <ele>-1.2000000476837</ele>
        <time>2019-08-15T07:09:39.000Z</time>
      </trkpt>
      <trkpt lat="47.26501" lon="-2.33272">
        <ele>-1.2000000476837</ele>
        <time>2019-08-15T07:09:43.000Z</time>
      </trkpt>
      <trkpt lat="47.26503" lon="-2.33246">
        <ele>-1.2000000476837</ele>
        <time>2019-08-15T07:09:47.000Z</time>
      </trkpt>
      <trkpt lat="47.26518" lon="-2.33226">
        <ele>-1.2000000476837</ele>
        <time>2019-08-15T07:09:51.000Z</time>
      </trkpt>
      <trkpt lat="47.26527" lon="-2.33219">
        <ele>-1.2000000476837</ele>
        <time>2019-08-15T07:09:53.000Z</time>
      </trkpt>
      <trkpt lat="47.26533" lon="-2.33217">
        <ele>-1.2000000476837</ele>
        <time>2019-08-15T07:09:54.000Z</time>
      </trkpt>
      <trkpt lat="47.26548" lon="-2.33208">
        <ele>-1.2000000476837</ele>
        <time>2019-08-15T07:09:57.000Z</time>
      </trkpt>
      <trkpt lat="47.26577" lon="-2.33189">
        <ele>-1.2000000476837</ele>
        <time>2019-08-15T07:10:03.000Z</time>
      </trkpt>
      <trkpt lat="47.26581" lon="-2.33184">
        <ele>-1.2000000476837</ele>
        <time>2019-08-15T07:10:04.000Z</time>
      </trkpt>
      <trkpt lat="47.26589" lon="-2.33156">
        <ele>-1.2000000476837</ele>
        <time>2019-08-15T07:10:08.000Z</time>
      </trkpt>
      <trkpt lat="47.26592" lon="-2.3315">
        <ele>-1.2000000476837</ele>
        <time>2019-08-15T07:10:09.000Z</time>
      </trkpt>
      <trkpt lat="47.26604" lon="-2.33141">
        <ele>-1.2000000476837</ele>
        <time>2019-08-15T07:10:12.000Z</time>
      </trkpt>
      <trkpt lat="47.26617" lon="-2.33147">
        <ele>-1.2000000476837</ele>
        <time>2019-08-15T07:10:15.000Z</time>
      </trkpt>
      <trkpt lat="47.26626" lon="-2.33149">
        <ele>-1.2000000476837</ele>
        <time>2019-08-15T07:10:17.000Z</time>
      </trkpt>
      <trkpt lat="47.26639" lon="-2.33144">
        <ele>-1.2000000476837</ele>
        <time>2019-08-15T07:10:20.000Z</time>
      </trkpt>
      <trkpt lat="47.26652" lon="-2.33134">
        <ele>-1.2000000476837</ele>
        <time>2019-08-15T07:10:23.000Z</time>
      </trkpt>
      <trkpt lat="47.26666" lon="-2.33124">
        <ele>-1.2000000476837</ele>
        <time>2019-08-15T07:10:26.000Z</time>
      </trkpt>
      <trkpt lat="47.26698" lon="-2.33095">
        <ele>-1.2000000476837</ele>
        <time>2019-08-15T07:10:33.000Z</time>
      </trkpt>
      <trkpt lat="47.26721" lon="-2.33068">
        <ele>-1.2000000476837</ele>
        <time>2019-08-15T07:10:39.000Z</time>
      </trkpt>
      <trkpt lat="47.26724" lon="-2.33063">
        <ele>-1.2000000476837</ele>
        <time>2019-08-15T07:10:40.000Z</time>
      </trkpt>
      <trkpt lat="47.26728" lon="-2.3305">
        <ele>-1.2000000476837</ele>
        <time>2019-08-15T07:10:42.000Z</time>
      </trkpt>
      <trkpt lat="47.26731" lon="-2.33037">
        <ele>-1.2000000476837</ele>
        <time>2019-08-15T07:10:44.000Z</time>
      </trkpt>
      <trkpt lat="47.26734" lon="-2.33024">
        <ele>-1.2000000476837</ele>
        <time>2019-08-15T07:10:46.000Z</time>
      </trkpt>
      <trkpt lat="47.26734" lon="-2.33011">
        <ele>-1.2000000476837</ele>
        <time>2019-08-15T07:10:48.000Z</time>
      </trkpt>
      <trkpt lat="47.26735" lon="-2.32996">
        <ele>-1.2000000476837</ele>
        <time>2019-08-15T07:10:50.000Z</time>
      </trkpt>
      <trkpt lat="47.26742" lon="-2.32977">
        <ele>-1.2000000476837</ele>
        <time>2019-08-15T07:10:53.000Z</time>
      </trkpt>
      <trkpt lat="47.26754" lon="-2.32961">
        <ele>-1.2000000476837</ele>
        <time>2019-08-15T07:10:56.000Z</time>
      </trkpt>
      <trkpt lat="47.26759" lon="-2.32957">
        <ele>-1.2000000476837</ele>
        <time>2019-08-15T07:10:57.000Z</time>
      </trkpt>
      <trkpt lat="47.26785" lon="-2.32929">
        <ele>-1.2000000476837</ele>
        <time>2019-08-15T07:11:03.000Z</time>
      </trkpt>
      <trkpt lat="47.2679" lon="-2.32925">
        <ele>-1.2000000476837</ele>
        <time>2019-08-15T07:11:04.000Z</time>
      </trkpt>
      <trkpt lat="47.26822" lon="-2.32899">
        <ele>-1.2000000476837</ele>
        <time>2019-08-15T07:11:11.000Z</time>
      </trkpt>
      <trkpt lat="47.26835" lon="-2.32886">
        <ele>-1.2000000476837</ele>
        <time>2019-08-15T07:11:14.000Z</time>
      </trkpt>
      <trkpt lat="47.26844" lon="-2.32881">
        <ele>-1.2000000476837</ele>
        <time>2019-08-15T07:11:16.000Z</time>
      </trkpt>
      <trkpt lat="47.26859" lon="-2.32875">
        <ele>-1.2000000476837</ele>
        <time>2019-08-15T07:11:19.000Z</time>
      </trkpt>
      <trkpt lat="47.26865" lon="-2.32865">
        <ele>-1.2000000476837</ele>
        <time>2019-08-15T07:11:21.000Z</time>
      </trkpt>
      <trkpt lat="47.26859" lon="-2.32849">
        <ele>-1.2000000476837</ele>
        <time>2019-08-15T07:11:24.000Z</time>
      </trkpt>
      <trkpt lat="47.26856" lon="-2.3284">
        <ele>-1.2000000476837</ele>
        <time>2019-08-15T07:11:26.000Z</time>
      </trkpt>
      <trkpt lat="47.26853" lon="-2.32831">
        <ele>-0.20000000298023</ele>
        <time>2019-08-15T07:11:28.000Z</time>
      </trkpt>
      <trkpt lat="47.26852" lon="-2.32827">
        <ele>0.40000000596046</ele>
        <time>2019-08-15T07:11:29.000Z</time>
      </trkpt>
      <trkpt lat="47.26851" lon="-2.32823">
        <ele>0.80000001192093</ele>
        <time>2019-08-15T07:11:30.000Z</time>
      </trkpt>
      <trkpt lat="47.26849" lon="-2.32819">
        <ele>1.3999999761581</ele>
        <time>2019-08-15T07:11:31.000Z</time>
      </trkpt>
      <trkpt lat="47.26845" lon="-2.32812">
        <ele>1.7999999523163</ele>
        <time>2019-08-15T07:11:33.000Z</time>
      </trkpt>
      <trkpt lat="47.26843" lon="-2.32808">
        <ele>2.2000000476837</ele>
        <time>2019-08-15T07:11:34.000Z</time>
      </trkpt>
      <trkpt lat="47.26843" lon="-2.32804">
        <ele>2.5999999046326</ele>
        <time>2019-08-15T07:11:35.000Z</time>
      </trkpt>
      <trkpt lat="47.26842" lon="-2.32799">
        <ele>3.2000000476837</ele>
        <time>2019-08-15T07:11:36.000Z</time>
      </trkpt>
      <trkpt lat="47.26841" lon="-2.32794">
        <ele>3.5999999046326</ele>
        <time>2019-08-15T07:11:37.000Z</time>
      </trkpt>
      <trkpt lat="47.2684" lon="-2.3279">
        <ele>3.5999999046326</ele>
        <time>2019-08-15T07:11:38.000Z</time>
      </trkpt>
      <trkpt lat="47.26838" lon="-2.32785">
        <ele>4</ele>
        <time>2019-08-15T07:11:39.000Z</time>
      </trkpt>
      <trkpt lat="47.26837" lon="-2.3278">
        <ele>4.4000000953674</ele>
        <time>2019-08-15T07:11:40.000Z</time>
      </trkpt>
      <trkpt lat="47.26836" lon="-2.32776">
        <ele>4.8000001907349</ele>
        <time>2019-08-15T07:11:41.000Z</time>
      </trkpt>
      <trkpt lat="47.26835" lon="-2.32772">
        <ele>5.4000000953674</ele>
        <time>2019-08-15T07:11:42.000Z</time>
      </trkpt>
      <trkpt lat="47.26833" lon="-2.32768">
        <ele>5.8000001907349</ele>
        <time>2019-08-15T07:11:43.000Z</time>
      </trkpt>
      <trkpt lat="47.2683" lon="-2.3276">
        <ele>6.1999998092651</ele>
        <time>2019-08-15T07:11:45.000Z</time>
      </trkpt>
      <trkpt lat="47.26828" lon="-2.32756">
        <ele>6.5999999046326</ele>
        <time>2019-08-15T07:11:46.000Z</time>
      </trkpt>
      <trkpt lat="47.26827" lon="-2.32751">
        <ele>7</ele>
        <time>2019-08-15T07:11:47.000Z</time>
      </trkpt>
      <trkpt lat="47.26825" lon="-2.32748">
        <ele>7.4000000953674</ele>
        <time>2019-08-15T07:11:48.000Z</time>
      </trkpt>
      <trkpt lat="47.26823" lon="-2.32745">
        <ele>7.8000001907349</ele>
        <time>2019-08-15T07:11:49.000Z</time>
      </trkpt>
      <trkpt lat="47.26818" lon="-2.32731">
        <ele>8.6000003814697</ele>
        <time>2019-08-15T07:11:52.000Z</time>
      </trkpt>
      <trkpt lat="47.26816" lon="-2.32727">
        <ele>9.1999998092651</ele>
        <time>2019-08-15T07:11:53.000Z</time>
      </trkpt>
      <trkpt lat="47.26814" lon="-2.32723">
        <ele>9.6000003814697</ele>
        <time>2019-08-15T07:11:54.000Z</time>
      </trkpt>
      <trkpt lat="47.26813" lon="-2.32718">
        <ele>10</ele>
        <time>2019-08-15T07:11:55.000Z</time>
      </trkpt>
      <trkpt lat="47.26808" lon="-2.32708">
        <ele>10</ele>
        <time>2019-08-15T07:11:58.000Z</time>
      </trkpt>
      <trkpt lat="47.26801" lon="-2.32684">
        <ele>10</ele>
        <time>2019-08-15T07:12:04.000Z</time>
      </trkpt>
      <trkpt lat="47.26803" lon="-2.32675">
        <ele>10</ele>
        <time>2019-08-15T07:12:06.000Z</time>
      </trkpt>
      <trkpt lat="47.26807" lon="-2.32668">
        <ele>10</ele>
        <time>2019-08-15T07:12:08.000Z</time>
      </trkpt>
      <trkpt lat="47.26808" lon="-2.32664">
        <ele>10.39999961853</ele>
        <time>2019-08-15T07:12:09.000Z</time>
      </trkpt>
      <trkpt lat="47.26809" lon="-2.32659">
        <ele>10.800000190735</ele>
        <time>2019-08-15T07:12:10.000Z</time>
      </trkpt>
      <trkpt lat="47.2681" lon="-2.32652">
        <ele>11.199999809265</ele>
        <time>2019-08-15T07:12:11.000Z</time>
      </trkpt>
      <trkpt lat="47.26809" lon="-2.32645">
        <ele>11.60000038147</ele>
        <time>2019-08-15T07:12:12.000Z</time>
      </trkpt>
      <trkpt lat="47.26809" lon="-2.32638">
        <ele>12</ele>
        <time>2019-08-15T07:12:13.000Z</time>
      </trkpt>
      <trkpt lat="47.26807" lon="-2.32626">
        <ele>12</ele>
        <time>2019-08-15T07:12:15.000Z</time>
      </trkpt>
      <trkpt lat="47.26805" lon="-2.32613">
        <ele>12</ele>
        <time>2019-08-15T07:12:17.000Z</time>
      </trkpt>
      <trkpt lat="47.26799" lon="-2.32564">
        <ele>12</ele>
        <time>2019-08-15T07:12:25.000Z</time>
      </trkpt>
      <trkpt lat="47.26796" lon="-2.32525">
        <ele>12</ele>
        <time>2019-08-15T07:12:31.000Z</time>
      </trkpt>
      <trkpt lat="47.26794" lon="-2.3249">
        <ele>12</ele>
        <time>2019-08-15T07:12:37.000Z</time>
      </trkpt>
      <trkpt lat="47.2679" lon="-2.32458">
        <ele>12</ele>
        <time>2019-08-15T07:12:43.000Z</time>
      </trkpt>
      <trkpt lat="47.26786" lon="-2.32421">
        <ele>12</ele>
        <time>2019-08-15T07:12:51.000Z</time>
      </trkpt>
      <trkpt lat="47.26784" lon="-2.32412">
        <ele>12</ele>
        <time>2019-08-15T07:12:56.000Z</time>
      </trkpt>
      <trkpt lat="47.26783" lon="-2.32409">
        <ele>12</ele>
        <time>2019-08-15T07:13:56.000Z</time>
      </trkpt>
      <trkpt lat="47.26784" lon="-2.32407">
        <ele>12</ele>
        <time>2019-08-15T07:13:57.000Z</time>
      </trkpt>
      <trkpt lat="47.26783" lon="-2.32404">
        <ele>12</ele>
        <time>2019-08-15T07:13:58.000Z</time>
      </trkpt>
      <trkpt lat="47.26781" lon="-2.32388">
        <ele>12</ele>
        <time>2019-08-15T07:14:02.000Z</time>
      </trkpt>
      <trkpt lat="47.26784" lon="-2.32371">
        <ele>12</ele>
        <time>2019-08-15T07:14:06.000Z</time>
      </trkpt>
      <trkpt lat="47.26787" lon="-2.32369">
        <ele>12</ele>
        <time>2019-08-15T07:14:07.000Z</time>
      </trkpt>
      <trkpt lat="47.268" lon="-2.32364">
        <ele>12</ele>
        <time>2019-08-15T07:14:10.000Z</time>
      </trkpt>
      <trkpt lat="47.26805" lon="-2.32363">
        <ele>12</ele>
        <time>2019-08-15T07:14:11.000Z</time>
      </trkpt>
      <trkpt lat="47.26836" lon="-2.32354">
        <ele>12</ele>
        <time>2019-08-15T07:14:16.000Z</time>
      </trkpt>
      <trkpt lat="47.2685" lon="-2.3235">
        <ele>11.60000038147</ele>
        <time>2019-08-15T07:14:18.000Z</time>
      </trkpt>
      <trkpt lat="47.26859" lon="-2.32348">
        <ele>11</ele>
        <time>2019-08-15T07:14:19.000Z</time>
      </trkpt>
      <trkpt lat="47.26867" lon="-2.32346">
        <ele>10.60000038147</ele>
        <time>2019-08-15T07:14:20.000Z</time>
      </trkpt>
      <trkpt lat="47.26875" lon="-2.32343">
        <ele>9.6000003814697</ele>
        <time>2019-08-15T07:14:21.000Z</time>
      </trkpt>
      <trkpt lat="47.26883" lon="-2.32341">
        <ele>9</ele>
        <time>2019-08-15T07:14:22.000Z</time>
      </trkpt>
      <trkpt lat="47.26892" lon="-2.32339">
        <ele>8.6000003814697</ele>
        <time>2019-08-15T07:14:23.000Z</time>
      </trkpt>
      <trkpt lat="47.26899" lon="-2.32337">
        <ele>8</ele>
        <time>2019-08-15T07:14:24.000Z</time>
      </trkpt>
      <trkpt lat="47.26905" lon="-2.32336">
        <ele>7.5999999046326</ele>
        <time>2019-08-15T07:14:25.000Z</time>
      </trkpt>
      <trkpt lat="47.26911" lon="-2.32335">
        <ele>7</ele>
        <time>2019-08-15T07:14:26.000Z</time>
      </trkpt>
      <trkpt lat="47.26916" lon="-2.32332">
        <ele>6.4000000953674</ele>
        <time>2019-08-15T07:14:27.000Z</time>
      </trkpt>
      <trkpt lat="47.2692" lon="-2.32327">
        <ele>5.8000001907349</ele>
        <time>2019-08-15T07:14:28.000Z</time>
      </trkpt>
      <trkpt lat="47.2692" lon="-2.32321">
        <ele>5.4000000953674</ele>
        <time>2019-08-15T07:14:29.000Z</time>
      </trkpt>
      <trkpt lat="47.26919" lon="-2.32314">
        <ele>4.8000001907349</ele>
        <time>2019-08-15T07:14:30.000Z</time>
      </trkpt>
      <trkpt lat="47.26911" lon="-2.32294">
        <ele>4.8000001907349</ele>
        <time>2019-08-15T07:14:33.000Z</time>
      </trkpt>
      <trkpt lat="47.26909" lon="-2.32287">
        <ele>4.8000001907349</ele>
        <time>2019-08-15T07:14:34.000Z</time>
      </trkpt>
      <trkpt lat="47.26892" lon="-2.32252">
        <ele>4.8000001907349</ele>
        <time>2019-08-15T07:14:40.000Z</time>
      </trkpt>
      <trkpt lat="47.26871" lon="-2.32214">
        <ele>4.8000001907349</ele>
        <time>2019-08-15T07:14:47.000Z</time>
      </trkpt>
      <trkpt lat="47.26861" lon="-2.32195">
        <ele>4.8000001907349</ele>
        <time>2019-08-15T07:14:50.000Z</time>
      </trkpt>
      <trkpt lat="47.26858" lon="-2.32189">
        <ele>5.1999998092651</ele>
        <time>2019-08-15T07:14:51.000Z</time>
      </trkpt>
      <trkpt lat="47.26855" lon="-2.32182">
        <ele>5.5999999046326</ele>
        <time>2019-08-15T07:14:52.000Z</time>
      </trkpt>
      <trkpt lat="47.26852" lon="-2.32176">
        <ele>6</ele>
        <time>2019-08-15T07:14:53.000Z</time>
      </trkpt>
      <trkpt lat="47.2685" lon="-2.32169">
        <ele>6.4000000953674</ele>
        <time>2019-08-15T07:14:54.000Z</time>
      </trkpt>
      <trkpt lat="47.26848" lon="-2.32163">
        <ele>6.8000001907349</ele>
        <time>2019-08-15T07:14:55.000Z</time>
      </trkpt>
      <trkpt lat="47.26846" lon="-2.32155">
        <ele>6.8000001907349</ele>
        <time>2019-08-15T07:14:56.000Z</time>
      </trkpt>
      <trkpt lat="47.26844" lon="-2.32149">
        <ele>6.8000001907349</ele>
        <time>2019-08-15T07:14:57.000Z</time>
      </trkpt>
      <trkpt lat="47.26829" lon="-2.32096">
        <ele>6.8000001907349</ele>
        <time>2019-08-15T07:15:05.000Z</time>
      </trkpt>
      <trkpt lat="47.26826" lon="-2.32084">
        <ele>7.4000000953674</ele>
        <time>2019-08-15T07:15:07.000Z</time>
      </trkpt>
      <trkpt lat="47.26824" lon="-2.32077">
        <ele>7.8000001907349</ele>
        <time>2019-08-15T07:15:08.000Z</time>
      </trkpt>
      <trkpt lat="47.26822" lon="-2.3207">
        <ele>8.1999998092651</ele>
        <time>2019-08-15T07:15:09.000Z</time>
      </trkpt>
      <trkpt lat="47.2682" lon="-2.32064">
        <ele>9</ele>
        <time>2019-08-15T07:15:10.000Z</time>
      </trkpt>
      <trkpt lat="47.26817" lon="-2.32051">
        <ele>9</ele>
        <time>2019-08-15T07:15:12.000Z</time>
      </trkpt>
      <trkpt lat="47.26815" lon="-2.32045">
        <ele>9</ele>
        <time>2019-08-15T07:15:13.000Z</time>
      </trkpt>
      <trkpt lat="47.26808" lon="-2.3202">
        <ele>9</ele>
        <time>2019-08-15T07:15:17.000Z</time>
      </trkpt>
      <trkpt lat="47.26801" lon="-2.32003">
        <ele>9</ele>
        <time>2019-08-15T07:15:20.000Z</time>
      </trkpt>
      <trkpt lat="47.26798" lon="-2.31998">
        <ele>9</ele>
        <time>2019-08-15T07:15:21.000Z</time>
      </trkpt>
      <trkpt lat="47.26787" lon="-2.31979">
        <ele>9.3999996185303</ele>
        <time>2019-08-15T07:15:25.000Z</time>
      </trkpt>
      <trkpt lat="47.26785" lon="-2.31975">
        <ele>9.8000001907349</ele>
        <time>2019-08-15T07:15:26.000Z</time>
      </trkpt>
      <trkpt lat="47.26782" lon="-2.31971">
        <ele>10.39999961853</ele>
        <time>2019-08-15T07:15:27.000Z</time>
      </trkpt>
      <trkpt lat="47.2678" lon="-2.31967">
        <ele>10.800000190735</ele>
        <time>2019-08-15T07:15:28.000Z</time>
      </trkpt>
      <trkpt lat="47.26777" lon="-2.31963">
        <ele>11.199999809265</ele>
        <time>2019-08-15T07:15:29.000Z</time>
      </trkpt>
      <trkpt lat="47.2677" lon="-2.31953">
        <ele>11.199999809265</ele>
        <time>2019-08-15T07:15:32.000Z</time>
      </trkpt>
      <trkpt lat="47.26766" lon="-2.31944">
        <ele>11.199999809265</ele>
        <time>2019-08-15T07:15:36.000Z</time>
      </trkpt>
      <trkpt lat="47.26763" lon="-2.31942">
        <ele>11.199999809265</ele>
        <time>2019-08-15T07:15:38.000Z</time>
      </trkpt>
      <trkpt lat="47.26763" lon="-2.31942">
        <ele>11.199999809265</ele>
        <time>2019-08-15T07:15:40.000Z</time>
      </trkpt>
      <trkpt lat="47.26762" lon="-2.31945">
        <ele>11.199999809265</ele>
        <time>2019-08-15T07:15:42.000Z</time>
      </trkpt>
      <trkpt lat="47.26756" lon="-2.31958">
        <ele>11.60000038147</ele>
        <time>2019-08-15T07:15:47.000Z</time>
      </trkpt>
      <trkpt lat="47.26754" lon="-2.31962">
        <ele>12</ele>
        <time>2019-08-15T07:15:48.000Z</time>
      </trkpt>
      <trkpt lat="47.26753" lon="-2.31965">
        <ele>12.39999961853</ele>
        <time>2019-08-15T07:15:49.000Z</time>
      </trkpt>
      <trkpt lat="47.26752" lon="-2.31967">
        <ele>12.800000190735</ele>
        <time>2019-08-15T07:15:50.000Z</time>
      </trkpt>
      <trkpt lat="47.2675" lon="-2.3197">
        <ele>13.199999809265</ele>
        <time>2019-08-15T07:15:51.000Z</time>
      </trkpt>
      <trkpt lat="47.26743" lon="-2.31977">
        <ele>13.199999809265</ele>
        <time>2019-08-15T07:15:54.000Z</time>
      </trkpt>
      <trkpt lat="47.26727" lon="-2.31992">
        <ele>13.199999809265</ele>
        <time>2019-08-15T07:16:00.000Z</time>
      </trkpt>
      <trkpt lat="47.26715" lon="-2.31997">
        <ele>13.199999809265</ele>
        <time>2019-08-15T07:16:05.000Z</time>
      </trkpt>
      <trkpt lat="47.26707" lon="-2.32003">
        <ele>13.800000190735</ele>
        <time>2019-08-15T07:16:08.000Z</time>
      </trkpt>
      <trkpt lat="47.26706" lon="-2.32006">
        <ele>14.199999809265</ele>
        <time>2019-08-15T07:16:09.000Z</time>
      </trkpt>
      <trkpt lat="47.26704" lon="-2.32009">
        <ele>14.60000038147</ele>
        <time>2019-08-15T07:16:10.000Z</time>
      </trkpt>
      <trkpt lat="47.26703" lon="-2.32011">
        <ele>15</ele>
        <time>2019-08-15T07:16:11.000Z</time>
      </trkpt>
      <trkpt lat="47.26701" lon="-2.32013">
        <ele>15.39999961853</ele>
        <time>2019-08-15T07:16:12.000Z</time>
      </trkpt>
      <trkpt lat="47.26695" lon="-2.32024">
        <ele>15.39999961853</ele>
        <time>2019-08-15T07:16:15.000Z</time>
      </trkpt>
      <trkpt lat="47.26689" lon="-2.32045">
        <ele>15.39999961853</ele>
        <time>2019-08-15T07:16:20.000Z</time>
      </trkpt>
      <trkpt lat="47.26687" lon="-2.32081">
        <ele>15.39999961853</ele>
        <time>2019-08-15T07:16:27.000Z</time>
      </trkpt>
      <trkpt lat="47.26685" lon="-2.32108">
        <ele>15.39999961853</ele>
        <time>2019-08-15T07:16:33.000Z</time>
      </trkpt>
      <trkpt lat="47.26676" lon="-2.32123">
        <ele>15.39999961853</ele>
        <time>2019-08-15T07:16:38.000Z</time>
      </trkpt>
      <trkpt lat="47.26672" lon="-2.32112">
        <ele>15.39999961853</ele>
        <time>2019-08-15T07:16:41.000Z</time>
      </trkpt>
      <trkpt lat="47.26666" lon="-2.32083">
        <ele>15.39999961853</ele>
        <time>2019-08-15T07:16:46.000Z</time>
      </trkpt>
      <trkpt lat="47.26654" lon="-2.32034">
        <ele>15.39999961853</ele>
        <time>2019-08-15T07:16:54.000Z</time>
      </trkpt>
      <trkpt lat="47.2665" lon="-2.32015">
        <ele>15.39999961853</ele>
        <time>2019-08-15T07:16:57.000Z</time>
      </trkpt>
      <trkpt lat="47.26646" lon="-2.32005">
        <ele>15.39999961853</ele>
        <time>2019-08-15T07:16:59.000Z</time>
      </trkpt>
      <trkpt lat="47.26641" lon="-2.32005">
        <ele>15.39999961853</ele>
        <time>2019-08-15T07:17:00.000Z</time>
      </trkpt>
      <trkpt lat="47.26626" lon="-2.32011">
        <ele>15.39999961853</ele>
        <time>2019-08-15T07:17:04.000Z</time>
      </trkpt>
      <trkpt lat="47.26594" lon="-2.32021">
        <ele>15.39999961853</ele>
        <time>2019-08-15T07:17:11.000Z</time>
      </trkpt>
      <trkpt lat="47.26559" lon="-2.32036">
        <ele>15.39999961853</ele>
        <time>2019-08-15T07:17:18.000Z</time>
      </trkpt>
      <trkpt lat="47.26551" lon="-2.32039">
        <ele>15.39999961853</ele>
        <time>2019-08-15T07:17:22.000Z</time>
      </trkpt>
      <trkpt lat="47.26546" lon="-2.32037">
        <ele>15.39999961853</ele>
        <time>2019-08-15T07:17:25.000Z</time>
      </trkpt>
      <trkpt lat="47.26544" lon="-2.32031">
        <ele>15</ele>
        <time>2019-08-15T07:17:27.000Z</time>
      </trkpt>
      <trkpt lat="47.26543" lon="-2.32028">
        <ele>14.60000038147</ele>
        <time>2019-08-15T07:17:28.000Z</time>
      </trkpt>
      <trkpt lat="47.26543" lon="-2.32024">
        <ele>14</ele>
        <time>2019-08-15T07:17:29.000Z</time>
      </trkpt>
      <trkpt lat="47.26541" lon="-2.3202">
        <ele>13.60000038147</ele>
        <time>2019-08-15T07:17:30.000Z</time>
      </trkpt>
      <trkpt lat="47.2654" lon="-2.32017">
        <ele>13.199999809265</ele>
        <time>2019-08-15T07:17:31.000Z</time>
      </trkpt>
      <trkpt lat="47.26538" lon="-2.32013">
        <ele>13.199999809265</ele>
        <time>2019-08-15T07:17:33.000Z</time>
      </trkpt>
      <trkpt lat="47.2653" lon="-2.32004">
        <ele>13.199999809265</ele>
        <time>2019-08-15T07:17:36.000Z</time>
      </trkpt>
      <trkpt lat="47.26527" lon="-2.32002">
        <ele>13.199999809265</ele>
        <time>2019-08-15T07:17:37.000Z</time>
      </trkpt>
      <trkpt lat="47.26515" lon="-2.32">
        <ele>12.800000190735</ele>
        <time>2019-08-15T07:17:41.000Z</time>
      </trkpt>
      <trkpt lat="47.26509" lon="-2.32002">
        <ele>12.39999961853</ele>
        <time>2019-08-15T07:17:42.000Z</time>
      </trkpt>
      <trkpt lat="47.26503" lon="-2.32003">
        <ele>12</ele>
        <time>2019-08-15T07:17:43.000Z</time>
      </trkpt>
      <trkpt lat="47.26497" lon="-2.32003">
        <ele>11.60000038147</ele>
        <time>2019-08-15T07:17:44.000Z</time>
      </trkpt>
      <trkpt lat="47.2649" lon="-2.32002">
        <ele>11.199999809265</ele>
        <time>2019-08-15T07:17:45.000Z</time>
      </trkpt>
      <trkpt lat="47.26485" lon="-2.32001">
        <ele>11.199999809265</ele>
        <time>2019-08-15T07:17:46.000Z</time>
      </trkpt>
      <trkpt lat="47.26478" lon="-2.32001">
        <ele>10.60000038147</ele>
        <time>2019-08-15T07:17:47.000Z</time>
      </trkpt>
      <trkpt lat="47.26472" lon="-2.32002">
        <ele>10.199999809265</ele>
        <time>2019-08-15T07:17:48.000Z</time>
      </trkpt>
      <trkpt lat="47.26465" lon="-2.32003">
        <ele>9.8000001907349</ele>
        <time>2019-08-15T07:17:49.000Z</time>
      </trkpt>
      <trkpt lat="47.26459" lon="-2.32003">
        <ele>9.3999996185303</ele>
        <time>2019-08-15T07:17:50.000Z</time>
      </trkpt>
      <trkpt lat="47.26452" lon="-2.32003">
        <ele>9</ele>
        <time>2019-08-15T07:17:51.000Z</time>
      </trkpt>
      <trkpt lat="47.26445" lon="-2.32002">
        <ele>9</ele>
        <time>2019-08-15T07:17:52.000Z</time>
      </trkpt>
      <trkpt lat="47.26438" lon="-2.32001">
        <ele>8.6000003814697</ele>
        <time>2019-08-15T07:17:53.000Z</time>
      </trkpt>
      <trkpt lat="47.26431" lon="-2.31999">
        <ele>8.1999998092651</ele>
        <time>2019-08-15T07:17:54.000Z</time>
      </trkpt>
      <trkpt lat="47.26424" lon="-2.31999">
        <ele>7.8000001907349</ele>
        <time>2019-08-15T07:17:55.000Z</time>
      </trkpt>
      <trkpt lat="47.26417" lon="-2.31998">
        <ele>7.4000000953674</ele>
        <time>2019-08-15T07:17:56.000Z</time>
      </trkpt>
      <trkpt lat="47.26411" lon="-2.31995">
        <ele>7</ele>
        <time>2019-08-15T07:17:57.000Z</time>
      </trkpt>
      <trkpt lat="47.26404" lon="-2.31993">
        <ele>7</ele>
        <time>2019-08-15T07:17:58.000Z</time>
      </trkpt>
      <trkpt lat="47.26397" lon="-2.31993">
        <ele>6.4000000953674</ele>
        <time>2019-08-15T07:17:59.000Z</time>
      </trkpt>
      <trkpt lat="47.2639" lon="-2.31991">
        <ele>6</ele>
        <time>2019-08-15T07:18:00.000Z</time>
      </trkpt>
      <trkpt lat="47.26384" lon="-2.31991">
        <ele>5.4000000953674</ele>
        <time>2019-08-15T07:18:01.000Z</time>
      </trkpt>
      <trkpt lat="47.26379" lon="-2.31991">
        <ele>4.4000000953674</ele>
        <time>2019-08-15T07:18:02.000Z</time>
      </trkpt>
      <trkpt lat="47.26374" lon="-2.3199">
        <ele>4</ele>
        <time>2019-08-15T07:18:03.000Z</time>
      </trkpt>
      <trkpt lat="47.26369" lon="-2.31989">
        <ele>3.4000000953674</ele>
        <time>2019-08-15T07:18:04.000Z</time>
      </trkpt>
      <trkpt lat="47.26366" lon="-2.31985">
        <ele>3</ele>
        <time>2019-08-15T07:18:05.000Z</time>
      </trkpt>
      <trkpt lat="47.26363" lon="-2.31978">
        <ele>2.4000000953674</ele>
        <time>2019-08-15T07:18:06.000Z</time>
      </trkpt>
      <trkpt lat="47.26356" lon="-2.31957">
        <ele>2.4000000953674</ele>
        <time>2019-08-15T07:18:09.000Z</time>
      </trkpt>
      <trkpt lat="47.26353" lon="-2.3195">
        <ele>2</ele>
        <time>2019-08-15T07:18:10.000Z</time>
      </trkpt>
      <trkpt lat="47.2635" lon="-2.31944">
        <ele>1.6000000238419</ele>
        <time>2019-08-15T07:18:11.000Z</time>
      </trkpt>
      <trkpt lat="47.26345" lon="-2.31939">
        <ele>1</ele>
        <time>2019-08-15T07:18:12.000Z</time>
      </trkpt>
      <trkpt lat="47.2634" lon="-2.31939">
        <ele>0.60000002384186</ele>
        <time>2019-08-15T07:18:13.000Z</time>
      </trkpt>
      <trkpt lat="47.26334" lon="-2.31938">
        <ele>0.20000000298023</ele>
        <time>2019-08-15T07:18:14.000Z</time>
      </trkpt>
      <trkpt lat="47.26329" lon="-2.31937">
        <ele>0.20000000298023</ele>
        <time>2019-08-15T07:18:15.000Z</time>
      </trkpt>
      <trkpt lat="47.2632" lon="-2.31936">
        <ele>0.20000000298023</ele>
        <time>2019-08-15T07:18:17.000Z</time>
      </trkpt>
      <trkpt lat="47.26311" lon="-2.31935">
        <ele>0.20000000298023</ele>
        <time>2019-08-15T07:18:20.000Z</time>
      </trkpt>
      <trkpt lat="47.26307" lon="-2.31918">
        <ele>0.20000000298023</ele>
        <time>2019-08-15T07:18:23.000Z</time>
      </trkpt>
      <trkpt lat="47.26306" lon="-2.31885">
        <ele>0.20000000298023</ele>
        <time>2019-08-15T07:18:27.000Z</time>
      </trkpt>
      <trkpt lat="47.26306" lon="-2.31837">
        <ele>0.20000000298023</ele>
        <time>2019-08-15T07:18:33.000Z</time>
      </trkpt>
      <trkpt lat="47.26306" lon="-2.3183">
        <ele>0.20000000298023</ele>
        <time>2019-08-15T07:18:34.000Z</time>
      </trkpt>
      <trkpt lat="47.26307" lon="-2.31809">
        <ele>0.20000000298023</ele>
        <time>2019-08-15T07:18:37.000Z</time>
      </trkpt>
      <trkpt lat="47.26308" lon="-2.31794">
        <ele>0.20000000298023</ele>
        <time>2019-08-15T07:18:39.000Z</time>
      </trkpt>
      <trkpt lat="47.26306" lon="-2.31774">
        <ele>0.20000000298023</ele>
        <time>2019-08-15T07:18:42.000Z</time>
      </trkpt>
      <trkpt lat="47.26301" lon="-2.31732">
        <ele>0.20000000298023</ele>
        <time>2019-08-15T07:18:48.000Z</time>
      </trkpt>
      <trkpt lat="47.26304" lon="-2.31722">
        <ele>0.20000000298023</ele>
        <time>2019-08-15T07:18:50.000Z</time>
      </trkpt>
      <trkpt lat="47.26307" lon="-2.31719">
        <ele>0.20000000298023</ele>
        <time>2019-08-15T07:18:51.000Z</time>
      </trkpt>
      <trkpt lat="47.26327" lon="-2.31707">
        <ele>0.20000000298023</ele>
        <time>2019-08-15T07:18:57.000Z</time>
      </trkpt>
      <trkpt lat="47.26345" lon="-2.31697">
        <ele>0.20000000298023</ele>
        <time>2019-08-15T07:19:02.000Z</time>
      </trkpt>
      <trkpt lat="47.26353" lon="-2.31692">
        <ele>0.20000000298023</ele>
        <time>2019-08-15T07:19:04.000Z</time>
      </trkpt>
      <trkpt lat="47.26364" lon="-2.31684">
        <ele>0.20000000298023</ele>
        <time>2019-08-15T07:19:07.000Z</time>
      </trkpt>
      <trkpt lat="47.26375" lon="-2.31676">
        <ele>0.60000002384186</ele>
        <time>2019-08-15T07:19:10.000Z</time>
      </trkpt>
      <trkpt lat="47.26379" lon="-2.31673">
        <ele>1</ele>
        <time>2019-08-15T07:19:11.000Z</time>
      </trkpt>
      <trkpt lat="47.26383" lon="-2.31671">
        <ele>1.3999999761581</ele>
        <time>2019-08-15T07:19:12.000Z</time>
      </trkpt>
      <trkpt lat="47.26387" lon="-2.3167">
        <ele>1.7999999523163</ele>
        <time>2019-08-15T07:19:13.000Z</time>
      </trkpt>
      <trkpt lat="47.26392" lon="-2.31667">
        <ele>2.2000000476837</ele>
        <time>2019-08-15T07:19:14.000Z</time>
      </trkpt>
      <trkpt lat="47.26396" lon="-2.31666">
        <ele>2.2000000476837</ele>
        <time>2019-08-15T07:19:15.000Z</time>
      </trkpt>
      <trkpt lat="47.26411" lon="-2.31657">
        <ele>2.2000000476837</ele>
        <time>2019-08-15T07:19:19.000Z</time>
      </trkpt>
      <trkpt lat="47.26429" lon="-2.31653">
        <ele>2.2000000476837</ele>
        <time>2019-08-15T07:19:23.000Z</time>
      </trkpt>
      <trkpt lat="47.26433" lon="-2.31651">
        <ele>2.5999999046326</ele>
        <time>2019-08-15T07:19:24.000Z</time>
      </trkpt>
      <trkpt lat="47.26436" lon="-2.31651">
        <ele>3.2000000476837</ele>
        <time>2019-08-15T07:19:25.000Z</time>
      </trkpt>
      <trkpt lat="47.2644" lon="-2.3165">
        <ele>3.5999999046326</ele>
        <time>2019-08-15T07:19:26.000Z</time>
      </trkpt>
      <trkpt lat="47.26445" lon="-2.31649">
        <ele>4</ele>
        <time>2019-08-15T07:19:27.000Z</time>
      </trkpt>
      <trkpt lat="47.26449" lon="-2.31648">
        <ele>4.4000000953674</ele>
        <time>2019-08-15T07:19:28.000Z</time>
      </trkpt>
      <trkpt lat="47.26458" lon="-2.31646">
        <ele>4.4000000953674</ele>
        <time>2019-08-15T07:19:30.000Z</time>
      </trkpt>
      <trkpt lat="47.26485" lon="-2.31641">
        <ele>4.8000001907349</ele>
        <time>2019-08-15T07:19:36.000Z</time>
      </trkpt>
      <trkpt lat="47.2649" lon="-2.3164">
        <ele>5.1999998092651</ele>
        <time>2019-08-15T07:19:37.000Z</time>
      </trkpt>
      <trkpt lat="47.26495" lon="-2.31638">
        <ele>5.5999999046326</ele>
        <time>2019-08-15T07:19:38.000Z</time>
      </trkpt>
      <trkpt lat="47.26499" lon="-2.31637">
        <ele>6</ele>
        <time>2019-08-15T07:19:39.000Z</time>
      </trkpt>
      <trkpt lat="47.26503" lon="-2.31635">
        <ele>6.4000000953674</ele>
        <time>2019-08-15T07:19:40.000Z</time>
      </trkpt>
      <trkpt lat="47.26521" lon="-2.31627">
        <ele>6.8000001907349</ele>
        <time>2019-08-15T07:19:44.000Z</time>
      </trkpt>
      <trkpt lat="47.26525" lon="-2.31624">
        <ele>7.1999998092651</ele>
        <time>2019-08-15T07:19:45.000Z</time>
      </trkpt>
      <trkpt lat="47.2653" lon="-2.31622">
        <ele>7.5999999046326</ele>
        <time>2019-08-15T07:19:46.000Z</time>
      </trkpt>
      <trkpt lat="47.26534" lon="-2.3162">
        <ele>8</ele>
        <time>2019-08-15T07:19:47.000Z</time>
      </trkpt>
      <trkpt lat="47.26538" lon="-2.31617">
        <ele>8.3999996185303</ele>
        <time>2019-08-15T07:19:48.000Z</time>
      </trkpt>
      <trkpt lat="47.26553" lon="-2.31608">
        <ele>9</ele>
        <time>2019-08-15T07:19:52.000Z</time>
      </trkpt>
      <trkpt lat="47.26556" lon="-2.31606">
        <ele>9.3999996185303</ele>
        <time>2019-08-15T07:19:53.000Z</time>
      </trkpt>
      <trkpt lat="47.26558" lon="-2.31604">
        <ele>9.8000001907349</ele>
        <time>2019-08-15T07:19:54.000Z</time>
      </trkpt>
      <trkpt lat="47.26561" lon="-2.31602">
        <ele>10.199999809265</ele>
        <time>2019-08-15T07:19:55.000Z</time>
      </trkpt>
      <trkpt lat="47.26564" lon="-2.316">
        <ele>10.60000038147</ele>
        <time>2019-08-15T07:19:56.000Z</time>
      </trkpt>
      <trkpt lat="47.26582" lon="-2.31586">
        <ele>11</ele>
        <time>2019-08-15T07:20:02.000Z</time>
      </trkpt>
      <trkpt lat="47.26585" lon="-2.31584">
        <ele>11.39999961853</ele>
        <time>2019-08-15T07:20:03.000Z</time>
      </trkpt>
      <trkpt lat="47.26588" lon="-2.31582">
        <ele>11.800000190735</ele>
        <time>2019-08-15T07:20:04.000Z</time>
      </trkpt>
      <trkpt lat="47.26591" lon="-2.3158">
        <ele>12.60000038147</ele>
        <time>2019-08-15T07:20:05.000Z</time>
      </trkpt>
      <trkpt lat="47.26604" lon="-2.31573">
        <ele>13</ele>
        <time>2019-08-15T07:20:10.000Z</time>
      </trkpt>
      <trkpt lat="47.26607" lon="-2.31572">
        <ele>13.39999961853</ele>
        <time>2019-08-15T07:20:11.000Z</time>
      </trkpt>
      <trkpt lat="47.2661" lon="-2.3157">
        <ele>14</ele>
        <time>2019-08-15T07:20:12.000Z</time>
      </trkpt>
      <trkpt lat="47.26612" lon="-2.31568">
        <ele>14.39999961853</ele>
        <time>2019-08-15T07:20:13.000Z</time>
      </trkpt>
      <trkpt lat="47.26614" lon="-2.31566">
        <ele>14.800000190735</ele>
        <time>2019-08-15T07:20:14.000Z</time>
      </trkpt>
      <trkpt lat="47.26618" lon="-2.31562">
        <ele>14.800000190735</ele>
        <time>2019-08-15T07:20:16.000Z</time>
      </trkpt>
      <trkpt lat="47.26626" lon="-2.31551">
        <ele>15.199999809265</ele>
        <time>2019-08-15T07:20:21.000Z</time>
      </trkpt>
      <trkpt lat="47.26628" lon="-2.31549">
        <ele>15.60000038147</ele>
        <time>2019-08-15T07:20:22.000Z</time>
      </trkpt>
      <trkpt lat="47.2663" lon="-2.31547">
        <ele>16.200000762939</ele>
        <time>2019-08-15T07:20:23.000Z</time>
      </trkpt>
      <trkpt lat="47.2663" lon="-2.31545">
        <ele>16.60000038147</ele>
        <time>2019-08-15T07:20:24.000Z</time>
      </trkpt>
      <trkpt lat="47.2663" lon="-2.31542">
        <ele>17</ele>
        <time>2019-08-15T07:20:25.000Z</time>
      </trkpt>
      <trkpt lat="47.26627" lon="-2.31529">
        <ele>17</ele>
        <time>2019-08-15T07:20:28.000Z</time>
      </trkpt>
      <trkpt lat="47.26616" lon="-2.31504">
        <ele>17</ele>
        <time>2019-08-15T07:20:34.000Z</time>
      </trkpt>
      <trkpt lat="47.26612" lon="-2.31492">
        <ele>17</ele>
        <time>2019-08-15T07:20:37.000Z</time>
      </trkpt>
      <trkpt lat="47.26612" lon="-2.31486">
        <ele>17.39999961853</ele>
        <time>2019-08-15T07:20:39.000Z</time>
      </trkpt>
      <trkpt lat="47.26613" lon="-2.31484">
        <ele>17.799999237061</ele>
        <time>2019-08-15T07:20:40.000Z</time>
      </trkpt>
      <trkpt lat="47.26615" lon="-2.31483">
        <ele>18.200000762939</ele>
        <time>2019-08-15T07:20:41.000Z</time>
      </trkpt>
      <trkpt lat="47.26617" lon="-2.31482">
        <ele>18.60000038147</ele>
        <time>2019-08-15T07:20:42.000Z</time>
      </trkpt>
      <trkpt lat="47.2662" lon="-2.31478">
        <ele>19</ele>
        <time>2019-08-15T07:20:43.000Z</time>
      </trkpt>
      <trkpt lat="47.26623" lon="-2.31473">
        <ele>19</ele>
        <time>2019-08-15T07:20:44.000Z</time>
      </trkpt>
      <trkpt lat="47.26642" lon="-2.31453">
        <ele>19</ele>
        <time>2019-08-15T07:20:50.000Z</time>
      </trkpt>
      <trkpt lat="47.26649" lon="-2.31446">
        <ele>19.39999961853</ele>
        <time>2019-08-15T07:20:52.000Z</time>
      </trkpt>
      <trkpt lat="47.26652" lon="-2.31443">
        <ele>19.799999237061</ele>
        <time>2019-08-15T07:20:53.000Z</time>
      </trkpt>
      <trkpt lat="47.26656" lon="-2.31441">
        <ele>20.799999237061</ele>
        <time>2019-08-15T07:20:54.000Z</time>
      </trkpt>
      <trkpt lat="47.2666" lon="-2.31438">
        <ele>21.200000762939</ele>
        <time>2019-08-15T07:20:55.000Z</time>
      </trkpt>
      <trkpt lat="47.2669" lon="-2.31421">
        <ele>21.200000762939</ele>
        <time>2019-08-15T07:21:02.000Z</time>
      </trkpt>
      <trkpt lat="47.26694" lon="-2.31418">
        <ele>21.60000038147</ele>
        <time>2019-08-15T07:21:03.000Z</time>
      </trkpt>
      <trkpt lat="47.26698" lon="-2.31416">
        <ele>22</ele>
        <time>2019-08-15T07:21:04.000Z</time>
      </trkpt>
      <trkpt lat="47.26702" lon="-2.31412">
        <ele>22.39999961853</ele>
        <time>2019-08-15T07:21:05.000Z</time>
      </trkpt>
      <trkpt lat="47.26706" lon="-2.31409">
        <ele>22.799999237061</ele>
        <time>2019-08-15T07:21:06.000Z</time>
      </trkpt>
      <trkpt lat="47.2671" lon="-2.31407">
        <ele>23.200000762939</ele>
        <time>2019-08-15T07:21:07.000Z</time>
      </trkpt>
      <trkpt lat="47.26713" lon="-2.31404">
        <ele>23.200000762939</ele>
        <time>2019-08-15T07:21:08.000Z</time>
      </trkpt>
      <trkpt lat="47.26742" lon="-2.31385">
        <ele>23.200000762939</ele>
        <time>2019-08-15T07:21:15.000Z</time>
      </trkpt>
      <trkpt lat="47.2675" lon="-2.3138">
        <ele>23.200000762939</ele>
        <time>2019-08-15T07:21:17.000Z</time>
      </trkpt>
      <trkpt lat="47.26762" lon="-2.31374">
        <ele>23.200000762939</ele>
        <time>2019-08-15T07:21:20.000Z</time>
      </trkpt>
      <trkpt lat="47.26766" lon="-2.31372">
        <ele>23.60000038147</ele>
        <time>2019-08-15T07:21:21.000Z</time>
      </trkpt>
      <trkpt lat="47.2677" lon="-2.3137">
        <ele>24</ele>
        <time>2019-08-15T07:21:22.000Z</time>
      </trkpt>
      <trkpt lat="47.26774" lon="-2.31368">
        <ele>24.39999961853</ele>
        <time>2019-08-15T07:21:23.000Z</time>
      </trkpt>
      <trkpt lat="47.26778" lon="-2.31365">
        <ele>24.799999237061</ele>
        <time>2019-08-15T07:21:24.000Z</time>
      </trkpt>
      <trkpt lat="47.26782" lon="-2.31363">
        <ele>25.200000762939</ele>
        <time>2019-08-15T07:21:25.000Z</time>
      </trkpt>
      <trkpt lat="47.26789" lon="-2.31358">
        <ele>25.200000762939</ele>
        <time>2019-08-15T07:21:27.000Z</time>
      </trkpt>
      <trkpt lat="47.26808" lon="-2.31342">
        <ele>25.200000762939</ele>
        <time>2019-08-15T07:21:33.000Z</time>
      </trkpt>
      <trkpt lat="47.26827" lon="-2.31328">
        <ele>25.200000762939</ele>
        <time>2019-08-15T07:21:39.000Z</time>
      </trkpt>
      <trkpt lat="47.26833" lon="-2.31315">
        <ele>25.200000762939</ele>
        <time>2019-08-15T07:21:42.000Z</time>
      </trkpt>
      <trkpt lat="47.26835" lon="-2.31309">
        <ele>25.200000762939</ele>
        <time>2019-08-15T07:21:43.000Z</time>
      </trkpt>
      <trkpt lat="47.26845" lon="-2.31265">
        <ele>25.200000762939</ele>
        <time>2019-08-15T07:21:50.000Z</time>
      </trkpt>
      <trkpt lat="47.26849" lon="-2.31217">
        <ele>25.200000762939</ele>
        <time>2019-08-15T07:21:57.000Z</time>
      </trkpt>
      <trkpt lat="47.26852" lon="-2.31178">
        <ele>25.200000762939</ele>
        <time>2019-08-15T07:22:03.000Z</time>
      </trkpt>
      <trkpt lat="47.26854" lon="-2.31121">
        <ele>25.200000762939</ele>
        <time>2019-08-15T07:22:11.000Z</time>
      </trkpt>
      <trkpt lat="47.26854" lon="-2.31101">
        <ele>25.200000762939</ele>
        <time>2019-08-15T07:22:14.000Z</time>
      </trkpt>
      <trkpt lat="47.26851" lon="-2.31082">
        <ele>25.200000762939</ele>
        <time>2019-08-15T07:22:17.000Z</time>
      </trkpt>
      <trkpt lat="47.26851" lon="-2.31075">
        <ele>25.200000762939</ele>
        <time>2019-08-15T07:22:18.000Z</time>
      </trkpt>
      <trkpt lat="47.26852" lon="-2.31046">
        <ele>25.200000762939</ele>
        <time>2019-08-15T07:22:22.000Z</time>
      </trkpt>
      <trkpt lat="47.26848" lon="-2.30988">
        <ele>25.200000762939</ele>
        <time>2019-08-15T07:22:29.000Z</time>
      </trkpt>
      <trkpt lat="47.2684" lon="-2.30932">
        <ele>25.200000762939</ele>
        <time>2019-08-15T07:22:36.000Z</time>
      </trkpt>
      <trkpt lat="47.26832" lon="-2.3087">
        <ele>25.200000762939</ele>
        <time>2019-08-15T07:22:44.000Z</time>
      </trkpt>
      <trkpt lat="47.2683" lon="-2.30847">
        <ele>25.200000762939</ele>
        <time>2019-08-15T07:22:47.000Z</time>
      </trkpt>
      <trkpt lat="47.26829" lon="-2.30826">
        <ele>25.200000762939</ele>
        <time>2019-08-15T07:22:50.000Z</time>
      </trkpt>
      <trkpt lat="47.26832" lon="-2.30796">
        <ele>25.200000762939</ele>
        <time>2019-08-15T07:22:55.000Z</time>
      </trkpt>
      <trkpt lat="47.26832" lon="-2.3079">
        <ele>25.200000762939</ele>
        <time>2019-08-15T07:22:57.000Z</time>
      </trkpt>
      <trkpt lat="47.26831" lon="-2.30789">
        <ele>25.200000762939</ele>
        <time>2019-08-15T07:22:58.000Z</time>
      </trkpt>
      <trkpt lat="47.26831" lon="-2.30789">
        <ele>25.200000762939</ele>
        <time>2019-08-15T07:22:59.000Z</time>
      </trkpt>
      <trkpt lat="47.26829" lon="-2.3079">
        <ele>25.200000762939</ele>
        <time>2019-08-15T07:24:35.000Z</time>
      </trkpt>
      <trkpt lat="47.26825" lon="-2.30794">
        <ele>25.200000762939</ele>
        <time>2019-08-15T07:24:37.000Z</time>
      </trkpt>
      <trkpt lat="47.26808" lon="-2.30804">
        <ele>25.200000762939</ele>
        <time>2019-08-15T07:24:42.000Z</time>
      </trkpt>
      <trkpt lat="47.26789" lon="-2.30823">
        <ele>25.200000762939</ele>
        <time>2019-08-15T07:24:47.000Z</time>
      </trkpt>
      <trkpt lat="47.26759" lon="-2.30853">
        <ele>25.200000762939</ele>
        <time>2019-08-15T07:24:54.000Z</time>
      </trkpt>
      <trkpt lat="47.26746" lon="-2.30866">
        <ele>25.200000762939</ele>
        <time>2019-08-15T07:24:57.000Z</time>
      </trkpt>
      <trkpt lat="47.26737" lon="-2.30865">
        <ele>25.200000762939</ele>
        <time>2019-08-15T07:24:59.000Z</time>
      </trkpt>
      <trkpt lat="47.26727" lon="-2.30853">
        <ele>25.200000762939</ele>
        <time>2019-08-15T07:25:02.000Z</time>
      </trkpt>
      <trkpt lat="47.26724" lon="-2.30847">
        <ele>25.200000762939</ele>
        <time>2019-08-15T07:25:03.000Z</time>
      </trkpt>
      <trkpt lat="47.26711" lon="-2.30821">
        <ele>25.200000762939</ele>
        <time>2019-08-15T07:25:07.000Z</time>
      </trkpt>
      <trkpt lat="47.26702" lon="-2.30797">
        <ele>25.200000762939</ele>
        <time>2019-08-15T07:25:10.000Z</time>
      </trkpt>
      <trkpt lat="47.26692" lon="-2.30772">
        <ele>25.200000762939</ele>
        <time>2019-08-15T07:25:13.000Z</time>
      </trkpt>
      <trkpt lat="47.26681" lon="-2.30746">
        <ele>24.799999237061</ele>
        <time>2019-08-15T07:25:16.000Z</time>
      </trkpt>
      <trkpt lat="47.26677" lon="-2.30738">
        <ele>24.39999961853</ele>
        <time>2019-08-15T07:25:17.000Z</time>
      </trkpt>
      <trkpt lat="47.26673" lon="-2.30729">
        <ele>24</ele>
        <time>2019-08-15T07:25:18.000Z</time>
      </trkpt>
      <trkpt lat="47.26669" lon="-2.3072">
        <ele>23.39999961853</ele>
        <time>2019-08-15T07:25:19.000Z</time>
      </trkpt>
      <trkpt lat="47.26666" lon="-2.30712">
        <ele>23</ele>
        <time>2019-08-15T07:25:20.000Z</time>
      </trkpt>
      <trkpt lat="47.2666" lon="-2.30699">
        <ele>22.60000038147</ele>
        <time>2019-08-15T07:25:22.000Z</time>
      </trkpt>
      <trkpt lat="47.26658" lon="-2.30694">
        <ele>22.200000762939</ele>
        <time>2019-08-15T07:25:23.000Z</time>
      </trkpt>
      <trkpt lat="47.26655" lon="-2.30692">
        <ele>21.60000038147</ele>
        <time>2019-08-15T07:25:24.000Z</time>
      </trkpt>
      <trkpt lat="47.26653" lon="-2.3069">
        <ele>21.200000762939</ele>
        <time>2019-08-15T07:25:25.000Z</time>
      </trkpt>
      <trkpt lat="47.26651" lon="-2.30692">
        <ele>20.799999237061</ele>
        <time>2019-08-15T07:25:26.000Z</time>
      </trkpt>
      <trkpt lat="47.2665" lon="-2.30698">
        <ele>20.799999237061</ele>
        <time>2019-08-15T07:25:28.000Z</time>
      </trkpt>
      <trkpt lat="47.26648" lon="-2.30706">
        <ele>20.799999237061</ele>
        <time>2019-08-15T07:25:30.000Z</time>
      </trkpt>
      <trkpt lat="47.26645" lon="-2.30711">
        <ele>20.799999237061</ele>
        <time>2019-08-15T07:25:31.000Z</time>
      </trkpt>
      <trkpt lat="47.26639" lon="-2.30719">
        <ele>20.799999237061</ele>
        <time>2019-08-15T07:25:33.000Z</time>
      </trkpt>
      <trkpt lat="47.26635" lon="-2.30723">
        <ele>20.39999961853</ele>
        <time>2019-08-15T07:25:34.000Z</time>
      </trkpt>
      <trkpt lat="47.26632" lon="-2.30726">
        <ele>20</ele>
        <time>2019-08-15T07:25:35.000Z</time>
      </trkpt>
      <trkpt lat="47.26629" lon="-2.30731">
        <ele>19.60000038147</ele>
        <time>2019-08-15T07:25:36.000Z</time>
      </trkpt>
      <trkpt lat="47.26627" lon="-2.30736">
        <ele>19</ele>
        <time>2019-08-15T07:25:37.000Z</time>
      </trkpt>
      <trkpt lat="47.26625" lon="-2.3074">
        <ele>18.60000038147</ele>
        <time>2019-08-15T07:25:38.000Z</time>
      </trkpt>
      <trkpt lat="47.26618" lon="-2.30755">
        <ele>18.60000038147</ele>
        <time>2019-08-15T07:25:42.000Z</time>
      </trkpt>
      <trkpt lat="47.26608" lon="-2.30767">
        <ele>18.60000038147</ele>
        <time>2019-08-15T07:25:45.000Z</time>
      </trkpt>
      <trkpt lat="47.26604" lon="-2.3077">
        <ele>18.60000038147</ele>
        <time>2019-08-15T07:25:46.000Z</time>
      </trkpt>
      <trkpt lat="47.26593" lon="-2.30783">
        <ele>18.60000038147</ele>
        <time>2019-08-15T07:25:49.000Z</time>
      </trkpt>
      <trkpt lat="47.26586" lon="-2.30791">
        <ele>18.60000038147</ele>
        <time>2019-08-15T07:25:51.000Z</time>
      </trkpt>
      <trkpt lat="47.26582" lon="-2.30796">
        <ele>18.60000038147</ele>
        <time>2019-08-15T07:25:52.000Z</time>
      </trkpt>
      <trkpt lat="47.26575" lon="-2.30809">
        <ele>18.200000762939</ele>
        <time>2019-08-15T07:25:54.000Z</time>
      </trkpt>
      <trkpt lat="47.26572" lon="-2.30815">
        <ele>17.799999237061</ele>
        <time>2019-08-15T07:25:55.000Z</time>
      </trkpt>
      <trkpt lat="47.26569" lon="-2.3082">
        <ele>17.39999961853</ele>
        <time>2019-08-15T07:25:56.000Z</time>
      </trkpt>
      <trkpt lat="47.26566" lon="-2.30824">
        <ele>17</ele>
        <time>2019-08-15T07:25:57.000Z</time>
      </trkpt>
      <trkpt lat="47.26563" lon="-2.30829">
        <ele>16.60000038147</ele>
        <time>2019-08-15T07:25:58.000Z</time>
      </trkpt>
      <trkpt lat="47.26561" lon="-2.30833">
        <ele>16.60000038147</ele>
        <time>2019-08-15T07:25:59.000Z</time>
      </trkpt>
      <trkpt lat="47.26545" lon="-2.3085">
        <ele>16.60000038147</ele>
        <time>2019-08-15T07:26:04.000Z</time>
      </trkpt>
      <trkpt lat="47.26541" lon="-2.30858">
        <ele>16.200000762939</ele>
        <time>2019-08-15T07:26:06.000Z</time>
      </trkpt>
      <trkpt lat="47.26538" lon="-2.3086">
        <ele>15.800000190735</ele>
        <time>2019-08-15T07:26:07.000Z</time>
      </trkpt>
      <trkpt lat="47.26535" lon="-2.30863">
        <ele>15.199999809265</ele>
        <time>2019-08-15T07:26:08.000Z</time>
      </trkpt>
      <trkpt lat="47.26532" lon="-2.30866">
        <ele>14.800000190735</ele>
        <time>2019-08-15T07:26:09.000Z</time>
      </trkpt>
      <trkpt lat="47.26529" lon="-2.30869">
        <ele>14.39999961853</ele>
        <time>2019-08-15T07:26:10.000Z</time>
      </trkpt>
      <trkpt lat="47.2652" lon="-2.30877">
        <ele>14.39999961853</ele>
        <time>2019-08-15T07:26:13.000Z</time>
      </trkpt>
      <trkpt lat="47.26516" lon="-2.3088">
        <ele>14.39999961853</ele>
        <time>2019-08-15T07:26:14.000Z</time>
      </trkpt>
      <trkpt lat="47.26508" lon="-2.30878">
        <ele>14.39999961853</ele>
        <time>2019-08-15T07:26:17.000Z</time>
      </trkpt>
      <trkpt lat="47.265" lon="-2.30872">
        <ele>14.39999961853</ele>
        <time>2019-08-15T07:26:21.000Z</time>
      </trkpt>
      <trkpt lat="47.26492" lon="-2.30861">
        <ele>14.39999961853</ele>
        <time>2019-08-15T07:26:26.000Z</time>
      </trkpt>
      <trkpt lat="47.26492" lon="-2.3086">
        <ele>14.800000190735</ele>
        <time>2019-08-15T07:26:27.000Z</time>
      </trkpt>
      <trkpt lat="47.26491" lon="-2.30859">
        <ele>15.199999809265</ele>
        <time>2019-08-15T07:26:28.000Z</time>
      </trkpt>
      <trkpt lat="47.2649" lon="-2.30856">
        <ele>15.60000038147</ele>
        <time>2019-08-15T07:26:29.000Z</time>
      </trkpt>
      <trkpt lat="47.26488" lon="-2.30854">
        <ele>16</ele>
        <time>2019-08-15T07:26:30.000Z</time>
      </trkpt>
      <trkpt lat="47.26486" lon="-2.30851">
        <ele>16.60000038147</ele>
        <time>2019-08-15T07:26:31.000Z</time>
      </trkpt>
      <trkpt lat="47.2648" lon="-2.30837">
        <ele>16.60000038147</ele>
        <time>2019-08-15T07:26:35.000Z</time>
      </trkpt>
      <trkpt lat="47.26473" lon="-2.30822">
        <ele>17</ele>
        <time>2019-08-15T07:26:41.000Z</time>
      </trkpt>
      <trkpt lat="47.26473" lon="-2.3082">
        <ele>17.39999961853</ele>
        <time>2019-08-15T07:26:42.000Z</time>
      </trkpt>
      <trkpt lat="47.26472" lon="-2.30818">
        <ele>17.799999237061</ele>
        <time>2019-08-15T07:26:43.000Z</time>
      </trkpt>
      <trkpt lat="47.26471" lon="-2.30815">
        <ele>18.200000762939</ele>
        <time>2019-08-15T07:26:44.000Z</time>
      </trkpt>
      <trkpt lat="47.2647" lon="-2.30812">
        <ele>18.60000038147</ele>
        <time>2019-08-15T07:26:45.000Z</time>
      </trkpt>
      <trkpt lat="47.26468" lon="-2.30804">
        <ele>18.60000038147</ele>
        <time>2019-08-15T07:26:47.000Z</time>
      </trkpt>
      <trkpt lat="47.2646" lon="-2.30783">
        <ele>18.60000038147</ele>
        <time>2019-08-15T07:26:53.000Z</time>
      </trkpt>
      <trkpt lat="47.26452" lon="-2.30765">
        <ele>18.60000038147</ele>
        <time>2019-08-15T07:26:58.000Z</time>
      </trkpt>
      <trkpt lat="47.26446" lon="-2.30747">
        <ele>19</ele>
        <time>2019-08-15T07:27:03.000Z</time>
      </trkpt>
      <trkpt lat="47.26444" lon="-2.30743">
        <ele>19.39999961853</ele>
        <time>2019-08-15T07:27:04.000Z</time>
      </trkpt>
      <trkpt lat="47.26442" lon="-2.3074">
        <ele>20.39999961853</ele>
        <time>2019-08-15T07:27:05.000Z</time>
      </trkpt>
      <trkpt lat="47.26441" lon="-2.30737">
        <ele>20.799999237061</ele>
        <time>2019-08-15T07:27:06.000Z</time>
      </trkpt>
      <trkpt lat="47.26436" lon="-2.30727">
        <ele>20.799999237061</ele>
        <time>2019-08-15T07:27:09.000Z</time>
      </trkpt>
      <trkpt lat="47.26428" lon="-2.30712">
        <ele>20.799999237061</ele>
        <time>2019-08-15T07:27:14.000Z</time>
      </trkpt>
      <trkpt lat="47.2642" lon="-2.30698">
        <ele>20.799999237061</ele>
        <time>2019-08-15T07:27:19.000Z</time>
      </trkpt>
      <trkpt lat="47.26406" lon="-2.30683">
        <ele>20.799999237061</ele>
        <time>2019-08-15T07:27:24.000Z</time>
      </trkpt>
      <trkpt lat="47.26387" lon="-2.30668">
        <ele>20.799999237061</ele>
        <time>2019-08-15T07:27:30.000Z</time>
      </trkpt>
      <trkpt lat="47.26373" lon="-2.30652">
        <ele>20.799999237061</ele>
        <time>2019-08-15T07:27:36.000Z</time>
      </trkpt>
      <trkpt lat="47.26371" lon="-2.30648">
        <ele>20.799999237061</ele>
        <time>2019-08-15T07:27:37.000Z</time>
      </trkpt>
      <trkpt lat="47.26367" lon="-2.30636">
        <ele>20.799999237061</ele>
        <time>2019-08-15T07:27:40.000Z</time>
      </trkpt>
      <trkpt lat="47.26362" lon="-2.30627">
        <ele>20.799999237061</ele>
        <time>2019-08-15T07:27:43.000Z</time>
      </trkpt>
      <trkpt lat="47.26359" lon="-2.30622">
        <ele>20.799999237061</ele>
        <time>2019-08-15T07:27:45.000Z</time>
      </trkpt>
      <trkpt lat="47.26356" lon="-2.30617">
        <ele>20.799999237061</ele>
        <time>2019-08-15T07:27:47.000Z</time>
      </trkpt>
      <trkpt lat="47.26352" lon="-2.3061">
        <ele>20.799999237061</ele>
        <time>2019-08-15T07:27:51.000Z</time>
      </trkpt>
      <trkpt lat="47.26351" lon="-2.30607">
        <ele>20.799999237061</ele>
        <time>2019-08-15T07:27:53.000Z</time>
      </trkpt>
      <trkpt lat="47.2635" lon="-2.30605">
        <ele>20.799999237061</ele>
        <time>2019-08-15T07:28:00.000Z</time>
      </trkpt>
      <trkpt lat="47.2635" lon="-2.30603">
        <ele>20.799999237061</ele>
        <time>2019-08-15T07:28:01.000Z</time>
      </trkpt>
      <trkpt lat="47.26347" lon="-2.30586">
        <ele>20.799999237061</ele>
        <time>2019-08-15T07:28:06.000Z</time>
      </trkpt>
      <trkpt lat="47.26347" lon="-2.30582">
        <ele>20.799999237061</ele>
        <time>2019-08-15T07:28:07.000Z</time>
      </trkpt>
      <trkpt lat="47.26345" lon="-2.30562">
        <ele>20.799999237061</ele>
        <time>2019-08-15T07:28:12.000Z</time>
      </trkpt>
      <trkpt lat="47.26344" lon="-2.30559">
        <ele>21.200000762939</ele>
        <time>2019-08-15T07:28:13.000Z</time>
      </trkpt>
      <trkpt lat="47.26343" lon="-2.30555">
        <ele>21.60000038147</ele>
        <time>2019-08-15T07:28:14.000Z</time>
      </trkpt>
      <trkpt lat="47.26342" lon="-2.30552">
        <ele>22</ele>
        <time>2019-08-15T07:28:15.000Z</time>
      </trkpt>
      <trkpt lat="47.26341" lon="-2.30548">
        <ele>22.39999961853</ele>
        <time>2019-08-15T07:28:16.000Z</time>
      </trkpt>
      <trkpt lat="47.26339" lon="-2.30544">
        <ele>22.799999237061</ele>
        <time>2019-08-15T07:28:17.000Z</time>
      </trkpt>
      <trkpt lat="47.26338" lon="-2.30541">
        <ele>22.799999237061</ele>
        <time>2019-08-15T07:28:18.000Z</time>
      </trkpt>
      <trkpt lat="47.26333" lon="-2.30515">
        <ele>22.799999237061</ele>
        <time>2019-08-15T07:28:23.000Z</time>
      </trkpt>
      <trkpt lat="47.26328" lon="-2.30485">
        <ele>22.799999237061</ele>
        <time>2019-08-15T07:28:28.000Z</time>
      </trkpt>
      <trkpt lat="47.26322" lon="-2.3045">
        <ele>22.799999237061</ele>
        <time>2019-08-15T07:28:34.000Z</time>
      </trkpt>
      <trkpt lat="47.26314" lon="-2.30411">
        <ele>22.799999237061</ele>
        <time>2019-08-15T07:28:41.000Z</time>
      </trkpt>
      <trkpt lat="47.26307" lon="-2.30379">
        <ele>22.799999237061</ele>
        <time>2019-08-15T07:28:47.000Z</time>
      </trkpt>
      <trkpt lat="47.26305" lon="-2.30362">
        <ele>22.799999237061</ele>
        <time>2019-08-15T07:28:50.000Z</time>
      </trkpt>
      <trkpt lat="47.26303" lon="-2.30349">
        <ele>22.799999237061</ele>
        <time>2019-08-15T07:28:52.000Z</time>
      </trkpt>
      <trkpt lat="47.26298" lon="-2.3033">
        <ele>22.799999237061</ele>
        <time>2019-08-15T07:28:55.000Z</time>
      </trkpt>
      <trkpt lat="47.26294" lon="-2.30318">
        <ele>22.799999237061</ele>
        <time>2019-08-15T07:28:57.000Z</time>
      </trkpt>
      <trkpt lat="47.26291" lon="-2.30313">
        <ele>22.799999237061</ele>
        <time>2019-08-15T07:28:58.000Z</time>
      </trkpt>
      <trkpt lat="47.26284" lon="-2.30289">
        <ele>22.799999237061</ele>
        <time>2019-08-15T07:29:02.000Z</time>
      </trkpt>
      <trkpt lat="47.2628" lon="-2.3027">
        <ele>22.799999237061</ele>
        <time>2019-08-15T07:29:05.000Z</time>
      </trkpt>
      <trkpt lat="47.26273" lon="-2.30225">
        <ele>22.799999237061</ele>
        <time>2019-08-15T07:29:12.000Z</time>
      </trkpt>
      <trkpt lat="47.26271" lon="-2.30219">
        <ele>22.799999237061</ele>
        <time>2019-08-15T07:29:13.000Z</time>
      </trkpt>
      <trkpt lat="47.26267" lon="-2.30193">
        <ele>23.200000762939</ele>
        <time>2019-08-15T07:29:18.000Z</time>
      </trkpt>
      <trkpt lat="47.26266" lon="-2.30187">
        <ele>23.60000038147</ele>
        <time>2019-08-15T07:29:19.000Z</time>
      </trkpt>
      <trkpt lat="47.26265" lon="-2.30182">
        <ele>24</ele>
        <time>2019-08-15T07:29:20.000Z</time>
      </trkpt>
      <trkpt lat="47.26262" lon="-2.30176">
        <ele>24.39999961853</ele>
        <time>2019-08-15T07:29:21.000Z</time>
      </trkpt>
      <trkpt lat="47.26259" lon="-2.3017">
        <ele>24.799999237061</ele>
        <time>2019-08-15T07:29:22.000Z</time>
      </trkpt>
      <trkpt lat="47.26257" lon="-2.30165">
        <ele>24.799999237061</ele>
        <time>2019-08-15T07:29:23.000Z</time>
      </trkpt>
      <trkpt lat="47.26244" lon="-2.30137">
        <ele>24.799999237061</ele>
        <time>2019-08-15T07:29:29.000Z</time>
      </trkpt>
      <trkpt lat="47.26234" lon="-2.30136">
        <ele>24.799999237061</ele>
        <time>2019-08-15T07:29:32.000Z</time>
      </trkpt>
      <trkpt lat="47.2623" lon="-2.30137">
        <ele>24.799999237061</ele>
        <time>2019-08-15T07:29:33.000Z</time>
      </trkpt>
      <trkpt lat="47.2621" lon="-2.30144">
        <ele>24.799999237061</ele>
        <time>2019-08-15T07:29:39.000Z</time>
      </trkpt>
      <trkpt lat="47.26198" lon="-2.3015">
        <ele>24.799999237061</ele>
        <time>2019-08-15T07:29:45.000Z</time>
      </trkpt>
      <trkpt lat="47.26187" lon="-2.30155">
        <ele>24.799999237061</ele>
        <time>2019-08-15T07:29:51.000Z</time>
      </trkpt>
      <trkpt lat="47.26178" lon="-2.30159">
        <ele>24.799999237061</ele>
        <time>2019-08-15T07:29:56.000Z</time>
      </trkpt>
      <trkpt lat="47.26177" lon="-2.30158">
        <ele>24.799999237061</ele>
        <time>2019-08-15T07:29:57.000Z</time>
      </trkpt>
      <trkpt lat="47.26173" lon="-2.30151">
        <ele>24.799999237061</ele>
        <time>2019-08-15T07:30:00.000Z</time>
      </trkpt>
      <trkpt lat="47.26173" lon="-2.30149">
        <ele>24.799999237061</ele>
        <time>2019-08-15T07:30:01.000Z</time>
      </trkpt>
      <trkpt lat="47.26172" lon="-2.30147">
        <ele>24.799999237061</ele>
        <time>2019-08-15T07:30:02.000Z</time>
      </trkpt>
      <trkpt lat="47.26168" lon="-2.30147">
        <ele>24.799999237061</ele>
        <time>2019-08-15T07:30:04.000Z</time>
      </trkpt>
      <trkpt lat="47.2616" lon="-2.30149">
        <ele>24.39999961853</ele>
        <time>2019-08-15T07:30:07.000Z</time>
      </trkpt>
      <trkpt lat="47.26157" lon="-2.3015">
        <ele>24</ele>
        <time>2019-08-15T07:30:08.000Z</time>
      </trkpt>
      <trkpt lat="47.26155" lon="-2.30151">
        <ele>23.60000038147</ele>
        <time>2019-08-15T07:30:09.000Z</time>
      </trkpt>
      <trkpt lat="47.26152" lon="-2.30151">
        <ele>23.200000762939</ele>
        <time>2019-08-15T07:30:10.000Z</time>
      </trkpt>
      <trkpt lat="47.2615" lon="-2.30152">
        <ele>22.799999237061</ele>
        <time>2019-08-15T07:30:11.000Z</time>
      </trkpt>
      <trkpt lat="47.26136" lon="-2.30155">
        <ele>22.799999237061</ele>
        <time>2019-08-15T07:30:16.000Z</time>
      </trkpt>
      <trkpt lat="47.26122" lon="-2.30159">
        <ele>22.39999961853</ele>
        <time>2019-08-15T07:30:20.000Z</time>
      </trkpt>
      <trkpt lat="47.26119" lon="-2.30159">
        <ele>22</ele>
        <time>2019-08-15T07:30:21.000Z</time>
      </trkpt>
      <trkpt lat="47.26116" lon="-2.30161">
        <ele>21.60000038147</ele>
        <time>2019-08-15T07:30:22.000Z</time>
      </trkpt>
      <trkpt lat="47.26113" lon="-2.30162">
        <ele>20.799999237061</ele>
        <time>2019-08-15T07:30:23.000Z</time>
      </trkpt>
      <trkpt lat="47.26105" lon="-2.30163">
        <ele>20.799999237061</ele>
        <time>2019-08-15T07:30:26.000Z</time>
      </trkpt>
      <trkpt lat="47.26104" lon="-2.30161">
        <ele>20.799999237061</ele>
        <time>2019-08-15T07:30:27.000Z</time>
      </trkpt>
      <trkpt lat="47.26097" lon="-2.3015">
        <ele>20.39999961853</ele>
        <time>2019-08-15T07:30:31.000Z</time>
      </trkpt>
      <trkpt lat="47.26095" lon="-2.30149">
        <ele>20</ele>
        <time>2019-08-15T07:30:32.000Z</time>
      </trkpt>
      <trkpt lat="47.26092" lon="-2.30148">
        <ele>19.60000038147</ele>
        <time>2019-08-15T07:30:33.000Z</time>
      </trkpt>
      <trkpt lat="47.2609" lon="-2.30149">
        <ele>19.200000762939</ele>
        <time>2019-08-15T07:30:34.000Z</time>
      </trkpt>
      <trkpt lat="47.26086" lon="-2.30149">
        <ele>18.799999237061</ele>
        <time>2019-08-15T07:30:35.000Z</time>
      </trkpt>
      <trkpt lat="47.26083" lon="-2.3015">
        <ele>18.799999237061</ele>
        <time>2019-08-15T07:30:36.000Z</time>
      </trkpt>
      <trkpt lat="47.26078" lon="-2.3015">
        <ele>18.799999237061</ele>
        <time>2019-08-15T07:30:38.000Z</time>
      </trkpt>
      <trkpt lat="47.26072" lon="-2.30148">
        <ele>18.799999237061</ele>
        <time>2019-08-15T07:30:40.000Z</time>
      </trkpt>
      <trkpt lat="47.26058" lon="-2.30135">
        <ele>18.799999237061</ele>
        <time>2019-08-15T07:30:45.000Z</time>
      </trkpt>
      <trkpt lat="47.26052" lon="-2.30137">
        <ele>18.799999237061</ele>
        <time>2019-08-15T07:30:46.000Z</time>
      </trkpt>
      <trkpt lat="47.26042" lon="-2.30139">
        <ele>17.799999237061</ele>
        <time>2019-08-15T07:30:48.000Z</time>
      </trkpt>
      <trkpt lat="47.26038" lon="-2.3014">
        <ele>17.39999961853</ele>
        <time>2019-08-15T07:30:49.000Z</time>
      </trkpt>
      <trkpt lat="47.26034" lon="-2.3014">
        <ele>17</ele>
        <time>2019-08-15T07:30:50.000Z</time>
      </trkpt>
      <trkpt lat="47.26029" lon="-2.30139">
        <ele>16.60000038147</ele>
        <time>2019-08-15T07:30:51.000Z</time>
      </trkpt>
      <trkpt lat="47.26022" lon="-2.30139">
        <ele>16.60000038147</ele>
        <time>2019-08-15T07:30:53.000Z</time>
      </trkpt>
      <trkpt lat="47.26004" lon="-2.30139">
        <ele>16.60000038147</ele>
        <time>2019-08-15T07:30:57.000Z</time>
      </trkpt>
      <trkpt lat="47.25995" lon="-2.30138">
        <ele>16.200000762939</ele>
        <time>2019-08-15T07:30:59.000Z</time>
      </trkpt>
      <trkpt lat="47.25991" lon="-2.30137">
        <ele>15.800000190735</ele>
        <time>2019-08-15T07:31:00.000Z</time>
      </trkpt>
      <trkpt lat="47.25988" lon="-2.30136">
        <ele>15.39999961853</ele>
        <time>2019-08-15T07:31:01.000Z</time>
      </trkpt>
      <trkpt lat="47.25984" lon="-2.30136">
        <ele>15</ele>
        <time>2019-08-15T07:31:02.000Z</time>
      </trkpt>
      <trkpt lat="47.25982" lon="-2.30135">
        <ele>14.39999961853</ele>
        <time>2019-08-15T07:31:03.000Z</time>
      </trkpt>
      <trkpt lat="47.2597" lon="-2.30119">
        <ele>14.39999961853</ele>
        <time>2019-08-15T07:31:08.000Z</time>
      </trkpt>
      <trkpt lat="47.25968" lon="-2.301">
        <ele>14.39999961853</ele>
        <time>2019-08-15T07:31:11.000Z</time>
      </trkpt>
      <trkpt lat="47.25969" lon="-2.30091">
        <ele>14.39999961853</ele>
        <time>2019-08-15T07:31:12.000Z</time>
      </trkpt>
      <trkpt lat="47.25971" lon="-2.30037">
        <ele>14.39999961853</ele>
        <time>2019-08-15T07:31:18.000Z</time>
      </trkpt>
      <trkpt lat="47.25972" lon="-2.30029">
        <ele>14.39999961853</ele>
        <time>2019-08-15T07:31:19.000Z</time>
      </trkpt>
      <trkpt lat="47.25972" lon="-2.30021">
        <ele>14.39999961853</ele>
        <time>2019-08-15T07:31:20.000Z</time>
      </trkpt>
      <trkpt lat="47.25973" lon="-2.29989">
        <ele>14.39999961853</ele>
        <time>2019-08-15T07:31:24.000Z</time>
      </trkpt>
      <trkpt lat="47.25974" lon="-2.29982">
        <ele>14.39999961853</ele>
        <time>2019-08-15T07:31:25.000Z</time>
      </trkpt>
      <trkpt lat="47.2598" lon="-2.29961">
        <ele>14.39999961853</ele>
        <time>2019-08-15T07:31:28.000Z</time>
      </trkpt>
      <trkpt lat="47.2599" lon="-2.29934">
        <ele>14.39999961853</ele>
        <time>2019-08-15T07:31:32.000Z</time>
      </trkpt>
      <trkpt lat="47.25991" lon="-2.29929">
        <ele>14.39999961853</ele>
        <time>2019-08-15T07:31:33.000Z</time>
      </trkpt>
      <trkpt lat="47.25988" lon="-2.2992">
        <ele>14.39999961853</ele>
        <time>2019-08-15T07:31:36.000Z</time>
      </trkpt>
      <trkpt lat="47.2598" lon="-2.29911">
        <ele>14.39999961853</ele>
        <time>2019-08-15T07:31:40.000Z</time>
      </trkpt>
      <trkpt lat="47.25974" lon="-2.29899">
        <ele>14.39999961853</ele>
        <time>2019-08-15T07:31:43.000Z</time>
      </trkpt>
      <trkpt lat="47.25971" lon="-2.29892">
        <ele>14.39999961853</ele>
        <time>2019-08-15T07:31:45.000Z</time>
      </trkpt>
      <trkpt lat="47.25965" lon="-2.29877">
        <ele>14.39999961853</ele>
        <time>2019-08-15T07:31:50.000Z</time>
      </trkpt>
      <trkpt lat="47.25961" lon="-2.29874">
        <ele>14.39999961853</ele>
        <time>2019-08-15T07:31:55.000Z</time>
      </trkpt>
      <trkpt lat="47.25956" lon="-2.29839">
        <ele>14.39999961853</ele>
        <time>2019-08-15T07:32:12.000Z</time>
      </trkpt>
      <trkpt lat="47.25951" lon="-2.29813">
        <ele>14.39999961853</ele>
        <time>2019-08-15T07:32:19.000Z</time>
      </trkpt>
      <trkpt lat="47.25946" lon="-2.29788">
        <ele>14.39999961853</ele>
        <time>2019-08-15T07:32:25.000Z</time>
      </trkpt>
      <trkpt lat="47.25935" lon="-2.29761">
        <ele>14.39999961853</ele>
        <time>2019-08-15T07:32:32.000Z</time>
      </trkpt>
      <trkpt lat="47.25928" lon="-2.29744">
        <ele>14.39999961853</ele>
        <time>2019-08-15T07:32:37.000Z</time>
      </trkpt>
      <trkpt lat="47.25929" lon="-2.29711">
        <ele>14.39999961853</ele>
        <time>2019-08-15T07:32:43.000Z</time>
      </trkpt>
      <trkpt lat="47.25929" lon="-2.29705">
        <ele>15</ele>
        <time>2019-08-15T07:32:44.000Z</time>
      </trkpt>
      <trkpt lat="47.25929" lon="-2.297">
        <ele>15.39999961853</ele>
        <time>2019-08-15T07:32:45.000Z</time>
      </trkpt>
      <trkpt lat="47.25929" lon="-2.29694">
        <ele>15.800000190735</ele>
        <time>2019-08-15T07:32:46.000Z</time>
      </trkpt>
      <trkpt lat="47.25929" lon="-2.29688">
        <ele>16.200000762939</ele>
        <time>2019-08-15T07:32:47.000Z</time>
      </trkpt>
      <trkpt lat="47.25929" lon="-2.29683">
        <ele>16.60000038147</ele>
        <time>2019-08-15T07:32:48.000Z</time>
      </trkpt>
      <trkpt lat="47.2593" lon="-2.29674">
        <ele>16.60000038147</ele>
        <time>2019-08-15T07:32:50.000Z</time>
      </trkpt>
      <trkpt lat="47.25932" lon="-2.29644">
        <ele>16.60000038147</ele>
        <time>2019-08-15T07:32:56.000Z</time>
      </trkpt>
      <trkpt lat="47.25934" lon="-2.29634">
        <ele>17</ele>
        <time>2019-08-15T07:32:58.000Z</time>
      </trkpt>
      <trkpt lat="47.25936" lon="-2.29629">
        <ele>17.39999961853</ele>
        <time>2019-08-15T07:32:59.000Z</time>
      </trkpt>
      <trkpt lat="47.25938" lon="-2.29627">
        <ele>17.799999237061</ele>
        <time>2019-08-15T07:33:00.000Z</time>
      </trkpt>
      <trkpt lat="47.25941" lon="-2.29628">
        <ele>18.200000762939</ele>
        <time>2019-08-15T07:33:01.000Z</time>
      </trkpt>
      <trkpt lat="47.25944" lon="-2.2963">
        <ele>18.60000038147</ele>
        <time>2019-08-15T07:33:02.000Z</time>
      </trkpt>
      <trkpt lat="47.25948" lon="-2.29632">
        <ele>18.60000038147</ele>
        <time>2019-08-15T07:33:03.000Z</time>
      </trkpt>
      <trkpt lat="47.2596" lon="-2.2964">
        <ele>18.60000038147</ele>
        <time>2019-08-15T07:33:06.000Z</time>
      </trkpt>
      <trkpt lat="47.25964" lon="-2.29642">
        <ele>18.60000038147</ele>
        <time>2019-08-15T07:33:07.000Z</time>
      </trkpt>
      <trkpt lat="47.25968" lon="-2.29642">
        <ele>18.60000038147</ele>
        <time>2019-08-15T07:33:08.000Z</time>
      </trkpt>
      <trkpt lat="47.25974" lon="-2.29637">
        <ele>18.60000038147</ele>
        <time>2019-08-15T07:33:10.000Z</time>
      </trkpt>
      <trkpt lat="47.25997" lon="-2.29625">
        <ele>18.60000038147</ele>
        <time>2019-08-15T07:33:15.000Z</time>
      </trkpt>
      <trkpt lat="47.26026" lon="-2.29616">
        <ele>18.60000038147</ele>
        <time>2019-08-15T07:33:22.000Z</time>
      </trkpt>
      <trkpt lat="47.26054" lon="-2.29613">
        <ele>18.60000038147</ele>
        <time>2019-08-15T07:33:29.000Z</time>
      </trkpt>
      <trkpt lat="47.26065" lon="-2.29611">
        <ele>19</ele>
        <time>2019-08-15T07:33:33.000Z</time>
      </trkpt>
      <trkpt lat="47.26068" lon="-2.29611">
        <ele>19.39999961853</ele>
        <time>2019-08-15T07:33:34.000Z</time>
      </trkpt>
      <trkpt lat="47.26071" lon="-2.29611">
        <ele>19.799999237061</ele>
        <time>2019-08-15T07:33:35.000Z</time>
      </trkpt>
      <trkpt lat="47.26074" lon="-2.2961">
        <ele>20.39999961853</ele>
        <time>2019-08-15T07:33:36.000Z</time>
      </trkpt>
      <trkpt lat="47.26077" lon="-2.2961">
        <ele>20.799999237061</ele>
        <time>2019-08-15T07:33:37.000Z</time>
      </trkpt>
      <trkpt lat="47.26082" lon="-2.29609">
        <ele>20.799999237061</ele>
        <time>2019-08-15T07:33:39.000Z</time>
      </trkpt>
      <trkpt lat="47.26088" lon="-2.2961">
        <ele>21.200000762939</ele>
        <time>2019-08-15T07:33:41.000Z</time>
      </trkpt>
      <trkpt lat="47.26091" lon="-2.29611">
        <ele>21.60000038147</ele>
        <time>2019-08-15T07:33:42.000Z</time>
      </trkpt>
      <trkpt lat="47.26094" lon="-2.29611">
        <ele>22</ele>
        <time>2019-08-15T07:33:43.000Z</time>
      </trkpt>
      <trkpt lat="47.26097" lon="-2.29609">
        <ele>22.39999961853</ele>
        <time>2019-08-15T07:33:44.000Z</time>
      </trkpt>
      <trkpt lat="47.261" lon="-2.29607">
        <ele>22.799999237061</ele>
        <time>2019-08-15T07:33:45.000Z</time>
      </trkpt>
      <trkpt lat="47.26111" lon="-2.29602">
        <ele>23.200000762939</ele>
        <time>2019-08-15T07:33:48.000Z</time>
      </trkpt>
      <trkpt lat="47.26115" lon="-2.29601">
        <ele>23.799999237061</ele>
        <time>2019-08-15T07:33:49.000Z</time>
      </trkpt>
      <trkpt lat="47.26119" lon="-2.296">
        <ele>24.200000762939</ele>
        <time>2019-08-15T07:33:50.000Z</time>
      </trkpt>
      <trkpt lat="47.26123" lon="-2.29599">
        <ele>24.60000038147</ele>
        <time>2019-08-15T07:33:51.000Z</time>
      </trkpt>
      <trkpt lat="47.26126" lon="-2.29597">
        <ele>25</ele>
        <time>2019-08-15T07:33:52.000Z</time>
      </trkpt>
      <trkpt lat="47.26145" lon="-2.29588">
        <ele>25.39999961853</ele>
        <time>2019-08-15T07:33:57.000Z</time>
      </trkpt>
      <trkpt lat="47.2615" lon="-2.29586">
        <ele>25.799999237061</ele>
        <time>2019-08-15T07:33:58.000Z</time>
      </trkpt>
      <trkpt lat="47.26153" lon="-2.29584">
        <ele>26.39999961853</ele>
        <time>2019-08-15T07:33:59.000Z</time>
      </trkpt>
      <trkpt lat="47.26157" lon="-2.29582">
        <ele>26.799999237061</ele>
        <time>2019-08-15T07:34:00.000Z</time>
      </trkpt>
      <trkpt lat="47.2616" lon="-2.29579">
        <ele>27.200000762939</ele>
        <time>2019-08-15T07:34:01.000Z</time>
      </trkpt>
      <trkpt lat="47.26167" lon="-2.29576">
        <ele>27.200000762939</ele>
        <time>2019-08-15T07:34:03.000Z</time>
      </trkpt>
      <trkpt lat="47.26175" lon="-2.29575">
        <ele>27.60000038147</ele>
        <time>2019-08-15T07:34:05.000Z</time>
      </trkpt>
      <trkpt lat="47.26179" lon="-2.29574">
        <ele>28.39999961853</ele>
        <time>2019-08-15T07:34:06.000Z</time>
      </trkpt>
      <trkpt lat="47.26182" lon="-2.29573">
        <ele>29</ele>
        <time>2019-08-15T07:34:07.000Z</time>
      </trkpt>
      <trkpt lat="47.26185" lon="-2.29571">
        <ele>29.39999961853</ele>
        <time>2019-08-15T07:34:08.000Z</time>
      </trkpt>
      <trkpt lat="47.26193" lon="-2.29565">
        <ele>29.39999961853</ele>
        <time>2019-08-15T07:34:12.000Z</time>
      </trkpt>
      <trkpt lat="47.2619" lon="-2.29555">
        <ele>29.39999961853</ele>
        <time>2019-08-15T07:34:16.000Z</time>
      </trkpt>
      <trkpt lat="47.26179" lon="-2.29535">
        <ele>29.39999961853</ele>
        <time>2019-08-15T07:34:21.000Z</time>
      </trkpt>
      <trkpt lat="47.26172" lon="-2.29529">
        <ele>29.39999961853</ele>
        <time>2019-08-15T07:34:23.000Z</time>
      </trkpt>
      <trkpt lat="47.26163" lon="-2.29525">
        <ele>29.39999961853</ele>
        <time>2019-08-15T07:34:25.000Z</time>
      </trkpt>
      <trkpt lat="47.26154" lon="-2.29519">
        <ele>29.39999961853</ele>
        <time>2019-08-15T07:34:27.000Z</time>
      </trkpt>
      <trkpt lat="47.26146" lon="-2.29509">
        <ele>29.39999961853</ele>
        <time>2019-08-15T07:34:29.000Z</time>
      </trkpt>
      <trkpt lat="47.26139" lon="-2.29497">
        <ele>29.39999961853</ele>
        <time>2019-08-15T07:34:31.000Z</time>
      </trkpt>
      <trkpt lat="47.26127" lon="-2.29473">
        <ele>29.39999961853</ele>
        <time>2019-08-15T07:34:35.000Z</time>
      </trkpt>
      <trkpt lat="47.26122" lon="-2.2946">
        <ele>29.39999961853</ele>
        <time>2019-08-15T07:34:37.000Z</time>
      </trkpt>
      <trkpt lat="47.26121" lon="-2.29446">
        <ele>29.39999961853</ele>
        <time>2019-08-15T07:34:39.000Z</time>
      </trkpt>
      <trkpt lat="47.26121" lon="-2.29431">
        <ele>29.39999961853</ele>
        <time>2019-08-15T07:34:41.000Z</time>
      </trkpt>
      <trkpt lat="47.26122" lon="-2.29425">
        <ele>29.39999961853</ele>
        <time>2019-08-15T07:34:42.000Z</time>
      </trkpt>
      <trkpt lat="47.26124" lon="-2.29412">
        <ele>29.39999961853</ele>
        <time>2019-08-15T07:34:44.000Z</time>
      </trkpt>
      <trkpt lat="47.26133" lon="-2.29371">
        <ele>29.39999961853</ele>
        <time>2019-08-15T07:34:51.000Z</time>
      </trkpt>
      <trkpt lat="47.26137" lon="-2.29354">
        <ele>29.39999961853</ele>
        <time>2019-08-15T07:34:54.000Z</time>
      </trkpt>
      <trkpt lat="47.26141" lon="-2.29352">
        <ele>29.39999961853</ele>
        <time>2019-08-15T07:34:55.000Z</time>
      </trkpt>
      <trkpt lat="47.26152" lon="-2.29355">
        <ele>29.39999961853</ele>
        <time>2019-08-15T07:34:58.000Z</time>
      </trkpt>
      <trkpt lat="47.26164" lon="-2.29359">
        <ele>29.39999961853</ele>
        <time>2019-08-15T07:35:01.000Z</time>
      </trkpt>
      <trkpt lat="47.26172" lon="-2.29359">
        <ele>29.39999961853</ele>
        <time>2019-08-15T07:35:03.000Z</time>
      </trkpt>
      <trkpt lat="47.26184" lon="-2.29356">
        <ele>29.39999961853</ele>
        <time>2019-08-15T07:35:06.000Z</time>
      </trkpt>
      <trkpt lat="47.26188" lon="-2.29354">
        <ele>29.799999237061</ele>
        <time>2019-08-15T07:35:07.000Z</time>
      </trkpt>
      <trkpt lat="47.26192" lon="-2.29352">
        <ele>30.200000762939</ele>
        <time>2019-08-15T07:35:08.000Z</time>
      </trkpt>
      <trkpt lat="47.26197" lon="-2.2935">
        <ele>30.60000038147</ele>
        <time>2019-08-15T07:35:09.000Z</time>
      </trkpt>
      <trkpt lat="47.262" lon="-2.29348">
        <ele>31.200000762939</ele>
        <time>2019-08-15T07:35:10.000Z</time>
      </trkpt>
      <trkpt lat="47.26204" lon="-2.29345">
        <ele>31.60000038147</ele>
        <time>2019-08-15T07:35:11.000Z</time>
      </trkpt>
      <trkpt lat="47.2621" lon="-2.29339">
        <ele>31.60000038147</ele>
        <time>2019-08-15T07:35:13.000Z</time>
      </trkpt>
      <trkpt lat="47.26232" lon="-2.29317">
        <ele>31.60000038147</ele>
        <time>2019-08-15T07:35:19.000Z</time>
      </trkpt>
      <trkpt lat="47.26236" lon="-2.29313">
        <ele>32.400001525879</ele>
        <time>2019-08-15T07:35:20.000Z</time>
      </trkpt>
      <trkpt lat="47.26241" lon="-2.29308">
        <ele>32.799999237061</ele>
        <time>2019-08-15T07:35:21.000Z</time>
      </trkpt>
      <trkpt lat="47.26246" lon="-2.29303">
        <ele>33.200000762939</ele>
        <time>2019-08-15T07:35:22.000Z</time>
      </trkpt>
      <trkpt lat="47.26251" lon="-2.29299">
        <ele>33.599998474121</ele>
        <time>2019-08-15T07:35:23.000Z</time>
      </trkpt>
      <trkpt lat="47.26262" lon="-2.2929">
        <ele>33.599998474121</ele>
        <time>2019-08-15T07:35:25.000Z</time>
      </trkpt>
      <trkpt lat="47.26288" lon="-2.29276">
        <ele>33.599998474121</ele>
        <time>2019-08-15T07:35:30.000Z</time>
      </trkpt>
      <trkpt lat="47.26294" lon="-2.29275">
        <ele>33.599998474121</ele>
        <time>2019-08-15T07:35:31.000Z</time>
      </trkpt>
      <trkpt lat="47.26299" lon="-2.29273">
        <ele>34</ele>
        <time>2019-08-15T07:35:32.000Z</time>
      </trkpt>
      <trkpt lat="47.26304" lon="-2.29272">
        <ele>34.400001525879</ele>
        <time>2019-08-15T07:35:33.000Z</time>
      </trkpt>
      <trkpt lat="47.26309" lon="-2.2927">
        <ele>34.799999237061</ele>
        <time>2019-08-15T07:35:34.000Z</time>
      </trkpt>
      <trkpt lat="47.26314" lon="-2.29269">
        <ele>35.200000762939</ele>
        <time>2019-08-15T07:35:35.000Z</time>
      </trkpt>
      <trkpt lat="47.26319" lon="-2.29269">
        <ele>35.599998474121</ele>
        <time>2019-08-15T07:35:36.000Z</time>
      </trkpt>
      <trkpt lat="47.2633" lon="-2.29269">
        <ele>35.599998474121</ele>
        <time>2019-08-15T07:35:38.000Z</time>
      </trkpt>
      <trkpt lat="47.26351" lon="-2.29274">
        <ele>35.599998474121</ele>
        <time>2019-08-15T07:35:42.000Z</time>
      </trkpt>
      <trkpt lat="47.26367" lon="-2.29281">
        <ele>36.200000762939</ele>
        <time>2019-08-15T07:35:45.000Z</time>
      </trkpt>
      <trkpt lat="47.26373" lon="-2.29283">
        <ele>36.599998474121</ele>
        <time>2019-08-15T07:35:46.000Z</time>
      </trkpt>
      <trkpt lat="47.26378" lon="-2.29286">
        <ele>37</ele>
        <time>2019-08-15T07:35:47.000Z</time>
      </trkpt>
      <trkpt lat="47.26382" lon="-2.29289">
        <ele>37.400001525879</ele>
        <time>2019-08-15T07:35:48.000Z</time>
      </trkpt>
      <trkpt lat="47.26387" lon="-2.29292">
        <ele>37.799999237061</ele>
        <time>2019-08-15T07:35:49.000Z</time>
      </trkpt>
      <trkpt lat="47.26423" lon="-2.29312">
        <ele>37.799999237061</ele>
        <time>2019-08-15T07:35:56.000Z</time>
      </trkpt>
      <trkpt lat="47.26458" lon="-2.29333">
        <ele>37.799999237061</ele>
        <time>2019-08-15T07:36:03.000Z</time>
      </trkpt>
      <trkpt lat="47.26469" lon="-2.29338">
        <ele>37.799999237061</ele>
        <time>2019-08-15T07:36:05.000Z</time>
      </trkpt>
      <trkpt lat="47.2648" lon="-2.29341">
        <ele>37.799999237061</ele>
        <time>2019-08-15T07:36:07.000Z</time>
      </trkpt>
      <trkpt lat="47.26485" lon="-2.29341">
        <ele>37.799999237061</ele>
        <time>2019-08-15T07:36:08.000Z</time>
      </trkpt>
      <trkpt lat="47.26501" lon="-2.29338">
        <ele>37.799999237061</ele>
        <time>2019-08-15T07:36:11.000Z</time>
      </trkpt>
      <trkpt lat="47.26506" lon="-2.29336">
        <ele>37.799999237061</ele>
        <time>2019-08-15T07:36:12.000Z</time>
      </trkpt>
      <trkpt lat="47.26521" lon="-2.29329">
        <ele>37.799999237061</ele>
        <time>2019-08-15T07:36:15.000Z</time>
      </trkpt>
      <trkpt lat="47.26531" lon="-2.29325">
        <ele>37.799999237061</ele>
        <time>2019-08-15T07:36:17.000Z</time>
      </trkpt>
      <trkpt lat="47.2657" lon="-2.29302">
        <ele>37.799999237061</ele>
        <time>2019-08-15T07:36:24.000Z</time>
      </trkpt>
      <trkpt lat="47.26581" lon="-2.29297">
        <ele>37.799999237061</ele>
        <time>2019-08-15T07:36:26.000Z</time>
      </trkpt>
      <trkpt lat="47.26603" lon="-2.29283">
        <ele>37.799999237061</ele>
        <time>2019-08-15T07:36:30.000Z</time>
      </trkpt>
      <trkpt lat="47.26619" lon="-2.29273">
        <ele>37.799999237061</ele>
        <time>2019-08-15T07:36:33.000Z</time>
      </trkpt>
      <trkpt lat="47.26633" lon="-2.29262">
        <ele>37.799999237061</ele>
        <time>2019-08-15T07:36:36.000Z</time>
      </trkpt>
      <trkpt lat="47.26654" lon="-2.29243">
        <ele>37.400001525879</ele>
        <time>2019-08-15T07:36:40.000Z</time>
      </trkpt>
      <trkpt lat="47.2666" lon="-2.29238">
        <ele>37</ele>
        <time>2019-08-15T07:36:41.000Z</time>
      </trkpt>
      <trkpt lat="47.26665" lon="-2.29232">
        <ele>36.599998474121</ele>
        <time>2019-08-15T07:36:42.000Z</time>
      </trkpt>
      <trkpt lat="47.26671" lon="-2.29226">
        <ele>36.200000762939</ele>
        <time>2019-08-15T07:36:43.000Z</time>
      </trkpt>
      <trkpt lat="47.26676" lon="-2.29221">
        <ele>35.799999237061</ele>
        <time>2019-08-15T07:36:44.000Z</time>
      </trkpt>
      <trkpt lat="47.26703" lon="-2.29196">
        <ele>35.799999237061</ele>
        <time>2019-08-15T07:36:49.000Z</time>
      </trkpt>
      <trkpt lat="47.26722" lon="-2.29177">
        <ele>35.400001525879</ele>
        <time>2019-08-15T07:36:53.000Z</time>
      </trkpt>
      <trkpt lat="47.26727" lon="-2.29172">
        <ele>35</ele>
        <time>2019-08-15T07:36:54.000Z</time>
      </trkpt>
      <trkpt lat="47.26733" lon="-2.29167">
        <ele>34.400001525879</ele>
        <time>2019-08-15T07:36:55.000Z</time>
      </trkpt>
      <trkpt lat="47.26738" lon="-2.29161">
        <ele>34</ele>
        <time>2019-08-15T07:36:56.000Z</time>
      </trkpt>
      <trkpt lat="47.26743" lon="-2.29156">
        <ele>33.599998474121</ele>
        <time>2019-08-15T07:36:57.000Z</time>
      </trkpt>
      <trkpt lat="47.26765" lon="-2.29136">
        <ele>33.599998474121</ele>
        <time>2019-08-15T07:37:01.000Z</time>
      </trkpt>
      <trkpt lat="47.26775" lon="-2.29124">
        <ele>33.200000762939</ele>
        <time>2019-08-15T07:37:03.000Z</time>
      </trkpt>
      <trkpt lat="47.26781" lon="-2.29118">
        <ele>32.799999237061</ele>
        <time>2019-08-15T07:37:04.000Z</time>
      </trkpt>
      <trkpt lat="47.26786" lon="-2.29112">
        <ele>32.400001525879</ele>
        <time>2019-08-15T07:37:05.000Z</time>
      </trkpt>
      <trkpt lat="47.26791" lon="-2.29106">
        <ele>31.799999237061</ele>
        <time>2019-08-15T07:37:06.000Z</time>
      </trkpt>
      <trkpt lat="47.26797" lon="-2.29099">
        <ele>31.39999961853</ele>
        <time>2019-08-15T07:37:07.000Z</time>
      </trkpt>
      <trkpt lat="47.26802" lon="-2.29093">
        <ele>31.39999961853</ele>
        <time>2019-08-15T07:37:08.000Z</time>
      </trkpt>
      <trkpt lat="47.26813" lon="-2.29081">
        <ele>31</ele>
        <time>2019-08-15T07:37:10.000Z</time>
      </trkpt>
      <trkpt lat="47.26819" lon="-2.29075">
        <ele>30.60000038147</ele>
        <time>2019-08-15T07:37:11.000Z</time>
      </trkpt>
      <trkpt lat="47.26824" lon="-2.29069">
        <ele>30.200000762939</ele>
        <time>2019-08-15T07:37:12.000Z</time>
      </trkpt>
      <trkpt lat="47.26829" lon="-2.29063">
        <ele>29.799999237061</ele>
        <time>2019-08-15T07:37:13.000Z</time>
      </trkpt>
      <trkpt lat="47.26835" lon="-2.29057">
        <ele>29.39999961853</ele>
        <time>2019-08-15T07:37:14.000Z</time>
      </trkpt>
      <trkpt lat="47.26841" lon="-2.29051">
        <ele>29.39999961853</ele>
        <time>2019-08-15T07:37:15.000Z</time>
      </trkpt>
      <trkpt lat="47.26872" lon="-2.29023">
        <ele>29.39999961853</ele>
        <time>2019-08-15T07:37:20.000Z</time>
      </trkpt>
      <trkpt lat="47.26906" lon="-2.28998">
        <ele>29.39999961853</ele>
        <time>2019-08-15T07:37:26.000Z</time>
      </trkpt>
      <trkpt lat="47.26917" lon="-2.28993">
        <ele>28.799999237061</ele>
        <time>2019-08-15T07:37:28.000Z</time>
      </trkpt>
      <trkpt lat="47.26922" lon="-2.28991">
        <ele>28.39999961853</ele>
        <time>2019-08-15T07:37:29.000Z</time>
      </trkpt>
      <trkpt lat="47.26928" lon="-2.28989">
        <ele>28</ele>
        <time>2019-08-15T07:37:30.000Z</time>
      </trkpt>
      <trkpt lat="47.26933" lon="-2.28988">
        <ele>27.60000038147</ele>
        <time>2019-08-15T07:37:31.000Z</time>
      </trkpt>
      <trkpt lat="47.26939" lon="-2.28987">
        <ele>27.200000762939</ele>
        <time>2019-08-15T07:37:32.000Z</time>
      </trkpt>
      <trkpt lat="47.26958" lon="-2.28989">
        <ele>27.200000762939</ele>
        <time>2019-08-15T07:37:35.000Z</time>
      </trkpt>
      <trkpt lat="47.26965" lon="-2.2899">
        <ele>27.200000762939</ele>
        <time>2019-08-15T07:37:36.000Z</time>
      </trkpt>
      <trkpt lat="47.27003" lon="-2.29002">
        <ele>27.200000762939</ele>
        <time>2019-08-15T07:37:43.000Z</time>
      </trkpt>
      <trkpt lat="47.27029" lon="-2.2901">
        <ele>27.200000762939</ele>
        <time>2019-08-15T07:37:48.000Z</time>
      </trkpt>
      <trkpt lat="47.27035" lon="-2.29009">
        <ele>27.200000762939</ele>
        <time>2019-08-15T07:37:50.000Z</time>
      </trkpt>
      <trkpt lat="47.27038" lon="-2.29009">
        <ele>27.200000762939</ele>
        <time>2019-08-15T07:37:52.000Z</time>
      </trkpt>
      <trkpt lat="47.27038" lon="-2.2901">
        <ele>27.200000762939</ele>
        <time>2019-08-15T07:37:54.000Z</time>
      </trkpt>
      <trkpt lat="47.27036" lon="-2.29015">
        <ele>25.200000762939</ele>
        <time>2019-08-15T07:44:56.000Z</time>
      </trkpt>
      <trkpt lat="47.27044" lon="-2.29025">
        <ele>25.200000762939</ele>
        <time>2019-08-15T07:45:01.000Z</time>
      </trkpt>
      <trkpt lat="47.27054" lon="-2.29044">
        <ele>25.200000762939</ele>
        <time>2019-08-15T07:45:05.000Z</time>
      </trkpt>
      <trkpt lat="47.27072" lon="-2.29057">
        <ele>25.200000762939</ele>
        <time>2019-08-15T07:45:09.000Z</time>
      </trkpt>
      <trkpt lat="47.27076" lon="-2.29059">
        <ele>25.200000762939</ele>
        <time>2019-08-15T07:45:10.000Z</time>
      </trkpt>
      <trkpt lat="47.271" lon="-2.29067">
        <ele>25.200000762939</ele>
        <time>2019-08-15T07:45:15.000Z</time>
      </trkpt>
      <trkpt lat="47.27105" lon="-2.2907">
        <ele>25.200000762939</ele>
        <time>2019-08-15T07:45:16.000Z</time>
      </trkpt>
      <trkpt lat="47.27125" lon="-2.2908">
        <ele>25.200000762939</ele>
        <time>2019-08-15T07:45:20.000Z</time>
      </trkpt>
      <trkpt lat="47.27151" lon="-2.29094">
        <ele>25.200000762939</ele>
        <time>2019-08-15T07:45:26.000Z</time>
      </trkpt>
      <trkpt lat="47.27166" lon="-2.29101">
        <ele>25.200000762939</ele>
        <time>2019-08-15T07:45:31.000Z</time>
      </trkpt>
      <trkpt lat="47.27171" lon="-2.29101">
        <ele>25.200000762939</ele>
        <time>2019-08-15T07:45:35.000Z</time>
      </trkpt>
      <trkpt lat="47.27174" lon="-2.29105">
        <ele>25.200000762939</ele>
        <time>2019-08-15T07:45:38.000Z</time>
      </trkpt>
      <trkpt lat="47.27178" lon="-2.29109">
        <ele>25.200000762939</ele>
        <time>2019-08-15T07:46:59.000Z</time>
      </trkpt>
      <trkpt lat="47.2718" lon="-2.29108">
        <ele>25.200000762939</ele>
        <time>2019-08-15T07:47:00.000Z</time>
      </trkpt>
      <trkpt lat="47.27185" lon="-2.29104">
        <ele>25.200000762939</ele>
        <time>2019-08-15T07:47:03.000Z</time>
      </trkpt>
      <trkpt lat="47.27188" lon="-2.291">
        <ele>25.200000762939</ele>
        <time>2019-08-15T07:47:04.000Z</time>
      </trkpt>
      <trkpt lat="47.27189" lon="-2.29093">
        <ele>25.200000762939</ele>
        <time>2019-08-15T07:47:06.000Z</time>
      </trkpt>
      <trkpt lat="47.27188" lon="-2.29079">
        <ele>25.200000762939</ele>
        <time>2019-08-15T07:47:09.000Z</time>
      </trkpt>
      <trkpt lat="47.27186" lon="-2.29064">
        <ele>25.200000762939</ele>
        <time>2019-08-15T07:47:12.000Z</time>
      </trkpt>
      <trkpt lat="47.27179" lon="-2.29026">
        <ele>25.200000762939</ele>
        <time>2019-08-15T07:47:19.000Z</time>
      </trkpt>
      <trkpt lat="47.27174" lon="-2.2899">
        <ele>25.200000762939</ele>
        <time>2019-08-15T07:47:25.000Z</time>
      </trkpt>
      <trkpt lat="47.27171" lon="-2.2896">
        <ele>25.200000762939</ele>
        <time>2019-08-15T07:47:30.000Z</time>
      </trkpt>
      <trkpt lat="47.2717" lon="-2.28947">
        <ele>25.200000762939</ele>
        <time>2019-08-15T07:47:32.000Z</time>
      </trkpt>
      <trkpt lat="47.27171" lon="-2.28925">
        <ele>25.200000762939</ele>
        <time>2019-08-15T07:47:35.000Z</time>
      </trkpt>
      <trkpt lat="47.2717" lon="-2.28888">
        <ele>25.200000762939</ele>
        <time>2019-08-15T07:47:41.000Z</time>
      </trkpt>
      <trkpt lat="47.2717" lon="-2.2888">
        <ele>25.200000762939</ele>
        <time>2019-08-15T07:47:42.000Z</time>
      </trkpt>
      <trkpt lat="47.27173" lon="-2.2885">
        <ele>25.200000762939</ele>
        <time>2019-08-15T07:47:46.000Z</time>
      </trkpt>
      <trkpt lat="47.27181" lon="-2.288">
        <ele>25.200000762939</ele>
        <time>2019-08-15T07:47:52.000Z</time>
      </trkpt>
      <trkpt lat="47.27181" lon="-2.28792">
        <ele>25.60000038147</ele>
        <time>2019-08-15T07:47:53.000Z</time>
      </trkpt>
      <trkpt lat="47.27182" lon="-2.28784">
        <ele>26</ele>
        <time>2019-08-15T07:47:54.000Z</time>
      </trkpt>
      <trkpt lat="47.27182" lon="-2.28776">
        <ele>26.39999961853</ele>
        <time>2019-08-15T07:47:55.000Z</time>
      </trkpt>
      <trkpt lat="47.27183" lon="-2.28768">
        <ele>26.799999237061</ele>
        <time>2019-08-15T07:47:56.000Z</time>
      </trkpt>
      <trkpt lat="47.27183" lon="-2.2876">
        <ele>27.200000762939</ele>
        <time>2019-08-15T07:47:57.000Z</time>
      </trkpt>
      <trkpt lat="47.27183" lon="-2.28751">
        <ele>27.200000762939</ele>
        <time>2019-08-15T07:47:58.000Z</time>
      </trkpt>
      <trkpt lat="47.27182" lon="-2.28743">
        <ele>27.200000762939</ele>
        <time>2019-08-15T07:47:59.000Z</time>
      </trkpt>
      <trkpt lat="47.27181" lon="-2.28714">
        <ele>27.200000762939</ele>
        <time>2019-08-15T07:48:03.000Z</time>
      </trkpt>
      <trkpt lat="47.27181" lon="-2.287">
        <ele>27.200000762939</ele>
        <time>2019-08-15T07:48:05.000Z</time>
      </trkpt>
      <trkpt lat="47.2718" lon="-2.28686">
        <ele>27.200000762939</ele>
        <time>2019-08-15T07:48:07.000Z</time>
      </trkpt>
      <trkpt lat="47.2718" lon="-2.28649">
        <ele>27.200000762939</ele>
        <time>2019-08-15T07:48:12.000Z</time>
      </trkpt>
      <trkpt lat="47.27181" lon="-2.28641">
        <ele>27.200000762939</ele>
        <time>2019-08-15T07:48:13.000Z</time>
      </trkpt>
      <trkpt lat="47.27181" lon="-2.28604">
        <ele>27.200000762939</ele>
        <time>2019-08-15T07:48:18.000Z</time>
      </trkpt>
      <trkpt lat="47.27175" lon="-2.28584">
        <ele>27.60000038147</ele>
        <time>2019-08-15T07:48:21.000Z</time>
      </trkpt>
      <trkpt lat="47.27173" lon="-2.28578">
        <ele>28</ele>
        <time>2019-08-15T07:48:22.000Z</time>
      </trkpt>
      <trkpt lat="47.27171" lon="-2.28571">
        <ele>28.39999961853</ele>
        <time>2019-08-15T07:48:23.000Z</time>
      </trkpt>
      <trkpt lat="47.27169" lon="-2.28564">
        <ele>29.200000762939</ele>
        <time>2019-08-15T07:48:24.000Z</time>
      </trkpt>
      <trkpt lat="47.27166" lon="-2.2855">
        <ele>29.200000762939</ele>
        <time>2019-08-15T07:48:26.000Z</time>
      </trkpt>
      <trkpt lat="47.27159" lon="-2.28499">
        <ele>29.200000762939</ele>
        <time>2019-08-15T07:48:33.000Z</time>
      </trkpt>
      <trkpt lat="47.27156" lon="-2.28477">
        <ele>29.60000038147</ele>
        <time>2019-08-15T07:48:36.000Z</time>
      </trkpt>
      <trkpt lat="47.27155" lon="-2.28471">
        <ele>30</ele>
        <time>2019-08-15T07:48:37.000Z</time>
      </trkpt>
      <trkpt lat="47.27154" lon="-2.28464">
        <ele>30.39999961853</ele>
        <time>2019-08-15T07:48:38.000Z</time>
      </trkpt>
      <trkpt lat="47.27153" lon="-2.28457">
        <ele>30.799999237061</ele>
        <time>2019-08-15T07:48:39.000Z</time>
      </trkpt>
      <trkpt lat="47.27153" lon="-2.2845">
        <ele>31.200000762939</ele>
        <time>2019-08-15T07:48:40.000Z</time>
      </trkpt>
      <trkpt lat="47.27152" lon="-2.28443">
        <ele>31.200000762939</ele>
        <time>2019-08-15T07:48:41.000Z</time>
      </trkpt>
      <trkpt lat="47.2715" lon="-2.28429">
        <ele>31.200000762939</ele>
        <time>2019-08-15T07:48:43.000Z</time>
      </trkpt>
      <trkpt lat="47.27148" lon="-2.28415">
        <ele>31.200000762939</ele>
        <time>2019-08-15T07:48:45.000Z</time>
      </trkpt>
      <trkpt lat="47.27146" lon="-2.28402">
        <ele>31.200000762939</ele>
        <time>2019-08-15T07:48:47.000Z</time>
      </trkpt>
      <trkpt lat="47.27143" lon="-2.2838">
        <ele>31.200000762939</ele>
        <time>2019-08-15T07:48:50.000Z</time>
      </trkpt>
      <trkpt lat="47.27137" lon="-2.28325">
        <ele>31.200000762939</ele>
        <time>2019-08-15T07:48:56.000Z</time>
      </trkpt>
      <trkpt lat="47.27135" lon="-2.28317">
        <ele>31.200000762939</ele>
        <time>2019-08-15T07:48:57.000Z</time>
      </trkpt>
      <trkpt lat="47.27125" lon="-2.28278">
        <ele>31.200000762939</ele>
        <time>2019-08-15T07:49:02.000Z</time>
      </trkpt>
      <trkpt lat="47.27118" lon="-2.28254">
        <ele>31.200000762939</ele>
        <time>2019-08-15T07:49:06.000Z</time>
      </trkpt>
      <trkpt lat="47.27117" lon="-2.28234">
        <ele>31.200000762939</ele>
        <time>2019-08-15T07:49:09.000Z</time>
      </trkpt>
      <trkpt lat="47.27117" lon="-2.28226">
        <ele>31.200000762939</ele>
        <time>2019-08-15T07:49:10.000Z</time>
      </trkpt>
      <trkpt lat="47.27125" lon="-2.28167">
        <ele>31.200000762939</ele>
        <time>2019-08-15T07:49:18.000Z</time>
      </trkpt>
      <trkpt lat="47.27127" lon="-2.28152">
        <ele>31.200000762939</ele>
        <time>2019-08-15T07:49:20.000Z</time>
      </trkpt>
      <trkpt lat="47.27125" lon="-2.28138">
        <ele>31.200000762939</ele>
        <time>2019-08-15T07:49:22.000Z</time>
      </trkpt>
      <trkpt lat="47.27123" lon="-2.28124">
        <ele>31.60000038147</ele>
        <time>2019-08-15T07:49:24.000Z</time>
      </trkpt>
      <trkpt lat="47.27122" lon="-2.28117">
        <ele>32.200000762939</ele>
        <time>2019-08-15T07:49:25.000Z</time>
      </trkpt>
      <trkpt lat="47.27122" lon="-2.2811">
        <ele>32.599998474121</ele>
        <time>2019-08-15T07:49:26.000Z</time>
      </trkpt>
      <trkpt lat="47.27122" lon="-2.28103">
        <ele>33</ele>
        <time>2019-08-15T07:49:27.000Z</time>
      </trkpt>
      <trkpt lat="47.27122" lon="-2.28096">
        <ele>33.400001525879</ele>
        <time>2019-08-15T07:49:28.000Z</time>
      </trkpt>
      <trkpt lat="47.27121" lon="-2.28046">
        <ele>33.400001525879</ele>
        <time>2019-08-15T07:49:35.000Z</time>
      </trkpt>
      <trkpt lat="47.27118" lon="-2.28025">
        <ele>33.799999237061</ele>
        <time>2019-08-15T07:49:38.000Z</time>
      </trkpt>
      <trkpt lat="47.27117" lon="-2.28018">
        <ele>34.200000762939</ele>
        <time>2019-08-15T07:49:39.000Z</time>
      </trkpt>
      <trkpt lat="47.27115" lon="-2.28011">
        <ele>34.599998474121</ele>
        <time>2019-08-15T07:49:40.000Z</time>
      </trkpt>
      <trkpt lat="47.27114" lon="-2.28004">
        <ele>35</ele>
        <time>2019-08-15T07:49:41.000Z</time>
      </trkpt>
      <trkpt lat="47.27111" lon="-2.27998">
        <ele>35.400001525879</ele>
        <time>2019-08-15T07:49:42.000Z</time>
      </trkpt>
      <trkpt lat="47.271" lon="-2.27988">
        <ele>35.400001525879</ele>
        <time>2019-08-15T07:49:45.000Z</time>
      </trkpt>
      <trkpt lat="47.27079" lon="-2.27977">
        <ele>35.400001525879</ele>
        <time>2019-08-15T07:49:50.000Z</time>
      </trkpt>
      <trkpt lat="47.27067" lon="-2.27954">
        <ele>35.400001525879</ele>
        <time>2019-08-15T07:49:54.000Z</time>
      </trkpt>
      <trkpt lat="47.27068" lon="-2.27923">
        <ele>35.400001525879</ele>
        <time>2019-08-15T07:49:58.000Z</time>
      </trkpt>
      <trkpt lat="47.2708" lon="-2.27896">
        <ele>35.400001525879</ele>
        <time>2019-08-15T07:50:02.000Z</time>
      </trkpt>
      <trkpt lat="47.2709" lon="-2.27885">
        <ele>35.400001525879</ele>
        <time>2019-08-15T07:50:04.000Z</time>
      </trkpt>
      <trkpt lat="47.27094" lon="-2.2788">
        <ele>35.400001525879</ele>
        <time>2019-08-15T07:50:05.000Z</time>
      </trkpt>
      <trkpt lat="47.27097" lon="-2.27873">
        <ele>35.400001525879</ele>
        <time>2019-08-15T07:50:06.000Z</time>
      </trkpt>
      <trkpt lat="47.27104" lon="-2.27848">
        <ele>35.400001525879</ele>
        <time>2019-08-15T07:50:09.000Z</time>
      </trkpt>
      <trkpt lat="47.27106" lon="-2.27839">
        <ele>35.400001525879</ele>
        <time>2019-08-15T07:50:10.000Z</time>
      </trkpt>
      <trkpt lat="47.27116" lon="-2.27806">
        <ele>35</ele>
        <time>2019-08-15T07:50:14.000Z</time>
      </trkpt>
      <trkpt lat="47.27117" lon="-2.27801">
        <ele>34.599998474121</ele>
        <time>2019-08-15T07:50:15.000Z</time>
      </trkpt>
      <trkpt lat="47.27119" lon="-2.27796">
        <ele>34.200000762939</ele>
        <time>2019-08-15T07:50:16.000Z</time>
      </trkpt>
      <trkpt lat="47.27119" lon="-2.27793">
        <ele>33.599998474121</ele>
        <time>2019-08-15T07:50:17.000Z</time>
      </trkpt>
      <trkpt lat="47.27119" lon="-2.2779">
        <ele>33.200000762939</ele>
        <time>2019-08-15T07:50:18.000Z</time>
      </trkpt>
      <trkpt lat="47.27111" lon="-2.27781">
        <ele>33.200000762939</ele>
        <time>2019-08-15T07:50:22.000Z</time>
      </trkpt>
      <trkpt lat="47.27095" lon="-2.27763">
        <ele>33.200000762939</ele>
        <time>2019-08-15T07:50:27.000Z</time>
      </trkpt>
      <trkpt lat="47.27078" lon="-2.2775">
        <ele>33.200000762939</ele>
        <time>2019-08-15T07:50:31.000Z</time>
      </trkpt>
      <trkpt lat="47.27074" lon="-2.27748">
        <ele>32.799999237061</ele>
        <time>2019-08-15T07:50:32.000Z</time>
      </trkpt>
      <trkpt lat="47.27069" lon="-2.27746">
        <ele>32.400001525879</ele>
        <time>2019-08-15T07:50:33.000Z</time>
      </trkpt>
      <trkpt lat="47.27065" lon="-2.27744">
        <ele>32</ele>
        <time>2019-08-15T07:50:34.000Z</time>
      </trkpt>
      <trkpt lat="47.2706" lon="-2.27742">
        <ele>31.60000038147</ele>
        <time>2019-08-15T07:50:35.000Z</time>
      </trkpt>
      <trkpt lat="47.27055" lon="-2.2774">
        <ele>31.200000762939</ele>
        <time>2019-08-15T07:50:36.000Z</time>
      </trkpt>
      <trkpt lat="47.27036" lon="-2.27733">
        <ele>31.200000762939</ele>
        <time>2019-08-15T07:50:40.000Z</time>
      </trkpt>
      <trkpt lat="47.27027" lon="-2.27728">
        <ele>31.200000762939</ele>
        <time>2019-08-15T07:50:42.000Z</time>
      </trkpt>
      <trkpt lat="47.27022" lon="-2.2772">
        <ele>31.200000762939</ele>
        <time>2019-08-15T07:50:44.000Z</time>
      </trkpt>
      <trkpt lat="47.27025" lon="-2.277">
        <ele>31.200000762939</ele>
        <time>2019-08-15T07:50:47.000Z</time>
      </trkpt>
      <trkpt lat="47.27032" lon="-2.2769">
        <ele>31.200000762939</ele>
        <time>2019-08-15T07:50:49.000Z</time>
      </trkpt>
      <trkpt lat="47.27036" lon="-2.27685">
        <ele>31.200000762939</ele>
        <time>2019-08-15T07:50:50.000Z</time>
      </trkpt>
      <trkpt lat="47.2704" lon="-2.2768">
        <ele>31.200000762939</ele>
        <time>2019-08-15T07:50:51.000Z</time>
      </trkpt>
      <trkpt lat="47.27044" lon="-2.27675">
        <ele>31.200000762939</ele>
        <time>2019-08-15T07:50:52.000Z</time>
      </trkpt>
      <trkpt lat="47.27061" lon="-2.27657">
        <ele>31.200000762939</ele>
        <time>2019-08-15T07:50:56.000Z</time>
      </trkpt>
      <trkpt lat="47.27065" lon="-2.27653">
        <ele>31.200000762939</ele>
        <time>2019-08-15T07:50:57.000Z</time>
      </trkpt>
      <trkpt lat="47.27085" lon="-2.27636">
        <ele>31.200000762939</ele>
        <time>2019-08-15T07:51:02.000Z</time>
      </trkpt>
      <trkpt lat="47.27098" lon="-2.27628">
        <ele>30.799999237061</ele>
        <time>2019-08-15T07:51:05.000Z</time>
      </trkpt>
      <trkpt lat="47.27102" lon="-2.27625">
        <ele>30.39999961853</ele>
        <time>2019-08-15T07:51:06.000Z</time>
      </trkpt>
      <trkpt lat="47.27107" lon="-2.27622">
        <ele>30</ele>
        <time>2019-08-15T07:51:07.000Z</time>
      </trkpt>
      <trkpt lat="47.27111" lon="-2.2762">
        <ele>29.60000038147</ele>
        <time>2019-08-15T07:51:08.000Z</time>
      </trkpt>
      <trkpt lat="47.27115" lon="-2.27617">
        <ele>29.200000762939</ele>
        <time>2019-08-15T07:51:09.000Z</time>
      </trkpt>
      <trkpt lat="47.27135" lon="-2.27596">
        <ele>29.200000762939</ele>
        <time>2019-08-15T07:51:14.000Z</time>
      </trkpt>
      <trkpt lat="47.27144" lon="-2.27569">
        <ele>29.200000762939</ele>
        <time>2019-08-15T07:51:18.000Z</time>
      </trkpt>
      <trkpt lat="47.27146" lon="-2.27555">
        <ele>29.200000762939</ele>
        <time>2019-08-15T07:51:20.000Z</time>
      </trkpt>
      <trkpt lat="47.27146" lon="-2.2754">
        <ele>29.200000762939</ele>
        <time>2019-08-15T07:51:22.000Z</time>
      </trkpt>
      <trkpt lat="47.27146" lon="-2.27533">
        <ele>29.200000762939</ele>
        <time>2019-08-15T07:51:23.000Z</time>
      </trkpt>
      <trkpt lat="47.27144" lon="-2.27484">
        <ele>29.200000762939</ele>
        <time>2019-08-15T07:51:30.000Z</time>
      </trkpt>
      <trkpt lat="47.27143" lon="-2.27477">
        <ele>29.200000762939</ele>
        <time>2019-08-15T07:51:31.000Z</time>
      </trkpt>
      <trkpt lat="47.27141" lon="-2.27464">
        <ele>29.200000762939</ele>
        <time>2019-08-15T07:51:33.000Z</time>
      </trkpt>
      <trkpt lat="47.2714" lon="-2.27449">
        <ele>29.200000762939</ele>
        <time>2019-08-15T07:51:35.000Z</time>
      </trkpt>
      <trkpt lat="47.27139" lon="-2.27442">
        <ele>29.200000762939</ele>
        <time>2019-08-15T07:51:36.000Z</time>
      </trkpt>
      <trkpt lat="47.27135" lon="-2.27416">
        <ele>29.200000762939</ele>
        <time>2019-08-15T07:51:40.000Z</time>
      </trkpt>
      <trkpt lat="47.27129" lon="-2.27377">
        <ele>29.200000762939</ele>
        <time>2019-08-15T07:51:45.000Z</time>
      </trkpt>
      <trkpt lat="47.27123" lon="-2.27326">
        <ele>29.200000762939</ele>
        <time>2019-08-15T07:51:51.000Z</time>
      </trkpt>
      <trkpt lat="47.27116" lon="-2.27292">
        <ele>29.200000762939</ele>
        <time>2019-08-15T07:51:55.000Z</time>
      </trkpt>
      <trkpt lat="47.27113" lon="-2.27284">
        <ele>29.200000762939</ele>
        <time>2019-08-15T07:51:56.000Z</time>
      </trkpt>
      <trkpt lat="47.27105" lon="-2.27268">
        <ele>28.799999237061</ele>
        <time>2019-08-15T07:51:58.000Z</time>
      </trkpt>
      <trkpt lat="47.27101" lon="-2.2726">
        <ele>28.200000762939</ele>
        <time>2019-08-15T07:51:59.000Z</time>
      </trkpt>
      <trkpt lat="47.27097" lon="-2.27253">
        <ele>27.799999237061</ele>
        <time>2019-08-15T07:52:00.000Z</time>
      </trkpt>
      <trkpt lat="47.27093" lon="-2.27245">
        <ele>27.39999961853</ele>
        <time>2019-08-15T07:52:01.000Z</time>
      </trkpt>
      <trkpt lat="47.27089" lon="-2.27238">
        <ele>26.799999237061</ele>
        <time>2019-08-15T07:52:02.000Z</time>
      </trkpt>
      <trkpt lat="47.27073" lon="-2.27213">
        <ele>26.799999237061</ele>
        <time>2019-08-15T07:52:05.000Z</time>
      </trkpt>
      <trkpt lat="47.27068" lon="-2.27204">
        <ele>26.39999961853</ele>
        <time>2019-08-15T07:52:06.000Z</time>
      </trkpt>
      <trkpt lat="47.27062" lon="-2.27194">
        <ele>26</ele>
        <time>2019-08-15T07:52:07.000Z</time>
      </trkpt>
      <trkpt lat="47.27057" lon="-2.27184">
        <ele>25.60000038147</ele>
        <time>2019-08-15T07:52:08.000Z</time>
      </trkpt>
      <trkpt lat="47.27051" lon="-2.27174">
        <ele>25.200000762939</ele>
        <time>2019-08-15T07:52:09.000Z</time>
      </trkpt>
      <trkpt lat="47.27046" lon="-2.27165">
        <ele>24.799999237061</ele>
        <time>2019-08-15T07:52:10.000Z</time>
      </trkpt>
      <trkpt lat="47.2704" lon="-2.27155">
        <ele>24.799999237061</ele>
        <time>2019-08-15T07:52:11.000Z</time>
      </trkpt>
      <trkpt lat="47.27035" lon="-2.27147">
        <ele>24.39999961853</ele>
        <time>2019-08-15T07:52:12.000Z</time>
      </trkpt>
      <trkpt lat="47.2703" lon="-2.2714">
        <ele>23.799999237061</ele>
        <time>2019-08-15T07:52:13.000Z</time>
      </trkpt>
      <trkpt lat="47.27025" lon="-2.27132">
        <ele>23.200000762939</ele>
        <time>2019-08-15T07:52:14.000Z</time>
      </trkpt>
      <trkpt lat="47.27021" lon="-2.27125">
        <ele>22.799999237061</ele>
        <time>2019-08-15T07:52:15.000Z</time>
      </trkpt>
      <trkpt lat="47.27017" lon="-2.27118">
        <ele>22.200000762939</ele>
        <time>2019-08-15T07:52:16.000Z</time>
      </trkpt>
      <trkpt lat="47.27012" lon="-2.27102">
        <ele>22.200000762939</ele>
        <time>2019-08-15T07:52:18.000Z</time>
      </trkpt>
      <trkpt lat="47.27008" lon="-2.27086">
        <ele>22.200000762939</ele>
        <time>2019-08-15T07:52:20.000Z</time>
      </trkpt>
      <trkpt lat="47.27003" lon="-2.27069">
        <ele>22.200000762939</ele>
        <time>2019-08-15T07:52:22.000Z</time>
      </trkpt>
      <trkpt lat="47.26992" lon="-2.27045">
        <ele>22.200000762939</ele>
        <time>2019-08-15T07:52:25.000Z</time>
      </trkpt>
      <trkpt lat="47.26982" lon="-2.27031">
        <ele>22.200000762939</ele>
        <time>2019-08-15T07:52:27.000Z</time>
      </trkpt>
      <trkpt lat="47.26962" lon="-2.27008">
        <ele>22.200000762939</ele>
        <time>2019-08-15T07:52:31.000Z</time>
      </trkpt>
      <trkpt lat="47.26957" lon="-2.27003">
        <ele>22.200000762939</ele>
        <time>2019-08-15T07:52:32.000Z</time>
      </trkpt>
      <trkpt lat="47.26952" lon="-2.26989">
        <ele>22.200000762939</ele>
        <time>2019-08-15T07:52:34.000Z</time>
      </trkpt>
      <trkpt lat="47.26953" lon="-2.26958">
        <ele>22.200000762939</ele>
        <time>2019-08-15T07:52:38.000Z</time>
      </trkpt>
      <trkpt lat="47.26955" lon="-2.26949">
        <ele>21.799999237061</ele>
        <time>2019-08-15T07:52:39.000Z</time>
      </trkpt>
      <trkpt lat="47.26957" lon="-2.26937">
        <ele>21.39999961853</ele>
        <time>2019-08-15T07:52:40.000Z</time>
      </trkpt>
      <trkpt lat="47.26958" lon="-2.26928">
        <ele>21</ele>
        <time>2019-08-15T07:52:41.000Z</time>
      </trkpt>
      <trkpt lat="47.26958" lon="-2.26918">
        <ele>20.60000038147</ele>
        <time>2019-08-15T07:52:42.000Z</time>
      </trkpt>
      <trkpt lat="47.26958" lon="-2.26909">
        <ele>20.200000762939</ele>
        <time>2019-08-15T07:52:43.000Z</time>
      </trkpt>
      <trkpt lat="47.26952" lon="-2.26862">
        <ele>20.200000762939</ele>
        <time>2019-08-15T07:52:48.000Z</time>
      </trkpt>
      <trkpt lat="47.26946" lon="-2.26832">
        <ele>20.200000762939</ele>
        <time>2019-08-15T07:52:51.000Z</time>
      </trkpt>
      <trkpt lat="47.2694" lon="-2.26815">
        <ele>20.200000762939</ele>
        <time>2019-08-15T07:52:53.000Z</time>
      </trkpt>
      <trkpt lat="47.26933" lon="-2.26799">
        <ele>20.200000762939</ele>
        <time>2019-08-15T07:52:55.000Z</time>
      </trkpt>
      <trkpt lat="47.26926" lon="-2.26773">
        <ele>20.200000762939</ele>
        <time>2019-08-15T07:52:58.000Z</time>
      </trkpt>
      <trkpt lat="47.26922" lon="-2.26751">
        <ele>20.200000762939</ele>
        <time>2019-08-15T07:53:01.000Z</time>
      </trkpt>
      <trkpt lat="47.26919" lon="-2.26737">
        <ele>20.200000762939</ele>
        <time>2019-08-15T07:53:03.000Z</time>
      </trkpt>
      <trkpt lat="47.26911" lon="-2.26699">
        <ele>20.200000762939</ele>
        <time>2019-08-15T07:53:08.000Z</time>
      </trkpt>
      <trkpt lat="47.26893" lon="-2.26646">
        <ele>20.200000762939</ele>
        <time>2019-08-15T07:53:15.000Z</time>
      </trkpt>
      <trkpt lat="47.26878" lon="-2.26601">
        <ele>20.200000762939</ele>
        <time>2019-08-15T07:53:21.000Z</time>
      </trkpt>
      <trkpt lat="47.26869" lon="-2.26574">
        <ele>20.200000762939</ele>
        <time>2019-08-15T07:53:25.000Z</time>
      </trkpt>
      <trkpt lat="47.26866" lon="-2.26563">
        <ele>20.200000762939</ele>
        <time>2019-08-15T07:53:27.000Z</time>
      </trkpt>
      <trkpt lat="47.26864" lon="-2.2656">
        <ele>20.200000762939</ele>
        <time>2019-08-15T07:53:29.000Z</time>
      </trkpt>
      <trkpt lat="47.26865" lon="-2.26557">
        <ele>20.200000762939</ele>
        <time>2019-08-15T07:53:48.000Z</time>
      </trkpt>
      <trkpt lat="47.26869" lon="-2.26548">
        <ele>20.200000762939</ele>
        <time>2019-08-15T07:53:53.000Z</time>
      </trkpt>
      <trkpt lat="47.26874" lon="-2.26544">
        <ele>20.200000762939</ele>
        <time>2019-08-15T07:53:55.000Z</time>
      </trkpt>
      <trkpt lat="47.26881" lon="-2.2654">
        <ele>20.200000762939</ele>
        <time>2019-08-15T07:53:57.000Z</time>
      </trkpt>
      <trkpt lat="47.26885" lon="-2.26538">
        <ele>20.200000762939</ele>
        <time>2019-08-15T07:53:58.000Z</time>
      </trkpt>
      <trkpt lat="47.26903" lon="-2.26531">
        <ele>20.200000762939</ele>
        <time>2019-08-15T07:54:02.000Z</time>
      </trkpt>
      <trkpt lat="47.26938" lon="-2.26517">
        <ele>20.200000762939</ele>
        <time>2019-08-15T07:54:09.000Z</time>
      </trkpt>
      <trkpt lat="47.26963" lon="-2.26503">
        <ele>20.200000762939</ele>
        <time>2019-08-15T07:54:15.000Z</time>
      </trkpt>
      <trkpt lat="47.26985" lon="-2.26481">
        <ele>20.200000762939</ele>
        <time>2019-08-15T07:54:22.000Z</time>
      </trkpt>
      <trkpt lat="47.26995" lon="-2.26471">
        <ele>20.200000762939</ele>
        <time>2019-08-15T07:54:25.000Z</time>
      </trkpt>
      <trkpt lat="47.27002" lon="-2.26461">
        <ele>20.200000762939</ele>
        <time>2019-08-15T07:54:27.000Z</time>
      </trkpt>
      <trkpt lat="47.2701" lon="-2.26447">
        <ele>20.200000762939</ele>
        <time>2019-08-15T07:54:30.000Z</time>
      </trkpt>
      <trkpt lat="47.27019" lon="-2.26431">
        <ele>20.200000762939</ele>
        <time>2019-08-15T07:54:33.000Z</time>
      </trkpt>
      <trkpt lat="47.27044" lon="-2.26396">
        <ele>20.200000762939</ele>
        <time>2019-08-15T07:54:40.000Z</time>
      </trkpt>
      <trkpt lat="47.27071" lon="-2.26358">
        <ele>20.200000762939</ele>
        <time>2019-08-15T07:54:48.000Z</time>
      </trkpt>
      <trkpt lat="47.27091" lon="-2.26327">
        <ele>20.200000762939</ele>
        <time>2019-08-15T07:54:54.000Z</time>
      </trkpt>
      <trkpt lat="47.27095" lon="-2.26322">
        <ele>20.200000762939</ele>
        <time>2019-08-15T07:54:55.000Z</time>
      </trkpt>
      <trkpt lat="47.27122" lon="-2.26285">
        <ele>20.200000762939</ele>
        <time>2019-08-15T07:55:02.000Z</time>
      </trkpt>
      <trkpt lat="47.2714" lon="-2.26261">
        <ele>20.200000762939</ele>
        <time>2019-08-15T07:55:06.000Z</time>
      </trkpt>
      <trkpt lat="47.27145" lon="-2.26255">
        <ele>20.200000762939</ele>
        <time>2019-08-15T07:55:07.000Z</time>
      </trkpt>
      <trkpt lat="47.27149" lon="-2.26249">
        <ele>20.200000762939</ele>
        <time>2019-08-15T07:55:08.000Z</time>
      </trkpt>
      <trkpt lat="47.27168" lon="-2.26225">
        <ele>20.200000762939</ele>
        <time>2019-08-15T07:55:12.000Z</time>
      </trkpt>
      <trkpt lat="47.27201" lon="-2.26192">
        <ele>19.799999237061</ele>
        <time>2019-08-15T07:55:18.000Z</time>
      </trkpt>
      <trkpt lat="47.27206" lon="-2.26188">
        <ele>19.39999961853</ele>
        <time>2019-08-15T07:55:19.000Z</time>
      </trkpt>
      <trkpt lat="47.27212" lon="-2.26183">
        <ele>19</ele>
        <time>2019-08-15T07:55:20.000Z</time>
      </trkpt>
      <trkpt lat="47.27218" lon="-2.26179">
        <ele>18.60000038147</ele>
        <time>2019-08-15T07:55:21.000Z</time>
      </trkpt>
      <trkpt lat="47.27223" lon="-2.26176">
        <ele>18.200000762939</ele>
        <time>2019-08-15T07:55:22.000Z</time>
      </trkpt>
      <trkpt lat="47.27246" lon="-2.26163">
        <ele>18.200000762939</ele>
        <time>2019-08-15T07:55:26.000Z</time>
      </trkpt>
      <trkpt lat="47.27288" lon="-2.26143">
        <ele>18.200000762939</ele>
        <time>2019-08-15T07:55:33.000Z</time>
      </trkpt>
      <trkpt lat="47.27332" lon="-2.26128">
        <ele>17.799999237061</ele>
        <time>2019-08-15T07:55:40.000Z</time>
      </trkpt>
      <trkpt lat="47.27337" lon="-2.26125">
        <ele>17.200000762939</ele>
        <time>2019-08-15T07:55:41.000Z</time>
      </trkpt>
      <trkpt lat="47.27341" lon="-2.2612">
        <ele>16.799999237061</ele>
        <time>2019-08-15T07:55:42.000Z</time>
      </trkpt>
      <trkpt lat="47.27344" lon="-2.26114">
        <ele>16.39999961853</ele>
        <time>2019-08-15T07:55:43.000Z</time>
      </trkpt>
      <trkpt lat="47.27343" lon="-2.26107">
        <ele>16</ele>
        <time>2019-08-15T07:55:44.000Z</time>
      </trkpt>
      <trkpt lat="47.27335" lon="-2.26088">
        <ele>16</ele>
        <time>2019-08-15T07:55:47.000Z</time>
      </trkpt>
      <trkpt lat="47.27332" lon="-2.26082">
        <ele>16</ele>
        <time>2019-08-15T07:55:48.000Z</time>
      </trkpt>
      <trkpt lat="47.27307" lon="-2.26033">
        <ele>16</ele>
        <time>2019-08-15T07:55:55.000Z</time>
      </trkpt>
      <trkpt lat="47.27291" lon="-2.26003">
        <ele>16</ele>
        <time>2019-08-15T07:56:00.000Z</time>
      </trkpt>
      <trkpt lat="47.27291" lon="-2.25998">
        <ele>16</ele>
        <time>2019-08-15T07:56:01.000Z</time>
      </trkpt>
      <trkpt lat="47.27294" lon="-2.25991">
        <ele>16</ele>
        <time>2019-08-15T07:56:03.000Z</time>
      </trkpt>
      <trkpt lat="47.27305" lon="-2.25981">
        <ele>16</ele>
        <time>2019-08-15T07:56:08.000Z</time>
      </trkpt>
      <trkpt lat="47.27318" lon="-2.25974">
        <ele>16</ele>
        <time>2019-08-15T07:56:12.000Z</time>
      </trkpt>
      <trkpt lat="47.27323" lon="-2.25972">
        <ele>16</ele>
        <time>2019-08-15T07:56:13.000Z</time>
      </trkpt>
      <trkpt lat="47.27343" lon="-2.25965">
        <ele>16</ele>
        <time>2019-08-15T07:56:18.000Z</time>
      </trkpt>
      <trkpt lat="47.27359" lon="-2.25954">
        <ele>16</ele>
        <time>2019-08-15T07:56:23.000Z</time>
      </trkpt>
      <trkpt lat="47.27363" lon="-2.25949">
        <ele>16</ele>
        <time>2019-08-15T07:56:24.000Z</time>
      </trkpt>
      <trkpt lat="47.2737" lon="-2.25937">
        <ele>16</ele>
        <time>2019-08-15T07:56:26.000Z</time>
      </trkpt>
      <trkpt lat="47.27383" lon="-2.25921">
        <ele>16</ele>
        <time>2019-08-15T07:56:29.000Z</time>
      </trkpt>
      <trkpt lat="47.27391" lon="-2.25911">
        <ele>16</ele>
        <time>2019-08-15T07:56:31.000Z</time>
      </trkpt>
      <trkpt lat="47.27411" lon="-2.2588">
        <ele>16</ele>
        <time>2019-08-15T07:56:37.000Z</time>
      </trkpt>
      <trkpt lat="47.27421" lon="-2.25863">
        <ele>16</ele>
        <time>2019-08-15T07:56:40.000Z</time>
      </trkpt>
      <trkpt lat="47.27427" lon="-2.25851">
        <ele>16</ele>
        <time>2019-08-15T07:56:42.000Z</time>
      </trkpt>
      <trkpt lat="47.27436" lon="-2.25833">
        <ele>16</ele>
        <time>2019-08-15T07:56:45.000Z</time>
      </trkpt>
      <trkpt lat="47.27446" lon="-2.25815">
        <ele>16</ele>
        <time>2019-08-15T07:56:48.000Z</time>
      </trkpt>
      <trkpt lat="47.27454" lon="-2.25806">
        <ele>16</ele>
        <time>2019-08-15T07:56:50.000Z</time>
      </trkpt>
      <trkpt lat="47.27462" lon="-2.258">
        <ele>16</ele>
        <time>2019-08-15T07:56:52.000Z</time>
      </trkpt>
      <trkpt lat="47.2747" lon="-2.25793">
        <ele>16</ele>
        <time>2019-08-15T07:56:54.000Z</time>
      </trkpt>
      <trkpt lat="47.27477" lon="-2.25787">
        <ele>16</ele>
        <time>2019-08-15T07:56:56.000Z</time>
      </trkpt>
      <trkpt lat="47.27501" lon="-2.25761">
        <ele>16</ele>
        <time>2019-08-15T07:57:02.000Z</time>
      </trkpt>
      <trkpt lat="47.27517" lon="-2.25741">
        <ele>16</ele>
        <time>2019-08-15T07:57:07.000Z</time>
      </trkpt>
      <trkpt lat="47.27518" lon="-2.25737">
        <ele>15.60000038147</ele>
        <time>2019-08-15T07:57:08.000Z</time>
      </trkpt>
      <trkpt lat="47.2752" lon="-2.25734">
        <ele>15.199999809265</ele>
        <time>2019-08-15T07:57:09.000Z</time>
      </trkpt>
      <trkpt lat="47.27522" lon="-2.25729">
        <ele>14.800000190735</ele>
        <time>2019-08-15T07:57:10.000Z</time>
      </trkpt>
      <trkpt lat="47.27524" lon="-2.25724">
        <ele>14.39999961853</ele>
        <time>2019-08-15T07:57:11.000Z</time>
      </trkpt>
      <trkpt lat="47.27526" lon="-2.25719">
        <ele>14</ele>
        <time>2019-08-15T07:57:12.000Z</time>
      </trkpt>
      <trkpt lat="47.27528" lon="-2.25714">
        <ele>14</ele>
        <time>2019-08-15T07:57:13.000Z</time>
      </trkpt>
      <trkpt lat="47.27538" lon="-2.2569">
        <ele>14</ele>
        <time>2019-08-15T07:57:17.000Z</time>
      </trkpt>
      <trkpt lat="47.27544" lon="-2.25678">
        <ele>14</ele>
        <time>2019-08-15T07:57:19.000Z</time>
      </trkpt>
      <trkpt lat="47.27548" lon="-2.25673">
        <ele>13.60000038147</ele>
        <time>2019-08-15T07:57:20.000Z</time>
      </trkpt>
      <trkpt lat="47.27551" lon="-2.25668">
        <ele>13.199999809265</ele>
        <time>2019-08-15T07:57:21.000Z</time>
      </trkpt>
      <trkpt lat="47.27554" lon="-2.25664">
        <ele>12.800000190735</ele>
        <time>2019-08-15T07:57:22.000Z</time>
      </trkpt>
      <trkpt lat="47.27554" lon="-2.25659">
        <ele>12.39999961853</ele>
        <time>2019-08-15T07:57:23.000Z</time>
      </trkpt>
      <trkpt lat="47.27554" lon="-2.25654">
        <ele>12</ele>
        <time>2019-08-15T07:57:24.000Z</time>
      </trkpt>
      <trkpt lat="47.27554" lon="-2.25649">
        <ele>12</ele>
        <time>2019-08-15T07:57:25.000Z</time>
      </trkpt>
      <trkpt lat="47.27553" lon="-2.25639">
        <ele>12</ele>
        <time>2019-08-15T07:57:27.000Z</time>
      </trkpt>
      <trkpt lat="47.27555" lon="-2.25613">
        <ele>12</ele>
        <time>2019-08-15T07:57:31.000Z</time>
      </trkpt>
      <trkpt lat="47.27555" lon="-2.2559">
        <ele>12</ele>
        <time>2019-08-15T07:57:34.000Z</time>
      </trkpt>
      <trkpt lat="47.27552" lon="-2.25572">
        <ele>12</ele>
        <time>2019-08-15T07:57:36.000Z</time>
      </trkpt>
      <trkpt lat="47.27544" lon="-2.25524">
        <ele>12</ele>
        <time>2019-08-15T07:57:42.000Z</time>
      </trkpt>
      <trkpt lat="47.27541" lon="-2.25517">
        <ele>12</ele>
        <time>2019-08-15T07:57:43.000Z</time>
      </trkpt>
      <trkpt lat="47.27536" lon="-2.25505">
        <ele>12</ele>
        <time>2019-08-15T07:57:45.000Z</time>
      </trkpt>
      <trkpt lat="47.27534" lon="-2.25499">
        <ele>12</ele>
        <time>2019-08-15T07:57:46.000Z</time>
      </trkpt>
      <trkpt lat="47.27518" lon="-2.25474">
        <ele>12</ele>
        <time>2019-08-15T07:57:50.000Z</time>
      </trkpt>
      <trkpt lat="47.27513" lon="-2.25469">
        <ele>12</ele>
        <time>2019-08-15T07:57:51.000Z</time>
      </trkpt>
      <trkpt lat="47.27498" lon="-2.25456">
        <ele>12</ele>
        <time>2019-08-15T07:57:54.000Z</time>
      </trkpt>
      <trkpt lat="47.27487" lon="-2.25454">
        <ele>12</ele>
        <time>2019-08-15T07:57:56.000Z</time>
      </trkpt>
      <trkpt lat="47.27465" lon="-2.25456">
        <ele>12</ele>
        <time>2019-08-15T07:58:00.000Z</time>
      </trkpt>
      <trkpt lat="47.27444" lon="-2.25446">
        <ele>12</ele>
        <time>2019-08-15T07:58:04.000Z</time>
      </trkpt>
      <trkpt lat="47.27436" lon="-2.25437">
        <ele>12</ele>
        <time>2019-08-15T07:58:06.000Z</time>
      </trkpt>
      <trkpt lat="47.2743" lon="-2.25429">
        <ele>12</ele>
        <time>2019-08-15T07:58:08.000Z</time>
      </trkpt>
      <trkpt lat="47.27422" lon="-2.25423">
        <ele>12</ele>
        <time>2019-08-15T07:58:11.000Z</time>
      </trkpt>
      <trkpt lat="47.2742" lon="-2.25419">
        <ele>11.60000038147</ele>
        <time>2019-08-15T07:58:12.000Z</time>
      </trkpt>
      <trkpt lat="47.27419" lon="-2.25416">
        <ele>11.199999809265</ele>
        <time>2019-08-15T07:58:13.000Z</time>
      </trkpt>
      <trkpt lat="47.27418" lon="-2.25412">
        <ele>10.800000190735</ele>
        <time>2019-08-15T07:58:14.000Z</time>
      </trkpt>
      <trkpt lat="47.27417" lon="-2.25408">
        <ele>10</ele>
        <time>2019-08-15T07:58:15.000Z</time>
      </trkpt>
      <trkpt lat="47.27413" lon="-2.25399">
        <ele>10</ele>
        <time>2019-08-15T07:58:17.000Z</time>
      </trkpt>
      <trkpt lat="47.27407" lon="-2.25388">
        <ele>10.39999961853</ele>
        <time>2019-08-15T07:58:20.000Z</time>
      </trkpt>
      <trkpt lat="47.27406" lon="-2.25383">
        <ele>10.800000190735</ele>
        <time>2019-08-15T07:58:21.000Z</time>
      </trkpt>
      <trkpt lat="47.27405" lon="-2.25377">
        <ele>11.199999809265</ele>
        <time>2019-08-15T07:58:22.000Z</time>
      </trkpt>
      <trkpt lat="47.27405" lon="-2.25372">
        <ele>11.60000038147</ele>
        <time>2019-08-15T07:58:23.000Z</time>
      </trkpt>
      <trkpt lat="47.27404" lon="-2.25367">
        <ele>12</ele>
        <time>2019-08-15T07:58:24.000Z</time>
      </trkpt>
      <trkpt lat="47.27403" lon="-2.25336">
        <ele>12</ele>
        <time>2019-08-15T07:58:29.000Z</time>
      </trkpt>
      <trkpt lat="47.27398" lon="-2.25316">
        <ele>12</ele>
        <time>2019-08-15T07:58:33.000Z</time>
      </trkpt>
      <trkpt lat="47.274" lon="-2.25303">
        <ele>12</ele>
        <time>2019-08-15T07:58:37.000Z</time>
      </trkpt>
      <trkpt lat="47.274" lon="-2.25299">
        <ele>12</ele>
        <time>2019-08-15T07:58:38.000Z</time>
      </trkpt>
      <trkpt lat="47.27396" lon="-2.25273">
        <ele>12</ele>
        <time>2019-08-15T07:58:42.000Z</time>
      </trkpt>
      <trkpt lat="47.27392" lon="-2.25246">
        <ele>12</ele>
        <time>2019-08-15T07:58:46.000Z</time>
      </trkpt>
      <trkpt lat="47.27393" lon="-2.25237">
        <ele>12</ele>
        <time>2019-08-15T07:58:47.000Z</time>
      </trkpt>
      <trkpt lat="47.27396" lon="-2.25217">
        <ele>11.60000038147</ele>
        <time>2019-08-15T07:58:49.000Z</time>
      </trkpt>
      <trkpt lat="47.27396" lon="-2.25208">
        <ele>11.199999809265</ele>
        <time>2019-08-15T07:58:50.000Z</time>
      </trkpt>
      <trkpt lat="47.27397" lon="-2.25202">
        <ele>10.800000190735</ele>
        <time>2019-08-15T07:58:51.000Z</time>
      </trkpt>
      <trkpt lat="47.27395" lon="-2.25194">
        <ele>10.39999961853</ele>
        <time>2019-08-15T07:58:52.000Z</time>
      </trkpt>
      <trkpt lat="47.27394" lon="-2.25187">
        <ele>10</ele>
        <time>2019-08-15T07:58:53.000Z</time>
      </trkpt>
      <trkpt lat="47.27392" lon="-2.2518">
        <ele>10</ele>
        <time>2019-08-15T07:58:54.000Z</time>
      </trkpt>
      <trkpt lat="47.27387" lon="-2.25166">
        <ele>10</ele>
        <time>2019-08-15T07:58:56.000Z</time>
      </trkpt>
      <trkpt lat="47.27378" lon="-2.25144">
        <ele>10</ele>
        <time>2019-08-15T07:58:59.000Z</time>
      </trkpt>
      <trkpt lat="47.27375" lon="-2.25137">
        <ele>10</ele>
        <time>2019-08-15T07:59:00.000Z</time>
      </trkpt>
      <trkpt lat="47.27367" lon="-2.25121">
        <ele>10</ele>
        <time>2019-08-15T07:59:02.000Z</time>
      </trkpt>
      <trkpt lat="47.27358" lon="-2.251">
        <ele>10</ele>
        <time>2019-08-15T07:59:05.000Z</time>
      </trkpt>
      <trkpt lat="47.27349" lon="-2.25069">
        <ele>10</ele>
        <time>2019-08-15T07:59:09.000Z</time>
      </trkpt>
      <trkpt lat="47.27349" lon="-2.25054">
        <ele>10</ele>
        <time>2019-08-15T07:59:11.000Z</time>
      </trkpt>
      <trkpt lat="47.27353" lon="-2.25033">
        <ele>10</ele>
        <time>2019-08-15T07:59:15.000Z</time>
      </trkpt>
      <trkpt lat="47.27355" lon="-2.25028">
        <ele>10</ele>
        <time>2019-08-15T07:59:16.000Z</time>
      </trkpt>
      <trkpt lat="47.27367" lon="-2.25002">
        <ele>10</ele>
        <time>2019-08-15T07:59:21.000Z</time>
      </trkpt>
      <trkpt lat="47.2737" lon="-2.24997">
        <ele>10</ele>
        <time>2019-08-15T07:59:22.000Z</time>
      </trkpt>
      <trkpt lat="47.27382" lon="-2.24976">
        <ele>10</ele>
        <time>2019-08-15T07:59:26.000Z</time>
      </trkpt>
      <trkpt lat="47.27384" lon="-2.2497">
        <ele>10</ele>
        <time>2019-08-15T07:59:27.000Z</time>
      </trkpt>
      <trkpt lat="47.27385" lon="-2.24949">
        <ele>10</ele>
        <time>2019-08-15T07:59:30.000Z</time>
      </trkpt>
      <trkpt lat="47.27388" lon="-2.24931">
        <ele>10</ele>
        <time>2019-08-15T07:59:33.000Z</time>
      </trkpt>
      <trkpt lat="47.27389" lon="-2.24916">
        <ele>10</ele>
        <time>2019-08-15T07:59:37.000Z</time>
      </trkpt>
      <trkpt lat="47.27394" lon="-2.24897">
        <ele>10</ele>
        <time>2019-08-15T07:59:42.000Z</time>
      </trkpt>
      <trkpt lat="47.27403" lon="-2.24887">
        <ele>10</ele>
        <time>2019-08-15T07:59:47.000Z</time>
      </trkpt>
      <trkpt lat="47.27404" lon="-2.24888">
        <ele>10</ele>
        <time>2019-08-15T07:59:50.000Z</time>
      </trkpt>
      <trkpt lat="47.27407" lon="-2.2486">
        <ele>10</ele>
        <time>2019-08-15T08:01:29.000Z</time>
      </trkpt>
      <trkpt lat="47.27421" lon="-2.24828">
        <ele>10</ele>
        <time>2019-08-15T08:01:33.000Z</time>
      </trkpt>
      <trkpt lat="47.27441" lon="-2.24805">
        <ele>10</ele>
        <time>2019-08-15T08:01:38.000Z</time>
      </trkpt>
      <trkpt lat="47.27444" lon="-2.24802">
        <ele>10.39999961853</ele>
        <time>2019-08-15T08:01:39.000Z</time>
      </trkpt>
      <trkpt lat="47.27447" lon="-2.24799">
        <ele>10.800000190735</ele>
        <time>2019-08-15T08:01:40.000Z</time>
      </trkpt>
      <trkpt lat="47.27451" lon="-2.24797">
        <ele>11.39999961853</ele>
        <time>2019-08-15T08:01:41.000Z</time>
      </trkpt>
      <trkpt lat="47.27455" lon="-2.24797">
        <ele>11.800000190735</ele>
        <time>2019-08-15T08:01:42.000Z</time>
      </trkpt>
      <trkpt lat="47.27459" lon="-2.24796">
        <ele>12.199999809265</ele>
        <time>2019-08-15T08:01:43.000Z</time>
      </trkpt>
      <trkpt lat="47.27466" lon="-2.24795">
        <ele>12.800000190735</ele>
        <time>2019-08-15T08:01:45.000Z</time>
      </trkpt>
      <trkpt lat="47.2747" lon="-2.24795">
        <ele>13.199999809265</ele>
        <time>2019-08-15T08:01:46.000Z</time>
      </trkpt>
      <trkpt lat="47.27473" lon="-2.24795">
        <ele>13.60000038147</ele>
        <time>2019-08-15T08:01:47.000Z</time>
      </trkpt>
      <trkpt lat="47.27477" lon="-2.24795">
        <ele>14</ele>
        <time>2019-08-15T08:01:48.000Z</time>
      </trkpt>
      <trkpt lat="47.2748" lon="-2.24794">
        <ele>14.39999961853</ele>
        <time>2019-08-15T08:01:49.000Z</time>
      </trkpt>
      <trkpt lat="47.27489" lon="-2.24792">
        <ele>14.800000190735</ele>
        <time>2019-08-15T08:01:52.000Z</time>
      </trkpt>
      <trkpt lat="47.27493" lon="-2.24792">
        <ele>15.39999961853</ele>
        <time>2019-08-15T08:01:53.000Z</time>
      </trkpt>
      <trkpt lat="47.27496" lon="-2.24791">
        <ele>15.800000190735</ele>
        <time>2019-08-15T08:01:54.000Z</time>
      </trkpt>
      <trkpt lat="47.275" lon="-2.24791">
        <ele>16.200000762939</ele>
        <time>2019-08-15T08:01:55.000Z</time>
      </trkpt>
      <trkpt lat="47.27503" lon="-2.2479">
        <ele>16.60000038147</ele>
        <time>2019-08-15T08:01:56.000Z</time>
      </trkpt>
      <trkpt lat="47.27524" lon="-2.24788">
        <ele>16.60000038147</ele>
        <time>2019-08-15T08:02:01.000Z</time>
      </trkpt>
      <trkpt lat="47.2755" lon="-2.24791">
        <ele>16.60000038147</ele>
        <time>2019-08-15T08:02:07.000Z</time>
      </trkpt>
      <trkpt lat="47.27554" lon="-2.24791">
        <ele>17</ele>
        <time>2019-08-15T08:02:08.000Z</time>
      </trkpt>
      <trkpt lat="47.27557" lon="-2.24792">
        <ele>17.60000038147</ele>
        <time>2019-08-15T08:02:09.000Z</time>
      </trkpt>
      <trkpt lat="47.27561" lon="-2.24792">
        <ele>18</ele>
        <time>2019-08-15T08:02:10.000Z</time>
      </trkpt>
      <trkpt lat="47.27566" lon="-2.24793">
        <ele>18.39999961853</ele>
        <time>2019-08-15T08:02:11.000Z</time>
      </trkpt>
      <trkpt lat="47.2757" lon="-2.24794">
        <ele>18.799999237061</ele>
        <time>2019-08-15T08:02:12.000Z</time>
      </trkpt>
      <trkpt lat="47.27598" lon="-2.24795">
        <ele>18.799999237061</ele>
        <time>2019-08-15T08:02:18.000Z</time>
      </trkpt>
      <trkpt lat="47.27622" lon="-2.24799">
        <ele>18.799999237061</ele>
        <time>2019-08-15T08:02:23.000Z</time>
      </trkpt>
      <trkpt lat="47.27652" lon="-2.24808">
        <ele>18.799999237061</ele>
        <time>2019-08-15T08:02:27.000Z</time>
      </trkpt>
      <trkpt lat="47.27659" lon="-2.24808">
        <ele>18.799999237061</ele>
        <time>2019-08-15T08:02:28.000Z</time>
      </trkpt>
      <trkpt lat="47.27689" lon="-2.24806">
        <ele>18.799999237061</ele>
        <time>2019-08-15T08:02:33.000Z</time>
      </trkpt>
      <trkpt lat="47.27706" lon="-2.24807">
        <ele>18.799999237061</ele>
        <time>2019-08-15T08:02:36.000Z</time>
      </trkpt>
      <trkpt lat="47.27721" lon="-2.24808">
        <ele>18.799999237061</ele>
        <time>2019-08-15T08:02:39.000Z</time>
      </trkpt>
      <trkpt lat="47.27747" lon="-2.24809">
        <ele>18.799999237061</ele>
        <time>2019-08-15T08:02:44.000Z</time>
      </trkpt>
      <trkpt lat="47.27758" lon="-2.24808">
        <ele>18.799999237061</ele>
        <time>2019-08-15T08:02:46.000Z</time>
      </trkpt>
      <trkpt lat="47.27799" lon="-2.24806">
        <ele>18.799999237061</ele>
        <time>2019-08-15T08:02:54.000Z</time>
      </trkpt>
      <trkpt lat="47.27828" lon="-2.24804">
        <ele>18.799999237061</ele>
        <time>2019-08-15T08:03:00.000Z</time>
      </trkpt>
      <trkpt lat="47.27837" lon="-2.24802">
        <ele>18.799999237061</ele>
        <time>2019-08-15T08:03:02.000Z</time>
      </trkpt>
      <trkpt lat="47.27848" lon="-2.24795">
        <ele>18.799999237061</ele>
        <time>2019-08-15T08:03:05.000Z</time>
      </trkpt>
      <trkpt lat="47.27855" lon="-2.24783">
        <ele>18.799999237061</ele>
        <time>2019-08-15T08:03:09.000Z</time>
      </trkpt>
      <trkpt lat="47.27856" lon="-2.24782">
        <ele>18.799999237061</ele>
        <time>2019-08-15T08:03:10.000Z</time>
      </trkpt>
      <trkpt lat="47.27857" lon="-2.24782">
        <ele>18.799999237061</ele>
        <time>2019-08-15T08:03:13.000Z</time>
      </trkpt>
      <trkpt lat="47.27858" lon="-2.24781">
        <ele>18.799999237061</ele>
        <time>2019-08-15T08:03:15.000Z</time>
      </trkpt>
      <trkpt lat="47.27865" lon="-2.24782">
        <ele>18.799999237061</ele>
        <time>2019-08-15T08:03:18.000Z</time>
      </trkpt>
      <trkpt lat="47.27875" lon="-2.24782">
        <ele>18.799999237061</ele>
        <time>2019-08-15T08:03:21.000Z</time>
      </trkpt>
      <trkpt lat="47.27878" lon="-2.24781">
        <ele>18.799999237061</ele>
        <time>2019-08-15T08:03:22.000Z</time>
      </trkpt>
      <trkpt lat="47.27891" lon="-2.24781">
        <ele>18.799999237061</ele>
        <time>2019-08-15T08:03:27.000Z</time>
      </trkpt>
      <trkpt lat="47.27897" lon="-2.2478">
        <ele>19.200000762939</ele>
        <time>2019-08-15T08:03:29.000Z</time>
      </trkpt>
      <trkpt lat="47.279" lon="-2.2478">
        <ele>19.60000038147</ele>
        <time>2019-08-15T08:03:30.000Z</time>
      </trkpt>
      <trkpt lat="47.27902" lon="-2.24779">
        <ele>20</ele>
        <time>2019-08-15T08:03:31.000Z</time>
      </trkpt>
      <trkpt lat="47.27904" lon="-2.24778">
        <ele>20.60000038147</ele>
        <time>2019-08-15T08:03:32.000Z</time>
      </trkpt>
      <trkpt lat="47.27906" lon="-2.24777">
        <ele>21</ele>
        <time>2019-08-15T08:03:33.000Z</time>
      </trkpt>
      <trkpt lat="47.27913" lon="-2.2478">
        <ele>21.39999961853</ele>
        <time>2019-08-15T08:03:38.000Z</time>
      </trkpt>
      <trkpt lat="47.27913" lon="-2.2478">
        <ele>22.200000762939</ele>
        <time>2019-08-15T08:03:39.000Z</time>
      </trkpt>
      <trkpt lat="47.27912" lon="-2.24781">
        <ele>22.60000038147</ele>
        <time>2019-08-15T08:03:40.000Z</time>
      </trkpt>
      <trkpt lat="47.27908" lon="-2.24783">
        <ele>23</ele>
        <time>2019-08-15T08:03:41.000Z</time>
      </trkpt>
      <trkpt lat="47.27892" lon="-2.24792">
        <ele>23</ele>
        <time>2019-08-15T08:03:45.000Z</time>
      </trkpt>
      <trkpt lat="47.27893" lon="-2.24804">
        <ele>23</ele>
        <time>2019-08-15T08:03:48.000Z</time>
      </trkpt>
      <trkpt lat="47.27904" lon="-2.24812">
        <ele>23</ele>
        <time>2019-08-15T08:03:51.000Z</time>
      </trkpt>
      <trkpt lat="47.27908" lon="-2.24814">
        <ele>23</ele>
        <time>2019-08-15T08:03:52.000Z</time>
      </trkpt>
      <trkpt lat="47.27916" lon="-2.24819">
        <ele>23</ele>
        <time>2019-08-15T08:03:54.000Z</time>
      </trkpt>
      <trkpt lat="47.27929" lon="-2.24823">
        <ele>23</ele>
        <time>2019-08-15T08:03:57.000Z</time>
      </trkpt>
      <trkpt lat="47.27948" lon="-2.24831">
        <ele>23</ele>
        <time>2019-08-15T08:04:02.000Z</time>
      </trkpt>
      <trkpt lat="47.27952" lon="-2.24831">
        <ele>23</ele>
        <time>2019-08-15T08:04:03.000Z</time>
      </trkpt>
      <trkpt lat="47.27969" lon="-2.24837">
        <ele>23</ele>
        <time>2019-08-15T08:04:07.000Z</time>
      </trkpt>
      <trkpt lat="47.27974" lon="-2.24839">
        <ele>23</ele>
        <time>2019-08-15T08:04:08.000Z</time>
      </trkpt>
      <trkpt lat="47.27997" lon="-2.24844">
        <ele>23</ele>
        <time>2019-08-15T08:04:13.000Z</time>
      </trkpt>
      <trkpt lat="47.2803" lon="-2.24852">
        <ele>23</ele>
        <time>2019-08-15T08:04:21.000Z</time>
      </trkpt>
      <trkpt lat="47.28039" lon="-2.24854">
        <ele>23</ele>
        <time>2019-08-15T08:04:23.000Z</time>
      </trkpt>
      <trkpt lat="47.28048" lon="-2.24855">
        <ele>23</ele>
        <time>2019-08-15T08:04:25.000Z</time>
      </trkpt>
      <trkpt lat="47.28051" lon="-2.24857">
        <ele>23</ele>
        <time>2019-08-15T08:04:26.000Z</time>
      </trkpt>
      <trkpt lat="47.28067" lon="-2.24861">
        <ele>23</ele>
        <time>2019-08-15T08:04:30.000Z</time>
      </trkpt>
      <trkpt lat="47.28093" lon="-2.24862">
        <ele>23</ele>
        <time>2019-08-15T08:04:36.000Z</time>
      </trkpt>
      <trkpt lat="47.28115" lon="-2.24871">
        <ele>22.60000038147</ele>
        <time>2019-08-15T08:04:40.000Z</time>
      </trkpt>
      <trkpt lat="47.28121" lon="-2.24873">
        <ele>22.200000762939</ele>
        <time>2019-08-15T08:04:41.000Z</time>
      </trkpt>
      <trkpt lat="47.28126" lon="-2.24874">
        <ele>21.799999237061</ele>
        <time>2019-08-15T08:04:42.000Z</time>
      </trkpt>
      <trkpt lat="47.28132" lon="-2.24874">
        <ele>21.39999961853</ele>
        <time>2019-08-15T08:04:43.000Z</time>
      </trkpt>
      <trkpt lat="47.28136" lon="-2.24874">
        <ele>20.799999237061</ele>
        <time>2019-08-15T08:04:44.000Z</time>
      </trkpt>
      <trkpt lat="47.2814" lon="-2.24873">
        <ele>20.799999237061</ele>
        <time>2019-08-15T08:04:45.000Z</time>
      </trkpt>
      <trkpt lat="47.28144" lon="-2.24871">
        <ele>20.39999961853</ele>
        <time>2019-08-15T08:04:46.000Z</time>
      </trkpt>
      <trkpt lat="47.28147" lon="-2.24868">
        <ele>20</ele>
        <time>2019-08-15T08:04:47.000Z</time>
      </trkpt>
      <trkpt lat="47.28149" lon="-2.24864">
        <ele>19.60000038147</ele>
        <time>2019-08-15T08:04:48.000Z</time>
      </trkpt>
      <trkpt lat="47.2815" lon="-2.24859">
        <ele>19</ele>
        <time>2019-08-15T08:04:49.000Z</time>
      </trkpt>
      <trkpt lat="47.28151" lon="-2.24854">
        <ele>18.60000038147</ele>
        <time>2019-08-15T08:04:50.000Z</time>
      </trkpt>
      <trkpt lat="47.28152" lon="-2.2485">
        <ele>18.60000038147</ele>
        <time>2019-08-15T08:04:51.000Z</time>
      </trkpt>
      <trkpt lat="47.28153" lon="-2.24845">
        <ele>17.799999237061</ele>
        <time>2019-08-15T08:04:52.000Z</time>
      </trkpt>
      <trkpt lat="47.28154" lon="-2.2484">
        <ele>17.39999961853</ele>
        <time>2019-08-15T08:04:53.000Z</time>
      </trkpt>
      <trkpt lat="47.28156" lon="-2.24836">
        <ele>17</ele>
        <time>2019-08-15T08:04:54.000Z</time>
      </trkpt>
      <trkpt lat="47.28158" lon="-2.24832">
        <ele>16.60000038147</ele>
        <time>2019-08-15T08:04:55.000Z</time>
      </trkpt>
      <trkpt lat="47.28163" lon="-2.24828">
        <ele>16.60000038147</ele>
        <time>2019-08-15T08:04:57.000Z</time>
      </trkpt>
      <trkpt lat="47.28167" lon="-2.24827">
        <ele>16.60000038147</ele>
        <time>2019-08-15T08:04:58.000Z</time>
      </trkpt>
      <trkpt lat="47.28186" lon="-2.24825">
        <ele>16.200000762939</ele>
        <time>2019-08-15T08:05:02.000Z</time>
      </trkpt>
      <trkpt lat="47.28191" lon="-2.24826">
        <ele>15.800000190735</ele>
        <time>2019-08-15T08:05:03.000Z</time>
      </trkpt>
      <trkpt lat="47.28195" lon="-2.24828">
        <ele>15.199999809265</ele>
        <time>2019-08-15T08:05:04.000Z</time>
      </trkpt>
      <trkpt lat="47.282" lon="-2.24829">
        <ele>14.800000190735</ele>
        <time>2019-08-15T08:05:05.000Z</time>
      </trkpt>
      <trkpt lat="47.28204" lon="-2.24831">
        <ele>14.39999961853</ele>
        <time>2019-08-15T08:05:06.000Z</time>
      </trkpt>
      <trkpt lat="47.28215" lon="-2.24836">
        <ele>14</ele>
        <time>2019-08-15T08:05:08.000Z</time>
      </trkpt>
      <trkpt lat="47.2822" lon="-2.24837">
        <ele>13.39999961853</ele>
        <time>2019-08-15T08:05:09.000Z</time>
      </trkpt>
      <trkpt lat="47.28224" lon="-2.24837">
        <ele>13</ele>
        <time>2019-08-15T08:05:10.000Z</time>
      </trkpt>
      <trkpt lat="47.28228" lon="-2.24837">
        <ele>12.60000038147</ele>
        <time>2019-08-15T08:05:11.000Z</time>
      </trkpt>
      <trkpt lat="47.28232" lon="-2.24835">
        <ele>12</ele>
        <time>2019-08-15T08:05:12.000Z</time>
      </trkpt>
      <trkpt lat="47.28235" lon="-2.24833">
        <ele>11.39999961853</ele>
        <time>2019-08-15T08:05:13.000Z</time>
      </trkpt>
      <trkpt lat="47.2824" lon="-2.24832">
        <ele>11</ele>
        <time>2019-08-15T08:05:14.000Z</time>
      </trkpt>
      <trkpt lat="47.28244" lon="-2.24829">
        <ele>10.39999961853</ele>
        <time>2019-08-15T08:05:15.000Z</time>
      </trkpt>
      <trkpt lat="47.28249" lon="-2.24826">
        <ele>9.8000001907349</ele>
        <time>2019-08-15T08:05:16.000Z</time>
      </trkpt>
      <trkpt lat="47.28265" lon="-2.24818">
        <ele>9.8000001907349</ele>
        <time>2019-08-15T08:05:19.000Z</time>
      </trkpt>
      <trkpt lat="47.28276" lon="-2.24811">
        <ele>9.3999996185303</ele>
        <time>2019-08-15T08:05:21.000Z</time>
      </trkpt>
      <trkpt lat="47.28283" lon="-2.24807">
        <ele>9</ele>
        <time>2019-08-15T08:05:22.000Z</time>
      </trkpt>
      <trkpt lat="47.28288" lon="-2.24804">
        <ele>8.6000003814697</ele>
        <time>2019-08-15T08:05:23.000Z</time>
      </trkpt>
      <trkpt lat="47.28294" lon="-2.24802">
        <ele>8.1999998092651</ele>
        <time>2019-08-15T08:05:24.000Z</time>
      </trkpt>
      <trkpt lat="47.28302" lon="-2.24797">
        <ele>7.8000001907349</ele>
        <time>2019-08-15T08:05:25.000Z</time>
      </trkpt>
      <trkpt lat="47.28336" lon="-2.24788">
        <ele>7.8000001907349</ele>
        <time>2019-08-15T08:05:29.000Z</time>
      </trkpt>
      <trkpt lat="47.28357" lon="-2.24791">
        <ele>7.4000000953674</ele>
        <time>2019-08-15T08:05:32.000Z</time>
      </trkpt>
      <trkpt lat="47.28364" lon="-2.24787">
        <ele>7</ele>
        <time>2019-08-15T08:05:33.000Z</time>
      </trkpt>
      <trkpt lat="47.28367" lon="-2.24783">
        <ele>6.4000000953674</ele>
        <time>2019-08-15T08:05:34.000Z</time>
      </trkpt>
      <trkpt lat="47.28369" lon="-2.24783">
        <ele>6</ele>
        <time>2019-08-15T08:05:35.000Z</time>
      </trkpt>
      <trkpt lat="47.28369" lon="-2.24782">
        <ele>5.5999999046326</ele>
        <time>2019-08-15T08:05:36.000Z</time>
      </trkpt>
      <trkpt lat="47.28369" lon="-2.24782">
        <ele>5.1999998092651</ele>
        <time>2019-08-15T08:05:37.000Z</time>
      </trkpt>
      <trkpt lat="47.28374" lon="-2.24773">
        <ele>3.4000000953674</ele>
        <time>2019-08-15T08:06:22.000Z</time>
      </trkpt>
      <trkpt lat="47.28376" lon="-2.24773">
        <ele>3.4000000953674</ele>
        <time>2019-08-15T08:06:23.000Z</time>
      </trkpt>
      <trkpt lat="47.28385" lon="-2.24771">
        <ele>3.4000000953674</ele>
        <time>2019-08-15T08:06:26.000Z</time>
      </trkpt>
      <trkpt lat="47.28388" lon="-2.2477">
        <ele>3.4000000953674</ele>
        <time>2019-08-15T08:06:27.000Z</time>
      </trkpt>
      <trkpt lat="47.28409" lon="-2.24758">
        <ele>3.4000000953674</ele>
        <time>2019-08-15T08:06:32.000Z</time>
      </trkpt>
      <trkpt lat="47.28444" lon="-2.24733">
        <ele>3.4000000953674</ele>
        <time>2019-08-15T08:06:39.000Z</time>
      </trkpt>
      <trkpt lat="47.28455" lon="-2.24726">
        <ele>3.4000000953674</ele>
        <time>2019-08-15T08:06:41.000Z</time>
      </trkpt>
      <trkpt lat="47.28475" lon="-2.2471">
        <ele>3.4000000953674</ele>
        <time>2019-08-15T08:06:45.000Z</time>
      </trkpt>
      <trkpt lat="47.2848" lon="-2.24707">
        <ele>3.4000000953674</ele>
        <time>2019-08-15T08:06:46.000Z</time>
      </trkpt>
      <trkpt lat="47.28501" lon="-2.24693">
        <ele>3.4000000953674</ele>
        <time>2019-08-15T08:06:50.000Z</time>
      </trkpt>
      <trkpt lat="47.28524" lon="-2.24676">
        <ele>3.4000000953674</ele>
        <time>2019-08-15T08:06:55.000Z</time>
      </trkpt>
      <trkpt lat="47.28559" lon="-2.24645">
        <ele>3.4000000953674</ele>
        <time>2019-08-15T08:07:02.000Z</time>
      </trkpt>
      <trkpt lat="47.28572" lon="-2.24633">
        <ele>3.4000000953674</ele>
        <time>2019-08-15T08:07:05.000Z</time>
      </trkpt>
      <trkpt lat="47.28579" lon="-2.24627">
        <ele>3.4000000953674</ele>
        <time>2019-08-15T08:07:07.000Z</time>
      </trkpt>
      <trkpt lat="47.28583" lon="-2.24621">
        <ele>3.4000000953674</ele>
        <time>2019-08-15T08:07:09.000Z</time>
      </trkpt>
      <trkpt lat="47.28585" lon="-2.24618">
        <ele>3.4000000953674</ele>
        <time>2019-08-15T08:07:10.000Z</time>
      </trkpt>
      <trkpt lat="47.28591" lon="-2.24612">
        <ele>3.4000000953674</ele>
        <time>2019-08-15T08:07:13.000Z</time>
      </trkpt>
      <trkpt lat="47.28595" lon="-2.24609">
        <ele>3.4000000953674</ele>
        <time>2019-08-15T08:07:15.000Z</time>
      </trkpt>
      <trkpt lat="47.28596" lon="-2.24608">
        <ele>3.4000000953674</ele>
        <time>2019-08-15T08:07:17.000Z</time>
      </trkpt>
      <trkpt lat="47.28597" lon="-2.24606">
        <ele>3.4000000953674</ele>
        <time>2019-08-15T08:07:19.000Z</time>
      </trkpt>
      <trkpt lat="47.28605" lon="-2.24595">
        <ele>3.4000000953674</ele>
        <time>2019-08-15T08:07:23.000Z</time>
      </trkpt>
      <trkpt lat="47.28608" lon="-2.24574">
        <ele>3.4000000953674</ele>
        <time>2019-08-15T08:07:27.000Z</time>
      </trkpt>
      <trkpt lat="47.28608" lon="-2.24568">
        <ele>3.4000000953674</ele>
        <time>2019-08-15T08:07:28.000Z</time>
      </trkpt>
      <trkpt lat="47.28614" lon="-2.24547">
        <ele>3.4000000953674</ele>
        <time>2019-08-15T08:07:31.000Z</time>
      </trkpt>
      <trkpt lat="47.28616" lon="-2.2454">
        <ele>3.4000000953674</ele>
        <time>2019-08-15T08:07:32.000Z</time>
      </trkpt>
      <trkpt lat="47.28627" lon="-2.24496">
        <ele>3.4000000953674</ele>
        <time>2019-08-15T08:07:38.000Z</time>
      </trkpt>
      <trkpt lat="47.28639" lon="-2.2445">
        <ele>3.4000000953674</ele>
        <time>2019-08-15T08:07:44.000Z</time>
      </trkpt>
      <trkpt lat="47.28651" lon="-2.24398">
        <ele>3.4000000953674</ele>
        <time>2019-08-15T08:07:51.000Z</time>
      </trkpt>
      <trkpt lat="47.28665" lon="-2.24343">
        <ele>3.4000000953674</ele>
        <time>2019-08-15T08:07:58.000Z</time>
      </trkpt>
      <trkpt lat="47.28677" lon="-2.24289">
        <ele>3.4000000953674</ele>
        <time>2019-08-15T08:08:05.000Z</time>
      </trkpt>
      <trkpt lat="47.28682" lon="-2.24275">
        <ele>3.4000000953674</ele>
        <time>2019-08-15T08:08:07.000Z</time>
      </trkpt>
      <trkpt lat="47.2869" lon="-2.24265">
        <ele>3.4000000953674</ele>
        <time>2019-08-15T08:08:09.000Z</time>
      </trkpt>
      <trkpt lat="47.28704" lon="-2.24262">
        <ele>3.4000000953674</ele>
        <time>2019-08-15T08:08:12.000Z</time>
      </trkpt>
      <trkpt lat="47.28718" lon="-2.24261">
        <ele>3.4000000953674</ele>
        <time>2019-08-15T08:08:15.000Z</time>
      </trkpt>
      <trkpt lat="47.28731" lon="-2.24263">
        <ele>3.4000000953674</ele>
        <time>2019-08-15T08:08:18.000Z</time>
      </trkpt>
      <trkpt lat="47.28736" lon="-2.24263">
        <ele>3.4000000953674</ele>
        <time>2019-08-15T08:08:19.000Z</time>
      </trkpt>
      <trkpt lat="47.28762" lon="-2.24262">
        <ele>3.4000000953674</ele>
        <time>2019-08-15T08:08:24.000Z</time>
      </trkpt>
      <trkpt lat="47.28768" lon="-2.24262">
        <ele>3.4000000953674</ele>
        <time>2019-08-15T08:08:25.000Z</time>
      </trkpt>
      <trkpt lat="47.28776" lon="-2.24255">
        <ele>3</ele>
        <time>2019-08-15T08:08:27.000Z</time>
      </trkpt>
      <trkpt lat="47.28779" lon="-2.2425">
        <ele>2.5999999046326</ele>
        <time>2019-08-15T08:08:28.000Z</time>
      </trkpt>
      <trkpt lat="47.28779" lon="-2.24246">
        <ele>2.2000000476837</ele>
        <time>2019-08-15T08:08:29.000Z</time>
      </trkpt>
      <trkpt lat="47.28779" lon="-2.24242">
        <ele>1.7999999523163</ele>
        <time>2019-08-15T08:08:30.000Z</time>
      </trkpt>
      <trkpt lat="47.28779" lon="-2.2424">
        <ele>1.3999999761581</ele>
        <time>2019-08-15T08:08:31.000Z</time>
      </trkpt>
      <trkpt lat="47.28781" lon="-2.24227">
        <ele>1.3999999761581</ele>
        <time>2019-08-15T08:08:35.000Z</time>
      </trkpt>
      <trkpt lat="47.28783" lon="-2.24192">
        <ele>1.3999999761581</ele>
        <time>2019-08-15T08:08:41.000Z</time>
      </trkpt>
      <trkpt lat="47.28784" lon="-2.24159">
        <ele>1.3999999761581</ele>
        <time>2019-08-15T08:08:46.000Z</time>
      </trkpt>
      <trkpt lat="47.28785" lon="-2.24119">
        <ele>1.3999999761581</ele>
        <time>2019-08-15T08:08:51.000Z</time>
      </trkpt>
      <trkpt lat="47.28785" lon="-2.2411">
        <ele>1.3999999761581</ele>
        <time>2019-08-15T08:08:52.000Z</time>
      </trkpt>
      <trkpt lat="47.28788" lon="-2.24074">
        <ele>1.3999999761581</ele>
        <time>2019-08-15T08:08:56.000Z</time>
      </trkpt>
      <trkpt lat="47.2879" lon="-2.24032">
        <ele>1.3999999761581</ele>
        <time>2019-08-15T08:09:01.000Z</time>
      </trkpt>
      <trkpt lat="47.28796" lon="-2.23973">
        <ele>1.3999999761581</ele>
        <time>2019-08-15T08:09:08.000Z</time>
      </trkpt>
      <trkpt lat="47.28798" lon="-2.2395">
        <ele>1.3999999761581</ele>
        <time>2019-08-15T08:09:11.000Z</time>
      </trkpt>
      <trkpt lat="47.28801" lon="-2.23928">
        <ele>1.3999999761581</ele>
        <time>2019-08-15T08:09:14.000Z</time>
      </trkpt>
      <trkpt lat="47.28806" lon="-2.239">
        <ele>1.3999999761581</ele>
        <time>2019-08-15T08:09:18.000Z</time>
      </trkpt>
      <trkpt lat="47.28806" lon="-2.23893">
        <ele>1.3999999761581</ele>
        <time>2019-08-15T08:09:19.000Z</time>
      </trkpt>
      <trkpt lat="47.28805" lon="-2.23852">
        <ele>1.3999999761581</ele>
        <time>2019-08-15T08:09:24.000Z</time>
      </trkpt>
      <trkpt lat="47.28803" lon="-2.23844">
        <ele>1.3999999761581</ele>
        <time>2019-08-15T08:09:25.000Z</time>
      </trkpt>
      <trkpt lat="47.28795" lon="-2.23831">
        <ele>1.3999999761581</ele>
        <time>2019-08-15T08:09:27.000Z</time>
      </trkpt>
      <trkpt lat="47.28767" lon="-2.2378">
        <ele>1.3999999761581</ele>
        <time>2019-08-15T08:09:35.000Z</time>
      </trkpt>
      <trkpt lat="47.28745" lon="-2.23742">
        <ele>1.3999999761581</ele>
        <time>2019-08-15T08:09:41.000Z</time>
      </trkpt>
      <trkpt lat="47.2872" lon="-2.23694">
        <ele>1.3999999761581</ele>
        <time>2019-08-15T08:09:48.000Z</time>
      </trkpt>
      <trkpt lat="47.28699" lon="-2.23656">
        <ele>1.3999999761581</ele>
        <time>2019-08-15T08:09:54.000Z</time>
      </trkpt>
      <trkpt lat="47.28673" lon="-2.23611">
        <ele>1.3999999761581</ele>
        <time>2019-08-15T08:10:01.000Z</time>
      </trkpt>
      <trkpt lat="47.28666" lon="-2.23599">
        <ele>1.3999999761581</ele>
        <time>2019-08-15T08:10:03.000Z</time>
      </trkpt>
      <trkpt lat="47.28648" lon="-2.2358">
        <ele>1.3999999761581</ele>
        <time>2019-08-15T08:10:07.000Z</time>
      </trkpt>
      <trkpt lat="47.28643" lon="-2.23578">
        <ele>1.3999999761581</ele>
        <time>2019-08-15T08:10:08.000Z</time>
      </trkpt>
      <trkpt lat="47.28636" lon="-2.2357">
        <ele>1</ele>
        <time>2019-08-15T08:10:11.000Z</time>
      </trkpt>
      <trkpt lat="47.28636" lon="-2.23568">
        <ele>0.60000002384186</ele>
        <time>2019-08-15T08:10:12.000Z</time>
      </trkpt>
      <trkpt lat="47.28636" lon="-2.23566">
        <ele>0.20000000298023</ele>
        <time>2019-08-15T08:10:13.000Z</time>
      </trkpt>
      <trkpt lat="47.28637" lon="-2.23565">
        <ele>-0.60000002384186</ele>
        <time>2019-08-15T08:10:14.000Z</time>
      </trkpt>
      <trkpt lat="47.28645" lon="-2.23562">
        <ele>-0.60000002384186</ele>
        <time>2019-08-15T08:10:19.000Z</time>
      </trkpt>
      <trkpt lat="47.28649" lon="-2.23549">
        <ele>-0.60000002384186</ele>
        <time>2019-08-15T08:10:23.000Z</time>
      </trkpt>
      <trkpt lat="47.28648" lon="-2.23533">
        <ele>-0.60000002384186</ele>
        <time>2019-08-15T08:10:27.000Z</time>
      </trkpt>
      <trkpt lat="47.28648" lon="-2.23529">
        <ele>-0.60000002384186</ele>
        <time>2019-08-15T08:10:28.000Z</time>
      </trkpt>
      <trkpt lat="47.28649" lon="-2.23505">
        <ele>-0.60000002384186</ele>
        <time>2019-08-15T08:10:34.000Z</time>
      </trkpt>
      <trkpt lat="47.28651" lon="-2.23487">
        <ele>-0.20000000298023</ele>
        <time>2019-08-15T08:10:38.000Z</time>
      </trkpt>
      <trkpt lat="47.28651" lon="-2.23482">
        <ele>0.20000000298023</ele>
        <time>2019-08-15T08:10:39.000Z</time>
      </trkpt>
      <trkpt lat="47.28651" lon="-2.23477">
        <ele>0.60000002384186</ele>
        <time>2019-08-15T08:10:40.000Z</time>
      </trkpt>
      <trkpt lat="47.2865" lon="-2.23471">
        <ele>1</ele>
        <time>2019-08-15T08:10:41.000Z</time>
      </trkpt>
      <trkpt lat="47.2865" lon="-2.23465">
        <ele>1.3999999761581</ele>
        <time>2019-08-15T08:10:42.000Z</time>
      </trkpt>
      <trkpt lat="47.28648" lon="-2.23453">
        <ele>1.3999999761581</ele>
        <time>2019-08-15T08:10:44.000Z</time>
      </trkpt>
      <trkpt lat="47.28645" lon="-2.2344">
        <ele>1.3999999761581</ele>
        <time>2019-08-15T08:10:46.000Z</time>
      </trkpt>
      <trkpt lat="47.28637" lon="-2.2342">
        <ele>1.3999999761581</ele>
        <time>2019-08-15T08:10:49.000Z</time>
      </trkpt>
      <trkpt lat="47.28632" lon="-2.23387">
        <ele>1.3999999761581</ele>
        <time>2019-08-15T08:10:54.000Z</time>
      </trkpt>
      <trkpt lat="47.28638" lon="-2.23371">
        <ele>1.3999999761581</ele>
        <time>2019-08-15T08:10:57.000Z</time>
      </trkpt>
      <trkpt lat="47.28642" lon="-2.2337">
        <ele>1</ele>
        <time>2019-08-15T08:10:58.000Z</time>
      </trkpt>
      <trkpt lat="47.28647" lon="-2.2337">
        <ele>0.60000002384186</ele>
        <time>2019-08-15T08:10:59.000Z</time>
      </trkpt>
      <trkpt lat="47.2865" lon="-2.23371">
        <ele>0.20000000298023</ele>
        <time>2019-08-15T08:11:00.000Z</time>
      </trkpt>
      <trkpt lat="47.28654" lon="-2.2337">
        <ele>-0.20000000298023</ele>
        <time>2019-08-15T08:11:01.000Z</time>
      </trkpt>
      <trkpt lat="47.28658" lon="-2.23369">
        <ele>-0.60000002384186</ele>
        <time>2019-08-15T08:11:02.000Z</time>
      </trkpt>
      <trkpt lat="47.28663" lon="-2.23357">
        <ele>-0.60000002384186</ele>
        <time>2019-08-15T08:11:06.000Z</time>
      </trkpt>
      <trkpt lat="47.28665" lon="-2.23339">
        <ele>-0.60000002384186</ele>
        <time>2019-08-15T08:11:10.000Z</time>
      </trkpt>
      <trkpt lat="47.28665" lon="-2.23334">
        <ele>-0.60000002384186</ele>
        <time>2019-08-15T08:11:11.000Z</time>
      </trkpt>
      <trkpt lat="47.28666" lon="-2.23329">
        <ele>-0.20000000298023</ele>
        <time>2019-08-15T08:11:12.000Z</time>
      </trkpt>
      <trkpt lat="47.28667" lon="-2.23325">
        <ele>0.20000000298023</ele>
        <time>2019-08-15T08:11:13.000Z</time>
      </trkpt>
      <trkpt lat="47.28667" lon="-2.23321">
        <ele>0.60000002384186</ele>
        <time>2019-08-15T08:11:14.000Z</time>
      </trkpt>
      <trkpt lat="47.28667" lon="-2.23317">
        <ele>1</ele>
        <time>2019-08-15T08:11:15.000Z</time>
      </trkpt>
      <trkpt lat="47.28668" lon="-2.23314">
        <ele>1.3999999761581</ele>
        <time>2019-08-15T08:11:16.000Z</time>
      </trkpt>
      <trkpt lat="47.28668" lon="-2.2331">
        <ele>1.3999999761581</ele>
        <time>2019-08-15T08:11:17.000Z</time>
      </trkpt>
      <trkpt lat="47.2867" lon="-2.23304">
        <ele>1.3999999761581</ele>
        <time>2019-08-15T08:11:19.000Z</time>
      </trkpt>
      <trkpt lat="47.2867" lon="-2.23295">
        <ele>1.3999999761581</ele>
        <time>2019-08-15T08:11:21.000Z</time>
      </trkpt>
      <trkpt lat="47.28671" lon="-2.23283">
        <ele>1.3999999761581</ele>
        <time>2019-08-15T08:11:23.000Z</time>
      </trkpt>
      <trkpt lat="47.28673" lon="-2.2328">
        <ele>1.3999999761581</ele>
        <time>2019-08-15T08:11:24.000Z</time>
      </trkpt>
      <trkpt lat="47.28682" lon="-2.23259">
        <ele>1.3999999761581</ele>
        <time>2019-08-15T08:11:30.000Z</time>
      </trkpt>
      <trkpt lat="47.28682" lon="-2.23236">
        <ele>1.3999999761581</ele>
        <time>2019-08-15T08:11:35.000Z</time>
      </trkpt>
      <trkpt lat="47.28682" lon="-2.23228">
        <ele>1.3999999761581</ele>
        <time>2019-08-15T08:11:36.000Z</time>
      </trkpt>
      <trkpt lat="47.28681" lon="-2.23212">
        <ele>1.3999999761581</ele>
        <time>2019-08-15T08:11:38.000Z</time>
      </trkpt>
      <trkpt lat="47.28666" lon="-2.23185">
        <ele>1</ele>
        <time>2019-08-15T08:11:42.000Z</time>
      </trkpt>
      <trkpt lat="47.28659" lon="-2.23182">
        <ele>0.60000002384186</ele>
        <time>2019-08-15T08:11:43.000Z</time>
      </trkpt>
      <trkpt lat="47.28652" lon="-2.23181">
        <ele>0.20000000298023</ele>
        <time>2019-08-15T08:11:44.000Z</time>
      </trkpt>
      <trkpt lat="47.28647" lon="-2.23183">
        <ele>-0.20000000298023</ele>
        <time>2019-08-15T08:11:45.000Z</time>
      </trkpt>
      <trkpt lat="47.28641" lon="-2.23185">
        <ele>-0.60000002384186</ele>
        <time>2019-08-15T08:11:46.000Z</time>
      </trkpt>
      <trkpt lat="47.28636" lon="-2.23187">
        <ele>-0.60000002384186</ele>
        <time>2019-08-15T08:11:47.000Z</time>
      </trkpt>
      <trkpt lat="47.28626" lon="-2.23193">
        <ele>-0.60000002384186</ele>
        <time>2019-08-15T08:11:49.000Z</time>
      </trkpt>
      <trkpt lat="47.28622" lon="-2.23196">
        <ele>-0.60000002384186</ele>
        <time>2019-08-15T08:11:50.000Z</time>
      </trkpt>
      <trkpt lat="47.28604" lon="-2.23211">
        <ele>-0.60000002384186</ele>
        <time>2019-08-15T08:11:54.000Z</time>
      </trkpt>
      <trkpt lat="47.28596" lon="-2.23227">
        <ele>-0.60000002384186</ele>
        <time>2019-08-15T08:11:57.000Z</time>
      </trkpt>
      <trkpt lat="47.28595" lon="-2.23233">
        <ele>-0.60000002384186</ele>
        <time>2019-08-15T08:11:58.000Z</time>
      </trkpt>
      <trkpt lat="47.28592" lon="-2.23256">
        <ele>-0.60000002384186</ele>
        <time>2019-08-15T08:12:02.000Z</time>
      </trkpt>
      <trkpt lat="47.28592" lon="-2.23263">
        <ele>-0.60000002384186</ele>
        <time>2019-08-15T08:12:03.000Z</time>
      </trkpt>
      <trkpt lat="47.28594" lon="-2.2327">
        <ele>-0.60000002384186</ele>
        <time>2019-08-15T08:12:04.000Z</time>
      </trkpt>
      <trkpt lat="47.28598" lon="-2.23285">
        <ele>-0.60000002384186</ele>
        <time>2019-08-15T08:12:06.000Z</time>
      </trkpt>
      <trkpt lat="47.28609" lon="-2.23297">
        <ele>-0.60000002384186</ele>
        <time>2019-08-15T08:12:09.000Z</time>
      </trkpt>
      <trkpt lat="47.28614" lon="-2.23299">
        <ele>-0.60000002384186</ele>
        <time>2019-08-15T08:12:10.000Z</time>
      </trkpt>
      <trkpt lat="47.28628" lon="-2.23301">
        <ele>-0.60000002384186</ele>
        <time>2019-08-15T08:12:13.000Z</time>
      </trkpt>
      <trkpt lat="47.28647" lon="-2.23299">
        <ele>-0.60000002384186</ele>
        <time>2019-08-15T08:12:18.000Z</time>
      </trkpt>
      <trkpt lat="47.28654" lon="-2.23302">
        <ele>-0.60000002384186</ele>
        <time>2019-08-15T08:12:21.000Z</time>
      </trkpt>
      <trkpt lat="47.28656" lon="-2.23305">
        <ele>-0.60000002384186</ele>
        <time>2019-08-15T08:12:22.000Z</time>
      </trkpt>
      <trkpt lat="47.28659" lon="-2.23311">
        <ele>-0.60000002384186</ele>
        <time>2019-08-15T08:12:24.000Z</time>
      </trkpt>
      <trkpt lat="47.28659" lon="-2.23321">
        <ele>-0.60000002384186</ele>
        <time>2019-08-15T08:12:26.000Z</time>
      </trkpt>
      <trkpt lat="47.2866" lon="-2.23353">
        <ele>-0.60000002384186</ele>
        <time>2019-08-15T08:12:32.000Z</time>
      </trkpt>
      <trkpt lat="47.28659" lon="-2.23362">
        <ele>-0.60000002384186</ele>
        <time>2019-08-15T08:12:33.000Z</time>
      </trkpt>
      <trkpt lat="47.28658" lon="-2.23395">
        <ele>-0.60000002384186</ele>
        <time>2019-08-15T08:12:37.000Z</time>
      </trkpt>
      <trkpt lat="47.2866" lon="-2.2341">
        <ele>-0.60000002384186</ele>
        <time>2019-08-15T08:12:39.000Z</time>
      </trkpt>
      <trkpt lat="47.28666" lon="-2.23435">
        <ele>-0.60000002384186</ele>
        <time>2019-08-15T08:12:43.000Z</time>
      </trkpt>
      <trkpt lat="47.28667" lon="-2.23442">
        <ele>-0.20000000298023</ele>
        <time>2019-08-15T08:12:44.000Z</time>
      </trkpt>
      <trkpt lat="47.28667" lon="-2.23448">
        <ele>0.20000000298023</ele>
        <time>2019-08-15T08:12:45.000Z</time>
      </trkpt>
      <trkpt lat="47.28668" lon="-2.23453">
        <ele>0.60000002384186</ele>
        <time>2019-08-15T08:12:46.000Z</time>
      </trkpt>
      <trkpt lat="47.28669" lon="-2.2346">
        <ele>1</ele>
        <time>2019-08-15T08:12:47.000Z</time>
      </trkpt>
      <trkpt lat="47.28669" lon="-2.23466">
        <ele>1.3999999761581</ele>
        <time>2019-08-15T08:12:48.000Z</time>
      </trkpt>
      <trkpt lat="47.28668" lon="-2.23473">
        <ele>1.3999999761581</ele>
        <time>2019-08-15T08:12:49.000Z</time>
      </trkpt>
      <trkpt lat="47.28667" lon="-2.23505">
        <ele>1.3999999761581</ele>
        <time>2019-08-15T08:12:54.000Z</time>
      </trkpt>
      <trkpt lat="47.28666" lon="-2.23513">
        <ele>1.3999999761581</ele>
        <time>2019-08-15T08:12:55.000Z</time>
      </trkpt>
      <trkpt lat="47.28662" lon="-2.23542">
        <ele>1.3999999761581</ele>
        <time>2019-08-15T08:12:58.000Z</time>
      </trkpt>
      <trkpt lat="47.28662" lon="-2.23549">
        <ele>1.3999999761581</ele>
        <time>2019-08-15T08:13:00.000Z</time>
      </trkpt>
      <trkpt lat="47.28663" lon="-2.2355">
        <ele>1.3999999761581</ele>
        <time>2019-08-15T08:13:01.000Z</time>
      </trkpt>
      <trkpt lat="47.28663" lon="-2.23551">
        <ele>1</ele>
        <time>2019-08-15T08:13:02.000Z</time>
      </trkpt>
      <trkpt lat="47.28664" lon="-2.23552">
        <ele>0.60000002384186</ele>
        <time>2019-08-15T08:13:03.000Z</time>
      </trkpt>
      <trkpt lat="47.28665" lon="-2.23552">
        <ele>0.20000000298023</ele>
        <time>2019-08-15T08:13:04.000Z</time>
      </trkpt>
      <trkpt lat="47.28666" lon="-2.23553">
        <ele>-0.20000000298023</ele>
        <time>2019-08-15T08:13:05.000Z</time>
      </trkpt>
      <trkpt lat="47.28666" lon="-2.23554">
        <ele>-0.60000002384186</ele>
        <time>2019-08-15T08:13:06.000Z</time>
      </trkpt>
      <trkpt lat="47.28666" lon="-2.23555">
        <ele>-0.60000002384186</ele>
        <time>2019-08-15T08:13:07.000Z</time>
      </trkpt>
      <trkpt lat="47.28673" lon="-2.23564">
        <ele>-0.60000002384186</ele>
        <time>2019-08-15T08:13:13.000Z</time>
      </trkpt>
      <trkpt lat="47.2868" lon="-2.23573">
        <ele>-0.60000002384186</ele>
        <time>2019-08-15T08:13:19.000Z</time>
      </trkpt>
      <trkpt lat="47.28687" lon="-2.23583">
        <ele>-0.60000002384186</ele>
        <time>2019-08-15T08:13:26.000Z</time>
      </trkpt>
      <trkpt lat="47.28691" lon="-2.23595">
        <ele>-0.60000002384186</ele>
        <time>2019-08-15T08:13:32.000Z</time>
      </trkpt>
      <trkpt lat="47.28691" lon="-2.23594">
        <ele>-0.60000002384186</ele>
        <time>2019-08-15T08:13:33.000Z</time>
      </trkpt>
      <trkpt lat="47.28693" lon="-2.23592">
        <ele>-0.60000002384186</ele>
        <time>2019-08-15T08:14:55.000Z</time>
      </trkpt>
      <trkpt lat="47.28695" lon="-2.2359">
        <ele>-0.60000002384186</ele>
        <time>2019-08-15T08:14:56.000Z</time>
      </trkpt>
      <trkpt lat="47.28702" lon="-2.23581">
        <ele>-0.60000002384186</ele>
        <time>2019-08-15T08:14:59.000Z</time>
      </trkpt>
      <trkpt lat="47.28707" lon="-2.23572">
        <ele>-0.60000002384186</ele>
        <time>2019-08-15T08:15:01.000Z</time>
      </trkpt>
      <trkpt lat="47.28712" lon="-2.23555">
        <ele>-0.60000002384186</ele>
        <time>2019-08-15T08:15:05.000Z</time>
      </trkpt>
      <trkpt lat="47.28718" lon="-2.23547">
        <ele>-0.20000000298023</ele>
        <time>2019-08-15T08:15:07.000Z</time>
      </trkpt>
      <trkpt lat="47.28722" lon="-2.23543">
        <ele>0.20000000298023</ele>
        <time>2019-08-15T08:15:08.000Z</time>
      </trkpt>
      <trkpt lat="47.28724" lon="-2.23539">
        <ele>0.60000002384186</ele>
        <time>2019-08-15T08:15:09.000Z</time>
      </trkpt>
      <trkpt lat="47.28727" lon="-2.23535">
        <ele>1</ele>
        <time>2019-08-15T08:15:10.000Z</time>
      </trkpt>
      <trkpt lat="47.28731" lon="-2.23531">
        <ele>1.3999999761581</ele>
        <time>2019-08-15T08:15:11.000Z</time>
      </trkpt>
      <trkpt lat="47.28743" lon="-2.23524">
        <ele>1.7999999523163</ele>
        <time>2019-08-15T08:15:14.000Z</time>
      </trkpt>
      <trkpt lat="47.28747" lon="-2.23522">
        <ele>2.4000000953674</ele>
        <time>2019-08-15T08:15:15.000Z</time>
      </trkpt>
      <trkpt lat="47.28752" lon="-2.23521">
        <ele>2.7999999523163</ele>
        <time>2019-08-15T08:15:16.000Z</time>
      </trkpt>
      <trkpt lat="47.28759" lon="-2.23519">
        <ele>3.2000000476837</ele>
        <time>2019-08-15T08:15:17.000Z</time>
      </trkpt>
      <trkpt lat="47.28764" lon="-2.23518">
        <ele>3.5999999046326</ele>
        <time>2019-08-15T08:15:18.000Z</time>
      </trkpt>
      <trkpt lat="47.2877" lon="-2.23516">
        <ele>3.5999999046326</ele>
        <time>2019-08-15T08:15:19.000Z</time>
      </trkpt>
      <trkpt lat="47.28797" lon="-2.23514">
        <ele>4</ele>
        <time>2019-08-15T08:15:23.000Z</time>
      </trkpt>
      <trkpt lat="47.28803" lon="-2.23514">
        <ele>4.4000000953674</ele>
        <time>2019-08-15T08:15:24.000Z</time>
      </trkpt>
      <trkpt lat="47.28809" lon="-2.23514">
        <ele>4.8000001907349</ele>
        <time>2019-08-15T08:15:25.000Z</time>
      </trkpt>
      <trkpt lat="47.28814" lon="-2.23513">
        <ele>5.1999998092651</ele>
        <time>2019-08-15T08:15:26.000Z</time>
      </trkpt>
      <trkpt lat="47.28821" lon="-2.23513">
        <ele>5.5999999046326</ele>
        <time>2019-08-15T08:15:27.000Z</time>
      </trkpt>
      <trkpt lat="47.28832" lon="-2.23513">
        <ele>5.5999999046326</ele>
        <time>2019-08-15T08:15:29.000Z</time>
      </trkpt>
      <trkpt lat="47.2887" lon="-2.23511">
        <ele>6.1999998092651</ele>
        <time>2019-08-15T08:15:36.000Z</time>
      </trkpt>
      <trkpt lat="47.28875" lon="-2.23511">
        <ele>6.5999999046326</ele>
        <time>2019-08-15T08:15:37.000Z</time>
      </trkpt>
      <trkpt lat="47.2888" lon="-2.23511">
        <ele>7</ele>
        <time>2019-08-15T08:15:38.000Z</time>
      </trkpt>
      <trkpt lat="47.28885" lon="-2.23511">
        <ele>7.4000000953674</ele>
        <time>2019-08-15T08:15:39.000Z</time>
      </trkpt>
      <trkpt lat="47.2889" lon="-2.23512">
        <ele>7.8000001907349</ele>
        <time>2019-08-15T08:15:40.000Z</time>
      </trkpt>
      <trkpt lat="47.2891" lon="-2.2351">
        <ele>7.8000001907349</ele>
        <time>2019-08-15T08:15:44.000Z</time>
      </trkpt>
      <trkpt lat="47.28915" lon="-2.23507">
        <ele>7.8000001907349</ele>
        <time>2019-08-15T08:15:45.000Z</time>
      </trkpt>
      <trkpt lat="47.28936" lon="-2.23501">
        <ele>7.8000001907349</ele>
        <time>2019-08-15T08:15:49.000Z</time>
      </trkpt>
      <trkpt lat="47.28952" lon="-2.23497">
        <ele>7.8000001907349</ele>
        <time>2019-08-15T08:15:54.000Z</time>
      </trkpt>
      <trkpt lat="47.28953" lon="-2.23496">
        <ele>7.8000001907349</ele>
        <time>2019-08-15T08:15:56.000Z</time>
      </trkpt>
      <trkpt lat="47.28956" lon="-2.23491">
        <ele>7.8000001907349</ele>
        <time>2019-08-15T08:17:48.000Z</time>
      </trkpt>
      <trkpt lat="47.28958" lon="-2.23468">
        <ele>7.8000001907349</ele>
        <time>2019-08-15T08:17:53.000Z</time>
      </trkpt>
      <trkpt lat="47.28963" lon="-2.23419">
        <ele>7.8000001907349</ele>
        <time>2019-08-15T08:18:01.000Z</time>
      </trkpt>
      <trkpt lat="47.28967" lon="-2.23374">
        <ele>7.8000001907349</ele>
        <time>2019-08-15T08:18:08.000Z</time>
      </trkpt>
      <trkpt lat="47.28974" lon="-2.23313">
        <ele>7.8000001907349</ele>
        <time>2019-08-15T08:18:15.000Z</time>
      </trkpt>
      <trkpt lat="47.28979" lon="-2.23262">
        <ele>7.8000001907349</ele>
        <time>2019-08-15T08:18:20.000Z</time>
      </trkpt>
      <trkpt lat="47.28986" lon="-2.23183">
        <ele>7.4000000953674</ele>
        <time>2019-08-15T08:18:27.000Z</time>
      </trkpt>
      <trkpt lat="47.28988" lon="-2.23171">
        <ele>7</ele>
        <time>2019-08-15T08:18:28.000Z</time>
      </trkpt>
      <trkpt lat="47.28989" lon="-2.2316">
        <ele>6.1999998092651</ele>
        <time>2019-08-15T08:18:29.000Z</time>
      </trkpt>
      <trkpt lat="47.28991" lon="-2.23148">
        <ele>5.8000001907349</ele>
        <time>2019-08-15T08:18:30.000Z</time>
      </trkpt>
      <trkpt lat="47.28994" lon="-2.23123">
        <ele>5.4000000953674</ele>
        <time>2019-08-15T08:18:32.000Z</time>
      </trkpt>
      <trkpt lat="47.28995" lon="-2.23111">
        <ele>5</ele>
        <time>2019-08-15T08:18:33.000Z</time>
      </trkpt>
      <trkpt lat="47.28997" lon="-2.23099">
        <ele>4.5999999046326</ele>
        <time>2019-08-15T08:18:34.000Z</time>
      </trkpt>
      <trkpt lat="47.28999" lon="-2.23087">
        <ele>4</ele>
        <time>2019-08-15T08:18:35.000Z</time>
      </trkpt>
      <trkpt lat="47.29001" lon="-2.23075">
        <ele>3.5999999046326</ele>
        <time>2019-08-15T08:18:36.000Z</time>
      </trkpt>
      <trkpt lat="47.29016" lon="-2.2302">
        <ele>3.2000000476837</ele>
        <time>2019-08-15T08:18:41.000Z</time>
      </trkpt>
      <trkpt lat="47.29018" lon="-2.23011">
        <ele>2.7999999523163</ele>
        <time>2019-08-15T08:18:42.000Z</time>
      </trkpt>
      <trkpt lat="47.29019" lon="-2.23006">
        <ele>2.2000000476837</ele>
        <time>2019-08-15T08:18:43.000Z</time>
      </trkpt>
      <trkpt lat="47.29019" lon="-2.23003">
        <ele>1.6000000238419</ele>
        <time>2019-08-15T08:18:44.000Z</time>
      </trkpt>
      <trkpt lat="47.2902" lon="-2.23002">
        <ele>1</ele>
        <time>2019-08-15T08:18:45.000Z</time>
      </trkpt>
      <trkpt lat="47.29022" lon="-2.23001">
        <ele>0.20000000298023</ele>
        <time>2019-08-15T08:18:46.000Z</time>
      </trkpt>
      <trkpt lat="47.29023" lon="-2.22998">
        <ele>-0.40000000596046</ele>
        <time>2019-08-15T08:18:47.000Z</time>
      </trkpt>
      <trkpt lat="47.29024" lon="-2.22995">
        <ele>-1</ele>
        <time>2019-08-15T08:18:48.000Z</time>
      </trkpt>
      <trkpt lat="47.29028" lon="-2.22975">
        <ele>-1</ele>
        <time>2019-08-15T08:18:52.000Z</time>
      </trkpt>
      <trkpt lat="47.29037" lon="-2.22975">
        <ele>-1</ele>
        <time>2019-08-15T08:18:54.000Z</time>
      </trkpt>
      <trkpt lat="47.29046" lon="-2.22993">
        <ele>-1</ele>
        <time>2019-08-15T08:18:57.000Z</time>
      </trkpt>
      <trkpt lat="47.2905" lon="-2.22998">
        <ele>-1</ele>
        <time>2019-08-15T08:18:58.000Z</time>
      </trkpt>
      <trkpt lat="47.29067" lon="-2.23017">
        <ele>-1</ele>
        <time>2019-08-15T08:19:02.000Z</time>
      </trkpt>
      <trkpt lat="47.29088" lon="-2.23045">
        <ele>-1</ele>
        <time>2019-08-15T08:19:07.000Z</time>
      </trkpt>
      <trkpt lat="47.29112" lon="-2.23078">
        <ele>-1</ele>
        <time>2019-08-15T08:19:13.000Z</time>
      </trkpt>
      <trkpt lat="47.29147" lon="-2.23122">
        <ele>-1</ele>
        <time>2019-08-15T08:19:21.000Z</time>
      </trkpt>
      <trkpt lat="47.29177" lon="-2.23158">
        <ele>-1</ele>
        <time>2019-08-15T08:19:28.000Z</time>
      </trkpt>
      <trkpt lat="47.29181" lon="-2.23164">
        <ele>-1</ele>
        <time>2019-08-15T08:19:29.000Z</time>
      </trkpt>
      <trkpt lat="47.29192" lon="-2.23183">
        <ele>-1</ele>
        <time>2019-08-15T08:19:32.000Z</time>
      </trkpt>
      <trkpt lat="47.29198" lon="-2.23196">
        <ele>-1</ele>
        <time>2019-08-15T08:19:34.000Z</time>
      </trkpt>
      <trkpt lat="47.29201" lon="-2.23213">
        <ele>-1</ele>
        <time>2019-08-15T08:19:36.000Z</time>
      </trkpt>
      <trkpt lat="47.29206" lon="-2.23228">
        <ele>-1</ele>
        <time>2019-08-15T08:19:38.000Z</time>
      </trkpt>
      <trkpt lat="47.29214" lon="-2.2324">
        <ele>-1</ele>
        <time>2019-08-15T08:19:40.000Z</time>
      </trkpt>
      <trkpt lat="47.29223" lon="-2.23252">
        <ele>-1</ele>
        <time>2019-08-15T08:19:42.000Z</time>
      </trkpt>
      <trkpt lat="47.29236" lon="-2.23269">
        <ele>-1</ele>
        <time>2019-08-15T08:19:45.000Z</time>
      </trkpt>
      <trkpt lat="47.29256" lon="-2.233">
        <ele>-1</ele>
        <time>2019-08-15T08:19:50.000Z</time>
      </trkpt>
      <trkpt lat="47.29258" lon="-2.23308">
        <ele>-1</ele>
        <time>2019-08-15T08:19:51.000Z</time>
      </trkpt>
      <trkpt lat="47.29271" lon="-2.23356">
        <ele>-1</ele>
        <time>2019-08-15T08:19:57.000Z</time>
      </trkpt>
      <trkpt lat="47.29281" lon="-2.23402">
        <ele>-1</ele>
        <time>2019-08-15T08:20:03.000Z</time>
      </trkpt>
      <trkpt lat="47.29286" lon="-2.23418">
        <ele>-1</ele>
        <time>2019-08-15T08:20:05.000Z</time>
      </trkpt>
      <trkpt lat="47.29297" lon="-2.23474">
        <ele>-1</ele>
        <time>2019-08-15T08:20:12.000Z</time>
      </trkpt>
      <trkpt lat="47.29308" lon="-2.2354">
        <ele>-1</ele>
        <time>2019-08-15T08:20:20.000Z</time>
      </trkpt>
      <trkpt lat="47.29313" lon="-2.23604">
        <ele>-1</ele>
        <time>2019-08-15T08:20:28.000Z</time>
      </trkpt>
      <trkpt lat="47.29315" lon="-2.2366">
        <ele>-1</ele>
        <time>2019-08-15T08:20:35.000Z</time>
      </trkpt>
      <trkpt lat="47.29315" lon="-2.23668">
        <ele>-1</ele>
        <time>2019-08-15T08:20:36.000Z</time>
      </trkpt>
      <trkpt lat="47.29315" lon="-2.23708">
        <ele>-1</ele>
        <time>2019-08-15T08:20:41.000Z</time>
      </trkpt>
      <trkpt lat="47.29315" lon="-2.23724">
        <ele>-1</ele>
        <time>2019-08-15T08:20:43.000Z</time>
      </trkpt>
      <trkpt lat="47.29315" lon="-2.23756">
        <ele>-1</ele>
        <time>2019-08-15T08:20:47.000Z</time>
      </trkpt>
      <trkpt lat="47.29315" lon="-2.23773">
        <ele>-1</ele>
        <time>2019-08-15T08:20:49.000Z</time>
      </trkpt>
      <trkpt lat="47.29322" lon="-2.2378">
        <ele>-1</ele>
        <time>2019-08-15T08:20:51.000Z</time>
      </trkpt>
      <trkpt lat="47.29331" lon="-2.2378">
        <ele>-1</ele>
        <time>2019-08-15T08:20:53.000Z</time>
      </trkpt>
      <trkpt lat="47.29336" lon="-2.23782">
        <ele>-1</ele>
        <time>2019-08-15T08:20:54.000Z</time>
      </trkpt>
      <trkpt lat="47.29341" lon="-2.23784">
        <ele>-1</ele>
        <time>2019-08-15T08:20:55.000Z</time>
      </trkpt>
      <trkpt lat="47.29359" lon="-2.23795">
        <ele>-1</ele>
        <time>2019-08-15T08:20:59.000Z</time>
      </trkpt>
      <trkpt lat="47.29368" lon="-2.23779">
        <ele>-1</ele>
        <time>2019-08-15T08:21:02.000Z</time>
      </trkpt>
      <trkpt lat="47.2937" lon="-2.23764">
        <ele>-1</ele>
        <time>2019-08-15T08:21:04.000Z</time>
      </trkpt>
      <trkpt lat="47.29373" lon="-2.23735">
        <ele>-1</ele>
        <time>2019-08-15T08:21:08.000Z</time>
      </trkpt>
      <trkpt lat="47.29389" lon="-2.23708">
        <ele>-0.60000002384186</ele>
        <time>2019-08-15T08:21:13.000Z</time>
      </trkpt>
      <trkpt lat="47.29393" lon="-2.23706">
        <ele>-0.20000000298023</ele>
        <time>2019-08-15T08:21:14.000Z</time>
      </trkpt>
      <trkpt lat="47.29398" lon="-2.23703">
        <ele>0.20000000298023</ele>
        <time>2019-08-15T08:21:15.000Z</time>
      </trkpt>
      <trkpt lat="47.29403" lon="-2.23701">
        <ele>0.80000001192093</ele>
        <time>2019-08-15T08:21:16.000Z</time>
      </trkpt>
      <trkpt lat="47.29408" lon="-2.23699">
        <ele>1.2000000476837</ele>
        <time>2019-08-15T08:21:17.000Z</time>
      </trkpt>
      <trkpt lat="47.29414" lon="-2.23699">
        <ele>1.2000000476837</ele>
        <time>2019-08-15T08:21:18.000Z</time>
      </trkpt>
      <trkpt lat="47.29423" lon="-2.23696">
        <ele>1.2000000476837</ele>
        <time>2019-08-15T08:21:20.000Z</time>
      </trkpt>
      <trkpt lat="47.29428" lon="-2.23694">
        <ele>1.6000000238419</ele>
        <time>2019-08-15T08:21:21.000Z</time>
      </trkpt>
      <trkpt lat="47.29433" lon="-2.23693">
        <ele>2.4000000953674</ele>
        <time>2019-08-15T08:21:22.000Z</time>
      </trkpt>
      <trkpt lat="47.29438" lon="-2.23692">
        <ele>2.7999999523163</ele>
        <time>2019-08-15T08:21:23.000Z</time>
      </trkpt>
      <trkpt lat="47.29442" lon="-2.2369">
        <ele>3.4000000953674</ele>
        <time>2019-08-15T08:21:24.000Z</time>
      </trkpt>
      <trkpt lat="47.29456" lon="-2.23685">
        <ele>3.7999999523163</ele>
        <time>2019-08-15T08:21:27.000Z</time>
      </trkpt>
      <trkpt lat="47.2946" lon="-2.23682">
        <ele>4.1999998092651</ele>
        <time>2019-08-15T08:21:28.000Z</time>
      </trkpt>
      <trkpt lat="47.29464" lon="-2.23679">
        <ele>4.5999999046326</ele>
        <time>2019-08-15T08:21:29.000Z</time>
      </trkpt>
      <trkpt lat="47.29468" lon="-2.23676">
        <ele>5</ele>
        <time>2019-08-15T08:21:30.000Z</time>
      </trkpt>
      <trkpt lat="47.29472" lon="-2.23674">
        <ele>5.4000000953674</ele>
        <time>2019-08-15T08:21:31.000Z</time>
      </trkpt>
      <trkpt lat="47.29489" lon="-2.23665">
        <ele>5.4000000953674</ele>
        <time>2019-08-15T08:21:35.000Z</time>
      </trkpt>
      <trkpt lat="47.29494" lon="-2.2367">
        <ele>5.4000000953674</ele>
        <time>2019-08-15T08:21:36.000Z</time>
      </trkpt>
      <trkpt lat="47.29499" lon="-2.23685">
        <ele>5.4000000953674</ele>
        <time>2019-08-15T08:21:38.000Z</time>
      </trkpt>
      <trkpt lat="47.29499" lon="-2.23694">
        <ele>5.4000000953674</ele>
        <time>2019-08-15T08:21:39.000Z</time>
      </trkpt>
      <trkpt lat="47.29499" lon="-2.23711">
        <ele>5.4000000953674</ele>
        <time>2019-08-15T08:21:41.000Z</time>
      </trkpt>
      <trkpt lat="47.29501" lon="-2.23741">
        <ele>5.4000000953674</ele>
        <time>2019-08-15T08:21:44.000Z</time>
      </trkpt>
      <trkpt lat="47.29503" lon="-2.2376">
        <ele>5.4000000953674</ele>
        <time>2019-08-15T08:21:46.000Z</time>
      </trkpt>
      <trkpt lat="47.29505" lon="-2.2377">
        <ele>5</ele>
        <time>2019-08-15T08:21:47.000Z</time>
      </trkpt>
      <trkpt lat="47.29507" lon="-2.2378">
        <ele>4.5999999046326</ele>
        <time>2019-08-15T08:21:48.000Z</time>
      </trkpt>
      <trkpt lat="47.2951" lon="-2.2379">
        <ele>4.1999998092651</ele>
        <time>2019-08-15T08:21:49.000Z</time>
      </trkpt>
      <trkpt lat="47.29513" lon="-2.23799">
        <ele>3.5999999046326</ele>
        <time>2019-08-15T08:21:50.000Z</time>
      </trkpt>
      <trkpt lat="47.29515" lon="-2.2381">
        <ele>3.2000000476837</ele>
        <time>2019-08-15T08:21:51.000Z</time>
      </trkpt>
      <trkpt lat="47.29534" lon="-2.2387">
        <ele>3.2000000476837</ele>
        <time>2019-08-15T08:21:57.000Z</time>
      </trkpt>
      <trkpt lat="47.29538" lon="-2.23898">
        <ele>2.7999999523163</ele>
        <time>2019-08-15T08:22:00.000Z</time>
      </trkpt>
      <trkpt lat="47.29539" lon="-2.23908">
        <ele>2.4000000953674</ele>
        <time>2019-08-15T08:22:01.000Z</time>
      </trkpt>
      <trkpt lat="47.2954" lon="-2.23917">
        <ele>2</ele>
        <time>2019-08-15T08:22:02.000Z</time>
      </trkpt>
      <trkpt lat="47.29541" lon="-2.23928">
        <ele>1.6000000238419</ele>
        <time>2019-08-15T08:22:03.000Z</time>
      </trkpt>
      <trkpt lat="47.29542" lon="-2.23937">
        <ele>1</ele>
        <time>2019-08-15T08:22:04.000Z</time>
      </trkpt>
      <trkpt lat="47.29551" lon="-2.24001">
        <ele>1</ele>
        <time>2019-08-15T08:22:11.000Z</time>
      </trkpt>
      <trkpt lat="47.29564" lon="-2.24071">
        <ele>1</ele>
        <time>2019-08-15T08:22:19.000Z</time>
      </trkpt>
      <trkpt lat="47.29579" lon="-2.24153">
        <ele>1</ele>
        <time>2019-08-15T08:22:29.000Z</time>
      </trkpt>
      <trkpt lat="47.2959" lon="-2.24201">
        <ele>1</ele>
        <time>2019-08-15T08:22:36.000Z</time>
      </trkpt>
      <trkpt lat="47.296" lon="-2.24208">
        <ele>1</ele>
        <time>2019-08-15T08:22:39.000Z</time>
      </trkpt>
      <trkpt lat="47.29604" lon="-2.24205">
        <ele>1</ele>
        <time>2019-08-15T08:22:40.000Z</time>
      </trkpt>
      <trkpt lat="47.29608" lon="-2.24194">
        <ele>1</ele>
        <time>2019-08-15T08:22:42.000Z</time>
      </trkpt>
      <trkpt lat="47.29609" lon="-2.24182">
        <ele>1</ele>
        <time>2019-08-15T08:22:44.000Z</time>
      </trkpt>
      <trkpt lat="47.29609" lon="-2.24171">
        <ele>1</ele>
        <time>2019-08-15T08:22:46.000Z</time>
      </trkpt>
      <trkpt lat="47.29613" lon="-2.24117">
        <ele>1</ele>
        <time>2019-08-15T08:22:54.000Z</time>
      </trkpt>
      <trkpt lat="47.29617" lon="-2.24074">
        <ele>1</ele>
        <time>2019-08-15T08:23:01.000Z</time>
      </trkpt>
      <trkpt lat="47.29619" lon="-2.24067">
        <ele>1</ele>
        <time>2019-08-15T08:23:04.000Z</time>
      </trkpt>
      <trkpt lat="47.29621" lon="-2.24067">
        <ele>1</ele>
        <time>2019-08-15T08:23:05.000Z</time>
      </trkpt>
      <trkpt lat="47.29625" lon="-2.24067">
        <ele>1</ele>
        <time>2019-08-15T08:23:08.000Z</time>
      </trkpt>
      <trkpt lat="47.29626" lon="-2.24064">
        <ele>1</ele>
        <time>2019-08-15T08:23:09.000Z</time>
      </trkpt>
      <trkpt lat="47.29629" lon="-2.24048">
        <ele>1</ele>
        <time>2019-08-15T08:23:12.000Z</time>
      </trkpt>
      <trkpt lat="47.2963" lon="-2.24035">
        <ele>1</ele>
        <time>2019-08-15T08:23:14.000Z</time>
      </trkpt>
      <trkpt lat="47.29633" lon="-2.24006">
        <ele>1</ele>
        <time>2019-08-15T08:23:18.000Z</time>
      </trkpt>
      <trkpt lat="47.29637" lon="-2.23995">
        <ele>1</ele>
        <time>2019-08-15T08:23:20.000Z</time>
      </trkpt>
      <trkpt lat="47.29646" lon="-2.23986">
        <ele>0.60000002384186</ele>
        <time>2019-08-15T08:23:22.000Z</time>
      </trkpt>
      <trkpt lat="47.2965" lon="-2.23981">
        <ele>0.20000000298023</ele>
        <time>2019-08-15T08:23:23.000Z</time>
      </trkpt>
      <trkpt lat="47.29655" lon="-2.23977">
        <ele>-0.20000000298023</ele>
        <time>2019-08-15T08:23:24.000Z</time>
      </trkpt>
      <trkpt lat="47.29659" lon="-2.23972">
        <ele>-1</ele>
        <time>2019-08-15T08:23:25.000Z</time>
      </trkpt>
      <trkpt lat="47.29682" lon="-2.23954">
        <ele>-1</ele>
        <time>2019-08-15T08:23:30.000Z</time>
      </trkpt>
      <trkpt lat="47.29701" lon="-2.23943">
        <ele>-1</ele>
        <time>2019-08-15T08:23:34.000Z</time>
      </trkpt>
      <trkpt lat="47.29705" lon="-2.23938">
        <ele>-1</ele>
        <time>2019-08-15T08:23:35.000Z</time>
      </trkpt>
      <trkpt lat="47.29713" lon="-2.23912">
        <ele>-1</ele>
        <time>2019-08-15T08:23:39.000Z</time>
      </trkpt>
      <trkpt lat="47.29714" lon="-2.23887">
        <ele>-1</ele>
        <time>2019-08-15T08:23:43.000Z</time>
      </trkpt>
      <trkpt lat="47.29715" lon="-2.2388">
        <ele>-1</ele>
        <time>2019-08-15T08:23:44.000Z</time>
      </trkpt>
      <trkpt lat="47.29727" lon="-2.23842">
        <ele>-1</ele>
        <time>2019-08-15T08:23:50.000Z</time>
      </trkpt>
      <trkpt lat="47.2973" lon="-2.23835">
        <ele>-1</ele>
        <time>2019-08-15T08:23:51.000Z</time>
      </trkpt>
      <trkpt lat="47.29738" lon="-2.23819">
        <ele>-1</ele>
        <time>2019-08-15T08:23:53.000Z</time>
      </trkpt>
      <trkpt lat="47.29748" lon="-2.23805">
        <ele>-1</ele>
        <time>2019-08-15T08:23:55.000Z</time>
      </trkpt>
      <trkpt lat="47.29768" lon="-2.23793">
        <ele>-1</ele>
        <time>2019-08-15T08:23:59.000Z</time>
      </trkpt>
      <trkpt lat="47.2979" lon="-2.23794">
        <ele>-1</ele>
        <time>2019-08-15T08:24:03.000Z</time>
      </trkpt>
      <trkpt lat="47.29795" lon="-2.23796">
        <ele>-1</ele>
        <time>2019-08-15T08:24:04.000Z</time>
      </trkpt>
      <trkpt lat="47.29824" lon="-2.23808">
        <ele>-1</ele>
        <time>2019-08-15T08:24:09.000Z</time>
      </trkpt>
      <trkpt lat="47.29829" lon="-2.23812">
        <ele>-1</ele>
        <time>2019-08-15T08:24:10.000Z</time>
      </trkpt>
      <trkpt lat="47.29844" lon="-2.23822">
        <ele>-1</ele>
        <time>2019-08-15T08:24:13.000Z</time>
      </trkpt>
      <trkpt lat="47.29848" lon="-2.23823">
        <ele>-1</ele>
        <time>2019-08-15T08:24:14.000Z</time>
      </trkpt>
      <trkpt lat="47.29861" lon="-2.23826">
        <ele>-1</ele>
        <time>2019-08-15T08:24:17.000Z</time>
      </trkpt>
      <trkpt lat="47.29865" lon="-2.23825">
        <ele>-1</ele>
        <time>2019-08-15T08:24:18.000Z</time>
      </trkpt>
      <trkpt lat="47.2987" lon="-2.23824">
        <ele>-1</ele>
        <time>2019-08-15T08:24:19.000Z</time>
      </trkpt>
      <trkpt lat="47.29895" lon="-2.23821">
        <ele>-1</ele>
        <time>2019-08-15T08:24:24.000Z</time>
      </trkpt>
      <trkpt lat="47.299" lon="-2.23821">
        <ele>-1</ele>
        <time>2019-08-15T08:24:25.000Z</time>
      </trkpt>
      <trkpt lat="47.2991" lon="-2.23823">
        <ele>-1</ele>
        <time>2019-08-15T08:24:27.000Z</time>
      </trkpt>
      <trkpt lat="47.29933" lon="-2.23831">
        <ele>-1</ele>
        <time>2019-08-15T08:24:31.000Z</time>
      </trkpt>
      <trkpt lat="47.2995" lon="-2.23837">
        <ele>-1</ele>
        <time>2019-08-15T08:24:34.000Z</time>
      </trkpt>
      <trkpt lat="47.29962" lon="-2.23845">
        <ele>-1</ele>
        <time>2019-08-15T08:24:36.000Z</time>
      </trkpt>
      <trkpt lat="47.29982" lon="-2.2386">
        <ele>-1</ele>
        <time>2019-08-15T08:24:40.000Z</time>
      </trkpt>
      <trkpt lat="47.2999" lon="-2.23869">
        <ele>-1</ele>
        <time>2019-08-15T08:24:42.000Z</time>
      </trkpt>
      <trkpt lat="47.30002" lon="-2.23888">
        <ele>-1</ele>
        <time>2019-08-15T08:24:47.000Z</time>
      </trkpt>
      <trkpt lat="47.30003" lon="-2.23889">
        <ele>-1</ele>
        <time>2019-08-15T08:24:48.000Z</time>
      </trkpt>
      <trkpt lat="47.30004" lon="-2.23891">
        <ele>-1</ele>
        <time>2019-08-15T08:25:23.000Z</time>
      </trkpt>
      <trkpt lat="47.30005" lon="-2.23894">
        <ele>-1</ele>
        <time>2019-08-15T08:25:24.000Z</time>
      </trkpt>
      <trkpt lat="47.30004" lon="-2.23909">
        <ele>-1</ele>
        <time>2019-08-15T08:25:28.000Z</time>
      </trkpt>
      <trkpt lat="47.30003" lon="-2.23924">
        <ele>-1</ele>
        <time>2019-08-15T08:25:31.000Z</time>
      </trkpt>
      <trkpt lat="47.30004" lon="-2.2393">
        <ele>-1</ele>
        <time>2019-08-15T08:25:32.000Z</time>
      </trkpt>
      <trkpt lat="47.30006" lon="-2.23962">
        <ele>-1</ele>
        <time>2019-08-15T08:25:37.000Z</time>
      </trkpt>
      <trkpt lat="47.30006" lon="-2.23969">
        <ele>-1</ele>
        <time>2019-08-15T08:25:38.000Z</time>
      </trkpt>
      <trkpt lat="47.30002" lon="-2.23988">
        <ele>-1</ele>
        <time>2019-08-15T08:25:41.000Z</time>
      </trkpt>
      <trkpt lat="47.30001" lon="-2.24">
        <ele>-1</ele>
        <time>2019-08-15T08:25:43.000Z</time>
      </trkpt>
      <trkpt lat="47.30001" lon="-2.24007">
        <ele>-1</ele>
        <time>2019-08-15T08:25:44.000Z</time>
      </trkpt>
      <trkpt lat="47.30001" lon="-2.24046">
        <ele>-1</ele>
        <time>2019-08-15T08:25:50.000Z</time>
      </trkpt>
      <trkpt lat="47.30001" lon="-2.24053">
        <ele>-0.60000002384186</ele>
        <time>2019-08-15T08:25:51.000Z</time>
      </trkpt>
      <trkpt lat="47.30001" lon="-2.24059">
        <ele>-0.20000000298023</ele>
        <time>2019-08-15T08:25:52.000Z</time>
      </trkpt>
      <trkpt lat="47.30001" lon="-2.24066">
        <ele>0.20000000298023</ele>
        <time>2019-08-15T08:25:53.000Z</time>
      </trkpt>
      <trkpt lat="47.30002" lon="-2.24073">
        <ele>0.80000001192093</ele>
        <time>2019-08-15T08:25:54.000Z</time>
      </trkpt>
      <trkpt lat="47.30003" lon="-2.2408">
        <ele>1.2000000476837</ele>
        <time>2019-08-15T08:25:55.000Z</time>
      </trkpt>
      <trkpt lat="47.30003" lon="-2.24087">
        <ele>1.2000000476837</ele>
        <time>2019-08-15T08:25:56.000Z</time>
      </trkpt>
      <trkpt lat="47.30004" lon="-2.24106">
        <ele>1.6000000238419</ele>
        <time>2019-08-15T08:25:59.000Z</time>
      </trkpt>
      <trkpt lat="47.30004" lon="-2.24112">
        <ele>2</ele>
        <time>2019-08-15T08:26:00.000Z</time>
      </trkpt>
      <trkpt lat="47.30004" lon="-2.24118">
        <ele>2.4000000953674</ele>
        <time>2019-08-15T08:26:01.000Z</time>
      </trkpt>
      <trkpt lat="47.30003" lon="-2.24123">
        <ele>2.7999999523163</ele>
        <time>2019-08-15T08:26:02.000Z</time>
      </trkpt>
      <trkpt lat="47.30003" lon="-2.24129">
        <ele>3.2000000476837</ele>
        <time>2019-08-15T08:26:03.000Z</time>
      </trkpt>
      <trkpt lat="47.29999" lon="-2.24146">
        <ele>3.5999999046326</ele>
        <time>2019-08-15T08:26:06.000Z</time>
      </trkpt>
      <trkpt lat="47.29998" lon="-2.24152">
        <ele>4.1999998092651</ele>
        <time>2019-08-15T08:26:07.000Z</time>
      </trkpt>
      <trkpt lat="47.29996" lon="-2.24158">
        <ele>4.5999999046326</ele>
        <time>2019-08-15T08:26:08.000Z</time>
      </trkpt>
      <trkpt lat="47.29995" lon="-2.24163">
        <ele>5</ele>
        <time>2019-08-15T08:26:09.000Z</time>
      </trkpt>
      <trkpt lat="47.29993" lon="-2.24168">
        <ele>5.5999999046326</ele>
        <time>2019-08-15T08:26:10.000Z</time>
      </trkpt>
      <trkpt lat="47.2999" lon="-2.24184">
        <ele>6</ele>
        <time>2019-08-15T08:26:13.000Z</time>
      </trkpt>
      <trkpt lat="47.29988" lon="-2.24189">
        <ele>6.4000000953674</ele>
        <time>2019-08-15T08:26:14.000Z</time>
      </trkpt>
      <trkpt lat="47.29987" lon="-2.24194">
        <ele>6.8000001907349</ele>
        <time>2019-08-15T08:26:15.000Z</time>
      </trkpt>
      <trkpt lat="47.29985" lon="-2.242">
        <ele>7.1999998092651</ele>
        <time>2019-08-15T08:26:16.000Z</time>
      </trkpt>
      <trkpt lat="47.29983" lon="-2.24206">
        <ele>7.8000001907349</ele>
        <time>2019-08-15T08:26:17.000Z</time>
      </trkpt>
      <trkpt lat="47.29977" lon="-2.24216">
        <ele>7.8000001907349</ele>
        <time>2019-08-15T08:26:19.000Z</time>
      </trkpt>
      <trkpt lat="47.29959" lon="-2.24248">
        <ele>8.1999998092651</ele>
        <time>2019-08-15T08:26:25.000Z</time>
      </trkpt>
      <trkpt lat="47.29956" lon="-2.24254">
        <ele>8.6000003814697</ele>
        <time>2019-08-15T08:26:26.000Z</time>
      </trkpt>
      <trkpt lat="47.29953" lon="-2.24259">
        <ele>9</ele>
        <time>2019-08-15T08:26:27.000Z</time>
      </trkpt>
      <trkpt lat="47.2995" lon="-2.24265">
        <ele>9.3999996185303</ele>
        <time>2019-08-15T08:26:28.000Z</time>
      </trkpt>
      <trkpt lat="47.29947" lon="-2.2427">
        <ele>9.8000001907349</ele>
        <time>2019-08-15T08:26:29.000Z</time>
      </trkpt>
      <trkpt lat="47.29939" lon="-2.24286">
        <ele>9.8000001907349</ele>
        <time>2019-08-15T08:26:32.000Z</time>
      </trkpt>
      <trkpt lat="47.2993" lon="-2.24292">
        <ele>9.8000001907349</ele>
        <time>2019-08-15T08:26:35.000Z</time>
      </trkpt>
      <trkpt lat="47.29926" lon="-2.24289">
        <ele>9.8000001907349</ele>
        <time>2019-08-15T08:26:38.000Z</time>
      </trkpt>
      <trkpt lat="47.29927" lon="-2.24288">
        <ele>9.8000001907349</ele>
        <time>2019-08-15T08:26:40.000Z</time>
      </trkpt>
      <trkpt lat="47.29931" lon="-2.24294">
        <ele>9.8000001907349</ele>
        <time>2019-08-15T08:26:42.000Z</time>
      </trkpt>
      <trkpt lat="47.29942" lon="-2.2431">
        <ele>9.8000001907349</ele>
        <time>2019-08-15T08:26:47.000Z</time>
      </trkpt>
      <trkpt lat="47.29962" lon="-2.24333">
        <ele>9.8000001907349</ele>
        <time>2019-08-15T08:26:54.000Z</time>
      </trkpt>
      <trkpt lat="47.29978" lon="-2.24349">
        <ele>9.8000001907349</ele>
        <time>2019-08-15T08:26:59.000Z</time>
      </trkpt>
      <trkpt lat="47.29993" lon="-2.24359">
        <ele>9.8000001907349</ele>
        <time>2019-08-15T08:27:04.000Z</time>
      </trkpt>
      <trkpt lat="47.29999" lon="-2.24346">
        <ele>9.8000001907349</ele>
        <time>2019-08-15T08:27:08.000Z</time>
      </trkpt>
      <trkpt lat="47.30002" lon="-2.2434">
        <ele>9.8000001907349</ele>
        <time>2019-08-15T08:27:10.000Z</time>
      </trkpt>
      <trkpt lat="47.30006" lon="-2.24326">
        <ele>9.8000001907349</ele>
        <time>2019-08-15T08:27:14.000Z</time>
      </trkpt>
      <trkpt lat="47.30012" lon="-2.24311">
        <ele>9.8000001907349</ele>
        <time>2019-08-15T08:27:18.000Z</time>
      </trkpt>
      <trkpt lat="47.30015" lon="-2.24293">
        <ele>9.8000001907349</ele>
        <time>2019-08-15T08:27:22.000Z</time>
      </trkpt>
      <trkpt lat="47.30017" lon="-2.24289">
        <ele>9.8000001907349</ele>
        <time>2019-08-15T08:27:23.000Z</time>
      </trkpt>
      <trkpt lat="47.3002" lon="-2.24285">
        <ele>9.8000001907349</ele>
        <time>2019-08-15T08:27:25.000Z</time>
      </trkpt>
      <trkpt lat="47.30024" lon="-2.2427">
        <ele>9.8000001907349</ele>
        <time>2019-08-15T08:27:29.000Z</time>
      </trkpt>
      <trkpt lat="47.30025" lon="-2.24265">
        <ele>9.8000001907349</ele>
        <time>2019-08-15T08:27:30.000Z</time>
      </trkpt>
      <trkpt lat="47.30023" lon="-2.24237">
        <ele>9.8000001907349</ele>
        <time>2019-08-15T08:27:35.000Z</time>
      </trkpt>
      <trkpt lat="47.30023" lon="-2.24217">
        <ele>9.3999996185303</ele>
        <time>2019-08-15T08:27:38.000Z</time>
      </trkpt>
      <trkpt lat="47.30023" lon="-2.2421">
        <ele>9</ele>
        <time>2019-08-15T08:27:39.000Z</time>
      </trkpt>
      <trkpt lat="47.30022" lon="-2.24202">
        <ele>8.6000003814697</ele>
        <time>2019-08-15T08:27:40.000Z</time>
      </trkpt>
      <trkpt lat="47.30022" lon="-2.24194">
        <ele>8</ele>
        <time>2019-08-15T08:27:41.000Z</time>
      </trkpt>
      <trkpt lat="47.30021" lon="-2.24187">
        <ele>7.5999999046326</ele>
        <time>2019-08-15T08:27:42.000Z</time>
      </trkpt>
      <trkpt lat="47.30021" lon="-2.2418">
        <ele>7.1999998092651</ele>
        <time>2019-08-15T08:27:43.000Z</time>
      </trkpt>
      <trkpt lat="47.30021" lon="-2.24173">
        <ele>6.8000001907349</ele>
        <time>2019-08-15T08:27:44.000Z</time>
      </trkpt>
      <trkpt lat="47.3002" lon="-2.24167">
        <ele>6.4000000953674</ele>
        <time>2019-08-15T08:27:45.000Z</time>
      </trkpt>
      <trkpt lat="47.30019" lon="-2.24162">
        <ele>6</ele>
        <time>2019-08-15T08:27:46.000Z</time>
      </trkpt>
      <trkpt lat="47.30019" lon="-2.24157">
        <ele>5.5999999046326</ele>
        <time>2019-08-15T08:27:47.000Z</time>
      </trkpt>
      <trkpt lat="47.30019" lon="-2.24154">
        <ele>5</ele>
        <time>2019-08-15T08:27:48.000Z</time>
      </trkpt>
      <trkpt lat="47.3002" lon="-2.24152">
        <ele>4.5999999046326</ele>
        <time>2019-08-15T08:27:49.000Z</time>
      </trkpt>
      <trkpt lat="47.30022" lon="-2.2415">
        <ele>4</ele>
        <time>2019-08-15T08:27:50.000Z</time>
      </trkpt>
      <trkpt lat="47.30024" lon="-2.24149">
        <ele>3.5999999046326</ele>
        <time>2019-08-15T08:27:51.000Z</time>
      </trkpt>
      <trkpt lat="47.30027" lon="-2.24147">
        <ele>3.5999999046326</ele>
        <time>2019-08-15T08:27:52.000Z</time>
      </trkpt>
      <trkpt lat="47.3003" lon="-2.24145">
        <ele>3.5999999046326</ele>
        <time>2019-08-15T08:27:53.000Z</time>
      </trkpt>
      <trkpt lat="47.30046" lon="-2.24134">
        <ele>4.4000000953674</ele>
        <time>2019-08-15T08:27:58.000Z</time>
      </trkpt>
      <trkpt lat="47.30049" lon="-2.24132">
        <ele>4.8000001907349</ele>
        <time>2019-08-15T08:27:59.000Z</time>
      </trkpt>
      <trkpt lat="47.30053" lon="-2.2413">
        <ele>5.1999998092651</ele>
        <time>2019-08-15T08:28:00.000Z</time>
      </trkpt>
      <trkpt lat="47.30056" lon="-2.24128">
        <ele>5.5999999046326</ele>
        <time>2019-08-15T08:28:01.000Z</time>
      </trkpt>
      <trkpt lat="47.30062" lon="-2.24122">
        <ele>5.5999999046326</ele>
        <time>2019-08-15T08:28:03.000Z</time>
      </trkpt>
      <trkpt lat="47.30075" lon="-2.24112">
        <ele>5.5999999046326</ele>
        <time>2019-08-15T08:28:06.000Z</time>
      </trkpt>
      <trkpt lat="47.30081" lon="-2.24109">
        <ele>5.5999999046326</ele>
        <time>2019-08-15T08:28:07.000Z</time>
      </trkpt>
      <trkpt lat="47.30092" lon="-2.24105">
        <ele>5.5999999046326</ele>
        <time>2019-08-15T08:28:09.000Z</time>
      </trkpt>
      <trkpt lat="47.30102" lon="-2.24097">
        <ele>5.5999999046326</ele>
        <time>2019-08-15T08:28:11.000Z</time>
      </trkpt>
      <trkpt lat="47.30107" lon="-2.24094">
        <ele>5.5999999046326</ele>
        <time>2019-08-15T08:28:12.000Z</time>
      </trkpt>
      <trkpt lat="47.30121" lon="-2.24087">
        <ele>5.5999999046326</ele>
        <time>2019-08-15T08:28:15.000Z</time>
      </trkpt>
      <trkpt lat="47.30137" lon="-2.24077">
        <ele>5.5999999046326</ele>
        <time>2019-08-15T08:28:19.000Z</time>
      </trkpt>
      <trkpt lat="47.30154" lon="-2.24069">
        <ele>5.5999999046326</ele>
        <time>2019-08-15T08:28:23.000Z</time>
      </trkpt>
      <trkpt lat="47.30174" lon="-2.24061">
        <ele>5.5999999046326</ele>
        <time>2019-08-15T08:28:28.000Z</time>
      </trkpt>
      <trkpt lat="47.3019" lon="-2.24057">
        <ele>5.5999999046326</ele>
        <time>2019-08-15T08:28:32.000Z</time>
      </trkpt>
      <trkpt lat="47.30196" lon="-2.24057">
        <ele>5.5999999046326</ele>
        <time>2019-08-15T08:28:33.000Z</time>
      </trkpt>
      <trkpt lat="47.30219" lon="-2.24058">
        <ele>5.5999999046326</ele>
        <time>2019-08-15T08:28:38.000Z</time>
      </trkpt>
      <trkpt lat="47.30237" lon="-2.24061">
        <ele>5.5999999046326</ele>
        <time>2019-08-15T08:28:43.000Z</time>
      </trkpt>
      <trkpt lat="47.30255" lon="-2.24063">
        <ele>5.5999999046326</ele>
        <time>2019-08-15T08:28:48.000Z</time>
      </trkpt>
      <trkpt lat="47.30259" lon="-2.24064">
        <ele>5.1999998092651</ele>
        <time>2019-08-15T08:28:49.000Z</time>
      </trkpt>
      <trkpt lat="47.30263" lon="-2.24064">
        <ele>4.8000001907349</ele>
        <time>2019-08-15T08:28:50.000Z</time>
      </trkpt>
      <trkpt lat="47.30267" lon="-2.24063">
        <ele>4.4000000953674</ele>
        <time>2019-08-15T08:28:51.000Z</time>
      </trkpt>
      <trkpt lat="47.3027" lon="-2.24059">
        <ele>4</ele>
        <time>2019-08-15T08:28:52.000Z</time>
      </trkpt>
      <trkpt lat="47.30273" lon="-2.24056">
        <ele>3.5999999046326</ele>
        <time>2019-08-15T08:28:53.000Z</time>
      </trkpt>
      <trkpt lat="47.30276" lon="-2.24038">
        <ele>3.5999999046326</ele>
        <time>2019-08-15T08:28:56.000Z</time>
      </trkpt>
      <trkpt lat="47.3028" lon="-2.24014">
        <ele>3.5999999046326</ele>
        <time>2019-08-15T08:28:59.000Z</time>
      </trkpt>
      <trkpt lat="47.3028" lon="-2.23989">
        <ele>3.5999999046326</ele>
        <time>2019-08-15T08:29:02.000Z</time>
      </trkpt>
      <trkpt lat="47.30274" lon="-2.23962">
        <ele>3.2000000476837</ele>
        <time>2019-08-15T08:29:05.000Z</time>
      </trkpt>
      <trkpt lat="47.30271" lon="-2.23953">
        <ele>2.5999999046326</ele>
        <time>2019-08-15T08:29:06.000Z</time>
      </trkpt>
      <trkpt lat="47.30269" lon="-2.23944">
        <ele>2.2000000476837</ele>
        <time>2019-08-15T08:29:07.000Z</time>
      </trkpt>
      <trkpt lat="47.30268" lon="-2.23934">
        <ele>1.7999999523163</ele>
        <time>2019-08-15T08:29:08.000Z</time>
      </trkpt>
      <trkpt lat="47.30267" lon="-2.23926">
        <ele>1.3999999761581</ele>
        <time>2019-08-15T08:29:09.000Z</time>
      </trkpt>
      <trkpt lat="47.30267" lon="-2.2391">
        <ele>0.80000001192093</ele>
        <time>2019-08-15T08:29:11.000Z</time>
      </trkpt>
      <trkpt lat="47.30267" lon="-2.23904">
        <ele>0.40000000596046</ele>
        <time>2019-08-15T08:29:12.000Z</time>
      </trkpt>
      <trkpt lat="47.30267" lon="-2.23898">
        <ele>-0.60000002384186</ele>
        <time>2019-08-15T08:29:13.000Z</time>
      </trkpt>
      <trkpt lat="47.30268" lon="-2.23893">
        <ele>-1.2000000476837</ele>
        <time>2019-08-15T08:29:14.000Z</time>
      </trkpt>
      <trkpt lat="47.30268" lon="-2.23886">
        <ele>-1.2000000476837</ele>
        <time>2019-08-15T08:29:16.000Z</time>
      </trkpt>
      <trkpt lat="47.30271" lon="-2.23883">
        <ele>-1.2000000476837</ele>
        <time>2019-08-15T08:29:18.000Z</time>
      </trkpt>
      <trkpt lat="47.30273" lon="-2.23883">
        <ele>-1.2000000476837</ele>
        <time>2019-08-15T08:29:19.000Z</time>
      </trkpt>
      <trkpt lat="47.30282" lon="-2.23884">
        <ele>-1.2000000476837</ele>
        <time>2019-08-15T08:29:24.000Z</time>
      </trkpt>
      <trkpt lat="47.30292" lon="-2.23885">
        <ele>-1.2000000476837</ele>
        <time>2019-08-15T08:29:29.000Z</time>
      </trkpt>
      <trkpt lat="47.30306" lon="-2.23879">
        <ele>-1.2000000476837</ele>
        <time>2019-08-15T08:29:36.000Z</time>
      </trkpt>
      <trkpt lat="47.30319" lon="-2.23873">
        <ele>-1.2000000476837</ele>
        <time>2019-08-15T08:29:44.000Z</time>
      </trkpt>
      <trkpt lat="47.30328" lon="-2.23868">
        <ele>-1.2000000476837</ele>
        <time>2019-08-15T08:29:50.000Z</time>
      </trkpt>
      <trkpt lat="47.30334" lon="-2.23865">
        <ele>-1.2000000476837</ele>
        <time>2019-08-15T08:29:54.000Z</time>
      </trkpt>
      <trkpt lat="47.30336" lon="-2.23864">
        <ele>-1.2000000476837</ele>
        <time>2019-08-15T08:29:55.000Z</time>
      </trkpt>
      <trkpt lat="47.30346" lon="-2.2386">
        <ele>-1.2000000476837</ele>
        <time>2019-08-15T08:30:01.000Z</time>
      </trkpt>
      <trkpt lat="47.30358" lon="-2.23858">
        <ele>-1.2000000476837</ele>
        <time>2019-08-15T08:30:08.000Z</time>
      </trkpt>
      <trkpt lat="47.3036" lon="-2.23857">
        <ele>-1.2000000476837</ele>
        <time>2019-08-15T08:30:09.000Z</time>
      </trkpt>
      <trkpt lat="47.30366" lon="-2.23856">
        <ele>-1.2000000476837</ele>
        <time>2019-08-15T08:30:13.000Z</time>
      </trkpt>
      <trkpt lat="47.30379" lon="-2.23854">
        <ele>-1.2000000476837</ele>
        <time>2019-08-15T08:30:20.000Z</time>
      </trkpt>
      <trkpt lat="47.30395" lon="-2.23851">
        <ele>-1.2000000476837</ele>
        <time>2019-08-15T08:30:27.000Z</time>
      </trkpt>
      <trkpt lat="47.30411" lon="-2.2385">
        <ele>-1.2000000476837</ele>
        <time>2019-08-15T08:30:32.000Z</time>
      </trkpt>
      <trkpt lat="47.30428" lon="-2.23847">
        <ele>-1.2000000476837</ele>
        <time>2019-08-15T08:30:36.000Z</time>
      </trkpt>
      <trkpt lat="47.30437" lon="-2.23846">
        <ele>-1.2000000476837</ele>
        <time>2019-08-15T08:30:38.000Z</time>
      </trkpt>
      <trkpt lat="47.30474" lon="-2.2384">
        <ele>-1.2000000476837</ele>
        <time>2019-08-15T08:30:46.000Z</time>
      </trkpt>
      <trkpt lat="47.30484" lon="-2.23841">
        <ele>-1.2000000476837</ele>
        <time>2019-08-15T08:30:48.000Z</time>
      </trkpt>
      <trkpt lat="47.30497" lon="-2.2385">
        <ele>-1.2000000476837</ele>
        <time>2019-08-15T08:30:51.000Z</time>
      </trkpt>
      <trkpt lat="47.30504" lon="-2.2386">
        <ele>-1.2000000476837</ele>
        <time>2019-08-15T08:30:53.000Z</time>
      </trkpt>
      <trkpt lat="47.30513" lon="-2.23875">
        <ele>-1.2000000476837</ele>
        <time>2019-08-15T08:30:56.000Z</time>
      </trkpt>
      <trkpt lat="47.30537" lon="-2.23907">
        <ele>-1.2000000476837</ele>
        <time>2019-08-15T08:31:03.000Z</time>
      </trkpt>
      <trkpt lat="47.30541" lon="-2.23911">
        <ele>-1.2000000476837</ele>
        <time>2019-08-15T08:31:04.000Z</time>
      </trkpt>
      <trkpt lat="47.30547" lon="-2.23919">
        <ele>-1.2000000476837</ele>
        <time>2019-08-15T08:31:06.000Z</time>
      </trkpt>
      <trkpt lat="47.30551" lon="-2.23931">
        <ele>-1.2000000476837</ele>
        <time>2019-08-15T08:31:08.000Z</time>
      </trkpt>
      <trkpt lat="47.30546" lon="-2.23949">
        <ele>-1.2000000476837</ele>
        <time>2019-08-15T08:31:11.000Z</time>
      </trkpt>
      <trkpt lat="47.3054" lon="-2.23957">
        <ele>-1.2000000476837</ele>
        <time>2019-08-15T08:31:13.000Z</time>
      </trkpt>
      <trkpt lat="47.30529" lon="-2.23968">
        <ele>-1.2000000476837</ele>
        <time>2019-08-15T08:31:16.000Z</time>
      </trkpt>
      <trkpt lat="47.30506" lon="-2.23997">
        <ele>-0.80000001192093</ele>
        <time>2019-08-15T08:31:23.000Z</time>
      </trkpt>
      <trkpt lat="47.30503" lon="-2.24001">
        <ele>-0.40000000596046</ele>
        <time>2019-08-15T08:31:24.000Z</time>
      </trkpt>
      <trkpt lat="47.305" lon="-2.24005">
        <ele>8.4</ele>
        <time>2019-08-15T08:31:25.000Z</time>
      </trkpt>
      <trkpt lat="47.30497" lon="-2.2401">
        <ele>0.40000000596046</ele>
        <time>2019-08-15T08:31:26.000Z</time>
      </trkpt>
      <trkpt lat="47.30494" lon="-2.24015">
        <ele>1</ele>
        <time>2019-08-15T08:31:27.000Z</time>
      </trkpt>
      <trkpt lat="47.30491" lon="-2.24019">
        <ele>1</ele>
        <time>2019-08-15T08:31:28.000Z</time>
      </trkpt>
      <trkpt lat="47.30486" lon="-2.24025">
        <ele>1.3999999761581</ele>
        <time>2019-08-15T08:31:30.000Z</time>
      </trkpt>
      <trkpt lat="47.30484" lon="-2.24027">
        <ele>1.7999999523163</ele>
        <time>2019-08-15T08:31:31.000Z</time>
      </trkpt>
      <trkpt lat="47.30481" lon="-2.2403">
        <ele>2.2000000476837</ele>
        <time>2019-08-15T08:31:32.000Z</time>
      </trkpt>
      <trkpt lat="47.30479" lon="-2.24032">
        <ele>2.5999999046326</ele>
        <time>2019-08-15T08:31:33.000Z</time>
      </trkpt>
      <trkpt lat="47.30476" lon="-2.24035">
        <ele>3</ele>
        <time>2019-08-15T08:31:34.000Z</time>
      </trkpt>
      <trkpt lat="47.30468" lon="-2.24039">
        <ele>3.5999999046326</ele>
        <time>2019-08-15T08:31:37.000Z</time>
      </trkpt>
      <trkpt lat="47.30465" lon="-2.24041">
        <ele>4</ele>
        <time>2019-08-15T08:31:38.000Z</time>
      </trkpt>
      <trkpt lat="47.30462" lon="-2.24044">
        <ele>4.4000000953674</ele>
        <time>2019-08-15T08:31:39.000Z</time>
      </trkpt>
      <trkpt lat="47.30459" lon="-2.24046">
        <ele>4.8000001907349</ele>
        <time>2019-08-15T08:31:40.000Z</time>
      </trkpt>
      <trkpt lat="47.30457" lon="-2.24049">
        <ele>5.4000000953674</ele>
        <time>2019-08-15T08:31:41.000Z</time>
      </trkpt>
      <trkpt lat="47.30449" lon="-2.24058">
        <ele>5.4000000953674</ele>
        <time>2019-08-15T08:31:44.000Z</time>
      </trkpt>
      <trkpt lat="47.3044" lon="-2.24071">
        <ele>5.8000001907349</ele>
        <time>2019-08-15T08:31:48.000Z</time>
      </trkpt>
      <trkpt lat="47.30437" lon="-2.24075">
        <ele>6.1999998092651</ele>
        <time>2019-08-15T08:31:49.000Z</time>
      </trkpt>
      <trkpt lat="47.30435" lon="-2.24079">
        <ele>6.5999999046326</ele>
        <time>2019-08-15T08:31:50.000Z</time>
      </trkpt>
      <trkpt lat="47.30431" lon="-2.24082">
        <ele>7</ele>
        <time>2019-08-15T08:31:51.000Z</time>
      </trkpt>
      <trkpt lat="47.30428" lon="-2.24085">
        <ele>7.4000000953674</ele>
        <time>2019-08-15T08:31:52.000Z</time>
      </trkpt>
      <trkpt lat="47.3042" lon="-2.24093">
        <ele>7.4000000953674</ele>
        <time>2019-08-15T08:31:55.000Z</time>
      </trkpt>
      <trkpt lat="47.30414" lon="-2.24099">
        <ele>7.8000001907349</ele>
        <time>2019-08-15T08:31:57.000Z</time>
      </trkpt>
      <trkpt lat="47.30412" lon="-2.24102">
        <ele>8.1999998092651</ele>
        <time>2019-08-15T08:31:58.000Z</time>
      </trkpt>
      <trkpt lat="47.30409" lon="-2.24106">
        <ele>8.6000003814697</ele>
        <time>2019-08-15T08:31:59.000Z</time>
      </trkpt>
      <trkpt lat="47.30406" lon="-2.24109">
        <ele>9.1999998092651</ele>
        <time>2019-08-15T08:32:00.000Z</time>
      </trkpt>
      <trkpt lat="47.30402" lon="-2.24112">
        <ele>9.6000003814697</ele>
        <time>2019-08-15T08:32:01.000Z</time>
      </trkpt>
      <trkpt lat="47.30382" lon="-2.24133">
        <ele>9.6000003814697</ele>
        <time>2019-08-15T08:32:07.000Z</time>
      </trkpt>
      <trkpt lat="47.30378" lon="-2.24137">
        <ele>9.6000003814697</ele>
        <time>2019-08-15T08:32:08.000Z</time>
      </trkpt>
      <trkpt lat="47.30364" lon="-2.24152">
        <ele>9.6000003814697</ele>
        <time>2019-08-15T08:32:11.000Z</time>
      </trkpt>
      <trkpt lat="47.3036" lon="-2.24158">
        <ele>9.6000003814697</ele>
        <time>2019-08-15T08:32:12.000Z</time>
      </trkpt>
      <trkpt lat="47.30353" lon="-2.24171">
        <ele>9.6000003814697</ele>
        <time>2019-08-15T08:32:14.000Z</time>
      </trkpt>
      <trkpt lat="47.30351" lon="-2.24188">
        <ele>9.6000003814697</ele>
        <time>2019-08-15T08:32:16.000Z</time>
      </trkpt>
      <trkpt lat="47.30357" lon="-2.24207">
        <ele>9.6000003814697</ele>
        <time>2019-08-15T08:32:19.000Z</time>
      </trkpt>
      <trkpt lat="47.30366" lon="-2.2422">
        <ele>9.6000003814697</ele>
        <time>2019-08-15T08:32:22.000Z</time>
      </trkpt>
      <trkpt lat="47.30373" lon="-2.24226">
        <ele>9.6000003814697</ele>
        <time>2019-08-15T08:32:24.000Z</time>
      </trkpt>
      <trkpt lat="47.30391" lon="-2.24245">
        <ele>9.6000003814697</ele>
        <time>2019-08-15T08:32:30.000Z</time>
      </trkpt>
      <trkpt lat="47.30407" lon="-2.24261">
        <ele>9.6000003814697</ele>
        <time>2019-08-15T08:32:35.000Z</time>
      </trkpt>
      <trkpt lat="47.30424" lon="-2.24273">
        <ele>9.6000003814697</ele>
        <time>2019-08-15T08:32:40.000Z</time>
      </trkpt>
      <trkpt lat="47.30453" lon="-2.2428">
        <ele>9.6000003814697</ele>
        <time>2019-08-15T08:32:47.000Z</time>
      </trkpt>
      <trkpt lat="47.30485" lon="-2.24293">
        <ele>9.6000003814697</ele>
        <time>2019-08-15T08:32:55.000Z</time>
      </trkpt>
      <trkpt lat="47.30505" lon="-2.2431">
        <ele>9.6000003814697</ele>
        <time>2019-08-15T08:33:01.000Z</time>
      </trkpt>
      <trkpt lat="47.30529" lon="-2.24337">
        <ele>9.6000003814697</ele>
        <time>2019-08-15T08:33:09.000Z</time>
      </trkpt>
      <trkpt lat="47.30554" lon="-2.24363">
        <ele>9.6000003814697</ele>
        <time>2019-08-15T08:33:17.000Z</time>
      </trkpt>
      <trkpt lat="47.30567" lon="-2.24377">
        <ele>9.6000003814697</ele>
        <time>2019-08-15T08:33:22.000Z</time>
      </trkpt>
      <trkpt lat="47.30588" lon="-2.24401">
        <ele>9.6000003814697</ele>
        <time>2019-08-15T08:33:29.000Z</time>
      </trkpt>
      <trkpt lat="47.30606" lon="-2.24416">
        <ele>9.1999998092651</ele>
        <time>2019-08-15T08:33:35.000Z</time>
      </trkpt>
      <trkpt lat="47.3061" lon="-2.24418">
        <ele>8.8000001907349</ele>
        <time>2019-08-15T08:33:36.000Z</time>
      </trkpt>
      <trkpt lat="47.30615" lon="-2.2442">
        <ele>8.1999998092651</ele>
        <time>2019-08-15T08:33:38.000Z</time>
      </trkpt>
      <trkpt lat="47.30618" lon="-2.24421">
        <ele>7.4000000953674</ele>
        <time>2019-08-15T08:33:39.000Z</time>
      </trkpt>
      <trkpt lat="47.30623" lon="-2.24423">
        <ele>7.4000000953674</ele>
        <time>2019-08-15T08:33:41.000Z</time>
      </trkpt>
      <trkpt lat="47.30637" lon="-2.24435">
        <ele>7.4000000953674</ele>
        <time>2019-08-15T08:33:47.000Z</time>
      </trkpt>
      <trkpt lat="47.30638" lon="-2.24439">
        <ele>7</ele>
        <time>2019-08-15T08:33:48.000Z</time>
      </trkpt>
      <trkpt lat="47.30639" lon="-2.24442">
        <ele>6.5999999046326</ele>
        <time>2019-08-15T08:33:49.000Z</time>
      </trkpt>
      <trkpt lat="47.30638" lon="-2.24445">
        <ele>6</ele>
        <time>2019-08-15T08:33:50.000Z</time>
      </trkpt>
      <trkpt lat="47.30637" lon="-2.24449">
        <ele>5.5999999046326</ele>
        <time>2019-08-15T08:33:51.000Z</time>
      </trkpt>
      <trkpt lat="47.30637" lon="-2.24454">
        <ele>5.1999998092651</ele>
        <time>2019-08-15T08:33:52.000Z</time>
      </trkpt>
      <trkpt lat="47.30632" lon="-2.24479">
        <ele>4.8000001907349</ele>
        <time>2019-08-15T08:33:57.000Z</time>
      </trkpt>
      <trkpt lat="47.30631" lon="-2.24484">
        <ele>4.4000000953674</ele>
        <time>2019-08-15T08:33:58.000Z</time>
      </trkpt>
      <trkpt lat="47.3063" lon="-2.2449">
        <ele>4</ele>
        <time>2019-08-15T08:33:59.000Z</time>
      </trkpt>
      <trkpt lat="47.30628" lon="-2.24497">
        <ele>3.5999999046326</ele>
        <time>2019-08-15T08:34:00.000Z</time>
      </trkpt>
      <trkpt lat="47.30627" lon="-2.24504">
        <ele>3.2000000476837</ele>
        <time>2019-08-15T08:34:01.000Z</time>
      </trkpt>
      <trkpt lat="47.30625" lon="-2.24521">
        <ele>3.2000000476837</ele>
        <time>2019-08-15T08:34:03.000Z</time>
      </trkpt>
      <trkpt lat="47.3062" lon="-2.24571">
        <ele>3.2000000476837</ele>
        <time>2019-08-15T08:34:08.000Z</time>
      </trkpt>
      <trkpt lat="47.30618" lon="-2.24594">
        <ele>2.5999999046326</ele>
        <time>2019-08-15T08:34:10.000Z</time>
      </trkpt>
      <trkpt lat="47.30617" lon="-2.24606">
        <ele>2.2000000476837</ele>
        <time>2019-08-15T08:34:11.000Z</time>
      </trkpt>
      <trkpt lat="47.30618" lon="-2.24618">
        <ele>1.7999999523163</ele>
        <time>2019-08-15T08:34:12.000Z</time>
      </trkpt>
      <trkpt lat="47.30619" lon="-2.24629">
        <ele>1.2000000476837</ele>
        <time>2019-08-15T08:34:13.000Z</time>
      </trkpt>
      <trkpt lat="47.3062" lon="-2.24639">
        <ele>0.80000001192093</ele>
        <time>2019-08-15T08:34:14.000Z</time>
      </trkpt>
      <trkpt lat="47.30626" lon="-2.24656">
        <ele>0.80000001192093</ele>
        <time>2019-08-15T08:34:16.000Z</time>
      </trkpt>
      <trkpt lat="47.30628" lon="-2.24665">
        <ele>0.80000001192093</ele>
        <time>2019-08-15T08:34:17.000Z</time>
      </trkpt>
      <trkpt lat="47.30642" lon="-2.24713">
        <ele>0.40000000596046</ele>
        <time>2019-08-15T08:34:23.000Z</time>
      </trkpt>
      <trkpt lat="47.30644" lon="-2.24721">
        <ele>2</ele>
        <time>2019-08-15T08:34:24.000Z</time>
      </trkpt>
      <trkpt lat="47.30646" lon="-2.24728">
        <ele>-0.40000000596046</ele>
        <time>2019-08-15T08:34:25.000Z</time>
      </trkpt>
      <trkpt lat="47.30648" lon="-2.24736">
        <ele>-0.80000001192093</ele>
        <time>2019-08-15T08:34:26.000Z</time>
      </trkpt>
      <trkpt lat="47.30651" lon="-2.24742">
        <ele>-1.2000000476837</ele>
        <time>2019-08-15T08:34:27.000Z</time>
      </trkpt>
      <trkpt lat="47.30656" lon="-2.24753">
        <ele>-1.2000000476837</ele>
        <time>2019-08-15T08:34:29.000Z</time>
      </trkpt>
      <trkpt lat="47.30669" lon="-2.24776">
        <ele>-1.2000000476837</ele>
        <time>2019-08-15T08:34:33.000Z</time>
      </trkpt>
      <trkpt lat="47.30677" lon="-2.24786">
        <ele>-1.2000000476837</ele>
        <time>2019-08-15T08:34:35.000Z</time>
      </trkpt>
      <trkpt lat="47.30701" lon="-2.24818">
        <ele>-1.2000000476837</ele>
        <time>2019-08-15T08:34:41.000Z</time>
      </trkpt>
      <trkpt lat="47.30712" lon="-2.2484">
        <ele>-1.2000000476837</ele>
        <time>2019-08-15T08:34:45.000Z</time>
      </trkpt>
      <trkpt lat="47.30714" lon="-2.24845">
        <ele>-1.2000000476837</ele>
        <time>2019-08-15T08:34:46.000Z</time>
      </trkpt>
      <trkpt lat="47.30719" lon="-2.24856">
        <ele>-1.2000000476837</ele>
        <time>2019-08-15T08:34:48.000Z</time>
      </trkpt>
      <trkpt lat="47.30729" lon="-2.24869">
        <ele>-1.2000000476837</ele>
        <time>2019-08-15T08:34:51.000Z</time>
      </trkpt>
      <trkpt lat="47.30733" lon="-2.24873">
        <ele>-1.2000000476837</ele>
        <time>2019-08-15T08:34:52.000Z</time>
      </trkpt>
      <trkpt lat="47.30746" lon="-2.24883">
        <ele>-1.2000000476837</ele>
        <time>2019-08-15T08:34:55.000Z</time>
      </trkpt>
      <trkpt lat="47.30756" lon="-2.24888">
        <ele>-1.2000000476837</ele>
        <time>2019-08-15T08:34:57.000Z</time>
      </trkpt>
      <trkpt lat="47.30771" lon="-2.24893">
        <ele>-1.2000000476837</ele>
        <time>2019-08-15T08:35:00.000Z</time>
      </trkpt>
      <trkpt lat="47.30786" lon="-2.249">
        <ele>-1.2000000476837</ele>
        <time>2019-08-15T08:35:03.000Z</time>
      </trkpt>
      <trkpt lat="47.30817" lon="-2.24912">
        <ele>-1.2000000476837</ele>
        <time>2019-08-15T08:35:09.000Z</time>
      </trkpt>
      <trkpt lat="47.30822" lon="-2.24913">
        <ele>-1.2000000476837</ele>
        <time>2019-08-15T08:35:10.000Z</time>
      </trkpt>
      <trkpt lat="47.30831" lon="-2.24912">
        <ele>-1.2000000476837</ele>
        <time>2019-08-15T08:35:12.000Z</time>
      </trkpt>
      <trkpt lat="47.30841" lon="-2.24907">
        <ele>-1.2000000476837</ele>
        <time>2019-08-15T08:35:14.000Z</time>
      </trkpt>
      <trkpt lat="47.3086" lon="-2.24888">
        <ele>-1.2000000476837</ele>
        <time>2019-08-15T08:35:18.000Z</time>
      </trkpt>
      <trkpt lat="47.30889" lon="-2.24848">
        <ele>-1.2000000476837</ele>
        <time>2019-08-15T08:35:25.000Z</time>
      </trkpt>
      <trkpt lat="47.30924" lon="-2.24803">
        <ele>-1.2000000476837</ele>
        <time>2019-08-15T08:35:34.000Z</time>
      </trkpt>
      <trkpt lat="47.30949" lon="-2.24774">
        <ele>-1.2000000476837</ele>
        <time>2019-08-15T08:35:40.000Z</time>
      </trkpt>
      <trkpt lat="47.30958" lon="-2.24766">
        <ele>-1.2000000476837</ele>
        <time>2019-08-15T08:35:42.000Z</time>
      </trkpt>
      <trkpt lat="47.30974" lon="-2.24756">
        <ele>-1.2000000476837</ele>
        <time>2019-08-15T08:35:45.000Z</time>
      </trkpt>
      <trkpt lat="47.30985" lon="-2.24753">
        <ele>-1.2000000476837</ele>
        <time>2019-08-15T08:35:47.000Z</time>
      </trkpt>
      <trkpt lat="47.31002" lon="-2.24752">
        <ele>-1.2000000476837</ele>
        <time>2019-08-15T08:35:50.000Z</time>
      </trkpt>
      <trkpt lat="47.31008" lon="-2.24752">
        <ele>-1.2000000476837</ele>
        <time>2019-08-15T08:35:51.000Z</time>
      </trkpt>
      <trkpt lat="47.31041" lon="-2.24761">
        <ele>-1.2000000476837</ele>
        <time>2019-08-15T08:35:57.000Z</time>
      </trkpt>
      <trkpt lat="47.31078" lon="-2.24773">
        <ele>-1.2000000476837</ele>
        <time>2019-08-15T08:36:04.000Z</time>
      </trkpt>
      <trkpt lat="47.31098" lon="-2.24775">
        <ele>-1.2000000476837</ele>
        <time>2019-08-15T08:36:08.000Z</time>
      </trkpt>
      <trkpt lat="47.31108" lon="-2.24774">
        <ele>-1.2000000476837</ele>
        <time>2019-08-15T08:36:10.000Z</time>
      </trkpt>
      <trkpt lat="47.31128" lon="-2.24761">
        <ele>-1.2000000476837</ele>
        <time>2019-08-15T08:36:14.000Z</time>
      </trkpt>
      <trkpt lat="47.31133" lon="-2.24755">
        <ele>-1.2000000476837</ele>
        <time>2019-08-15T08:36:15.000Z</time>
      </trkpt>
      <trkpt lat="47.31146" lon="-2.24741">
        <ele>-1.2000000476837</ele>
        <time>2019-08-15T08:36:18.000Z</time>
      </trkpt>
      <trkpt lat="47.3115" lon="-2.24737">
        <ele>-1.2000000476837</ele>
        <time>2019-08-15T08:36:19.000Z</time>
      </trkpt>
      <trkpt lat="47.31154" lon="-2.24732">
        <ele>-1.2000000476837</ele>
        <time>2019-08-15T08:36:20.000Z</time>
      </trkpt>
      <trkpt lat="47.31168" lon="-2.24713">
        <ele>-1.2000000476837</ele>
        <time>2019-08-15T08:36:24.000Z</time>
      </trkpt>
      <trkpt lat="47.31183" lon="-2.24692">
        <ele>-1.2000000476837</ele>
        <time>2019-08-15T08:36:28.000Z</time>
      </trkpt>
      <trkpt lat="47.31197" lon="-2.24673">
        <ele>-1.2000000476837</ele>
        <time>2019-08-15T08:36:32.000Z</time>
      </trkpt>
      <trkpt lat="47.31204" lon="-2.24666">
        <ele>-1.2000000476837</ele>
        <time>2019-08-15T08:36:34.000Z</time>
      </trkpt>
      <trkpt lat="47.31229" lon="-2.24642">
        <ele>-1.2000000476837</ele>
        <time>2019-08-15T08:36:40.000Z</time>
      </trkpt>
      <trkpt lat="47.31232" lon="-2.24636">
        <ele>-1.2000000476837</ele>
        <time>2019-08-15T08:36:41.000Z</time>
      </trkpt>
      <trkpt lat="47.31242" lon="-2.24621">
        <ele>-1.2000000476837</ele>
        <time>2019-08-15T08:36:44.000Z</time>
      </trkpt>
      <trkpt lat="47.31254" lon="-2.2461">
        <ele>-1.2000000476837</ele>
        <time>2019-08-15T08:36:47.000Z</time>
      </trkpt>
      <trkpt lat="47.31263" lon="-2.24603">
        <ele>-1.2000000476837</ele>
        <time>2019-08-15T08:36:49.000Z</time>
      </trkpt>
      <trkpt lat="47.31267" lon="-2.246">
        <ele>-1.2000000476837</ele>
        <time>2019-08-15T08:36:50.000Z</time>
      </trkpt>
      <trkpt lat="47.31289" lon="-2.24579">
        <ele>-1.2000000476837</ele>
        <time>2019-08-15T08:36:55.000Z</time>
      </trkpt>
      <trkpt lat="47.31308" lon="-2.24557">
        <ele>-1.2000000476837</ele>
        <time>2019-08-15T08:37:00.000Z</time>
      </trkpt>
      <trkpt lat="47.31312" lon="-2.24553">
        <ele>-1.2000000476837</ele>
        <time>2019-08-15T08:37:01.000Z</time>
      </trkpt>
      <trkpt lat="47.31324" lon="-2.24541">
        <ele>-1.2000000476837</ele>
        <time>2019-08-15T08:37:04.000Z</time>
      </trkpt>
      <trkpt lat="47.31338" lon="-2.2453">
        <ele>-1.2000000476837</ele>
        <time>2019-08-15T08:37:07.000Z</time>
      </trkpt>
      <trkpt lat="47.31366" lon="-2.24498">
        <ele>-1.2000000476837</ele>
        <time>2019-08-15T08:37:14.000Z</time>
      </trkpt>
      <trkpt lat="47.31399" lon="-2.24465">
        <ele>-1.2000000476837</ele>
        <time>2019-08-15T08:37:22.000Z</time>
      </trkpt>
      <trkpt lat="47.31427" lon="-2.24434">
        <ele>-1.2000000476837</ele>
        <time>2019-08-15T08:37:29.000Z</time>
      </trkpt>
      <trkpt lat="47.31448" lon="-2.24409">
        <ele>-1.2000000476837</ele>
        <time>2019-08-15T08:37:34.000Z</time>
      </trkpt>
      <trkpt lat="47.31452" lon="-2.24403">
        <ele>-1.2000000476837</ele>
        <time>2019-08-15T08:37:35.000Z</time>
      </trkpt>
      <trkpt lat="47.3147" lon="-2.24391">
        <ele>-1.2000000476837</ele>
        <time>2019-08-15T08:37:39.000Z</time>
      </trkpt>
      <trkpt lat="47.31474" lon="-2.24389">
        <ele>-1.2000000476837</ele>
        <time>2019-08-15T08:37:40.000Z</time>
      </trkpt>
      <trkpt lat="47.31482" lon="-2.24384">
        <ele>-1.2000000476837</ele>
        <time>2019-08-15T08:37:42.000Z</time>
      </trkpt>
      <trkpt lat="47.31491" lon="-2.24379">
        <ele>-1.2000000476837</ele>
        <time>2019-08-15T08:37:44.000Z</time>
      </trkpt>
      <trkpt lat="47.31508" lon="-2.24374">
        <ele>-1.2000000476837</ele>
        <time>2019-08-15T08:37:48.000Z</time>
      </trkpt>
      <trkpt lat="47.31516" lon="-2.24375">
        <ele>-1.2000000476837</ele>
        <time>2019-08-15T08:37:50.000Z</time>
      </trkpt>
      <trkpt lat="47.31526" lon="-2.24375">
        <ele>-1.2000000476837</ele>
        <time>2019-08-15T08:37:52.000Z</time>
      </trkpt>
      <trkpt lat="47.31555" lon="-2.24378">
        <ele>-1.2000000476837</ele>
        <time>2019-08-15T08:37:58.000Z</time>
      </trkpt>
      <trkpt lat="47.3156" lon="-2.24381">
        <ele>-1.2000000476837</ele>
        <time>2019-08-15T08:37:59.000Z</time>
      </trkpt>
      <trkpt lat="47.31575" lon="-2.24397">
        <ele>-1.2000000476837</ele>
        <time>2019-08-15T08:38:03.000Z</time>
      </trkpt>
      <trkpt lat="47.31584" lon="-2.24405">
        <ele>-1.2000000476837</ele>
        <time>2019-08-15T08:38:05.000Z</time>
      </trkpt>
      <trkpt lat="47.31593" lon="-2.24405">
        <ele>-1.2000000476837</ele>
        <time>2019-08-15T08:38:07.000Z</time>
      </trkpt>
      <trkpt lat="47.31604" lon="-2.24407">
        <ele>-1.2000000476837</ele>
        <time>2019-08-15T08:38:11.000Z</time>
      </trkpt>
      <trkpt lat="47.31608" lon="-2.24409">
        <ele>-1.2000000476837</ele>
        <time>2019-08-15T08:38:12.000Z</time>
      </trkpt>
      <trkpt lat="47.3162" lon="-2.24418">
        <ele>-1.2000000476837</ele>
        <time>2019-08-15T08:38:15.000Z</time>
      </trkpt>
      <trkpt lat="47.31624" lon="-2.2442">
        <ele>-1.2000000476837</ele>
        <time>2019-08-15T08:38:16.000Z</time>
      </trkpt>
      <trkpt lat="47.31635" lon="-2.24423">
        <ele>-1.2000000476837</ele>
        <time>2019-08-15T08:38:19.000Z</time>
      </trkpt>
      <trkpt lat="47.31654" lon="-2.24436">
        <ele>-1.2000000476837</ele>
        <time>2019-08-15T08:38:25.000Z</time>
      </trkpt>
      <trkpt lat="47.31661" lon="-2.24441">
        <ele>-1.2000000476837</ele>
        <time>2019-08-15T08:38:27.000Z</time>
      </trkpt>
      <trkpt lat="47.31663" lon="-2.24441">
        <ele>-1.6000000238419</ele>
        <time>2019-08-15T08:38:28.000Z</time>
      </trkpt>
      <trkpt lat="47.31666" lon="-2.24441">
        <ele>-2</ele>
        <time>2019-08-15T08:38:29.000Z</time>
      </trkpt>
      <trkpt lat="47.31669" lon="-2.24439">
        <ele>-2.4000000953674</ele>
        <time>2019-08-15T08:38:30.000Z</time>
      </trkpt>
      <trkpt lat="47.3167" lon="-2.24438">
        <ele>-2.7999999523163</ele>
        <time>2019-08-15T08:38:31.000Z</time>
      </trkpt>
      <trkpt lat="47.31673" lon="-2.24438">
        <ele>-3.2000000476837</ele>
        <time>2019-08-15T08:38:32.000Z</time>
      </trkpt>
      <trkpt lat="47.31677" lon="-2.24436">
        <ele>-3.2000000476837</ele>
        <time>2019-08-15T08:38:35.000Z</time>
      </trkpt>
      <trkpt lat="47.3168" lon="-2.24435">
        <ele>-3.2000000476837</ele>
        <time>2019-08-15T08:38:38.000Z</time>
      </trkpt>
      <trkpt lat="47.3168" lon="-2.24436">
        <ele>-3.2000000476837</ele>
        <time>2019-08-15T08:38:39.000Z</time>
      </trkpt>
      <trkpt lat="47.31684" lon="-2.24435">
        <ele>-3.2000000476837</ele>
        <time>2019-08-15T08:38:57.000Z</time>
      </trkpt>
      <trkpt lat="47.3169" lon="-2.24434">
        <ele>-3.2000000476837</ele>
        <time>2019-08-15T08:39:00.000Z</time>
      </trkpt>
      <trkpt lat="47.31702" lon="-2.24435">
        <ele>-3.2000000476837</ele>
        <time>2019-08-15T08:39:06.000Z</time>
      </trkpt>
      <trkpt lat="47.31704" lon="-2.24436">
        <ele>-3.2000000476837</ele>
        <time>2019-08-15T08:39:07.000Z</time>
      </trkpt>
      <trkpt lat="47.31706" lon="-2.2444">
        <ele>-3.2000000476837</ele>
        <time>2019-08-15T08:39:11.000Z</time>
      </trkpt>
      <trkpt lat="47.31707" lon="-2.24441">
        <ele>-3.2000000476837</ele>
        <time>2019-08-15T08:39:12.000Z</time>
      </trkpt>
      <trkpt lat="47.31711" lon="-2.24449">
        <ele>-3.2000000476837</ele>
        <time>2019-08-15T08:39:19.000Z</time>
      </trkpt>
      <trkpt lat="47.31718" lon="-2.24458">
        <ele>-3.2000000476837</ele>
        <time>2019-08-15T08:39:26.000Z</time>
      </trkpt>
      <trkpt lat="47.31723" lon="-2.2447">
        <ele>-3.2000000476837</ele>
        <time>2019-08-15T08:39:32.000Z</time>
      </trkpt>
      <trkpt lat="47.31728" lon="-2.24484">
        <ele>-3.2000000476837</ele>
        <time>2019-08-15T08:39:37.000Z</time>
      </trkpt>
      <trkpt lat="47.31731" lon="-2.24495">
        <ele>-3.2000000476837</ele>
        <time>2019-08-15T08:39:42.000Z</time>
      </trkpt>
      <trkpt lat="47.31735" lon="-2.24509">
        <ele>-3.2000000476837</ele>
        <time>2019-08-15T08:39:47.000Z</time>
      </trkpt>
      <trkpt lat="47.31743" lon="-2.24535">
        <ele>-3.2000000476837</ele>
        <time>2019-08-15T08:39:54.000Z</time>
      </trkpt>
      <trkpt lat="47.31752" lon="-2.24561">
        <ele>-3.2000000476837</ele>
        <time>2019-08-15T08:40:01.000Z</time>
      </trkpt>
      <trkpt lat="47.31765" lon="-2.24589">
        <ele>-3.2000000476837</ele>
        <time>2019-08-15T08:40:08.000Z</time>
      </trkpt>
      <trkpt lat="47.31773" lon="-2.24609">
        <ele>-3.2000000476837</ele>
        <time>2019-08-15T08:40:14.000Z</time>
      </trkpt>
      <trkpt lat="47.31783" lon="-2.24624">
        <ele>-3.2000000476837</ele>
        <time>2019-08-15T08:40:20.000Z</time>
      </trkpt>
      <trkpt lat="47.31798" lon="-2.24618">
        <ele>-3.2000000476837</ele>
        <time>2019-08-15T08:40:24.000Z</time>
      </trkpt>
      <trkpt lat="47.31807" lon="-2.24615">
        <ele>-3.2000000476837</ele>
        <time>2019-08-15T08:40:26.000Z</time>
      </trkpt>
      <trkpt lat="47.31822" lon="-2.24611">
        <ele>-3.2000000476837</ele>
        <time>2019-08-15T08:40:30.000Z</time>
      </trkpt>
      <trkpt lat="47.31837" lon="-2.24605">
        <ele>-3.2000000476837</ele>
        <time>2019-08-15T08:40:35.000Z</time>
      </trkpt>
      <trkpt lat="47.31857" lon="-2.24599">
        <ele>-3.2000000476837</ele>
        <time>2019-08-15T08:40:41.000Z</time>
      </trkpt>
      <trkpt lat="47.31869" lon="-2.24604">
        <ele>-3.2000000476837</ele>
        <time>2019-08-15T08:40:45.000Z</time>
      </trkpt>
      <trkpt lat="47.31871" lon="-2.24606">
        <ele>-3.2000000476837</ele>
        <time>2019-08-15T08:40:46.000Z</time>
      </trkpt>
      <trkpt lat="47.31879" lon="-2.24621">
        <ele>-3.2000000476837</ele>
        <time>2019-08-15T08:40:51.000Z</time>
      </trkpt>
      <trkpt lat="47.31885" lon="-2.24635">
        <ele>-3.2000000476837</ele>
        <time>2019-08-15T08:40:56.000Z</time>
      </trkpt>
      <trkpt lat="47.31898" lon="-2.24641">
        <ele>-3.2000000476837</ele>
        <time>2019-08-15T08:41:02.000Z</time>
      </trkpt>
      <trkpt lat="47.31914" lon="-2.24642">
        <ele>-3.2000000476837</ele>
        <time>2019-08-15T08:41:08.000Z</time>
      </trkpt>
      <trkpt lat="47.31934" lon="-2.24645">
        <ele>-3.2000000476837</ele>
        <time>2019-08-15T08:41:15.000Z</time>
      </trkpt>
      <trkpt lat="47.31948" lon="-2.24653">
        <ele>-3.2000000476837</ele>
        <time>2019-08-15T08:41:21.000Z</time>
      </trkpt>
      <trkpt lat="47.31963" lon="-2.24666">
        <ele>-3.2000000476837</ele>
        <time>2019-08-15T08:41:27.000Z</time>
      </trkpt>
      <trkpt lat="47.31972" lon="-2.24683">
        <ele>-3.2000000476837</ele>
        <time>2019-08-15T08:41:32.000Z</time>
      </trkpt>
      <trkpt lat="47.31977" lon="-2.24696">
        <ele>-3.2000000476837</ele>
        <time>2019-08-15T08:41:37.000Z</time>
      </trkpt>
      <trkpt lat="47.31985" lon="-2.24709">
        <ele>-3.2000000476837</ele>
        <time>2019-08-15T08:41:43.000Z</time>
      </trkpt>
      <trkpt lat="47.31996" lon="-2.2473">
        <ele>-3.2000000476837</ele>
        <time>2019-08-15T08:41:50.000Z</time>
      </trkpt>
      <trkpt lat="47.32008" lon="-2.24729">
        <ele>-3.2000000476837</ele>
        <time>2019-08-15T08:41:53.000Z</time>
      </trkpt>
      <trkpt lat="47.32013" lon="-2.24726">
        <ele>-3.2000000476837</ele>
        <time>2019-08-15T08:41:54.000Z</time>
      </trkpt>
      <trkpt lat="47.32022" lon="-2.24724">
        <ele>-3.2000000476837</ele>
        <time>2019-08-15T08:41:56.000Z</time>
      </trkpt>
      <trkpt lat="47.3203" lon="-2.24727">
        <ele>-3.2000000476837</ele>
        <time>2019-08-15T08:41:58.000Z</time>
      </trkpt>
      <trkpt lat="47.32036" lon="-2.2474">
        <ele>-3.2000000476837</ele>
        <time>2019-08-15T08:42:01.000Z</time>
      </trkpt>
      <trkpt lat="47.32038" lon="-2.24746">
        <ele>-3.2000000476837</ele>
        <time>2019-08-15T08:42:02.000Z</time>
      </trkpt>
      <trkpt lat="47.32041" lon="-2.24752">
        <ele>-3.2000000476837</ele>
        <time>2019-08-15T08:42:03.000Z</time>
      </trkpt>
      <trkpt lat="47.3205" lon="-2.24772">
        <ele>-3.2000000476837</ele>
        <time>2019-08-15T08:42:06.000Z</time>
      </trkpt>
      <trkpt lat="47.32075" lon="-2.24817">
        <ele>-3.2000000476837</ele>
        <time>2019-08-15T08:42:13.000Z</time>
      </trkpt>
      <trkpt lat="47.32095" lon="-2.24856">
        <ele>-3.2000000476837</ele>
        <time>2019-08-15T08:42:19.000Z</time>
      </trkpt>
      <trkpt lat="47.32101" lon="-2.24869">
        <ele>-3.2000000476837</ele>
        <time>2019-08-15T08:42:21.000Z</time>
      </trkpt>
      <trkpt lat="47.32106" lon="-2.24882">
        <ele>-3.2000000476837</ele>
        <time>2019-08-15T08:42:23.000Z</time>
      </trkpt>
      <trkpt lat="47.3211" lon="-2.24889">
        <ele>-3.2000000476837</ele>
        <time>2019-08-15T08:42:24.000Z</time>
      </trkpt>
      <trkpt lat="47.32113" lon="-2.24894">
        <ele>-3.2000000476837</ele>
        <time>2019-08-15T08:42:25.000Z</time>
      </trkpt>
      <trkpt lat="47.32123" lon="-2.24913">
        <ele>-3.2000000476837</ele>
        <time>2019-08-15T08:42:28.000Z</time>
      </trkpt>
      <trkpt lat="47.32145" lon="-2.24959">
        <ele>-3.2000000476837</ele>
        <time>2019-08-15T08:42:36.000Z</time>
      </trkpt>
      <trkpt lat="47.32149" lon="-2.24969">
        <ele>-3.2000000476837</ele>
        <time>2019-08-15T08:42:39.000Z</time>
      </trkpt>
      <trkpt lat="47.32149" lon="-2.24969">
        <ele>-3.2000000476837</ele>
        <time>2019-08-15T08:42:40.000Z</time>
      </trkpt>
      <trkpt lat="47.32151" lon="-2.24971">
        <ele>-3.2000000476837</ele>
        <time>2019-08-15T08:42:49.000Z</time>
      </trkpt>
      <trkpt lat="47.32152" lon="-2.24973">
        <ele>-3.2000000476837</ele>
        <time>2019-08-15T08:42:50.000Z</time>
      </trkpt>
      <trkpt lat="47.32159" lon="-2.24987">
        <ele>-3.2000000476837</ele>
        <time>2019-08-15T08:42:54.000Z</time>
      </trkpt>
      <trkpt lat="47.32167" lon="-2.25002">
        <ele>-3.2000000476837</ele>
        <time>2019-08-15T08:42:58.000Z</time>
      </trkpt>
      <trkpt lat="47.32174" lon="-2.25017">
        <ele>-3.2000000476837</ele>
        <time>2019-08-15T08:43:03.000Z</time>
      </trkpt>
      <trkpt lat="47.32184" lon="-2.25036">
        <ele>-3.2000000476837</ele>
        <time>2019-08-15T08:43:09.000Z</time>
      </trkpt>
      <trkpt lat="47.32195" lon="-2.25058">
        <ele>-3.2000000476837</ele>
        <time>2019-08-15T08:43:15.000Z</time>
      </trkpt>
      <trkpt lat="47.32205" lon="-2.25078">
        <ele>-3.2000000476837</ele>
        <time>2019-08-15T08:43:20.000Z</time>
      </trkpt>
      <trkpt lat="47.32216" lon="-2.25103">
        <ele>-3.2000000476837</ele>
        <time>2019-08-15T08:43:26.000Z</time>
      </trkpt>
      <trkpt lat="47.32225" lon="-2.25126">
        <ele>-3.2000000476837</ele>
        <time>2019-08-15T08:43:32.000Z</time>
      </trkpt>
      <trkpt lat="47.32232" lon="-2.25141">
        <ele>-3.2000000476837</ele>
        <time>2019-08-15T08:43:36.000Z</time>
      </trkpt>
      <trkpt lat="47.3224" lon="-2.25156">
        <ele>-3.2000000476837</ele>
        <time>2019-08-15T08:43:39.000Z</time>
      </trkpt>
      <trkpt lat="47.32243" lon="-2.25162">
        <ele>-3.2000000476837</ele>
        <time>2019-08-15T08:43:40.000Z</time>
      </trkpt>
      <trkpt lat="47.32246" lon="-2.25168">
        <ele>-3.2000000476837</ele>
        <time>2019-08-15T08:43:41.000Z</time>
      </trkpt>
      <trkpt lat="47.32258" lon="-2.2519">
        <ele>-3.2000000476837</ele>
        <time>2019-08-15T08:43:45.000Z</time>
      </trkpt>
      <trkpt lat="47.32273" lon="-2.25224">
        <ele>-3.2000000476837</ele>
        <time>2019-08-15T08:43:51.000Z</time>
      </trkpt>
      <trkpt lat="47.32276" lon="-2.2523">
        <ele>-3.2000000476837</ele>
        <time>2019-08-15T08:43:52.000Z</time>
      </trkpt>
      <trkpt lat="47.32284" lon="-2.25245">
        <ele>-3.2000000476837</ele>
        <time>2019-08-15T08:43:55.000Z</time>
      </trkpt>
      <trkpt lat="47.32288" lon="-2.25255">
        <ele>-3.2000000476837</ele>
        <time>2019-08-15T08:43:57.000Z</time>
      </trkpt>
      <trkpt lat="47.32302" lon="-2.25283">
        <ele>-3.2000000476837</ele>
        <time>2019-08-15T08:44:03.000Z</time>
      </trkpt>
      <trkpt lat="47.32316" lon="-2.25311">
        <ele>-3.2000000476837</ele>
        <time>2019-08-15T08:44:09.000Z</time>
      </trkpt>
      <trkpt lat="47.32327" lon="-2.25334">
        <ele>-3.2000000476837</ele>
        <time>2019-08-15T08:44:14.000Z</time>
      </trkpt>
      <trkpt lat="47.32333" lon="-2.25344">
        <ele>-3.2000000476837</ele>
        <time>2019-08-15T08:44:16.000Z</time>
      </trkpt>
      <trkpt lat="47.32348" lon="-2.25378">
        <ele>-3.2000000476837</ele>
        <time>2019-08-15T08:44:22.000Z</time>
      </trkpt>
      <trkpt lat="47.32361" lon="-2.25404">
        <ele>-3.2000000476837</ele>
        <time>2019-08-15T08:44:27.000Z</time>
      </trkpt>
      <trkpt lat="47.32365" lon="-2.25415">
        <ele>-3.2000000476837</ele>
        <time>2019-08-15T08:44:29.000Z</time>
      </trkpt>
      <trkpt lat="47.3238" lon="-2.25444">
        <ele>-3.2000000476837</ele>
        <time>2019-08-15T08:44:35.000Z</time>
      </trkpt>
      <trkpt lat="47.32387" lon="-2.25458">
        <ele>-3.5999999046326</ele>
        <time>2019-08-15T08:44:38.000Z</time>
      </trkpt>
      <trkpt lat="47.3239" lon="-2.25462">
        <ele>-4</ele>
        <time>2019-08-15T08:44:39.000Z</time>
      </trkpt>
      <trkpt lat="47.32392" lon="-2.25467">
        <ele>-4.4000000953674</ele>
        <time>2019-08-15T08:44:40.000Z</time>
      </trkpt>
      <trkpt lat="47.32395" lon="-2.25472">
        <ele>-4.8000001907349</ele>
        <time>2019-08-15T08:44:41.000Z</time>
      </trkpt>
      <trkpt lat="47.32397" lon="-2.25476">
        <ele>-5.1999998092651</ele>
        <time>2019-08-15T08:44:42.000Z</time>
      </trkpt>
      <trkpt lat="47.3241" lon="-2.25503">
        <ele>-5.1999998092651</ele>
        <time>2019-08-15T08:44:48.000Z</time>
      </trkpt>
      <trkpt lat="47.3242" lon="-2.25524">
        <ele>-5.1999998092651</ele>
        <time>2019-08-15T08:44:53.000Z</time>
      </trkpt>
      <trkpt lat="47.32435" lon="-2.25555">
        <ele>-5.1999998092651</ele>
        <time>2019-08-15T08:45:00.000Z</time>
      </trkpt>
      <trkpt lat="47.32449" lon="-2.25589">
        <ele>-5.1999998092651</ele>
        <time>2019-08-15T08:45:08.000Z</time>
      </trkpt>
      <trkpt lat="47.32451" lon="-2.25616">
        <ele>-5.1999998092651</ele>
        <time>2019-08-15T08:45:14.000Z</time>
      </trkpt>
      <trkpt lat="47.32449" lon="-2.2562">
        <ele>-5.1999998092651</ele>
        <time>2019-08-15T08:45:15.000Z</time>
      </trkpt>
      <trkpt lat="47.32443" lon="-2.25624">
        <ele>-5.1999998092651</ele>
        <time>2019-08-15T08:45:17.000Z</time>
      </trkpt>
      <trkpt lat="47.3242" lon="-2.25636">
        <ele>-5.1999998092651</ele>
        <time>2019-08-15T08:45:23.000Z</time>
      </trkpt>
      <trkpt lat="47.32416" lon="-2.25638">
        <ele>-5.1999998092651</ele>
        <time>2019-08-15T08:45:24.000Z</time>
      </trkpt>
      <trkpt lat="47.32397" lon="-2.25648">
        <ele>-5.1999998092651</ele>
        <time>2019-08-15T08:45:29.000Z</time>
      </trkpt>
      <trkpt lat="47.32371" lon="-2.25657">
        <ele>-5.1999998092651</ele>
        <time>2019-08-15T08:45:36.000Z</time>
      </trkpt>
      <trkpt lat="47.32349" lon="-2.25666">
        <ele>-5.1999998092651</ele>
        <time>2019-08-15T08:45:42.000Z</time>
      </trkpt>
      <trkpt lat="47.32326" lon="-2.25672">
        <ele>-5.1999998092651</ele>
        <time>2019-08-15T08:45:48.000Z</time>
      </trkpt>
      <trkpt lat="47.32318" lon="-2.25675">
        <ele>-5.1999998092651</ele>
        <time>2019-08-15T08:45:50.000Z</time>
      </trkpt>
      <trkpt lat="47.32309" lon="-2.25677">
        <ele>-5.1999998092651</ele>
        <time>2019-08-15T08:45:52.000Z</time>
      </trkpt>
      <trkpt lat="47.32304" lon="-2.25679">
        <ele>-5.1999998092651</ele>
        <time>2019-08-15T08:45:53.000Z</time>
      </trkpt>
      <trkpt lat="47.32288" lon="-2.25683">
        <ele>-5.1999998092651</ele>
        <time>2019-08-15T08:45:57.000Z</time>
      </trkpt>
      <trkpt lat="47.3228" lon="-2.25686">
        <ele>-5.1999998092651</ele>
        <time>2019-08-15T08:45:59.000Z</time>
      </trkpt>
      <trkpt lat="47.32252" lon="-2.25696">
        <ele>-5.1999998092651</ele>
        <time>2019-08-15T08:46:05.000Z</time>
      </trkpt>
      <trkpt lat="47.32225" lon="-2.25701">
        <ele>-5.1999998092651</ele>
        <time>2019-08-15T08:46:10.000Z</time>
      </trkpt>
      <trkpt lat="47.32214" lon="-2.257">
        <ele>-5.1999998092651</ele>
        <time>2019-08-15T08:46:12.000Z</time>
      </trkpt>
      <trkpt lat="47.32193" lon="-2.25695">
        <ele>-5.1999998092651</ele>
        <time>2019-08-15T08:46:16.000Z</time>
      </trkpt>
      <trkpt lat="47.32182" lon="-2.25696">
        <ele>-5.1999998092651</ele>
        <time>2019-08-15T08:46:18.000Z</time>
      </trkpt>
      <trkpt lat="47.32161" lon="-2.25704">
        <ele>-5.1999998092651</ele>
        <time>2019-08-15T08:46:23.000Z</time>
      </trkpt>
      <trkpt lat="47.32131" lon="-2.25724">
        <ele>-5.1999998092651</ele>
        <time>2019-08-15T08:46:31.000Z</time>
      </trkpt>
      <trkpt lat="47.32106" lon="-2.25735">
        <ele>-5.1999998092651</ele>
        <time>2019-08-15T08:46:38.000Z</time>
      </trkpt>
      <trkpt lat="47.3209" lon="-2.25741">
        <ele>-5.1999998092651</ele>
        <time>2019-08-15T08:46:44.000Z</time>
      </trkpt>
      <trkpt lat="47.32084" lon="-2.25746">
        <ele>-5.1999998092651</ele>
        <time>2019-08-15T08:46:48.000Z</time>
      </trkpt>
      <trkpt lat="47.32067" lon="-2.25752">
        <ele>-5.1999998092651</ele>
        <time>2019-08-15T08:46:56.000Z</time>
      </trkpt>
      <trkpt lat="47.32056" lon="-2.25753">
        <ele>-5.1999998092651</ele>
        <time>2019-08-15T08:47:02.000Z</time>
      </trkpt>
      <trkpt lat="47.32038" lon="-2.25744">
        <ele>-5.1999998092651</ele>
        <time>2019-08-15T08:47:10.000Z</time>
      </trkpt>
      <trkpt lat="47.32038" lon="-2.25744">
        <ele>-5.1999998092651</ele>
        <time>2019-08-15T08:47:11.000Z</time>
      </trkpt>
      <trkpt lat="47.32035" lon="-2.25743">
        <ele>-5.1999998092651</ele>
        <time>2019-08-15T08:47:24.000Z</time>
      </trkpt>
      <trkpt lat="47.32034" lon="-2.25743">
        <ele>-5.1999998092651</ele>
        <time>2019-08-15T08:47:25.000Z</time>
      </trkpt>
      <trkpt lat="47.32032" lon="-2.25742">
        <ele>-5.1999998092651</ele>
        <time>2019-08-15T08:47:29.000Z</time>
      </trkpt>
      <trkpt lat="47.32013" lon="-2.25737">
        <ele>-5.1999998092651</ele>
        <time>2019-08-15T08:50:25.000Z</time>
      </trkpt>
      <trkpt lat="47.32" lon="-2.2573">
        <ele>-5.1999998092651</ele>
        <time>2019-08-15T08:50:30.000Z</time>
      </trkpt>
      <trkpt lat="47.3198" lon="-2.25722">
        <ele>-5.1999998092651</ele>
        <time>2019-08-15T08:50:35.000Z</time>
      </trkpt>
      <trkpt lat="47.31953" lon="-2.2571">
        <ele>-5.1999998092651</ele>
        <time>2019-08-15T08:50:41.000Z</time>
      </trkpt>
      <trkpt lat="47.31928" lon="-2.25707">
        <ele>-5.1999998092651</ele>
        <time>2019-08-15T08:50:46.000Z</time>
      </trkpt>
      <trkpt lat="47.31903" lon="-2.25717">
        <ele>-5.1999998092651</ele>
        <time>2019-08-15T08:50:51.000Z</time>
      </trkpt>
      <trkpt lat="47.31869" lon="-2.25734">
        <ele>-5.1999998092651</ele>
        <time>2019-08-15T08:50:58.000Z</time>
      </trkpt>
      <trkpt lat="47.31834" lon="-2.25747">
        <ele>-5.1999998092651</ele>
        <time>2019-08-15T08:51:05.000Z</time>
      </trkpt>
      <trkpt lat="47.31804" lon="-2.25757">
        <ele>-5.1999998092651</ele>
        <time>2019-08-15T08:51:11.000Z</time>
      </trkpt>
      <trkpt lat="47.31776" lon="-2.25767">
        <ele>-5.1999998092651</ele>
        <time>2019-08-15T08:51:17.000Z</time>
      </trkpt>
      <trkpt lat="47.31753" lon="-2.25778">
        <ele>-5.1999998092651</ele>
        <time>2019-08-15T08:51:22.000Z</time>
      </trkpt>
      <trkpt lat="47.31748" lon="-2.2578">
        <ele>-5.1999998092651</ele>
        <time>2019-08-15T08:51:23.000Z</time>
      </trkpt>
      <trkpt lat="47.31744" lon="-2.25782">
        <ele>-5.1999998092651</ele>
        <time>2019-08-15T08:51:24.000Z</time>
      </trkpt>
      <trkpt lat="47.3172" lon="-2.25791">
        <ele>-5.1999998092651</ele>
        <time>2019-08-15T08:51:29.000Z</time>
      </trkpt>
      <trkpt lat="47.3171" lon="-2.25793">
        <ele>-5.1999998092651</ele>
        <time>2019-08-15T08:51:31.000Z</time>
      </trkpt>
      <trkpt lat="47.31695" lon="-2.25794">
        <ele>-5.1999998092651</ele>
        <time>2019-08-15T08:51:34.000Z</time>
      </trkpt>
      <trkpt lat="47.31686" lon="-2.25794">
        <ele>-5.1999998092651</ele>
        <time>2019-08-15T08:51:36.000Z</time>
      </trkpt>
      <trkpt lat="47.31667" lon="-2.25795">
        <ele>-5.1999998092651</ele>
        <time>2019-08-15T08:51:40.000Z</time>
      </trkpt>
      <trkpt lat="47.31645" lon="-2.25799">
        <ele>-5.1999998092651</ele>
        <time>2019-08-15T08:51:45.000Z</time>
      </trkpt>
      <trkpt lat="47.31636" lon="-2.258">
        <ele>-5.1999998092651</ele>
        <time>2019-08-15T08:51:47.000Z</time>
      </trkpt>
      <trkpt lat="47.3162" lon="-2.25805">
        <ele>-5.1999998092651</ele>
        <time>2019-08-15T08:51:51.000Z</time>
      </trkpt>
      <trkpt lat="47.3161" lon="-2.25808">
        <ele>-5.1999998092651</ele>
        <time>2019-08-15T08:51:54.000Z</time>
      </trkpt>
      <trkpt lat="47.31602" lon="-2.25811">
        <ele>-5.1999998092651</ele>
        <time>2019-08-15T08:51:57.000Z</time>
      </trkpt>
      <trkpt lat="47.31597" lon="-2.25815">
        <ele>-5.1999998092651</ele>
        <time>2019-08-15T08:52:02.000Z</time>
      </trkpt>
      <trkpt lat="47.31597" lon="-2.25816">
        <ele>-5.1999998092651</ele>
        <time>2019-08-15T08:52:04.000Z</time>
      </trkpt>
      <trkpt lat="47.31596" lon="-2.25821">
        <ele>-5.1999998092651</ele>
        <time>2019-08-15T08:52:35.000Z</time>
      </trkpt>
      <trkpt lat="47.31593" lon="-2.25828">
        <ele>-5.1999998092651</ele>
        <time>2019-08-15T08:52:37.000Z</time>
      </trkpt>
      <trkpt lat="47.31587" lon="-2.2584">
        <ele>-5.1999998092651</ele>
        <time>2019-08-15T08:52:42.000Z</time>
      </trkpt>
      <trkpt lat="47.31584" lon="-2.25848">
        <ele>-5.1999998092651</ele>
        <time>2019-08-15T08:52:49.000Z</time>
      </trkpt>
      <trkpt lat="47.3158" lon="-2.25859">
        <ele>-5.1999998092651</ele>
        <time>2019-08-15T08:52:54.000Z</time>
      </trkpt>
      <trkpt lat="47.31578" lon="-2.25862">
        <ele>-5.1999998092651</ele>
        <time>2019-08-15T08:52:57.000Z</time>
      </trkpt>
      <trkpt lat="47.31574" lon="-2.25864">
        <ele>-5.1999998092651</ele>
        <time>2019-08-15T08:52:59.000Z</time>
      </trkpt>
      <trkpt lat="47.31566" lon="-2.25869">
        <ele>-5.1999998092651</ele>
        <time>2019-08-15T08:53:03.000Z</time>
      </trkpt>
      <trkpt lat="47.31563" lon="-2.25876">
        <ele>-5.1999998092651</ele>
        <time>2019-08-15T08:53:06.000Z</time>
      </trkpt>
      <trkpt lat="47.31559" lon="-2.25883">
        <ele>-5.1999998092651</ele>
        <time>2019-08-15T08:53:10.000Z</time>
      </trkpt>
      <trkpt lat="47.31558" lon="-2.25885">
        <ele>-5.1999998092651</ele>
        <time>2019-08-15T08:53:11.000Z</time>
      </trkpt>
      <trkpt lat="47.31552" lon="-2.25894">
        <ele>-5.1999998092651</ele>
        <time>2019-08-15T08:53:17.000Z</time>
      </trkpt>
      <trkpt lat="47.31551" lon="-2.25894">
        <ele>-5.1999998092651</ele>
        <time>2019-08-15T08:53:19.000Z</time>
      </trkpt>
      <trkpt lat="47.31546" lon="-2.25911">
        <ele>-5.1999998092651</ele>
        <time>2019-08-15T08:53:41.000Z</time>
      </trkpt>
      <trkpt lat="47.31546" lon="-2.25914">
        <ele>-5.1999998092651</ele>
        <time>2019-08-15T08:53:43.000Z</time>
      </trkpt>
      <trkpt lat="47.31548" lon="-2.25924">
        <ele>-5.1999998092651</ele>
        <time>2019-08-15T08:53:49.000Z</time>
      </trkpt>
      <trkpt lat="47.31547" lon="-2.25925">
        <ele>-5.1999998092651</ele>
        <time>2019-08-15T08:53:51.000Z</time>
      </trkpt>
      <trkpt lat="47.31547" lon="-2.25915">
        <ele>-5.1999998092651</ele>
        <time>2019-08-15T09:01:29.000Z</time>
      </trkpt>
      <trkpt lat="47.31547" lon="-2.25912">
        <ele>-5.1999998092651</ele>
        <time>2019-08-15T09:01:30.000Z</time>
      </trkpt>
      <trkpt lat="47.31549" lon="-2.259">
        <ele>-5.1999998092651</ele>
        <time>2019-08-15T09:01:35.000Z</time>
      </trkpt>
      <trkpt lat="47.3155" lon="-2.25898">
        <ele>-4.8000001907349</ele>
        <time>2019-08-15T09:01:36.000Z</time>
      </trkpt>
      <trkpt lat="47.31551" lon="-2.25896">
        <ele>-4.4000000953674</ele>
        <time>2019-08-15T09:01:37.000Z</time>
      </trkpt>
      <trkpt lat="47.31553" lon="-2.25893">
        <ele>-4</ele>
        <time>2019-08-15T09:01:38.000Z</time>
      </trkpt>
      <trkpt lat="47.31554" lon="-2.2589">
        <ele>-3.5999999046326</ele>
        <time>2019-08-15T09:01:39.000Z</time>
      </trkpt>
      <trkpt lat="47.31556" lon="-2.25888">
        <ele>-3.2000000476837</ele>
        <time>2019-08-15T09:01:40.000Z</time>
      </trkpt>
      <trkpt lat="47.31558" lon="-2.25885">
        <ele>-3.2000000476837</ele>
        <time>2019-08-15T09:01:41.000Z</time>
      </trkpt>
      <trkpt lat="47.31565" lon="-2.25873">
        <ele>-3.2000000476837</ele>
        <time>2019-08-15T09:01:46.000Z</time>
      </trkpt>
      <trkpt lat="47.31565" lon="-2.25871">
        <ele>-3.2000000476837</ele>
        <time>2019-08-15T09:01:48.000Z</time>
      </trkpt>
      <trkpt lat="47.31576" lon="-2.25864">
        <ele>-3.2000000476837</ele>
        <time>2019-08-15T09:02:17.000Z</time>
      </trkpt>
      <trkpt lat="47.31577" lon="-2.25862">
        <ele>-3.2000000476837</ele>
        <time>2019-08-15T09:02:18.000Z</time>
      </trkpt>
      <trkpt lat="47.31578" lon="-2.25862">
        <ele>-3.2000000476837</ele>
        <time>2019-08-15T09:02:20.000Z</time>
      </trkpt>
      <trkpt lat="47.31579" lon="-2.25858">
        <ele>-3.2000000476837</ele>
        <time>2019-08-15T09:02:50.000Z</time>
      </trkpt>
      <trkpt lat="47.3158" lon="-2.25855">
        <ele>-3.2000000476837</ele>
        <time>2019-08-15T09:02:51.000Z</time>
      </trkpt>
      <trkpt lat="47.31589" lon="-2.25835">
        <ele>-3.2000000476837</ele>
        <time>2019-08-15T09:02:55.000Z</time>
      </trkpt>
      <trkpt lat="47.31592" lon="-2.25829">
        <ele>-3.2000000476837</ele>
        <time>2019-08-15T09:02:56.000Z</time>
      </trkpt>
      <trkpt lat="47.316" lon="-2.25815">
        <ele>-3.2000000476837</ele>
        <time>2019-08-15T09:02:59.000Z</time>
      </trkpt>
      <trkpt lat="47.31609" lon="-2.25812">
        <ele>-3.2000000476837</ele>
        <time>2019-08-15T09:03:01.000Z</time>
      </trkpt>
      <trkpt lat="47.31618" lon="-2.25808">
        <ele>-3.2000000476837</ele>
        <time>2019-08-15T09:03:03.000Z</time>
      </trkpt>
      <trkpt lat="47.31623" lon="-2.25807">
        <ele>-3.2000000476837</ele>
        <time>2019-08-15T09:03:04.000Z</time>
      </trkpt>
      <trkpt lat="47.31647" lon="-2.25798">
        <ele>-3.2000000476837</ele>
        <time>2019-08-15T09:03:09.000Z</time>
      </trkpt>
      <trkpt lat="47.31683" lon="-2.25792">
        <ele>-3.2000000476837</ele>
        <time>2019-08-15T09:03:17.000Z</time>
      </trkpt>
      <trkpt lat="47.31691" lon="-2.25792">
        <ele>-3.2000000476837</ele>
        <time>2019-08-15T09:03:19.000Z</time>
      </trkpt>
      <trkpt lat="47.31706" lon="-2.25792">
        <ele>-3.2000000476837</ele>
        <time>2019-08-15T09:03:22.000Z</time>
      </trkpt>
      <trkpt lat="47.31711" lon="-2.25791">
        <ele>-3.2000000476837</ele>
        <time>2019-08-15T09:03:23.000Z</time>
      </trkpt>
      <trkpt lat="47.31721" lon="-2.25789">
        <ele>-3.2000000476837</ele>
        <time>2019-08-15T09:03:25.000Z</time>
      </trkpt>
      <trkpt lat="47.31735" lon="-2.25785">
        <ele>-3.2000000476837</ele>
        <time>2019-08-15T09:03:28.000Z</time>
      </trkpt>
      <trkpt lat="47.31757" lon="-2.25775">
        <ele>-3.2000000476837</ele>
        <time>2019-08-15T09:03:33.000Z</time>
      </trkpt>
      <trkpt lat="47.31762" lon="-2.25774">
        <ele>-3.2000000476837</ele>
        <time>2019-08-15T09:03:34.000Z</time>
      </trkpt>
      <trkpt lat="47.31775" lon="-2.25768">
        <ele>-3.2000000476837</ele>
        <time>2019-08-15T09:03:37.000Z</time>
      </trkpt>
      <trkpt lat="47.31788" lon="-2.25764">
        <ele>-3.2000000476837</ele>
        <time>2019-08-15T09:03:40.000Z</time>
      </trkpt>
      <trkpt lat="47.31804" lon="-2.25758">
        <ele>-3.2000000476837</ele>
        <time>2019-08-15T09:03:44.000Z</time>
      </trkpt>
      <trkpt lat="47.31813" lon="-2.25754">
        <ele>-3.2000000476837</ele>
        <time>2019-08-15T09:03:46.000Z</time>
      </trkpt>
      <trkpt lat="47.31822" lon="-2.25751">
        <ele>-3.2000000476837</ele>
        <time>2019-08-15T09:03:48.000Z</time>
      </trkpt>
      <trkpt lat="47.31841" lon="-2.25744">
        <ele>-3.2000000476837</ele>
        <time>2019-08-15T09:03:52.000Z</time>
      </trkpt>
      <trkpt lat="47.31875" lon="-2.2573">
        <ele>-3.2000000476837</ele>
        <time>2019-08-15T09:03:59.000Z</time>
      </trkpt>
      <trkpt lat="47.31903" lon="-2.25716">
        <ele>-3.2000000476837</ele>
        <time>2019-08-15T09:04:05.000Z</time>
      </trkpt>
      <trkpt lat="47.31936" lon="-2.25706">
        <ele>-3.2000000476837</ele>
        <time>2019-08-15T09:04:12.000Z</time>
      </trkpt>
      <trkpt lat="47.31963" lon="-2.25712">
        <ele>-3.2000000476837</ele>
        <time>2019-08-15T09:04:18.000Z</time>
      </trkpt>
      <trkpt lat="47.31976" lon="-2.2572">
        <ele>-3.2000000476837</ele>
        <time>2019-08-15T09:04:21.000Z</time>
      </trkpt>
      <trkpt lat="47.31985" lon="-2.25723">
        <ele>-3.2000000476837</ele>
        <time>2019-08-15T09:04:23.000Z</time>
      </trkpt>
      <trkpt lat="47.31989" lon="-2.25724">
        <ele>-3.2000000476837</ele>
        <time>2019-08-15T09:04:24.000Z</time>
      </trkpt>
      <trkpt lat="47.32017" lon="-2.25736">
        <ele>-3.2000000476837</ele>
        <time>2019-08-15T09:04:31.000Z</time>
      </trkpt>
      <trkpt lat="47.32025" lon="-2.25739">
        <ele>-3.2000000476837</ele>
        <time>2019-08-15T09:04:34.000Z</time>
      </trkpt>
      <trkpt lat="47.32025" lon="-2.25738">
        <ele>-3.2000000476837</ele>
        <time>2019-08-15T09:04:35.000Z</time>
      </trkpt>
      <trkpt lat="47.32025" lon="-2.25739">
        <ele>-3.2000000476837</ele>
        <time>2019-08-15T09:04:36.000Z</time>
      </trkpt>
      <trkpt lat="47.32025" lon="-2.2574">
        <ele>-3.2000000476837</ele>
        <time>2019-08-15T09:05:01.000Z</time>
      </trkpt>
      <trkpt lat="47.32025" lon="-2.2574">
        <ele>-3.2000000476837</ele>
        <time>2019-08-15T09:05:03.000Z</time>
      </trkpt>
      <trkpt lat="47.32028" lon="-2.25741">
        <ele>-3.2000000476837</ele>
        <time>2019-08-15T09:05:07.000Z</time>
      </trkpt>
      <trkpt lat="47.32035" lon="-2.25742">
        <ele>-3.2000000476837</ele>
        <time>2019-08-15T09:05:09.000Z</time>
      </trkpt>
      <trkpt lat="47.32051" lon="-2.25747">
        <ele>-3.2000000476837</ele>
        <time>2019-08-15T09:05:13.000Z</time>
      </trkpt>
      <trkpt lat="47.32057" lon="-2.25751">
        <ele>-3.2000000476837</ele>
        <time>2019-08-15T09:05:15.000Z</time>
      </trkpt>
      <trkpt lat="47.32072" lon="-2.25751">
        <ele>-3.2000000476837</ele>
        <time>2019-08-15T09:05:20.000Z</time>
      </trkpt>
      <trkpt lat="47.32083" lon="-2.2575">
        <ele>-3.2000000476837</ele>
        <time>2019-08-15T09:05:26.000Z</time>
      </trkpt>
      <trkpt lat="47.32085" lon="-2.2575">
        <ele>-3.2000000476837</ele>
        <time>2019-08-15T09:05:29.000Z</time>
      </trkpt>
      <trkpt lat="47.32096" lon="-2.2577">
        <ele>-2.4000000953674</ele>
        <time>2019-08-15T09:06:57.000Z</time>
      </trkpt>
      <trkpt lat="47.32097" lon="-2.2577">
        <ele>-2.7999999523163</ele>
        <time>2019-08-15T09:06:58.000Z</time>
      </trkpt>
      <trkpt lat="47.32097" lon="-2.2577">
        <ele>-3.2000000476837</ele>
        <time>2019-08-15T09:06:59.000Z</time>
      </trkpt>
      <trkpt lat="47.32098" lon="-2.25772">
        <ele>-3.2000000476837</ele>
        <time>2019-08-15T09:07:52.000Z</time>
      </trkpt>
      <trkpt lat="47.321" lon="-2.25776">
        <ele>-3.2000000476837</ele>
        <time>2019-08-15T09:07:54.000Z</time>
      </trkpt>
      <trkpt lat="47.32113" lon="-2.25786">
        <ele>-3.2000000476837</ele>
        <time>2019-08-15T09:07:59.000Z</time>
      </trkpt>
      <trkpt lat="47.32125" lon="-2.25797">
        <ele>-3.2000000476837</ele>
        <time>2019-08-15T09:08:04.000Z</time>
      </trkpt>
      <trkpt lat="47.32137" lon="-2.25806">
        <ele>-3.2000000476837</ele>
        <time>2019-08-15T09:08:09.000Z</time>
      </trkpt>
      <trkpt lat="47.32152" lon="-2.25815">
        <ele>-3.2000000476837</ele>
        <time>2019-08-15T09:08:14.000Z</time>
      </trkpt>
      <trkpt lat="47.32169" lon="-2.25828">
        <ele>-3.2000000476837</ele>
        <time>2019-08-15T09:08:21.000Z</time>
      </trkpt>
      <trkpt lat="47.32178" lon="-2.25836">
        <ele>-3.2000000476837</ele>
        <time>2019-08-15T09:08:25.000Z</time>
      </trkpt>
      <trkpt lat="47.32188" lon="-2.25844">
        <ele>-3.2000000476837</ele>
        <time>2019-08-15T09:08:30.000Z</time>
      </trkpt>
      <trkpt lat="47.32204" lon="-2.25857">
        <ele>-3.2000000476837</ele>
        <time>2019-08-15T09:08:36.000Z</time>
      </trkpt>
      <trkpt lat="47.32223" lon="-2.25871">
        <ele>-3.2000000476837</ele>
        <time>2019-08-15T09:08:42.000Z</time>
      </trkpt>
      <trkpt lat="47.32239" lon="-2.25884">
        <ele>-3.2000000476837</ele>
        <time>2019-08-15T09:08:47.000Z</time>
      </trkpt>
      <trkpt lat="47.32243" lon="-2.25886">
        <ele>-3.2000000476837</ele>
        <time>2019-08-15T09:08:48.000Z</time>
      </trkpt>
      <trkpt lat="47.32258" lon="-2.25895">
        <ele>-3.2000000476837</ele>
        <time>2019-08-15T09:08:52.000Z</time>
      </trkpt>
      <trkpt lat="47.32271" lon="-2.25907">
        <ele>-3.2000000476837</ele>
        <time>2019-08-15T09:08:56.000Z</time>
      </trkpt>
      <trkpt lat="47.32295" lon="-2.25931">
        <ele>-3.2000000476837</ele>
        <time>2019-08-15T09:09:03.000Z</time>
      </trkpt>
      <trkpt lat="47.3232" lon="-2.25953">
        <ele>-3.2000000476837</ele>
        <time>2019-08-15T09:09:10.000Z</time>
      </trkpt>
      <trkpt lat="47.32328" lon="-2.25958">
        <ele>-3.2000000476837</ele>
        <time>2019-08-15T09:09:12.000Z</time>
      </trkpt>
      <trkpt lat="47.32338" lon="-2.25968">
        <ele>-3.2000000476837</ele>
        <time>2019-08-15T09:09:15.000Z</time>
      </trkpt>
      <trkpt lat="47.32342" lon="-2.25971">
        <ele>-3.2000000476837</ele>
        <time>2019-08-15T09:09:16.000Z</time>
      </trkpt>
      <trkpt lat="47.32358" lon="-2.25987">
        <ele>-3.2000000476837</ele>
        <time>2019-08-15T09:09:21.000Z</time>
      </trkpt>
      <trkpt lat="47.32375" lon="-2.26005">
        <ele>-3.2000000476837</ele>
        <time>2019-08-15T09:09:27.000Z</time>
      </trkpt>
      <trkpt lat="47.32397" lon="-2.26027">
        <ele>-3.2000000476837</ele>
        <time>2019-08-15T09:09:34.000Z</time>
      </trkpt>
      <trkpt lat="47.32414" lon="-2.26044">
        <ele>-3.2000000476837</ele>
        <time>2019-08-15T09:09:40.000Z</time>
      </trkpt>
      <trkpt lat="47.32438" lon="-2.26059">
        <ele>-3.2000000476837</ele>
        <time>2019-08-15T09:09:46.000Z</time>
      </trkpt>
      <trkpt lat="47.32452" lon="-2.26062">
        <ele>-3.2000000476837</ele>
        <time>2019-08-15T09:09:49.000Z</time>
      </trkpt>
      <trkpt lat="47.32465" lon="-2.26058">
        <ele>-3.2000000476837</ele>
        <time>2019-08-15T09:09:52.000Z</time>
      </trkpt>
      <trkpt lat="47.32474" lon="-2.26052">
        <ele>-3.2000000476837</ele>
        <time>2019-08-15T09:09:54.000Z</time>
      </trkpt>
      <trkpt lat="47.32493" lon="-2.26036">
        <ele>-3.2000000476837</ele>
        <time>2019-08-15T09:09:59.000Z</time>
      </trkpt>
      <trkpt lat="47.32518" lon="-2.26017">
        <ele>-3.2000000476837</ele>
        <time>2019-08-15T09:10:06.000Z</time>
      </trkpt>
      <trkpt lat="47.32547" lon="-2.25992">
        <ele>-3.2000000476837</ele>
        <time>2019-08-15T09:10:14.000Z</time>
      </trkpt>
      <trkpt lat="47.32567" lon="-2.25976">
        <ele>-3.2000000476837</ele>
        <time>2019-08-15T09:10:21.000Z</time>
      </trkpt>
      <trkpt lat="47.32584" lon="-2.2597">
        <ele>-3.2000000476837</ele>
        <time>2019-08-15T09:10:27.000Z</time>
      </trkpt>
      <trkpt lat="47.32591" lon="-2.25972">
        <ele>-3.2000000476837</ele>
        <time>2019-08-15T09:10:31.000Z</time>
      </trkpt>
      <trkpt lat="47.32592" lon="-2.25973">
        <ele>-3.2000000476837</ele>
        <time>2019-08-15T09:10:32.000Z</time>
      </trkpt>
      <trkpt lat="47.32592" lon="-2.25973">
        <ele>-3.2000000476837</ele>
        <time>2019-08-15T09:10:33.000Z</time>
      </trkpt>
      <trkpt lat="47.326" lon="-2.25999">
        <ele>-3.2000000476837</ele>
        <time>2019-08-15T09:12:14.000Z</time>
      </trkpt>
      <trkpt lat="47.32601" lon="-2.26004">
        <ele>-3.2000000476837</ele>
        <time>2019-08-15T09:12:16.000Z</time>
      </trkpt>
      <trkpt lat="47.326" lon="-2.26023">
        <ele>-3.2000000476837</ele>
        <time>2019-08-15T09:12:21.000Z</time>
      </trkpt>
      <trkpt lat="47.32606" lon="-2.26051">
        <ele>-3.2000000476837</ele>
        <time>2019-08-15T09:12:26.000Z</time>
      </trkpt>
      <trkpt lat="47.32608" lon="-2.26061">
        <ele>-3.2000000476837</ele>
        <time>2019-08-15T09:12:28.000Z</time>
      </trkpt>
      <trkpt lat="47.3261" lon="-2.26083">
        <ele>-3.2000000476837</ele>
        <time>2019-08-15T09:12:32.000Z</time>
      </trkpt>
      <trkpt lat="47.32611" lon="-2.26116">
        <ele>-3.2000000476837</ele>
        <time>2019-08-15T09:12:39.000Z</time>
      </trkpt>
      <trkpt lat="47.32612" lon="-2.26141">
        <ele>-3.2000000476837</ele>
        <time>2019-08-15T09:12:45.000Z</time>
      </trkpt>
      <trkpt lat="47.32613" lon="-2.26174">
        <ele>-3.2000000476837</ele>
        <time>2019-08-15T09:12:52.000Z</time>
      </trkpt>
      <trkpt lat="47.32616" lon="-2.26216">
        <ele>-3.2000000476837</ele>
        <time>2019-08-15T09:13:00.000Z</time>
      </trkpt>
      <trkpt lat="47.3262" lon="-2.26245">
        <ele>-3.2000000476837</ele>
        <time>2019-08-15T09:13:06.000Z</time>
      </trkpt>
      <trkpt lat="47.32623" lon="-2.26284">
        <ele>-3.2000000476837</ele>
        <time>2019-08-15T09:13:13.000Z</time>
      </trkpt>
      <trkpt lat="47.32627" lon="-2.26318">
        <ele>-3.2000000476837</ele>
        <time>2019-08-15T09:13:19.000Z</time>
      </trkpt>
      <trkpt lat="47.32634" lon="-2.26354">
        <ele>-3.2000000476837</ele>
        <time>2019-08-15T09:13:26.000Z</time>
      </trkpt>
      <trkpt lat="47.3264" lon="-2.26374">
        <ele>-3.2000000476837</ele>
        <time>2019-08-15T09:13:32.000Z</time>
      </trkpt>
      <trkpt lat="47.32642" lon="-2.26379">
        <ele>-3.2000000476837</ele>
        <time>2019-08-15T09:13:37.000Z</time>
      </trkpt>
      <trkpt lat="47.32642" lon="-2.26381">
        <ele>-3.2000000476837</ele>
        <time>2019-08-15T09:13:40.000Z</time>
      </trkpt>
      <trkpt lat="47.32642" lon="-2.26383">
        <ele>-3.2000000476837</ele>
        <time>2019-08-15T09:13:41.000Z</time>
      </trkpt>
      <trkpt lat="47.32642" lon="-2.26386">
        <ele>-3.2000000476837</ele>
        <time>2019-08-15T09:13:43.000Z</time>
      </trkpt>
      <trkpt lat="47.32643" lon="-2.26393">
        <ele>-3.2000000476837</ele>
        <time>2019-08-15T09:13:46.000Z</time>
      </trkpt>
      <trkpt lat="47.32645" lon="-2.26407">
        <ele>-3.2000000476837</ele>
        <time>2019-08-15T09:13:51.000Z</time>
      </trkpt>
      <trkpt lat="47.32645" lon="-2.26416">
        <ele>-3.2000000476837</ele>
        <time>2019-08-15T09:13:54.000Z</time>
      </trkpt>
      <trkpt lat="47.32643" lon="-2.26423">
        <ele>-3.2000000476837</ele>
        <time>2019-08-15T09:13:56.000Z</time>
      </trkpt>
      <trkpt lat="47.32638" lon="-2.26433">
        <ele>-3.2000000476837</ele>
        <time>2019-08-15T09:13:59.000Z</time>
      </trkpt>
      <trkpt lat="47.32632" lon="-2.26437">
        <ele>-3.2000000476837</ele>
        <time>2019-08-15T09:14:01.000Z</time>
      </trkpt>
      <trkpt lat="47.32617" lon="-2.2644">
        <ele>-3.2000000476837</ele>
        <time>2019-08-15T09:14:06.000Z</time>
      </trkpt>
      <trkpt lat="47.32601" lon="-2.26442">
        <ele>-3.2000000476837</ele>
        <time>2019-08-15T09:14:11.000Z</time>
      </trkpt>
      <trkpt lat="47.32583" lon="-2.26447">
        <ele>-3.2000000476837</ele>
        <time>2019-08-15T09:14:17.000Z</time>
      </trkpt>
      <trkpt lat="47.32556" lon="-2.26455">
        <ele>-3.2000000476837</ele>
        <time>2019-08-15T09:14:25.000Z</time>
      </trkpt>
      <trkpt lat="47.32548" lon="-2.26458">
        <ele>-3.2000000476837</ele>
        <time>2019-08-15T09:14:27.000Z</time>
      </trkpt>
      <trkpt lat="47.3254" lon="-2.2646">
        <ele>-3.2000000476837</ele>
        <time>2019-08-15T09:14:29.000Z</time>
      </trkpt>
      <trkpt lat="47.32517" lon="-2.2647">
        <ele>-3.2000000476837</ele>
        <time>2019-08-15T09:14:35.000Z</time>
      </trkpt>
      <trkpt lat="47.325" lon="-2.2648">
        <ele>-3.2000000476837</ele>
        <time>2019-08-15T09:14:39.000Z</time>
      </trkpt>
      <trkpt lat="47.32491" lon="-2.26483">
        <ele>-3.2000000476837</ele>
        <time>2019-08-15T09:14:41.000Z</time>
      </trkpt>
      <trkpt lat="47.3248" lon="-2.2649">
        <ele>-3.2000000476837</ele>
        <time>2019-08-15T09:14:44.000Z</time>
      </trkpt>
      <trkpt lat="47.32477" lon="-2.26492">
        <ele>-3.2000000476837</ele>
        <time>2019-08-15T09:14:45.000Z</time>
      </trkpt>
      <trkpt lat="47.32473" lon="-2.26494">
        <ele>-3.2000000476837</ele>
        <time>2019-08-15T09:14:46.000Z</time>
      </trkpt>
      <trkpt lat="47.32454" lon="-2.26505">
        <ele>-3.2000000476837</ele>
        <time>2019-08-15T09:14:50.000Z</time>
      </trkpt>
      <trkpt lat="47.3243" lon="-2.26515">
        <ele>-3.2000000476837</ele>
        <time>2019-08-15T09:14:56.000Z</time>
      </trkpt>
      <trkpt lat="47.32402" lon="-2.26526">
        <ele>-3.2000000476837</ele>
        <time>2019-08-15T09:15:03.000Z</time>
      </trkpt>
      <trkpt lat="47.32371" lon="-2.2653">
        <ele>-3.2000000476837</ele>
        <time>2019-08-15T09:15:10.000Z</time>
      </trkpt>
      <trkpt lat="47.32366" lon="-2.26531">
        <ele>-3.2000000476837</ele>
        <time>2019-08-15T09:15:11.000Z</time>
      </trkpt>
      <trkpt lat="47.32348" lon="-2.2654">
        <ele>-3.2000000476837</ele>
        <time>2019-08-15T09:15:15.000Z</time>
      </trkpt>
      <trkpt lat="47.3232" lon="-2.26563">
        <ele>-3.2000000476837</ele>
        <time>2019-08-15T09:15:22.000Z</time>
      </trkpt>
      <trkpt lat="47.323" lon="-2.26592">
        <ele>-3.2000000476837</ele>
        <time>2019-08-15T09:15:28.000Z</time>
      </trkpt>
      <trkpt lat="47.32296" lon="-2.26596">
        <ele>-3.2000000476837</ele>
        <time>2019-08-15T09:15:29.000Z</time>
      </trkpt>
      <trkpt lat="47.32282" lon="-2.26607">
        <ele>-3.2000000476837</ele>
        <time>2019-08-15T09:15:32.000Z</time>
      </trkpt>
      <trkpt lat="47.32278" lon="-2.26609">
        <ele>-3.2000000476837</ele>
        <time>2019-08-15T09:15:33.000Z</time>
      </trkpt>
      <trkpt lat="47.32273" lon="-2.2661">
        <ele>-2.7999999523163</ele>
        <time>2019-08-15T09:15:34.000Z</time>
      </trkpt>
      <trkpt lat="47.32268" lon="-2.26611">
        <ele>-2.4000000953674</ele>
        <time>2019-08-15T09:15:35.000Z</time>
      </trkpt>
      <trkpt lat="47.32263" lon="-2.26611">
        <ele>-2</ele>
        <time>2019-08-15T09:15:36.000Z</time>
      </trkpt>
      <trkpt lat="47.32259" lon="-2.26612">
        <ele>-1.6000000238419</ele>
        <time>2019-08-15T09:15:37.000Z</time>
      </trkpt>
      <trkpt lat="47.32254" lon="-2.26612">
        <ele>-1.2000000476837</ele>
        <time>2019-08-15T09:15:38.000Z</time>
      </trkpt>
      <trkpt lat="47.32233" lon="-2.26611">
        <ele>-1.2000000476837</ele>
        <time>2019-08-15T09:15:43.000Z</time>
      </trkpt>
      <trkpt lat="47.32224" lon="-2.26611">
        <ele>-1.2000000476837</ele>
        <time>2019-08-15T09:15:45.000Z</time>
      </trkpt>
      <trkpt lat="47.32219" lon="-2.26611">
        <ele>-1.2000000476837</ele>
        <time>2019-08-15T09:15:46.000Z</time>
      </trkpt>
      <trkpt lat="47.32194" lon="-2.26613">
        <ele>-1.2000000476837</ele>
        <time>2019-08-15T09:15:51.000Z</time>
      </trkpt>
      <trkpt lat="47.32175" lon="-2.26613">
        <ele>-0.80000001192093</ele>
        <time>2019-08-15T09:15:55.000Z</time>
      </trkpt>
      <trkpt lat="47.3217" lon="-2.26612">
        <ele>-0.40000000596046</ele>
        <time>2019-08-15T09:15:56.000Z</time>
      </trkpt>
      <trkpt lat="47.32165" lon="-2.26612">
        <ele>5.1</ele>
        <time>2019-08-15T09:15:57.000Z</time>
      </trkpt>
      <trkpt lat="47.3216" lon="-2.26612">
        <ele>0.40000000596046</ele>
        <time>2019-08-15T09:15:58.000Z</time>
      </trkpt>
      <trkpt lat="47.32156" lon="-2.26611">
        <ele>0.80000001192093</ele>
        <time>2019-08-15T09:15:59.000Z</time>
      </trkpt>
      <trkpt lat="47.32133" lon="-2.26603">
        <ele>0.80000001192093</ele>
        <time>2019-08-15T09:16:04.000Z</time>
      </trkpt>
      <trkpt lat="47.32102" lon="-2.26589">
        <ele>0.80000001192093</ele>
        <time>2019-08-15T09:16:11.000Z</time>
      </trkpt>
      <trkpt lat="47.32094" lon="-2.26587">
        <ele>0.80000001192093</ele>
        <time>2019-08-15T09:16:13.000Z</time>
      </trkpt>
      <trkpt lat="47.32083" lon="-2.26587">
        <ele>0.80000001192093</ele>
        <time>2019-08-15T09:16:15.000Z</time>
      </trkpt>
      <trkpt lat="47.32073" lon="-2.26589">
        <ele>0.80000001192093</ele>
        <time>2019-08-15T09:16:17.000Z</time>
      </trkpt>
      <trkpt lat="47.32052" lon="-2.26597">
        <ele>0.80000001192093</ele>
        <time>2019-08-15T09:16:21.000Z</time>
      </trkpt>
      <trkpt lat="47.32015" lon="-2.26619">
        <ele>0.80000001192093</ele>
        <time>2019-08-15T09:16:28.000Z</time>
      </trkpt>
      <trkpt lat="47.31983" lon="-2.2664">
        <ele>0.80000001192093</ele>
        <time>2019-08-15T09:16:35.000Z</time>
      </trkpt>
      <trkpt lat="47.31959" lon="-2.26658">
        <ele>0.80000001192093</ele>
        <time>2019-08-15T09:16:41.000Z</time>
      </trkpt>
      <trkpt lat="47.31956" lon="-2.26661">
        <ele>0.80000001192093</ele>
        <time>2019-08-15T09:16:42.000Z</time>
      </trkpt>
      <trkpt lat="47.31949" lon="-2.26667">
        <ele>1.2000000476837</ele>
        <time>2019-08-15T09:16:44.000Z</time>
      </trkpt>
      <trkpt lat="47.31946" lon="-2.26669">
        <ele>1.6000000238419</ele>
        <time>2019-08-15T09:16:45.000Z</time>
      </trkpt>
      <trkpt lat="47.31943" lon="-2.26672">
        <ele>2</ele>
        <time>2019-08-15T09:16:46.000Z</time>
      </trkpt>
      <trkpt lat="47.31939" lon="-2.26675">
        <ele>2.4000000953674</ele>
        <time>2019-08-15T09:16:47.000Z</time>
      </trkpt>
      <trkpt lat="47.31936" lon="-2.26678">
        <ele>3</ele>
        <time>2019-08-15T09:16:48.000Z</time>
      </trkpt>
      <trkpt lat="47.3192" lon="-2.26691">
        <ele>3</ele>
        <time>2019-08-15T09:16:53.000Z</time>
      </trkpt>
      <trkpt lat="47.31902" lon="-2.26705">
        <ele>3</ele>
        <time>2019-08-15T09:16:59.000Z</time>
      </trkpt>
      <trkpt lat="47.31884" lon="-2.2672">
        <ele>3</ele>
        <time>2019-08-15T09:17:04.000Z</time>
      </trkpt>
      <trkpt lat="47.31861" lon="-2.26737">
        <ele>3</ele>
        <time>2019-08-15T09:17:10.000Z</time>
      </trkpt>
      <trkpt lat="47.31857" lon="-2.2674">
        <ele>3</ele>
        <time>2019-08-15T09:17:11.000Z</time>
      </trkpt>
      <trkpt lat="47.31848" lon="-2.26744">
        <ele>3</ele>
        <time>2019-08-15T09:17:13.000Z</time>
      </trkpt>
      <trkpt lat="47.31839" lon="-2.26744">
        <ele>3</ele>
        <time>2019-08-15T09:17:15.000Z</time>
      </trkpt>
      <trkpt lat="47.31822" lon="-2.2673">
        <ele>3</ele>
        <time>2019-08-15T09:17:19.000Z</time>
      </trkpt>
      <trkpt lat="47.31812" lon="-2.26711">
        <ele>3</ele>
        <time>2019-08-15T09:17:23.000Z</time>
      </trkpt>
      <trkpt lat="47.31804" lon="-2.26696">
        <ele>3</ele>
        <time>2019-08-15T09:17:28.000Z</time>
      </trkpt>
      <trkpt lat="47.31803" lon="-2.26695">
        <ele>3</ele>
        <time>2019-08-15T09:17:30.000Z</time>
      </trkpt>
      <trkpt lat="47.31799" lon="-2.26694">
        <ele>3</ele>
        <time>2019-08-15T09:17:34.000Z</time>
      </trkpt>
      <trkpt lat="47.31798" lon="-2.26694">
        <ele>3</ele>
        <time>2019-08-15T09:17:35.000Z</time>
      </trkpt>
      <trkpt lat="47.31792" lon="-2.26695">
        <ele>3</ele>
        <time>2019-08-15T09:17:38.000Z</time>
      </trkpt>
      <trkpt lat="47.31779" lon="-2.267">
        <ele>3</ele>
        <time>2019-08-15T09:17:41.000Z</time>
      </trkpt>
      <trkpt lat="47.31753" lon="-2.26709">
        <ele>3</ele>
        <time>2019-08-15T09:17:46.000Z</time>
      </trkpt>
      <trkpt lat="47.31747" lon="-2.26711">
        <ele>3</ele>
        <time>2019-08-15T09:17:47.000Z</time>
      </trkpt>
      <trkpt lat="47.31737" lon="-2.26714">
        <ele>2.4000000953674</ele>
        <time>2019-08-15T09:17:49.000Z</time>
      </trkpt>
      <trkpt lat="47.31732" lon="-2.26716">
        <ele>2</ele>
        <time>2019-08-15T09:17:50.000Z</time>
      </trkpt>
      <trkpt lat="47.31726" lon="-2.26717">
        <ele>1.6000000238419</ele>
        <time>2019-08-15T09:17:51.000Z</time>
      </trkpt>
      <trkpt lat="47.31721" lon="-2.26718">
        <ele>1.2000000476837</ele>
        <time>2019-08-15T09:17:52.000Z</time>
      </trkpt>
      <trkpt lat="47.31716" lon="-2.2672">
        <ele>0.80000001192093</ele>
        <time>2019-08-15T09:17:53.000Z</time>
      </trkpt>
      <trkpt lat="47.31691" lon="-2.26724">
        <ele>0.80000001192093</ele>
        <time>2019-08-15T09:17:58.000Z</time>
      </trkpt>
      <trkpt lat="47.31666" lon="-2.2673">
        <ele>0.80000001192093</ele>
        <time>2019-08-15T09:18:03.000Z</time>
      </trkpt>
      <trkpt lat="47.31653" lon="-2.26735">
        <ele>0.80000001192093</ele>
        <time>2019-08-15T09:18:06.000Z</time>
      </trkpt>
      <trkpt lat="47.31645" lon="-2.26739">
        <ele>0.80000001192093</ele>
        <time>2019-08-15T09:18:08.000Z</time>
      </trkpt>
      <trkpt lat="47.31629" lon="-2.26751">
        <ele>0.80000001192093</ele>
        <time>2019-08-15T09:18:12.000Z</time>
      </trkpt>
      <trkpt lat="47.31624" lon="-2.26754">
        <ele>0.80000001192093</ele>
        <time>2019-08-15T09:18:13.000Z</time>
      </trkpt>
      <trkpt lat="47.31619" lon="-2.26757">
        <ele>0.80000001192093</ele>
        <time>2019-08-15T09:18:14.000Z</time>
      </trkpt>
      <trkpt lat="47.31603" lon="-2.26759">
        <ele>0.80000001192093</ele>
        <time>2019-08-15T09:18:17.000Z</time>
      </trkpt>
      <trkpt lat="47.31598" lon="-2.26759">
        <ele>0.80000001192093</ele>
        <time>2019-08-15T09:18:18.000Z</time>
      </trkpt>
      <trkpt lat="47.31592" lon="-2.26759">
        <ele>0.20000000298023</ele>
        <time>2019-08-15T09:18:19.000Z</time>
      </trkpt>
      <trkpt lat="47.31587" lon="-2.26758">
        <ele>-0.20000000298023</ele>
        <time>2019-08-15T09:18:20.000Z</time>
      </trkpt>
      <trkpt lat="47.31582" lon="-2.26757">
        <ele>-0.60000002384186</ele>
        <time>2019-08-15T09:18:21.000Z</time>
      </trkpt>
      <trkpt lat="47.31578" lon="-2.26757">
        <ele>-1</ele>
        <time>2019-08-15T09:18:22.000Z</time>
      </trkpt>
      <trkpt lat="47.31575" lon="-2.26758">
        <ele>-1.3999999761581</ele>
        <time>2019-08-15T09:18:23.000Z</time>
      </trkpt>
      <trkpt lat="47.31568" lon="-2.26768">
        <ele>-1.3999999761581</ele>
        <time>2019-08-15T09:18:25.000Z</time>
      </trkpt>
      <trkpt lat="47.31559" lon="-2.26784">
        <ele>-1.3999999761581</ele>
        <time>2019-08-15T09:18:28.000Z</time>
      </trkpt>
      <trkpt lat="47.31554" lon="-2.26795">
        <ele>-1.3999999761581</ele>
        <time>2019-08-15T09:18:30.000Z</time>
      </trkpt>
      <trkpt lat="47.31547" lon="-2.26814">
        <ele>-1.3999999761581</ele>
        <time>2019-08-15T09:18:33.000Z</time>
      </trkpt>
      <trkpt lat="47.31542" lon="-2.26827">
        <ele>-1.3999999761581</ele>
        <time>2019-08-15T09:18:35.000Z</time>
      </trkpt>
      <trkpt lat="47.31537" lon="-2.2684">
        <ele>-1.3999999761581</ele>
        <time>2019-08-15T09:18:37.000Z</time>
      </trkpt>
      <trkpt lat="47.31532" lon="-2.26853">
        <ele>-1.3999999761581</ele>
        <time>2019-08-15T09:18:39.000Z</time>
      </trkpt>
      <trkpt lat="47.31529" lon="-2.26859">
        <ele>-1.3999999761581</ele>
        <time>2019-08-15T09:18:40.000Z</time>
      </trkpt>
      <trkpt lat="47.31517" lon="-2.26886">
        <ele>-1.3999999761581</ele>
        <time>2019-08-15T09:18:45.000Z</time>
      </trkpt>
      <trkpt lat="47.31513" lon="-2.26896">
        <ele>-1.3999999761581</ele>
        <time>2019-08-15T09:18:47.000Z</time>
      </trkpt>
      <trkpt lat="47.31509" lon="-2.26907">
        <ele>-1.3999999761581</ele>
        <time>2019-08-15T09:18:49.000Z</time>
      </trkpt>
      <trkpt lat="47.31502" lon="-2.26928">
        <ele>-1.3999999761581</ele>
        <time>2019-08-15T09:18:53.000Z</time>
      </trkpt>
      <trkpt lat="47.31496" lon="-2.26949">
        <ele>-1.3999999761581</ele>
        <time>2019-08-15T09:18:58.000Z</time>
      </trkpt>
      <trkpt lat="47.31491" lon="-2.26962">
        <ele>-1.3999999761581</ele>
        <time>2019-08-15T09:19:03.000Z</time>
      </trkpt>
      <trkpt lat="47.31491" lon="-2.26962">
        <ele>-1.3999999761581</ele>
        <time>2019-08-15T09:19:04.000Z</time>
      </trkpt>
      <trkpt lat="47.3149" lon="-2.26975">
        <ele>-1.3999999761581</ele>
        <time>2019-08-15T09:19:57.000Z</time>
      </trkpt>
      <trkpt lat="47.31488" lon="-2.26981">
        <ele>-1.3999999761581</ele>
        <time>2019-08-15T09:19:59.000Z</time>
      </trkpt>
      <trkpt lat="47.31474" lon="-2.26995">
        <ele>-1.3999999761581</ele>
        <time>2019-08-15T09:20:04.000Z</time>
      </trkpt>
      <trkpt lat="47.3147" lon="-2.26997">
        <ele>-1.3999999761581</ele>
        <time>2019-08-15T09:20:05.000Z</time>
      </trkpt>
      <trkpt lat="47.31449" lon="-2.27014">
        <ele>-1.3999999761581</ele>
        <time>2019-08-15T09:20:10.000Z</time>
      </trkpt>
      <trkpt lat="47.3144" lon="-2.2702">
        <ele>-1.3999999761581</ele>
        <time>2019-08-15T09:20:12.000Z</time>
      </trkpt>
      <trkpt lat="47.31426" lon="-2.27032">
        <ele>-1.3999999761581</ele>
        <time>2019-08-15T09:20:15.000Z</time>
      </trkpt>
      <trkpt lat="47.31416" lon="-2.27039">
        <ele>-1</ele>
        <time>2019-08-15T09:20:17.000Z</time>
      </trkpt>
      <trkpt lat="47.31411" lon="-2.27043">
        <ele>-0.60000002384186</ele>
        <time>2019-08-15T09:20:18.000Z</time>
      </trkpt>
      <trkpt lat="47.31405" lon="-2.27047">
        <ele>-0.20000000298023</ele>
        <time>2019-08-15T09:20:19.000Z</time>
      </trkpt>
      <trkpt lat="47.31399" lon="-2.2705">
        <ele>0.20000000298023</ele>
        <time>2019-08-15T09:20:20.000Z</time>
      </trkpt>
      <trkpt lat="47.31394" lon="-2.27054">
        <ele>0.60000002384186</ele>
        <time>2019-08-15T09:20:21.000Z</time>
      </trkpt>
      <trkpt lat="47.31363" lon="-2.27067">
        <ele>0.60000002384186</ele>
        <time>2019-08-15T09:20:26.000Z</time>
      </trkpt>
      <trkpt lat="47.31313" lon="-2.27083">
        <ele>0.60000002384186</ele>
        <time>2019-08-15T09:20:34.000Z</time>
      </trkpt>
      <trkpt lat="47.31279" lon="-2.27103">
        <ele>0.60000002384186</ele>
        <time>2019-08-15T09:20:41.000Z</time>
      </trkpt>
      <trkpt lat="47.31276" lon="-2.27108">
        <ele>1</ele>
        <time>2019-08-15T09:20:42.000Z</time>
      </trkpt>
      <trkpt lat="47.31274" lon="-2.27117">
        <ele>1.3999999761581</ele>
        <time>2019-08-15T09:20:43.000Z</time>
      </trkpt>
      <trkpt lat="47.31274" lon="-2.27126">
        <ele>1.7999999523163</ele>
        <time>2019-08-15T09:20:44.000Z</time>
      </trkpt>
      <trkpt lat="47.31274" lon="-2.27135">
        <ele>2.2000000476837</ele>
        <time>2019-08-15T09:20:45.000Z</time>
      </trkpt>
      <trkpt lat="47.31276" lon="-2.27145">
        <ele>2.5999999046326</ele>
        <time>2019-08-15T09:20:46.000Z</time>
      </trkpt>
      <trkpt lat="47.3128" lon="-2.27163">
        <ele>2.5999999046326</ele>
        <time>2019-08-15T09:20:48.000Z</time>
      </trkpt>
      <trkpt lat="47.31292" lon="-2.27221">
        <ele>2.5999999046326</ele>
        <time>2019-08-15T09:20:54.000Z</time>
      </trkpt>
      <trkpt lat="47.31298" lon="-2.27249">
        <ele>2.2000000476837</ele>
        <time>2019-08-15T09:20:57.000Z</time>
      </trkpt>
      <trkpt lat="47.313" lon="-2.27259">
        <ele>1.7999999523163</ele>
        <time>2019-08-15T09:20:58.000Z</time>
      </trkpt>
      <trkpt lat="47.31304" lon="-2.27268">
        <ele>1.3999999761581</ele>
        <time>2019-08-15T09:20:59.000Z</time>
      </trkpt>
      <trkpt lat="47.31307" lon="-2.27277">
        <ele>1</ele>
        <time>2019-08-15T09:21:00.000Z</time>
      </trkpt>
      <trkpt lat="47.3131" lon="-2.27286">
        <ele>0.60000002384186</ele>
        <time>2019-08-15T09:21:01.000Z</time>
      </trkpt>
      <trkpt lat="47.31335" lon="-2.27324">
        <ele>0.60000002384186</ele>
        <time>2019-08-15T09:21:06.000Z</time>
      </trkpt>
      <trkpt lat="47.3135" lon="-2.27344">
        <ele>0.20000000298023</ele>
        <time>2019-08-15T09:21:09.000Z</time>
      </trkpt>
      <trkpt lat="47.31355" lon="-2.2735">
        <ele>-0.20000000298023</ele>
        <time>2019-08-15T09:21:10.000Z</time>
      </trkpt>
      <trkpt lat="47.3136" lon="-2.27357">
        <ele>-0.80000001192093</ele>
        <time>2019-08-15T09:21:11.000Z</time>
      </trkpt>
      <trkpt lat="47.31365" lon="-2.27363">
        <ele>-1.2000000476837</ele>
        <time>2019-08-15T09:21:12.000Z</time>
      </trkpt>
      <trkpt lat="47.3137" lon="-2.2737">
        <ele>-1.6000000238419</ele>
        <time>2019-08-15T09:21:13.000Z</time>
      </trkpt>
      <trkpt lat="47.31402" lon="-2.27409">
        <ele>-1.6000000238419</ele>
        <time>2019-08-15T09:21:19.000Z</time>
      </trkpt>
      <trkpt lat="47.31431" lon="-2.27434">
        <ele>-1.6000000238419</ele>
        <time>2019-08-15T09:21:24.000Z</time>
      </trkpt>
      <trkpt lat="47.31448" lon="-2.27448">
        <ele>-1.6000000238419</ele>
        <time>2019-08-15T09:21:27.000Z</time>
      </trkpt>
      <trkpt lat="47.31452" lon="-2.27455">
        <ele>-1.6000000238419</ele>
        <time>2019-08-15T09:21:28.000Z</time>
      </trkpt>
      <trkpt lat="47.31464" lon="-2.27478">
        <ele>-1.6000000238419</ele>
        <time>2019-08-15T09:21:31.000Z</time>
      </trkpt>
      <trkpt lat="47.31469" lon="-2.27495">
        <ele>-1.6000000238419</ele>
        <time>2019-08-15T09:21:33.000Z</time>
      </trkpt>
      <trkpt lat="47.31479" lon="-2.27529">
        <ele>-1.6000000238419</ele>
        <time>2019-08-15T09:21:37.000Z</time>
      </trkpt>
      <trkpt lat="47.31481" lon="-2.27537">
        <ele>-1.6000000238419</ele>
        <time>2019-08-15T09:21:38.000Z</time>
      </trkpt>
      <trkpt lat="47.31493" lon="-2.27577">
        <ele>-1.6000000238419</ele>
        <time>2019-08-15T09:21:43.000Z</time>
      </trkpt>
      <trkpt lat="47.31495" lon="-2.27586">
        <ele>-1.6000000238419</ele>
        <time>2019-08-15T09:21:44.000Z</time>
      </trkpt>
      <trkpt lat="47.315" lon="-2.27618">
        <ele>-1.6000000238419</ele>
        <time>2019-08-15T09:21:48.000Z</time>
      </trkpt>
      <trkpt lat="47.315" lon="-2.27625">
        <ele>-1.6000000238419</ele>
        <time>2019-08-15T09:21:49.000Z</time>
      </trkpt>
      <trkpt lat="47.3149" lon="-2.27652">
        <ele>-1.6000000238419</ele>
        <time>2019-08-15T09:21:52.000Z</time>
      </trkpt>
      <trkpt lat="47.31486" lon="-2.27661">
        <ele>-1.6000000238419</ele>
        <time>2019-08-15T09:21:53.000Z</time>
      </trkpt>
      <trkpt lat="47.31473" lon="-2.27684">
        <ele>-1.6000000238419</ele>
        <time>2019-08-15T09:21:56.000Z</time>
      </trkpt>
      <trkpt lat="47.31468" lon="-2.2769">
        <ele>-1.6000000238419</ele>
        <time>2019-08-15T09:21:57.000Z</time>
      </trkpt>
      <trkpt lat="47.31448" lon="-2.27712">
        <ele>-1.6000000238419</ele>
        <time>2019-08-15T09:22:01.000Z</time>
      </trkpt>
      <trkpt lat="47.31443" lon="-2.27717">
        <ele>-1.6000000238419</ele>
        <time>2019-08-15T09:22:02.000Z</time>
      </trkpt>
      <trkpt lat="47.31415" lon="-2.27738">
        <ele>-1.6000000238419</ele>
        <time>2019-08-15T09:22:07.000Z</time>
      </trkpt>
      <trkpt lat="47.31409" lon="-2.27741">
        <ele>-1.6000000238419</ele>
        <time>2019-08-15T09:22:08.000Z</time>
      </trkpt>
      <trkpt lat="47.3138" lon="-2.27753">
        <ele>-1.6000000238419</ele>
        <time>2019-08-15T09:22:13.000Z</time>
      </trkpt>
      <trkpt lat="47.31337" lon="-2.27764">
        <ele>-1.6000000238419</ele>
        <time>2019-08-15T09:22:20.000Z</time>
      </trkpt>
      <trkpt lat="47.31299" lon="-2.2777">
        <ele>-1.6000000238419</ele>
        <time>2019-08-15T09:22:26.000Z</time>
      </trkpt>
      <trkpt lat="47.3127" lon="-2.27773">
        <ele>-1.6000000238419</ele>
        <time>2019-08-15T09:22:31.000Z</time>
      </trkpt>
      <trkpt lat="47.31264" lon="-2.27774">
        <ele>-1.6000000238419</ele>
        <time>2019-08-15T09:22:32.000Z</time>
      </trkpt>
      <trkpt lat="47.31238" lon="-2.27777">
        <ele>-1.6000000238419</ele>
        <time>2019-08-15T09:22:36.000Z</time>
      </trkpt>
      <trkpt lat="47.31226" lon="-2.27765">
        <ele>-1.6000000238419</ele>
        <time>2019-08-15T09:22:39.000Z</time>
      </trkpt>
      <trkpt lat="47.31221" lon="-2.27752">
        <ele>-1.6000000238419</ele>
        <time>2019-08-15T09:22:41.000Z</time>
      </trkpt>
      <trkpt lat="47.31215" lon="-2.2774">
        <ele>-1.6000000238419</ele>
        <time>2019-08-15T09:22:43.000Z</time>
      </trkpt>
      <trkpt lat="47.312" lon="-2.2773">
        <ele>-1.6000000238419</ele>
        <time>2019-08-15T09:22:47.000Z</time>
      </trkpt>
      <trkpt lat="47.3119" lon="-2.27732">
        <ele>-1.6000000238419</ele>
        <time>2019-08-15T09:22:49.000Z</time>
      </trkpt>
      <trkpt lat="47.31185" lon="-2.27735">
        <ele>-1.6000000238419</ele>
        <time>2019-08-15T09:22:50.000Z</time>
      </trkpt>
      <trkpt lat="47.3118" lon="-2.27738">
        <ele>-1.6000000238419</ele>
        <time>2019-08-15T09:22:51.000Z</time>
      </trkpt>
      <trkpt lat="47.31174" lon="-2.2774">
        <ele>-1.6000000238419</ele>
        <time>2019-08-15T09:22:52.000Z</time>
      </trkpt>
      <trkpt lat="47.31156" lon="-2.27742">
        <ele>-1.6000000238419</ele>
        <time>2019-08-15T09:22:55.000Z</time>
      </trkpt>
      <trkpt lat="47.31146" lon="-2.27745">
        <ele>-1.6000000238419</ele>
        <time>2019-08-15T09:22:57.000Z</time>
      </trkpt>
      <trkpt lat="47.31143" lon="-2.2775">
        <ele>-1.6000000238419</ele>
        <time>2019-08-15T09:22:58.000Z</time>
      </trkpt>
      <trkpt lat="47.31142" lon="-2.27771">
        <ele>-1.6000000238419</ele>
        <time>2019-08-15T09:23:01.000Z</time>
      </trkpt>
      <trkpt lat="47.31143" lon="-2.27777">
        <ele>-1.6000000238419</ele>
        <time>2019-08-15T09:23:02.000Z</time>
      </trkpt>
      <trkpt lat="47.31145" lon="-2.27789">
        <ele>-1.6000000238419</ele>
        <time>2019-08-15T09:23:04.000Z</time>
      </trkpt>
      <trkpt lat="47.31147" lon="-2.27802">
        <ele>-1.6000000238419</ele>
        <time>2019-08-15T09:23:06.000Z</time>
      </trkpt>
      <trkpt lat="47.31153" lon="-2.27828">
        <ele>-1.6000000238419</ele>
        <time>2019-08-15T09:23:10.000Z</time>
      </trkpt>
      <trkpt lat="47.31153" lon="-2.27835">
        <ele>-1.6000000238419</ele>
        <time>2019-08-15T09:23:11.000Z</time>
      </trkpt>
      <trkpt lat="47.31147" lon="-2.27857">
        <ele>-1.6000000238419</ele>
        <time>2019-08-15T09:23:14.000Z</time>
      </trkpt>
      <trkpt lat="47.31136" lon="-2.27876">
        <ele>-1.6000000238419</ele>
        <time>2019-08-15T09:23:17.000Z</time>
      </trkpt>
      <trkpt lat="47.31127" lon="-2.27889">
        <ele>-1.6000000238419</ele>
        <time>2019-08-15T09:23:19.000Z</time>
      </trkpt>
      <trkpt lat="47.31107" lon="-2.2792">
        <ele>-1.6000000238419</ele>
        <time>2019-08-15T09:23:24.000Z</time>
      </trkpt>
      <trkpt lat="47.31084" lon="-2.27956">
        <ele>-1.6000000238419</ele>
        <time>2019-08-15T09:23:30.000Z</time>
      </trkpt>
      <trkpt lat="47.31081" lon="-2.27962">
        <ele>-1.6000000238419</ele>
        <time>2019-08-15T09:23:31.000Z</time>
      </trkpt>
      <trkpt lat="47.31066" lon="-2.27988">
        <ele>-1.6000000238419</ele>
        <time>2019-08-15T09:23:35.000Z</time>
      </trkpt>
      <trkpt lat="47.31036" lon="-2.2803">
        <ele>-1.6000000238419</ele>
        <time>2019-08-15T09:23:42.000Z</time>
      </trkpt>
      <trkpt lat="47.31006" lon="-2.28057">
        <ele>-1.6000000238419</ele>
        <time>2019-08-15T09:23:48.000Z</time>
      </trkpt>
      <trkpt lat="47.31" lon="-2.28061">
        <ele>-1.6000000238419</ele>
        <time>2019-08-15T09:23:49.000Z</time>
      </trkpt>
      <trkpt lat="47.30979" lon="-2.28075">
        <ele>-1.6000000238419</ele>
        <time>2019-08-15T09:23:53.000Z</time>
      </trkpt>
      <trkpt lat="47.30956" lon="-2.28099">
        <ele>-1.6000000238419</ele>
        <time>2019-08-15T09:23:58.000Z</time>
      </trkpt>
      <trkpt lat="47.30952" lon="-2.28104">
        <ele>-1.6000000238419</ele>
        <time>2019-08-15T09:23:59.000Z</time>
      </trkpt>
      <trkpt lat="47.30937" lon="-2.28126">
        <ele>-1.6000000238419</ele>
        <time>2019-08-15T09:24:03.000Z</time>
      </trkpt>
      <trkpt lat="47.30934" lon="-2.28131">
        <ele>-1.6000000238419</ele>
        <time>2019-08-15T09:24:04.000Z</time>
      </trkpt>
      <trkpt lat="47.30914" lon="-2.28161">
        <ele>-1.6000000238419</ele>
        <time>2019-08-15T09:24:10.000Z</time>
      </trkpt>
      <trkpt lat="47.30904" lon="-2.28175">
        <ele>-1.6000000238419</ele>
        <time>2019-08-15T09:24:13.000Z</time>
      </trkpt>
      <trkpt lat="47.309" lon="-2.28181">
        <ele>-1.6000000238419</ele>
        <time>2019-08-15T09:24:14.000Z</time>
      </trkpt>
      <trkpt lat="47.30892" lon="-2.28192">
        <ele>-1.6000000238419</ele>
        <time>2019-08-15T09:24:16.000Z</time>
      </trkpt>
      <trkpt lat="47.3088" lon="-2.28211">
        <ele>-1.6000000238419</ele>
        <time>2019-08-15T09:24:19.000Z</time>
      </trkpt>
      <trkpt lat="47.30873" lon="-2.28222">
        <ele>-1.6000000238419</ele>
        <time>2019-08-15T09:24:21.000Z</time>
      </trkpt>
      <trkpt lat="47.30861" lon="-2.28235">
        <ele>-1.6000000238419</ele>
        <time>2019-08-15T09:24:24.000Z</time>
      </trkpt>
      <trkpt lat="47.30841" lon="-2.28245">
        <ele>-1.6000000238419</ele>
        <time>2019-08-15T09:24:28.000Z</time>
      </trkpt>
      <trkpt lat="47.30836" lon="-2.28247">
        <ele>-1.6000000238419</ele>
        <time>2019-08-15T09:24:29.000Z</time>
      </trkpt>
      <trkpt lat="47.3083" lon="-2.28249">
        <ele>-1.6000000238419</ele>
        <time>2019-08-15T09:24:30.000Z</time>
      </trkpt>
      <trkpt lat="47.30802" lon="-2.28252">
        <ele>-1.6000000238419</ele>
        <time>2019-08-15T09:24:35.000Z</time>
      </trkpt>
      <trkpt lat="47.30776" lon="-2.28246">
        <ele>-1.6000000238419</ele>
        <time>2019-08-15T09:24:40.000Z</time>
      </trkpt>
      <trkpt lat="47.30758" lon="-2.28227">
        <ele>-1.6000000238419</ele>
        <time>2019-08-15T09:24:44.000Z</time>
      </trkpt>
      <trkpt lat="47.3075" lon="-2.28217">
        <ele>-1.6000000238419</ele>
        <time>2019-08-15T09:24:46.000Z</time>
      </trkpt>
      <trkpt lat="47.30738" lon="-2.28198">
        <ele>-1.6000000238419</ele>
        <time>2019-08-15T09:24:49.000Z</time>
      </trkpt>
      <trkpt lat="47.30714" lon="-2.28163">
        <ele>-1.6000000238419</ele>
        <time>2019-08-15T09:24:55.000Z</time>
      </trkpt>
      <trkpt lat="47.30706" lon="-2.28152">
        <ele>-1.6000000238419</ele>
        <time>2019-08-15T09:24:57.000Z</time>
      </trkpt>
      <trkpt lat="47.30699" lon="-2.28144">
        <ele>-1.6000000238419</ele>
        <time>2019-08-15T09:24:59.000Z</time>
      </trkpt>
      <trkpt lat="47.30694" lon="-2.28139">
        <ele>-1.6000000238419</ele>
        <time>2019-08-15T09:25:01.000Z</time>
      </trkpt>
      <trkpt lat="47.30689" lon="-2.28137">
        <ele>-1.6000000238419</ele>
        <time>2019-08-15T09:25:05.000Z</time>
      </trkpt>
      <trkpt lat="47.30689" lon="-2.28137">
        <ele>-1.6000000238419</ele>
        <time>2019-08-15T09:25:06.000Z</time>
      </trkpt>
      <trkpt lat="47.30687" lon="-2.28135">
        <ele>-1.6000000238419</ele>
        <time>2019-08-15T09:25:49.000Z</time>
      </trkpt>
      <trkpt lat="47.30685" lon="-2.28131">
        <ele>-1.6000000238419</ele>
        <time>2019-08-15T09:25:51.000Z</time>
      </trkpt>
      <trkpt lat="47.30673" lon="-2.2812">
        <ele>-1.6000000238419</ele>
        <time>2019-08-15T09:25:55.000Z</time>
      </trkpt>
      <trkpt lat="47.30656" lon="-2.28108">
        <ele>-1.6000000238419</ele>
        <time>2019-08-15T09:25:59.000Z</time>
      </trkpt>
      <trkpt lat="47.30625" lon="-2.28072">
        <ele>-1.6000000238419</ele>
        <time>2019-08-15T09:26:06.000Z</time>
      </trkpt>
      <trkpt lat="47.30602" lon="-2.2805">
        <ele>-1.6000000238419</ele>
        <time>2019-08-15T09:26:11.000Z</time>
      </trkpt>
      <trkpt lat="47.30592" lon="-2.28043">
        <ele>-1.6000000238419</ele>
        <time>2019-08-15T09:26:13.000Z</time>
      </trkpt>
      <trkpt lat="47.30587" lon="-2.28041">
        <ele>-1.6000000238419</ele>
        <time>2019-08-15T09:26:14.000Z</time>
      </trkpt>
      <trkpt lat="47.30577" lon="-2.28037">
        <ele>-1.6000000238419</ele>
        <time>2019-08-15T09:26:16.000Z</time>
      </trkpt>
      <trkpt lat="47.30567" lon="-2.28034">
        <ele>-1.6000000238419</ele>
        <time>2019-08-15T09:26:18.000Z</time>
      </trkpt>
      <trkpt lat="47.30557" lon="-2.2803">
        <ele>-1.6000000238419</ele>
        <time>2019-08-15T09:26:20.000Z</time>
      </trkpt>
      <trkpt lat="47.30548" lon="-2.28022">
        <ele>-1.6000000238419</ele>
        <time>2019-08-15T09:26:22.000Z</time>
      </trkpt>
      <trkpt lat="47.30536" lon="-2.27999">
        <ele>-1.6000000238419</ele>
        <time>2019-08-15T09:26:25.000Z</time>
      </trkpt>
      <trkpt lat="47.30533" lon="-2.2799">
        <ele>-1.6000000238419</ele>
        <time>2019-08-15T09:26:26.000Z</time>
      </trkpt>
      <trkpt lat="47.30522" lon="-2.2796">
        <ele>-1.6000000238419</ele>
        <time>2019-08-15T09:26:30.000Z</time>
      </trkpt>
      <trkpt lat="47.3052" lon="-2.27952">
        <ele>-1.6000000238419</ele>
        <time>2019-08-15T09:26:31.000Z</time>
      </trkpt>
      <trkpt lat="47.30512" lon="-2.27931">
        <ele>-1.6000000238419</ele>
        <time>2019-08-15T09:26:34.000Z</time>
      </trkpt>
      <trkpt lat="47.30509" lon="-2.27927">
        <ele>-1.6000000238419</ele>
        <time>2019-08-15T09:26:35.000Z</time>
      </trkpt>
      <trkpt lat="47.30493" lon="-2.27926">
        <ele>-1.6000000238419</ele>
        <time>2019-08-15T09:26:38.000Z</time>
      </trkpt>
      <trkpt lat="47.30487" lon="-2.27925">
        <ele>-1.6000000238419</ele>
        <time>2019-08-15T09:26:39.000Z</time>
      </trkpt>
      <trkpt lat="47.30476" lon="-2.27922">
        <ele>-1.6000000238419</ele>
        <time>2019-08-15T09:26:41.000Z</time>
      </trkpt>
      <trkpt lat="47.30461" lon="-2.27914">
        <ele>-1.6000000238419</ele>
        <time>2019-08-15T09:26:44.000Z</time>
      </trkpt>
      <trkpt lat="47.30422" lon="-2.27898">
        <ele>-1.6000000238419</ele>
        <time>2019-08-15T09:26:51.000Z</time>
      </trkpt>
      <trkpt lat="47.30416" lon="-2.27898">
        <ele>-1.6000000238419</ele>
        <time>2019-08-15T09:26:52.000Z</time>
      </trkpt>
      <trkpt lat="47.30394" lon="-2.27897">
        <ele>-1.6000000238419</ele>
        <time>2019-08-15T09:26:56.000Z</time>
      </trkpt>
      <trkpt lat="47.30362" lon="-2.27899">
        <ele>-1.6000000238419</ele>
        <time>2019-08-15T09:27:02.000Z</time>
      </trkpt>
      <trkpt lat="47.30336" lon="-2.27906">
        <ele>-1.6000000238419</ele>
        <time>2019-08-15T09:27:07.000Z</time>
      </trkpt>
      <trkpt lat="47.3033" lon="-2.27906">
        <ele>-1.6000000238419</ele>
        <time>2019-08-15T09:27:08.000Z</time>
      </trkpt>
      <trkpt lat="47.30309" lon="-2.27909">
        <ele>-1.6000000238419</ele>
        <time>2019-08-15T09:27:12.000Z</time>
      </trkpt>
      <trkpt lat="47.30303" lon="-2.27909">
        <ele>-1.6000000238419</ele>
        <time>2019-08-15T09:27:13.000Z</time>
      </trkpt>
      <trkpt lat="47.30271" lon="-2.2791">
        <ele>-1.6000000238419</ele>
        <time>2019-08-15T09:27:19.000Z</time>
      </trkpt>
      <trkpt lat="47.3026" lon="-2.2791">
        <ele>-1.6000000238419</ele>
        <time>2019-08-15T09:27:21.000Z</time>
      </trkpt>
      <trkpt lat="47.30251" lon="-2.27909">
        <ele>-0.80000001192093</ele>
        <time>2019-08-15T09:27:23.000Z</time>
      </trkpt>
      <trkpt lat="47.30245" lon="-2.27909">
        <ele>-0.40000000596046</ele>
        <time>2019-08-15T09:27:24.000Z</time>
      </trkpt>
      <trkpt lat="47.3024" lon="-2.27909">
        <ele>6.6</ele>
        <time>2019-08-15T09:27:25.000Z</time>
      </trkpt>
      <trkpt lat="47.30234" lon="-2.2791">
        <ele>0.40000000596046</ele>
        <time>2019-08-15T09:27:26.000Z</time>
      </trkpt>
      <trkpt lat="47.30206" lon="-2.27912">
        <ele>0.40000000596046</ele>
        <time>2019-08-15T09:27:31.000Z</time>
      </trkpt>
      <trkpt lat="47.30186" lon="-2.27913">
        <ele>0.80000001192093</ele>
        <time>2019-08-15T09:27:35.000Z</time>
      </trkpt>
      <trkpt lat="47.3018" lon="-2.27913">
        <ele>1.3999999761581</ele>
        <time>2019-08-15T09:27:36.000Z</time>
      </trkpt>
      <trkpt lat="47.30175" lon="-2.27914">
        <ele>1.7999999523163</ele>
        <time>2019-08-15T09:27:37.000Z</time>
      </trkpt>
      <trkpt lat="47.30169" lon="-2.27914">
        <ele>2.2000000476837</ele>
        <time>2019-08-15T09:27:38.000Z</time>
      </trkpt>
      <trkpt lat="47.30164" lon="-2.27915">
        <ele>2.5999999046326</ele>
        <time>2019-08-15T09:27:39.000Z</time>
      </trkpt>
      <trkpt lat="47.30139" lon="-2.27924">
        <ele>2.5999999046326</ele>
        <time>2019-08-15T09:27:44.000Z</time>
      </trkpt>
      <trkpt lat="47.30118" lon="-2.27938">
        <ele>2.5999999046326</ele>
        <time>2019-08-15T09:27:48.000Z</time>
      </trkpt>
      <trkpt lat="47.30114" lon="-2.27942">
        <ele>2.5999999046326</ele>
        <time>2019-08-15T09:27:49.000Z</time>
      </trkpt>
      <trkpt lat="47.301" lon="-2.27956">
        <ele>2.5999999046326</ele>
        <time>2019-08-15T09:27:52.000Z</time>
      </trkpt>
      <trkpt lat="47.30095" lon="-2.2796">
        <ele>2.5999999046326</ele>
        <time>2019-08-15T09:27:53.000Z</time>
      </trkpt>
      <trkpt lat="47.30086" lon="-2.27967">
        <ele>3</ele>
        <time>2019-08-15T09:27:55.000Z</time>
      </trkpt>
      <trkpt lat="47.30081" lon="-2.27971">
        <ele>3.4000000953674</ele>
        <time>2019-08-15T09:27:56.000Z</time>
      </trkpt>
      <trkpt lat="47.30077" lon="-2.27975">
        <ele>4</ele>
        <time>2019-08-15T09:27:57.000Z</time>
      </trkpt>
      <trkpt lat="47.30073" lon="-2.27979">
        <ele>4.4000000953674</ele>
        <time>2019-08-15T09:27:58.000Z</time>
      </trkpt>
      <trkpt lat="47.30068" lon="-2.27983">
        <ele>4.8000001907349</ele>
        <time>2019-08-15T09:27:59.000Z</time>
      </trkpt>
      <trkpt lat="47.30063" lon="-2.27986">
        <ele>4.8000001907349</ele>
        <time>2019-08-15T09:28:00.000Z</time>
      </trkpt>
      <trkpt lat="47.30029" lon="-2.28011">
        <ele>4.8000001907349</ele>
        <time>2019-08-15T09:28:07.000Z</time>
      </trkpt>
      <trkpt lat="47.30003" lon="-2.28027">
        <ele>4.8000001907349</ele>
        <time>2019-08-15T09:28:13.000Z</time>
      </trkpt>
      <trkpt lat="47.29982" lon="-2.28035">
        <ele>5.1999998092651</ele>
        <time>2019-08-15T09:28:18.000Z</time>
      </trkpt>
      <trkpt lat="47.29979" lon="-2.28038">
        <ele>5.5999999046326</ele>
        <time>2019-08-15T09:28:19.000Z</time>
      </trkpt>
      <trkpt lat="47.29975" lon="-2.2804">
        <ele>6</ele>
        <time>2019-08-15T09:28:20.000Z</time>
      </trkpt>
      <trkpt lat="47.29972" lon="-2.28041">
        <ele>6.5999999046326</ele>
        <time>2019-08-15T09:28:21.000Z</time>
      </trkpt>
      <trkpt lat="47.29968" lon="-2.28043">
        <ele>7</ele>
        <time>2019-08-15T09:28:22.000Z</time>
      </trkpt>
      <trkpt lat="47.29958" lon="-2.28047">
        <ele>7</ele>
        <time>2019-08-15T09:28:25.000Z</time>
      </trkpt>
      <trkpt lat="47.29944" lon="-2.28042">
        <ele>7</ele>
        <time>2019-08-15T09:28:29.000Z</time>
      </trkpt>
      <trkpt lat="47.29936" lon="-2.28019">
        <ele>7</ele>
        <time>2019-08-15T09:28:34.000Z</time>
      </trkpt>
      <trkpt lat="47.29933" lon="-2.28004">
        <ele>7</ele>
        <time>2019-08-15T09:28:38.000Z</time>
      </trkpt>
      <trkpt lat="47.29931" lon="-2.27975">
        <ele>7</ele>
        <time>2019-08-15T09:28:44.000Z</time>
      </trkpt>
      <trkpt lat="47.29933" lon="-2.27949">
        <ele>7</ele>
        <time>2019-08-15T09:28:50.000Z</time>
      </trkpt>
      <trkpt lat="47.29935" lon="-2.27929">
        <ele>7</ele>
        <time>2019-08-15T09:28:56.000Z</time>
      </trkpt>
      <trkpt lat="47.29937" lon="-2.27905">
        <ele>7</ele>
        <time>2019-08-15T09:29:02.000Z</time>
      </trkpt>
      <trkpt lat="47.29938" lon="-2.2788">
        <ele>7</ele>
        <time>2019-08-15T09:29:07.000Z</time>
      </trkpt>
      <trkpt lat="47.29942" lon="-2.27843">
        <ele>7</ele>
        <time>2019-08-15T09:29:14.000Z</time>
      </trkpt>
      <trkpt lat="47.29947" lon="-2.27792">
        <ele>7</ele>
        <time>2019-08-15T09:29:22.000Z</time>
      </trkpt>
      <trkpt lat="47.29952" lon="-2.27732">
        <ele>7</ele>
        <time>2019-08-15T09:29:32.000Z</time>
      </trkpt>
      <trkpt lat="47.29955" lon="-2.27701">
        <ele>7</ele>
        <time>2019-08-15T09:29:37.000Z</time>
      </trkpt>
      <trkpt lat="47.29955" lon="-2.27694">
        <ele>7</ele>
        <time>2019-08-15T09:29:38.000Z</time>
      </trkpt>
      <trkpt lat="47.29957" lon="-2.27668">
        <ele>6.5999999046326</ele>
        <time>2019-08-15T09:29:42.000Z</time>
      </trkpt>
      <trkpt lat="47.29958" lon="-2.27661">
        <ele>6.1999998092651</ele>
        <time>2019-08-15T09:29:43.000Z</time>
      </trkpt>
      <trkpt lat="47.29959" lon="-2.27654">
        <ele>5.8000001907349</ele>
        <time>2019-08-15T09:29:44.000Z</time>
      </trkpt>
      <trkpt lat="47.29959" lon="-2.27647">
        <ele>5.4000000953674</ele>
        <time>2019-08-15T09:29:45.000Z</time>
      </trkpt>
      <trkpt lat="47.2996" lon="-2.2764">
        <ele>5</ele>
        <time>2019-08-15T09:29:46.000Z</time>
      </trkpt>
      <trkpt lat="47.29959" lon="-2.27613">
        <ele>5</ele>
        <time>2019-08-15T09:29:50.000Z</time>
      </trkpt>
      <trkpt lat="47.29957" lon="-2.27607">
        <ele>5</ele>
        <time>2019-08-15T09:29:51.000Z</time>
      </trkpt>
      <trkpt lat="47.29942" lon="-2.27595">
        <ele>5</ele>
        <time>2019-08-15T09:29:55.000Z</time>
      </trkpt>
      <trkpt lat="47.29939" lon="-2.27594">
        <ele>5</ele>
        <time>2019-08-15T09:29:56.000Z</time>
      </trkpt>
      <trkpt lat="47.2992" lon="-2.27595">
        <ele>5</ele>
        <time>2019-08-15T09:30:01.000Z</time>
      </trkpt>
      <trkpt lat="47.29896" lon="-2.27608">
        <ele>5</ele>
        <time>2019-08-15T09:30:06.000Z</time>
      </trkpt>
      <trkpt lat="47.29861" lon="-2.27627">
        <ele>5</ele>
        <time>2019-08-15T09:30:12.000Z</time>
      </trkpt>
      <trkpt lat="47.29856" lon="-2.27627">
        <ele>5</ele>
        <time>2019-08-15T09:30:13.000Z</time>
      </trkpt>
      <trkpt lat="47.29829" lon="-2.27618">
        <ele>5</ele>
        <time>2019-08-15T09:30:18.000Z</time>
      </trkpt>
      <trkpt lat="47.2982" lon="-2.27611">
        <ele>5</ele>
        <time>2019-08-15T09:30:20.000Z</time>
      </trkpt>
      <trkpt lat="47.2981" lon="-2.27606">
        <ele>5</ele>
        <time>2019-08-15T09:30:22.000Z</time>
      </trkpt>
      <trkpt lat="47.29805" lon="-2.27603">
        <ele>5</ele>
        <time>2019-08-15T09:30:23.000Z</time>
      </trkpt>
      <trkpt lat="47.29794" lon="-2.276">
        <ele>5</ele>
        <time>2019-08-15T09:30:25.000Z</time>
      </trkpt>
      <trkpt lat="47.29784" lon="-2.27598">
        <ele>5</ele>
        <time>2019-08-15T09:30:27.000Z</time>
      </trkpt>
      <trkpt lat="47.29773" lon="-2.27599">
        <ele>5</ele>
        <time>2019-08-15T09:30:29.000Z</time>
      </trkpt>
      <trkpt lat="47.29769" lon="-2.276">
        <ele>5</ele>
        <time>2019-08-15T09:30:30.000Z</time>
      </trkpt>
      <trkpt lat="47.29747" lon="-2.27608">
        <ele>5</ele>
        <time>2019-08-15T09:30:34.000Z</time>
      </trkpt>
      <trkpt lat="47.29708" lon="-2.27621">
        <ele>5</ele>
        <time>2019-08-15T09:30:41.000Z</time>
      </trkpt>
      <trkpt lat="47.29673" lon="-2.2762">
        <ele>5</ele>
        <time>2019-08-15T09:30:47.000Z</time>
      </trkpt>
      <trkpt lat="47.29662" lon="-2.27617">
        <ele>5.4000000953674</ele>
        <time>2019-08-15T09:30:49.000Z</time>
      </trkpt>
      <trkpt lat="47.29657" lon="-2.27616">
        <ele>5.8000001907349</ele>
        <time>2019-08-15T09:30:50.000Z</time>
      </trkpt>
      <trkpt lat="47.29652" lon="-2.27614">
        <ele>6.1999998092651</ele>
        <time>2019-08-15T09:30:51.000Z</time>
      </trkpt>
      <trkpt lat="47.29648" lon="-2.27613">
        <ele>6.5999999046326</ele>
        <time>2019-08-15T09:30:52.000Z</time>
      </trkpt>
      <trkpt lat="47.29643" lon="-2.2761">
        <ele>7</ele>
        <time>2019-08-15T09:30:53.000Z</time>
      </trkpt>
      <trkpt lat="47.29611" lon="-2.27588">
        <ele>7</ele>
        <time>2019-08-15T09:31:00.000Z</time>
      </trkpt>
      <trkpt lat="47.29588" lon="-2.2757">
        <ele>8</ele>
        <time>2019-08-15T09:31:05.000Z</time>
      </trkpt>
      <trkpt lat="47.29583" lon="-2.27567">
        <ele>8.3999996185303</ele>
        <time>2019-08-15T09:31:06.000Z</time>
      </trkpt>
      <trkpt lat="47.29578" lon="-2.27564">
        <ele>8.8000001907349</ele>
        <time>2019-08-15T09:31:07.000Z</time>
      </trkpt>
      <trkpt lat="47.29573" lon="-2.27562">
        <ele>9.1999998092651</ele>
        <time>2019-08-15T09:31:08.000Z</time>
      </trkpt>
      <trkpt lat="47.29542" lon="-2.27549">
        <ele>9.1999998092651</ele>
        <time>2019-08-15T09:31:14.000Z</time>
      </trkpt>
      <trkpt lat="47.29537" lon="-2.27547">
        <ele>9.8000001907349</ele>
        <time>2019-08-15T09:31:15.000Z</time>
      </trkpt>
      <trkpt lat="47.29532" lon="-2.27546">
        <ele>10.199999809265</ele>
        <time>2019-08-15T09:31:16.000Z</time>
      </trkpt>
      <trkpt lat="47.29527" lon="-2.27544">
        <ele>10.60000038147</ele>
        <time>2019-08-15T09:31:17.000Z</time>
      </trkpt>
      <trkpt lat="47.29522" lon="-2.27542">
        <ele>11</ele>
        <time>2019-08-15T09:31:18.000Z</time>
      </trkpt>
      <trkpt lat="47.29518" lon="-2.2754">
        <ele>11.39999961853</ele>
        <time>2019-08-15T09:31:19.000Z</time>
      </trkpt>
      <trkpt lat="47.29509" lon="-2.27537">
        <ele>11.39999961853</ele>
        <time>2019-08-15T09:31:21.000Z</time>
      </trkpt>
      <trkpt lat="47.29494" lon="-2.27532">
        <ele>11.39999961853</ele>
        <time>2019-08-15T09:31:24.000Z</time>
      </trkpt>
      <trkpt lat="47.29478" lon="-2.27527">
        <ele>11.39999961853</ele>
        <time>2019-08-15T09:31:27.000Z</time>
      </trkpt>
      <trkpt lat="47.29436" lon="-2.27517">
        <ele>11.39999961853</ele>
        <time>2019-08-15T09:31:35.000Z</time>
      </trkpt>
      <trkpt lat="47.29399" lon="-2.27522">
        <ele>11.39999961853</ele>
        <time>2019-08-15T09:31:42.000Z</time>
      </trkpt>
      <trkpt lat="47.29367" lon="-2.2753">
        <ele>11.39999961853</ele>
        <time>2019-08-15T09:31:48.000Z</time>
      </trkpt>
      <trkpt lat="47.2933" lon="-2.27538">
        <ele>11.39999961853</ele>
        <time>2019-08-15T09:31:55.000Z</time>
      </trkpt>
      <trkpt lat="47.2932" lon="-2.27539">
        <ele>11.39999961853</ele>
        <time>2019-08-15T09:31:57.000Z</time>
      </trkpt>
      <trkpt lat="47.293" lon="-2.27538">
        <ele>11.39999961853</ele>
        <time>2019-08-15T09:32:01.000Z</time>
      </trkpt>
      <trkpt lat="47.29287" lon="-2.27539">
        <ele>11.39999961853</ele>
        <time>2019-08-15T09:32:06.000Z</time>
      </trkpt>
      <trkpt lat="47.29283" lon="-2.27541">
        <ele>11.39999961853</ele>
        <time>2019-08-15T09:32:17.000Z</time>
      </trkpt>
      <trkpt lat="47.29277" lon="-2.27543">
        <ele>11.39999961853</ele>
        <time>2019-08-15T09:32:19.000Z</time>
      </trkpt>
      <trkpt lat="47.2926" lon="-2.27539">
        <ele>11.39999961853</ele>
        <time>2019-08-15T09:32:24.000Z</time>
      </trkpt>
      <trkpt lat="47.29253" lon="-2.27534">
        <ele>11.39999961853</ele>
        <time>2019-08-15T09:32:26.000Z</time>
      </trkpt>
      <trkpt lat="47.2924" lon="-2.27533">
        <ele>11.39999961853</ele>
        <time>2019-08-15T09:32:29.000Z</time>
      </trkpt>
      <trkpt lat="47.29233" lon="-2.27534">
        <ele>11.39999961853</ele>
        <time>2019-08-15T09:32:32.000Z</time>
      </trkpt>
      <trkpt lat="47.29233" lon="-2.27534">
        <ele>11.39999961853</ele>
        <time>2019-08-15T09:32:33.000Z</time>
      </trkpt>
      <trkpt lat="47.29231" lon="-2.27534">
        <ele>11.39999961853</ele>
        <time>2019-08-15T09:33:01.000Z</time>
      </trkpt>
      <trkpt lat="47.2923" lon="-2.27534">
        <ele>11.39999961853</ele>
        <time>2019-08-15T09:33:02.000Z</time>
      </trkpt>
      <trkpt lat="47.29216" lon="-2.27533">
        <ele>11.39999961853</ele>
        <time>2019-08-15T09:33:07.000Z</time>
      </trkpt>
      <trkpt lat="47.29195" lon="-2.27532">
        <ele>11.39999961853</ele>
        <time>2019-08-15T09:33:12.000Z</time>
      </trkpt>
      <trkpt lat="47.29164" lon="-2.27533">
        <ele>11.39999961853</ele>
        <time>2019-08-15T09:33:19.000Z</time>
      </trkpt>
      <trkpt lat="47.29141" lon="-2.27534">
        <ele>11.39999961853</ele>
        <time>2019-08-15T09:33:25.000Z</time>
      </trkpt>
      <trkpt lat="47.29122" lon="-2.27533">
        <ele>11.39999961853</ele>
        <time>2019-08-15T09:33:30.000Z</time>
      </trkpt>
      <trkpt lat="47.29091" lon="-2.27532">
        <ele>11.39999961853</ele>
        <time>2019-08-15T09:33:36.000Z</time>
      </trkpt>
      <trkpt lat="47.29076" lon="-2.27532">
        <ele>11.39999961853</ele>
        <time>2019-08-15T09:33:39.000Z</time>
      </trkpt>
      <trkpt lat="47.29065" lon="-2.27531">
        <ele>11.39999961853</ele>
        <time>2019-08-15T09:33:41.000Z</time>
      </trkpt>
      <trkpt lat="47.29024" lon="-2.27526">
        <ele>11.39999961853</ele>
        <time>2019-08-15T09:33:48.000Z</time>
      </trkpt>
      <trkpt lat="47.28974" lon="-2.27525">
        <ele>11.39999961853</ele>
        <time>2019-08-15T09:33:56.000Z</time>
      </trkpt>
      <trkpt lat="47.28943" lon="-2.27526">
        <ele>11.39999961853</ele>
        <time>2019-08-15T09:34:01.000Z</time>
      </trkpt>
      <trkpt lat="47.28902" lon="-2.27526">
        <ele>11.39999961853</ele>
        <time>2019-08-15T09:34:07.000Z</time>
      </trkpt>
      <trkpt lat="47.28864" lon="-2.27534">
        <ele>11.39999961853</ele>
        <time>2019-08-15T09:34:12.000Z</time>
      </trkpt>
      <trkpt lat="47.28829" lon="-2.27538">
        <ele>11.39999961853</ele>
        <time>2019-08-15T09:34:17.000Z</time>
      </trkpt>
      <trkpt lat="47.28808" lon="-2.27545">
        <ele>11.39999961853</ele>
        <time>2019-08-15T09:34:20.000Z</time>
      </trkpt>
      <trkpt lat="47.28795" lon="-2.27556">
        <ele>11.39999961853</ele>
        <time>2019-08-15T09:34:22.000Z</time>
      </trkpt>
      <trkpt lat="47.28783" lon="-2.27572">
        <ele>11.39999961853</ele>
        <time>2019-08-15T09:34:24.000Z</time>
      </trkpt>
      <trkpt lat="47.28766" lon="-2.27594">
        <ele>11.39999961853</ele>
        <time>2019-08-15T09:34:27.000Z</time>
      </trkpt>
      <trkpt lat="47.28746" lon="-2.2762">
        <ele>11.39999961853</ele>
        <time>2019-08-15T09:34:31.000Z</time>
      </trkpt>
      <trkpt lat="47.28742" lon="-2.27627">
        <ele>11.39999961853</ele>
        <time>2019-08-15T09:34:32.000Z</time>
      </trkpt>
      <trkpt lat="47.28709" lon="-2.27677">
        <ele>11.39999961853</ele>
        <time>2019-08-15T09:34:39.000Z</time>
      </trkpt>
      <trkpt lat="47.28692" lon="-2.27705">
        <ele>11.39999961853</ele>
        <time>2019-08-15T09:34:43.000Z</time>
      </trkpt>
      <trkpt lat="47.28683" lon="-2.2772">
        <ele>11.39999961853</ele>
        <time>2019-08-15T09:34:45.000Z</time>
      </trkpt>
      <trkpt lat="47.28658" lon="-2.27771">
        <ele>11.39999961853</ele>
        <time>2019-08-15T09:34:51.000Z</time>
      </trkpt>
      <trkpt lat="47.28653" lon="-2.27787">
        <ele>11.39999961853</ele>
        <time>2019-08-15T09:34:53.000Z</time>
      </trkpt>
      <trkpt lat="47.28647" lon="-2.2781">
        <ele>11.39999961853</ele>
        <time>2019-08-15T09:34:56.000Z</time>
      </trkpt>
      <trkpt lat="47.28646" lon="-2.27817">
        <ele>11.39999961853</ele>
        <time>2019-08-15T09:34:57.000Z</time>
      </trkpt>
      <trkpt lat="47.28643" lon="-2.27834">
        <ele>11.39999961853</ele>
        <time>2019-08-15T09:34:59.000Z</time>
      </trkpt>
      <trkpt lat="47.28642" lon="-2.27842">
        <ele>11.39999961853</ele>
        <time>2019-08-15T09:35:00.000Z</time>
      </trkpt>
      <trkpt lat="47.28633" lon="-2.27892">
        <ele>11.39999961853</ele>
        <time>2019-08-15T09:35:06.000Z</time>
      </trkpt>
      <trkpt lat="47.28629" lon="-2.27928">
        <ele>12.199999809265</ele>
        <time>2019-08-15T09:35:11.000Z</time>
      </trkpt>
      <trkpt lat="47.28628" lon="-2.27934">
        <ele>12.60000038147</ele>
        <time>2019-08-15T09:35:12.000Z</time>
      </trkpt>
      <trkpt lat="47.28626" lon="-2.27941">
        <ele>13</ele>
        <time>2019-08-15T09:35:13.000Z</time>
      </trkpt>
      <trkpt lat="47.28623" lon="-2.27945">
        <ele>13.39999961853</ele>
        <time>2019-08-15T09:35:14.000Z</time>
      </trkpt>
      <trkpt lat="47.28617" lon="-2.27956">
        <ele>13.39999961853</ele>
        <time>2019-08-15T09:35:16.000Z</time>
      </trkpt>
      <trkpt lat="47.28608" lon="-2.27985">
        <ele>13.39999961853</ele>
        <time>2019-08-15T09:35:20.000Z</time>
      </trkpt>
      <trkpt lat="47.28604" lon="-2.28001">
        <ele>13.39999961853</ele>
        <time>2019-08-15T09:35:22.000Z</time>
      </trkpt>
      <trkpt lat="47.28601" lon="-2.28009">
        <ele>13.39999961853</ele>
        <time>2019-08-15T09:35:23.000Z</time>
      </trkpt>
      <trkpt lat="47.28596" lon="-2.28015">
        <ele>13.39999961853</ele>
        <time>2019-08-15T09:35:24.000Z</time>
      </trkpt>
      <trkpt lat="47.28584" lon="-2.28031">
        <ele>13.39999961853</ele>
        <time>2019-08-15T09:35:27.000Z</time>
      </trkpt>
      <trkpt lat="47.2858" lon="-2.28035">
        <ele>13.39999961853</ele>
        <time>2019-08-15T09:35:28.000Z</time>
      </trkpt>
      <trkpt lat="47.28574" lon="-2.28044">
        <ele>13.39999961853</ele>
        <time>2019-08-15T09:35:30.000Z</time>
      </trkpt>
      <trkpt lat="47.28567" lon="-2.2805">
        <ele>13.39999961853</ele>
        <time>2019-08-15T09:35:32.000Z</time>
      </trkpt>
      <trkpt lat="47.28563" lon="-2.28052">
        <ele>13.39999961853</ele>
        <time>2019-08-15T09:35:33.000Z</time>
      </trkpt>
      <trkpt lat="47.28555" lon="-2.28054">
        <ele>13.39999961853</ele>
        <time>2019-08-15T09:35:35.000Z</time>
      </trkpt>
      <trkpt lat="47.28547" lon="-2.28051">
        <ele>13.39999961853</ele>
        <time>2019-08-15T09:35:37.000Z</time>
      </trkpt>
      <trkpt lat="47.28541" lon="-2.2805">
        <ele>14</ele>
        <time>2019-08-15T09:35:39.000Z</time>
      </trkpt>
      <trkpt lat="47.28539" lon="-2.2805">
        <ele>14.39999961853</ele>
        <time>2019-08-15T09:35:40.000Z</time>
      </trkpt>
      <trkpt lat="47.28537" lon="-2.28051">
        <ele>14.800000190735</ele>
        <time>2019-08-15T09:35:41.000Z</time>
      </trkpt>
      <trkpt lat="47.28534" lon="-2.28048">
        <ele>15.199999809265</ele>
        <time>2019-08-15T09:35:42.000Z</time>
      </trkpt>
      <trkpt lat="47.28532" lon="-2.28047">
        <ele>15.800000190735</ele>
        <time>2019-08-15T09:35:43.000Z</time>
      </trkpt>
      <trkpt lat="47.28527" lon="-2.28048">
        <ele>16.200000762939</ele>
        <time>2019-08-15T09:35:45.000Z</time>
      </trkpt>
      <trkpt lat="47.28525" lon="-2.28048">
        <ele>16.60000038147</ele>
        <time>2019-08-15T09:35:46.000Z</time>
      </trkpt>
      <trkpt lat="47.28523" lon="-2.28048">
        <ele>17</ele>
        <time>2019-08-15T09:35:47.000Z</time>
      </trkpt>
      <trkpt lat="47.28521" lon="-2.28048">
        <ele>17.39999961853</ele>
        <time>2019-08-15T09:35:48.000Z</time>
      </trkpt>
      <trkpt lat="47.28518" lon="-2.28048">
        <ele>17.799999237061</ele>
        <time>2019-08-15T09:35:49.000Z</time>
      </trkpt>
      <trkpt lat="47.28514" lon="-2.28049">
        <ele>17.799999237061</ele>
        <time>2019-08-15T09:35:51.000Z</time>
      </trkpt>
      <trkpt lat="47.28513" lon="-2.28048">
        <ele>18.200000762939</ele>
        <time>2019-08-15T09:35:52.000Z</time>
      </trkpt>
      <trkpt lat="47.28512" lon="-2.28046">
        <ele>18.60000038147</ele>
        <time>2019-08-15T09:35:53.000Z</time>
      </trkpt>
      <trkpt lat="47.2851" lon="-2.28044">
        <ele>19</ele>
        <time>2019-08-15T09:35:54.000Z</time>
      </trkpt>
      <trkpt lat="47.28509" lon="-2.28043">
        <ele>19.39999961853</ele>
        <time>2019-08-15T09:35:55.000Z</time>
      </trkpt>
      <trkpt lat="47.28507" lon="-2.28042">
        <ele>19.799999237061</ele>
        <time>2019-08-15T09:35:56.000Z</time>
      </trkpt>
      <trkpt lat="47.28499" lon="-2.28042">
        <ele>19.799999237061</ele>
        <time>2019-08-15T09:36:00.000Z</time>
      </trkpt>
      <trkpt lat="47.28491" lon="-2.28046">
        <ele>20.200000762939</ele>
        <time>2019-08-15T09:36:03.000Z</time>
      </trkpt>
      <trkpt lat="47.28489" lon="-2.28048">
        <ele>20.60000038147</ele>
        <time>2019-08-15T09:36:04.000Z</time>
      </trkpt>
      <trkpt lat="47.28489" lon="-2.28053">
        <ele>21</ele>
        <time>2019-08-15T09:36:05.000Z</time>
      </trkpt>
      <trkpt lat="47.28489" lon="-2.28055">
        <ele>21.39999961853</ele>
        <time>2019-08-15T09:36:06.000Z</time>
      </trkpt>
      <trkpt lat="47.28489" lon="-2.2806">
        <ele>21.799999237061</ele>
        <time>2019-08-15T09:36:07.000Z</time>
      </trkpt>
      <trkpt lat="47.28496" lon="-2.28069">
        <ele>21.799999237061</ele>
        <time>2019-08-15T09:36:10.000Z</time>
      </trkpt>
      <trkpt lat="47.28497" lon="-2.28078">
        <ele>21.799999237061</ele>
        <time>2019-08-15T09:36:13.000Z</time>
      </trkpt>
      <trkpt lat="47.28491" lon="-2.28081">
        <ele>21.799999237061</ele>
        <time>2019-08-15T09:36:15.000Z</time>
      </trkpt>
      <trkpt lat="47.28488" lon="-2.28083">
        <ele>21.39999961853</ele>
        <time>2019-08-15T09:36:16.000Z</time>
      </trkpt>
      <trkpt lat="47.28484" lon="-2.28084">
        <ele>21</ele>
        <time>2019-08-15T09:36:17.000Z</time>
      </trkpt>
      <trkpt lat="47.28479" lon="-2.28086">
        <ele>20.60000038147</ele>
        <time>2019-08-15T09:36:18.000Z</time>
      </trkpt>
      <trkpt lat="47.28475" lon="-2.28086">
        <ele>20.200000762939</ele>
        <time>2019-08-15T09:36:19.000Z</time>
      </trkpt>
      <trkpt lat="47.28473" lon="-2.28084">
        <ele>19.799999237061</ele>
        <time>2019-08-15T09:36:20.000Z</time>
      </trkpt>
      <trkpt lat="47.28462" lon="-2.28084">
        <ele>19.799999237061</ele>
        <time>2019-08-15T09:36:24.000Z</time>
      </trkpt>
      <trkpt lat="47.28451" lon="-2.28081">
        <ele>19.799999237061</ele>
        <time>2019-08-15T09:36:28.000Z</time>
      </trkpt>
      <trkpt lat="47.28446" lon="-2.28085">
        <ele>19.799999237061</ele>
        <time>2019-08-15T09:36:29.000Z</time>
      </trkpt>
      <trkpt lat="47.28428" lon="-2.28085">
        <ele>19.799999237061</ele>
        <time>2019-08-15T09:36:34.000Z</time>
      </trkpt>
      <trkpt lat="47.28422" lon="-2.28085">
        <ele>19.799999237061</ele>
        <time>2019-08-15T09:36:36.000Z</time>
      </trkpt>
      <trkpt lat="47.28416" lon="-2.28084">
        <ele>19.799999237061</ele>
        <time>2019-08-15T09:36:38.000Z</time>
      </trkpt>
      <trkpt lat="47.28396" lon="-2.2808">
        <ele>19.799999237061</ele>
        <time>2019-08-15T09:36:43.000Z</time>
      </trkpt>
      <trkpt lat="47.28381" lon="-2.28079">
        <ele>19.799999237061</ele>
        <time>2019-08-15T09:36:48.000Z</time>
      </trkpt>
      <trkpt lat="47.28373" lon="-2.28074">
        <ele>19.799999237061</ele>
        <time>2019-08-15T09:36:54.000Z</time>
      </trkpt>
      <trkpt lat="47.28373" lon="-2.28074">
        <ele>19.799999237061</ele>
        <time>2019-08-15T09:36:55.000Z</time>
      </trkpt>
      <trkpt lat="47.2837" lon="-2.28081">
        <ele>18.60000038147</ele>
        <time>2019-08-15T09:36:58.000Z</time>
      </trkpt>
      <trkpt lat="47.28368" lon="-2.28084">
        <ele>18.200000762939</ele>
        <time>2019-08-15T09:36:59.000Z</time>
      </trkpt>
      <trkpt lat="47.28366" lon="-2.28087">
        <ele>17.799999237061</ele>
        <time>2019-08-15T09:37:00.000Z</time>
      </trkpt>
      <trkpt lat="47.28366" lon="-2.28089">
        <ele>17.799999237061</ele>
        <time>2019-08-15T09:37:02.000Z</time>
      </trkpt>
      <trkpt lat="47.28367" lon="-2.281">
        <ele>17.799999237061</ele>
        <time>2019-08-15T09:39:55.000Z</time>
      </trkpt>
      <trkpt lat="47.28366" lon="-2.28106">
        <ele>17.799999237061</ele>
        <time>2019-08-15T09:39:56.000Z</time>
      </trkpt>
      <trkpt lat="47.28366" lon="-2.28129">
        <ele>17.799999237061</ele>
        <time>2019-08-15T09:40:01.000Z</time>
      </trkpt>
      <trkpt lat="47.28368" lon="-2.28146">
        <ele>17.799999237061</ele>
        <time>2019-08-15T09:40:06.000Z</time>
      </trkpt>
      <trkpt lat="47.28367" lon="-2.28151">
        <ele>18.60000038147</ele>
        <time>2019-08-15T09:40:08.000Z</time>
      </trkpt>
      <trkpt lat="47.28367" lon="-2.28151">
        <ele>19</ele>
        <time>2019-08-15T09:40:09.000Z</time>
      </trkpt>
      <trkpt lat="47.28367" lon="-2.28151">
        <ele>19.39999961853</ele>
        <time>2019-08-15T09:40:10.000Z</time>
      </trkpt>
      <trkpt lat="47.28367" lon="-2.2816">
        <ele>19.799999237061</ele>
        <time>2019-08-15T09:40:19.000Z</time>
      </trkpt>
      <trkpt lat="47.28368" lon="-2.28164">
        <ele>19.799999237061</ele>
        <time>2019-08-15T09:40:20.000Z</time>
      </trkpt>
      <trkpt lat="47.28367" lon="-2.28172">
        <ele>19.799999237061</ele>
        <time>2019-08-15T09:40:22.000Z</time>
      </trkpt>
      <trkpt lat="47.28367" lon="-2.28175">
        <ele>19.200000762939</ele>
        <time>2019-08-15T09:40:24.000Z</time>
      </trkpt>
      <trkpt lat="47.28367" lon="-2.28175">
        <ele>19.39999961853</ele>
        <time>2019-08-15T09:40:25.000Z</time>
      </trkpt>
      <trkpt lat="47.28367" lon="-2.28176">
        <ele>19.60000038147</ele>
        <time>2019-08-15T09:40:26.000Z</time>
      </trkpt>
      <trkpt lat="47.28366" lon="-2.28177">
        <ele>21</ele>
        <time>2019-08-15T09:40:27.000Z</time>
      </trkpt>
      <trkpt lat="47.28366" lon="-2.28176">
        <ele>21.39999961853</ele>
        <time>2019-08-15T09:40:28.000Z</time>
      </trkpt>
      <trkpt lat="47.28366" lon="-2.28173">
        <ele>21.799999237061</ele>
        <time>2019-08-15T09:40:29.000Z</time>
      </trkpt>
      <trkpt lat="47.28365" lon="-2.2817">
        <ele>22.200000762939</ele>
        <time>2019-08-15T09:40:30.000Z</time>
      </trkpt>
      <trkpt lat="47.28365" lon="-2.28166">
        <ele>22.60000038147</ele>
        <time>2019-08-15T09:40:31.000Z</time>
      </trkpt>
      <trkpt lat="47.28365" lon="-2.28161">
        <ele>23</ele>
        <time>2019-08-15T09:40:32.000Z</time>
      </trkpt>
      <trkpt lat="47.28365" lon="-2.28154">
        <ele>23</ele>
        <time>2019-08-15T09:40:33.000Z</time>
      </trkpt>
      <trkpt lat="47.28365" lon="-2.28147">
        <ele>23</ele>
        <time>2019-08-15T09:40:34.000Z</time>
      </trkpt>
      <trkpt lat="47.28365" lon="-2.2814">
        <ele>22.39999961853</ele>
        <time>2019-08-15T09:40:35.000Z</time>
      </trkpt>
      <trkpt lat="47.28365" lon="-2.28131">
        <ele>22</ele>
        <time>2019-08-15T09:40:36.000Z</time>
      </trkpt>
      <trkpt lat="47.28364" lon="-2.28122">
        <ele>21.60000038147</ele>
        <time>2019-08-15T09:40:37.000Z</time>
      </trkpt>
      <trkpt lat="47.28363" lon="-2.28114">
        <ele>21.200000762939</ele>
        <time>2019-08-15T09:40:38.000Z</time>
      </trkpt>
      <trkpt lat="47.28362" lon="-2.28105">
        <ele>20.60000038147</ele>
        <time>2019-08-15T09:40:39.000Z</time>
      </trkpt>
      <trkpt lat="47.28361" lon="-2.28094">
        <ele>20.200000762939</ele>
        <time>2019-08-15T09:40:42.000Z</time>
      </trkpt>
      <trkpt lat="47.28361" lon="-2.28093">
        <ele>19.799999237061</ele>
        <time>2019-08-15T09:40:43.000Z</time>
      </trkpt>
      <trkpt lat="47.28361" lon="-2.28093">
        <ele>19.39999961853</ele>
        <time>2019-08-15T09:40:44.000Z</time>
      </trkpt>
      <trkpt lat="47.28361" lon="-2.28093">
        <ele>18.799999237061</ele>
        <time>2019-08-15T09:40:45.000Z</time>
      </trkpt>
      <trkpt lat="47.28362" lon="-2.28093">
        <ele>18.39999961853</ele>
        <time>2019-08-15T09:40:46.000Z</time>
      </trkpt>
      <trkpt lat="47.28362" lon="-2.28096">
        <ele>18.39999961853</ele>
        <time>2019-08-15T09:40:47.000Z</time>
      </trkpt>
      <trkpt lat="47.28363" lon="-2.28099">
        <ele>18.39999961853</ele>
        <time>2019-08-15T09:40:49.000Z</time>
      </trkpt>
      <trkpt lat="47.28364" lon="-2.28114">
        <ele>18.39999961853</ele>
        <time>2019-08-15T09:40:52.000Z</time>
      </trkpt>
      <trkpt lat="47.28365" lon="-2.28121">
        <ele>18.39999961853</ele>
        <time>2019-08-15T09:40:53.000Z</time>
      </trkpt>
      <trkpt lat="47.28365" lon="-2.28134">
        <ele>18.39999961853</ele>
        <time>2019-08-15T09:40:55.000Z</time>
      </trkpt>
      <trkpt lat="47.28366" lon="-2.28145">
        <ele>18.39999961853</ele>
        <time>2019-08-15T09:40:57.000Z</time>
      </trkpt>
      <trkpt lat="47.28366" lon="-2.28155">
        <ele>18.799999237061</ele>
        <time>2019-08-15T09:40:59.000Z</time>
      </trkpt>
      <trkpt lat="47.28367" lon="-2.2816">
        <ele>19.200000762939</ele>
        <time>2019-08-15T09:41:00.000Z</time>
      </trkpt>
      <trkpt lat="47.28367" lon="-2.28165">
        <ele>19.60000038147</ele>
        <time>2019-08-15T09:41:01.000Z</time>
      </trkpt>
      <trkpt lat="47.28367" lon="-2.28171">
        <ele>20.200000762939</ele>
        <time>2019-08-15T09:41:02.000Z</time>
      </trkpt>
      <trkpt lat="47.28368" lon="-2.28176">
        <ele>20.60000038147</ele>
        <time>2019-08-15T09:41:03.000Z</time>
      </trkpt>
      <trkpt lat="47.28368" lon="-2.28197">
        <ele>21</ele>
        <time>2019-08-15T09:41:07.000Z</time>
      </trkpt>
      <trkpt lat="47.28368" lon="-2.28202">
        <ele>21.39999961853</ele>
        <time>2019-08-15T09:41:08.000Z</time>
      </trkpt>
      <trkpt lat="47.28368" lon="-2.28206">
        <ele>21.799999237061</ele>
        <time>2019-08-15T09:41:09.000Z</time>
      </trkpt>
      <trkpt lat="47.28368" lon="-2.28211">
        <ele>22.39999961853</ele>
        <time>2019-08-15T09:41:10.000Z</time>
      </trkpt>
      <trkpt lat="47.28367" lon="-2.28216">
        <ele>22.799999237061</ele>
        <time>2019-08-15T09:41:11.000Z</time>
      </trkpt>
      <trkpt lat="47.28367" lon="-2.28226">
        <ele>22.799999237061</ele>
        <time>2019-08-15T09:41:13.000Z</time>
      </trkpt>
      <trkpt lat="47.28369" lon="-2.2824">
        <ele>23.200000762939</ele>
        <time>2019-08-15T09:41:16.000Z</time>
      </trkpt>
      <trkpt lat="47.28369" lon="-2.28245">
        <ele>23.60000038147</ele>
        <time>2019-08-15T09:41:17.000Z</time>
      </trkpt>
      <trkpt lat="47.28369" lon="-2.28251">
        <ele>24</ele>
        <time>2019-08-15T09:41:18.000Z</time>
      </trkpt>
      <trkpt lat="47.28369" lon="-2.28256">
        <ele>24.39999961853</ele>
        <time>2019-08-15T09:41:19.000Z</time>
      </trkpt>
      <trkpt lat="47.28369" lon="-2.28262">
        <ele>24.799999237061</ele>
        <time>2019-08-15T09:41:20.000Z</time>
      </trkpt>
      <trkpt lat="47.28368" lon="-2.28287">
        <ele>24.799999237061</ele>
        <time>2019-08-15T09:41:25.000Z</time>
      </trkpt>
      <trkpt lat="47.28369" lon="-2.28292">
        <ele>25.200000762939</ele>
        <time>2019-08-15T09:41:26.000Z</time>
      </trkpt>
      <trkpt lat="47.28369" lon="-2.28297">
        <ele>25.60000038147</ele>
        <time>2019-08-15T09:41:27.000Z</time>
      </trkpt>
      <trkpt lat="47.28369" lon="-2.28303">
        <ele>26</ele>
        <time>2019-08-15T09:41:28.000Z</time>
      </trkpt>
      <trkpt lat="47.28369" lon="-2.28308">
        <ele>26.39999961853</ele>
        <time>2019-08-15T09:41:29.000Z</time>
      </trkpt>
      <trkpt lat="47.28369" lon="-2.28314">
        <ele>26.799999237061</ele>
        <time>2019-08-15T09:41:30.000Z</time>
      </trkpt>
      <trkpt lat="47.2837" lon="-2.28326">
        <ele>26.799999237061</ele>
        <time>2019-08-15T09:41:32.000Z</time>
      </trkpt>
      <trkpt lat="47.2837" lon="-2.28364">
        <ele>26.799999237061</ele>
        <time>2019-08-15T09:41:39.000Z</time>
      </trkpt>
      <trkpt lat="47.28369" lon="-2.28377">
        <ele>26.799999237061</ele>
        <time>2019-08-15T09:41:41.000Z</time>
      </trkpt>
      <trkpt lat="47.28371" lon="-2.28397">
        <ele>26.799999237061</ele>
        <time>2019-08-15T09:41:44.000Z</time>
      </trkpt>
      <trkpt lat="47.28373" lon="-2.28421">
        <ele>26.799999237061</ele>
        <time>2019-08-15T09:41:48.000Z</time>
      </trkpt>
      <trkpt lat="47.28373" lon="-2.28427">
        <ele>26.799999237061</ele>
        <time>2019-08-15T09:41:49.000Z</time>
      </trkpt>
      <trkpt lat="47.28376" lon="-2.28472">
        <ele>26.799999237061</ele>
        <time>2019-08-15T09:41:55.000Z</time>
      </trkpt>
      <trkpt lat="47.28377" lon="-2.28517">
        <ele>26.799999237061</ele>
        <time>2019-08-15T09:42:01.000Z</time>
      </trkpt>
      <trkpt lat="47.28379" lon="-2.2857">
        <ele>26.799999237061</ele>
        <time>2019-08-15T09:42:08.000Z</time>
      </trkpt>
      <trkpt lat="47.28381" lon="-2.28621">
        <ele>26.799999237061</ele>
        <time>2019-08-15T09:42:15.000Z</time>
      </trkpt>
      <trkpt lat="47.28382" lon="-2.28656">
        <ele>26.799999237061</ele>
        <time>2019-08-15T09:42:20.000Z</time>
      </trkpt>
      <trkpt lat="47.28382" lon="-2.28671">
        <ele>26.799999237061</ele>
        <time>2019-08-15T09:42:22.000Z</time>
      </trkpt>
      <trkpt lat="47.28384" lon="-2.28717">
        <ele>26.799999237061</ele>
        <time>2019-08-15T09:42:28.000Z</time>
      </trkpt>
      <trkpt lat="47.28385" lon="-2.28763">
        <ele>26.799999237061</ele>
        <time>2019-08-15T09:42:34.000Z</time>
      </trkpt>
      <trkpt lat="47.28387" lon="-2.28807">
        <ele>26.799999237061</ele>
        <time>2019-08-15T09:42:40.000Z</time>
      </trkpt>
      <trkpt lat="47.2839" lon="-2.2887">
        <ele>26.799999237061</ele>
        <time>2019-08-15T09:42:48.000Z</time>
      </trkpt>
      <trkpt lat="47.28392" lon="-2.28924">
        <ele>26.799999237061</ele>
        <time>2019-08-15T09:42:54.000Z</time>
      </trkpt>
      <trkpt lat="47.28392" lon="-2.28939">
        <ele>26.799999237061</ele>
        <time>2019-08-15T09:42:56.000Z</time>
      </trkpt>
      <trkpt lat="47.28393" lon="-2.28958">
        <ele>26.799999237061</ele>
        <time>2019-08-15T09:42:59.000Z</time>
      </trkpt>
      <trkpt lat="47.28394" lon="-2.28991">
        <ele>26.799999237061</ele>
        <time>2019-08-15T09:43:05.000Z</time>
      </trkpt>
      <trkpt lat="47.28396" lon="-2.28994">
        <ele>26.799999237061</ele>
        <time>2019-08-15T09:43:07.000Z</time>
      </trkpt>
      <trkpt lat="47.28397" lon="-2.28994">
        <ele>26.799999237061</ele>
        <time>2019-08-15T09:43:08.000Z</time>
      </trkpt>
      <trkpt lat="47.28407" lon="-2.28999">
        <ele>26.799999237061</ele>
        <time>2019-08-15T09:43:12.000Z</time>
      </trkpt>
      <trkpt lat="47.2841" lon="-2.29">
        <ele>26.799999237061</ele>
        <time>2019-08-15T09:43:13.000Z</time>
      </trkpt>
      <trkpt lat="47.28422" lon="-2.29001">
        <ele>26.39999961853</ele>
        <time>2019-08-15T09:43:16.000Z</time>
      </trkpt>
      <trkpt lat="47.28427" lon="-2.29001">
        <ele>26</ele>
        <time>2019-08-15T09:43:17.000Z</time>
      </trkpt>
      <trkpt lat="47.28432" lon="-2.29">
        <ele>25.60000038147</ele>
        <time>2019-08-15T09:43:18.000Z</time>
      </trkpt>
      <trkpt lat="47.28437" lon="-2.29">
        <ele>25.200000762939</ele>
        <time>2019-08-15T09:43:19.000Z</time>
      </trkpt>
      <trkpt lat="47.28443" lon="-2.29">
        <ele>24.799999237061</ele>
        <time>2019-08-15T09:43:20.000Z</time>
      </trkpt>
      <trkpt lat="47.28466" lon="-2.29005">
        <ele>24.799999237061</ele>
        <time>2019-08-15T09:43:24.000Z</time>
      </trkpt>
      <trkpt lat="47.28499" lon="-2.29018">
        <ele>24.39999961853</ele>
        <time>2019-08-15T09:43:29.000Z</time>
      </trkpt>
      <trkpt lat="47.28505" lon="-2.2902">
        <ele>23.799999237061</ele>
        <time>2019-08-15T09:43:30.000Z</time>
      </trkpt>
      <trkpt lat="47.28512" lon="-2.29023">
        <ele>23.39999961853</ele>
        <time>2019-08-15T09:43:31.000Z</time>
      </trkpt>
      <trkpt lat="47.28517" lon="-2.29026">
        <ele>23</ele>
        <time>2019-08-15T09:43:32.000Z</time>
      </trkpt>
      <trkpt lat="47.28522" lon="-2.29028">
        <ele>22.60000038147</ele>
        <time>2019-08-15T09:43:33.000Z</time>
      </trkpt>
      <trkpt lat="47.28532" lon="-2.29031">
        <ele>22.60000038147</ele>
        <time>2019-08-15T09:43:35.000Z</time>
      </trkpt>
      <trkpt lat="47.28542" lon="-2.29032">
        <ele>22.60000038147</ele>
        <time>2019-08-15T09:43:37.000Z</time>
      </trkpt>
      <trkpt lat="47.28562" lon="-2.29033">
        <ele>22.200000762939</ele>
        <time>2019-08-15T09:43:41.000Z</time>
      </trkpt>
      <trkpt lat="47.28569" lon="-2.29033">
        <ele>21.799999237061</ele>
        <time>2019-08-15T09:43:42.000Z</time>
      </trkpt>
      <trkpt lat="47.28574" lon="-2.29033">
        <ele>21.39999961853</ele>
        <time>2019-08-15T09:43:43.000Z</time>
      </trkpt>
      <trkpt lat="47.28579" lon="-2.29034">
        <ele>21</ele>
        <time>2019-08-15T09:43:44.000Z</time>
      </trkpt>
      <trkpt lat="47.28583" lon="-2.29035">
        <ele>20.60000038147</ele>
        <time>2019-08-15T09:43:45.000Z</time>
      </trkpt>
      <trkpt lat="47.28593" lon="-2.29043">
        <ele>20.60000038147</ele>
        <time>2019-08-15T09:43:47.000Z</time>
      </trkpt>
      <trkpt lat="47.28597" lon="-2.29048">
        <ele>20.60000038147</ele>
        <time>2019-08-15T09:43:48.000Z</time>
      </trkpt>
      <trkpt lat="47.28599" lon="-2.29065">
        <ele>20.60000038147</ele>
        <time>2019-08-15T09:43:50.000Z</time>
      </trkpt>
      <trkpt lat="47.28597" lon="-2.29082">
        <ele>20.60000038147</ele>
        <time>2019-08-15T09:43:52.000Z</time>
      </trkpt>
      <trkpt lat="47.2859" lon="-2.29114">
        <ele>20.60000038147</ele>
        <time>2019-08-15T09:43:56.000Z</time>
      </trkpt>
      <trkpt lat="47.28581" lon="-2.29144">
        <ele>20.60000038147</ele>
        <time>2019-08-15T09:44:00.000Z</time>
      </trkpt>
      <trkpt lat="47.28574" lon="-2.29154">
        <ele>20.60000038147</ele>
        <time>2019-08-15T09:44:02.000Z</time>
      </trkpt>
      <trkpt lat="47.28565" lon="-2.29165">
        <ele>20.60000038147</ele>
        <time>2019-08-15T09:44:04.000Z</time>
      </trkpt>
      <trkpt lat="47.28555" lon="-2.29172">
        <ele>20.60000038147</ele>
        <time>2019-08-15T09:44:06.000Z</time>
      </trkpt>
      <trkpt lat="47.2855" lon="-2.29176">
        <ele>20.60000038147</ele>
        <time>2019-08-15T09:44:07.000Z</time>
      </trkpt>
      <trkpt lat="47.28537" lon="-2.29188">
        <ele>20.60000038147</ele>
        <time>2019-08-15T09:44:10.000Z</time>
      </trkpt>
      <trkpt lat="47.28532" lon="-2.29191">
        <ele>20.60000038147</ele>
        <time>2019-08-15T09:44:11.000Z</time>
      </trkpt>
      <trkpt lat="47.28524" lon="-2.292">
        <ele>20.60000038147</ele>
        <time>2019-08-15T09:44:13.000Z</time>
      </trkpt>
      <trkpt lat="47.2852" lon="-2.29215">
        <ele>20.60000038147</ele>
        <time>2019-08-15T09:44:15.000Z</time>
      </trkpt>
      <trkpt lat="47.2852" lon="-2.2923">
        <ele>20.60000038147</ele>
        <time>2019-08-15T09:44:17.000Z</time>
      </trkpt>
      <trkpt lat="47.28522" lon="-2.29263">
        <ele>20.60000038147</ele>
        <time>2019-08-15T09:44:21.000Z</time>
      </trkpt>
      <trkpt lat="47.28523" lon="-2.29287">
        <ele>20.60000038147</ele>
        <time>2019-08-15T09:44:25.000Z</time>
      </trkpt>
      <trkpt lat="47.28521" lon="-2.29291">
        <ele>20.60000038147</ele>
        <time>2019-08-15T09:44:26.000Z</time>
      </trkpt>
      <trkpt lat="47.28513" lon="-2.293">
        <ele>20.60000038147</ele>
        <time>2019-08-15T09:44:28.000Z</time>
      </trkpt>
      <trkpt lat="47.28504" lon="-2.29306">
        <ele>20.60000038147</ele>
        <time>2019-08-15T09:44:30.000Z</time>
      </trkpt>
      <trkpt lat="47.28476" lon="-2.2932">
        <ele>20.60000038147</ele>
        <time>2019-08-15T09:44:36.000Z</time>
      </trkpt>
      <trkpt lat="47.28457" lon="-2.29328">
        <ele>21</ele>
        <time>2019-08-15T09:44:40.000Z</time>
      </trkpt>
      <trkpt lat="47.28452" lon="-2.2933">
        <ele>21.39999961853</ele>
        <time>2019-08-15T09:44:41.000Z</time>
      </trkpt>
      <trkpt lat="47.28447" lon="-2.29331">
        <ele>21.799999237061</ele>
        <time>2019-08-15T09:44:42.000Z</time>
      </trkpt>
      <trkpt lat="47.28443" lon="-2.29332">
        <ele>22.200000762939</ele>
        <time>2019-08-15T09:44:43.000Z</time>
      </trkpt>
      <trkpt lat="47.28439" lon="-2.29334">
        <ele>22.60000038147</ele>
        <time>2019-08-15T09:44:44.000Z</time>
      </trkpt>
      <trkpt lat="47.28422" lon="-2.29341">
        <ele>22.60000038147</ele>
        <time>2019-08-15T09:44:49.000Z</time>
      </trkpt>
      <trkpt lat="47.28411" lon="-2.29347">
        <ele>22.60000038147</ele>
        <time>2019-08-15T09:44:55.000Z</time>
      </trkpt>
      <trkpt lat="47.28404" lon="-2.29349">
        <ele>22.60000038147</ele>
        <time>2019-08-15T09:45:00.000Z</time>
      </trkpt>
      <trkpt lat="47.28391" lon="-2.29359">
        <ele>23</ele>
        <time>2019-08-15T09:45:07.000Z</time>
      </trkpt>
      <trkpt lat="47.28388" lon="-2.29361">
        <ele>23.39999961853</ele>
        <time>2019-08-15T09:45:08.000Z</time>
      </trkpt>
      <trkpt lat="47.28385" lon="-2.29363">
        <ele>23.799999237061</ele>
        <time>2019-08-15T09:45:09.000Z</time>
      </trkpt>
      <trkpt lat="47.28382" lon="-2.29365">
        <ele>24.200000762939</ele>
        <time>2019-08-15T09:45:10.000Z</time>
      </trkpt>
      <trkpt lat="47.28379" lon="-2.29367">
        <ele>24.60000038147</ele>
        <time>2019-08-15T09:45:11.000Z</time>
      </trkpt>
      <trkpt lat="47.28365" lon="-2.29377">
        <ele>24.60000038147</ele>
        <time>2019-08-15T09:45:15.000Z</time>
      </trkpt>
      <trkpt lat="47.28339" lon="-2.294">
        <ele>24.60000038147</ele>
        <time>2019-08-15T09:45:22.000Z</time>
      </trkpt>
      <trkpt lat="47.28314" lon="-2.29429">
        <ele>24.60000038147</ele>
        <time>2019-08-15T09:45:29.000Z</time>
      </trkpt>
      <trkpt lat="47.28284" lon="-2.29456">
        <ele>24.60000038147</ele>
        <time>2019-08-15T09:45:36.000Z</time>
      </trkpt>
      <trkpt lat="47.28279" lon="-2.29459">
        <ele>24.60000038147</ele>
        <time>2019-08-15T09:45:37.000Z</time>
      </trkpt>
      <trkpt lat="47.28256" lon="-2.29474">
        <ele>24.60000038147</ele>
        <time>2019-08-15T09:45:42.000Z</time>
      </trkpt>
      <trkpt lat="47.28228" lon="-2.2949">
        <ele>24.60000038147</ele>
        <time>2019-08-15T09:45:48.000Z</time>
      </trkpt>
      <trkpt lat="47.28205" lon="-2.29501">
        <ele>25</ele>
        <time>2019-08-15T09:45:53.000Z</time>
      </trkpt>
      <trkpt lat="47.28201" lon="-2.29504">
        <ele>25.39999961853</ele>
        <time>2019-08-15T09:45:54.000Z</time>
      </trkpt>
      <trkpt lat="47.28196" lon="-2.29506">
        <ele>26</ele>
        <time>2019-08-15T09:45:55.000Z</time>
      </trkpt>
      <trkpt lat="47.28192" lon="-2.29508">
        <ele>26.39999961853</ele>
        <time>2019-08-15T09:45:56.000Z</time>
      </trkpt>
      <trkpt lat="47.28187" lon="-2.2951">
        <ele>26.799999237061</ele>
        <time>2019-08-15T09:45:57.000Z</time>
      </trkpt>
      <trkpt lat="47.28171" lon="-2.29515">
        <ele>26.799999237061</ele>
        <time>2019-08-15T09:46:01.000Z</time>
      </trkpt>
      <trkpt lat="47.28167" lon="-2.29517">
        <ele>26.799999237061</ele>
        <time>2019-08-15T09:46:02.000Z</time>
      </trkpt>
      <trkpt lat="47.28157" lon="-2.29521">
        <ele>26.799999237061</ele>
        <time>2019-08-15T09:46:04.000Z</time>
      </trkpt>
      <trkpt lat="47.28152" lon="-2.29522">
        <ele>26.799999237061</ele>
        <time>2019-08-15T09:46:05.000Z</time>
      </trkpt>
      <trkpt lat="47.28146" lon="-2.29525">
        <ele>26.799999237061</ele>
        <time>2019-08-15T09:46:06.000Z</time>
      </trkpt>
      <trkpt lat="47.28137" lon="-2.29529">
        <ele>27.200000762939</ele>
        <time>2019-08-15T09:46:08.000Z</time>
      </trkpt>
      <trkpt lat="47.28132" lon="-2.29531">
        <ele>27.60000038147</ele>
        <time>2019-08-15T09:46:09.000Z</time>
      </trkpt>
      <trkpt lat="47.28127" lon="-2.29533">
        <ele>28</ele>
        <time>2019-08-15T09:46:10.000Z</time>
      </trkpt>
      <trkpt lat="47.28123" lon="-2.29535">
        <ele>28.60000038147</ele>
        <time>2019-08-15T09:46:11.000Z</time>
      </trkpt>
      <trkpt lat="47.28118" lon="-2.29537">
        <ele>29</ele>
        <time>2019-08-15T09:46:12.000Z</time>
      </trkpt>
      <trkpt lat="47.2808" lon="-2.29553">
        <ele>29</ele>
        <time>2019-08-15T09:46:20.000Z</time>
      </trkpt>
      <trkpt lat="47.28048" lon="-2.29567">
        <ele>29</ele>
        <time>2019-08-15T09:46:27.000Z</time>
      </trkpt>
      <trkpt lat="47.28043" lon="-2.29569">
        <ele>29</ele>
        <time>2019-08-15T09:46:28.000Z</time>
      </trkpt>
      <trkpt lat="47.28024" lon="-2.29577">
        <ele>29</ele>
        <time>2019-08-15T09:46:32.000Z</time>
      </trkpt>
      <trkpt lat="47.27984" lon="-2.29593">
        <ele>29</ele>
        <time>2019-08-15T09:46:40.000Z</time>
      </trkpt>
      <trkpt lat="47.27953" lon="-2.29598">
        <ele>29</ele>
        <time>2019-08-15T09:46:46.000Z</time>
      </trkpt>
      <trkpt lat="47.27933" lon="-2.29598">
        <ele>29</ele>
        <time>2019-08-15T09:46:50.000Z</time>
      </trkpt>
      <trkpt lat="47.27919" lon="-2.29598">
        <ele>29</ele>
        <time>2019-08-15T09:46:53.000Z</time>
      </trkpt>
      <trkpt lat="47.27893" lon="-2.29596">
        <ele>29</ele>
        <time>2019-08-15T09:46:59.000Z</time>
      </trkpt>
      <trkpt lat="47.27855" lon="-2.29594">
        <ele>29</ele>
        <time>2019-08-15T09:47:08.000Z</time>
      </trkpt>
      <trkpt lat="47.27853" lon="-2.29595">
        <ele>29</ele>
        <time>2019-08-15T09:47:10.000Z</time>
      </trkpt>
      <trkpt lat="47.27852" lon="-2.29596">
        <ele>26.799999237061</ele>
        <time>2019-08-15T09:48:05.000Z</time>
      </trkpt>
      <trkpt lat="47.27841" lon="-2.29593">
        <ele>26.799999237061</ele>
        <time>2019-08-15T09:48:09.000Z</time>
      </trkpt>
      <trkpt lat="47.27837" lon="-2.29592">
        <ele>26.799999237061</ele>
        <time>2019-08-15T09:48:10.000Z</time>
      </trkpt>
      <trkpt lat="47.27822" lon="-2.29593">
        <ele>26.799999237061</ele>
        <time>2019-08-15T09:48:13.000Z</time>
      </trkpt>
      <trkpt lat="47.27816" lon="-2.29594">
        <ele>26.799999237061</ele>
        <time>2019-08-15T09:48:14.000Z</time>
      </trkpt>
      <trkpt lat="47.27782" lon="-2.29595">
        <ele>26.799999237061</ele>
        <time>2019-08-15T09:48:20.000Z</time>
      </trkpt>
      <trkpt lat="47.27742" lon="-2.29595">
        <ele>26.799999237061</ele>
        <time>2019-08-15T09:48:27.000Z</time>
      </trkpt>
      <trkpt lat="47.27701" lon="-2.29597">
        <ele>26.799999237061</ele>
        <time>2019-08-15T09:48:34.000Z</time>
      </trkpt>
      <trkpt lat="47.27656" lon="-2.29599">
        <ele>26.799999237061</ele>
        <time>2019-08-15T09:48:42.000Z</time>
      </trkpt>
      <trkpt lat="47.27604" lon="-2.29599">
        <ele>26.799999237061</ele>
        <time>2019-08-15T09:48:51.000Z</time>
      </trkpt>
      <trkpt lat="47.27598" lon="-2.29598">
        <ele>26.39999961853</ele>
        <time>2019-08-15T09:48:52.000Z</time>
      </trkpt>
      <trkpt lat="47.27592" lon="-2.29598">
        <ele>26</ele>
        <time>2019-08-15T09:48:53.000Z</time>
      </trkpt>
      <trkpt lat="47.27586" lon="-2.29598">
        <ele>25.60000038147</ele>
        <time>2019-08-15T09:48:54.000Z</time>
      </trkpt>
      <trkpt lat="47.2758" lon="-2.29598">
        <ele>25.200000762939</ele>
        <time>2019-08-15T09:48:55.000Z</time>
      </trkpt>
      <trkpt lat="47.27574" lon="-2.29598">
        <ele>24.799999237061</ele>
        <time>2019-08-15T09:48:56.000Z</time>
      </trkpt>
      <trkpt lat="47.27551" lon="-2.29598">
        <ele>24.799999237061</ele>
        <time>2019-08-15T09:49:00.000Z</time>
      </trkpt>
      <trkpt lat="47.2751" lon="-2.29601">
        <ele>24.799999237061</ele>
        <time>2019-08-15T09:49:07.000Z</time>
      </trkpt>
      <trkpt lat="47.2746" lon="-2.29614">
        <ele>24.799999237061</ele>
        <time>2019-08-15T09:49:16.000Z</time>
      </trkpt>
      <trkpt lat="47.27449" lon="-2.29616">
        <ele>24.799999237061</ele>
        <time>2019-08-15T09:49:18.000Z</time>
      </trkpt>
      <trkpt lat="47.27434" lon="-2.2962">
        <ele>24.799999237061</ele>
        <time>2019-08-15T09:49:21.000Z</time>
      </trkpt>
      <trkpt lat="47.27389" lon="-2.2963">
        <ele>24.799999237061</ele>
        <time>2019-08-15T09:49:29.000Z</time>
      </trkpt>
      <trkpt lat="47.27346" lon="-2.29636">
        <ele>24.799999237061</ele>
        <time>2019-08-15T09:49:37.000Z</time>
      </trkpt>
      <trkpt lat="47.27308" lon="-2.2964">
        <ele>24.799999237061</ele>
        <time>2019-08-15T09:49:44.000Z</time>
      </trkpt>
      <trkpt lat="47.27276" lon="-2.29642">
        <ele>24.799999237061</ele>
        <time>2019-08-15T09:49:50.000Z</time>
      </trkpt>
      <trkpt lat="47.27272" lon="-2.29643">
        <ele>24.799999237061</ele>
        <time>2019-08-15T09:49:51.000Z</time>
      </trkpt>
      <trkpt lat="47.27266" lon="-2.29652">
        <ele>24.799999237061</ele>
        <time>2019-08-15T09:49:53.000Z</time>
      </trkpt>
      <trkpt lat="47.27269" lon="-2.29676">
        <ele>24.799999237061</ele>
        <time>2019-08-15T09:49:57.000Z</time>
      </trkpt>
      <trkpt lat="47.2728" lon="-2.29718">
        <ele>24.799999237061</ele>
        <time>2019-08-15T09:50:03.000Z</time>
      </trkpt>
      <trkpt lat="47.27282" lon="-2.29725">
        <ele>25.39999961853</ele>
        <time>2019-08-15T09:50:04.000Z</time>
      </trkpt>
      <trkpt lat="47.27284" lon="-2.29732">
        <ele>25.799999237061</ele>
        <time>2019-08-15T09:50:05.000Z</time>
      </trkpt>
      <trkpt lat="47.27286" lon="-2.2974">
        <ele>26.200000762939</ele>
        <time>2019-08-15T09:50:06.000Z</time>
      </trkpt>
      <trkpt lat="47.27288" lon="-2.29748">
        <ele>26.60000038147</ele>
        <time>2019-08-15T09:50:07.000Z</time>
      </trkpt>
      <trkpt lat="47.27291" lon="-2.29755">
        <ele>27.200000762939</ele>
        <time>2019-08-15T09:50:08.000Z</time>
      </trkpt>
      <trkpt lat="47.27293" lon="-2.29762">
        <ele>27.200000762939</ele>
        <time>2019-08-15T09:50:09.000Z</time>
      </trkpt>
      <trkpt lat="47.27302" lon="-2.29791">
        <ele>27.200000762939</ele>
        <time>2019-08-15T09:50:13.000Z</time>
      </trkpt>
      <trkpt lat="47.27309" lon="-2.29805">
        <ele>27.200000762939</ele>
        <time>2019-08-15T09:50:15.000Z</time>
      </trkpt>
      <trkpt lat="47.27327" lon="-2.29833">
        <ele>27.200000762939</ele>
        <time>2019-08-15T09:50:20.000Z</time>
      </trkpt>
      <trkpt lat="47.27337" lon="-2.29852">
        <ele>27.200000762939</ele>
        <time>2019-08-15T09:50:23.000Z</time>
      </trkpt>
      <trkpt lat="47.27344" lon="-2.29867">
        <ele>27.200000762939</ele>
        <time>2019-08-15T09:50:25.000Z</time>
      </trkpt>
      <trkpt lat="47.27353" lon="-2.29886">
        <ele>27.200000762939</ele>
        <time>2019-08-15T09:50:28.000Z</time>
      </trkpt>
      <trkpt lat="47.27362" lon="-2.29905">
        <ele>27.200000762939</ele>
        <time>2019-08-15T09:50:31.000Z</time>
      </trkpt>
      <trkpt lat="47.27383" lon="-2.29949">
        <ele>27.200000762939</ele>
        <time>2019-08-15T09:50:38.000Z</time>
      </trkpt>
      <trkpt lat="47.27399" lon="-2.2999">
        <ele>27.200000762939</ele>
        <time>2019-08-15T09:50:44.000Z</time>
      </trkpt>
      <trkpt lat="47.2742" lon="-2.30037">
        <ele>27.200000762939</ele>
        <time>2019-08-15T09:50:50.000Z</time>
      </trkpt>
      <trkpt lat="47.27423" lon="-2.30044">
        <ele>26.60000038147</ele>
        <time>2019-08-15T09:50:51.000Z</time>
      </trkpt>
      <trkpt lat="47.27426" lon="-2.30051">
        <ele>26.200000762939</ele>
        <time>2019-08-15T09:50:52.000Z</time>
      </trkpt>
      <trkpt lat="47.27429" lon="-2.30059">
        <ele>25.799999237061</ele>
        <time>2019-08-15T09:50:53.000Z</time>
      </trkpt>
      <trkpt lat="47.27431" lon="-2.30066">
        <ele>25.39999961853</ele>
        <time>2019-08-15T09:50:54.000Z</time>
      </trkpt>
      <trkpt lat="47.27433" lon="-2.30073">
        <ele>25</ele>
        <time>2019-08-15T09:50:55.000Z</time>
      </trkpt>
      <trkpt lat="47.27436" lon="-2.30082">
        <ele>25</ele>
        <time>2019-08-15T09:50:56.000Z</time>
      </trkpt>
      <trkpt lat="47.2744" lon="-2.30098">
        <ele>25</ele>
        <time>2019-08-15T09:50:58.000Z</time>
      </trkpt>
      <trkpt lat="47.27446" lon="-2.30121">
        <ele>25</ele>
        <time>2019-08-15T09:51:01.000Z</time>
      </trkpt>
      <trkpt lat="47.27453" lon="-2.30153">
        <ele>25</ele>
        <time>2019-08-15T09:51:05.000Z</time>
      </trkpt>
      <trkpt lat="47.27454" lon="-2.3016">
        <ele>25</ele>
        <time>2019-08-15T09:51:06.000Z</time>
      </trkpt>
      <trkpt lat="47.27461" lon="-2.30189">
        <ele>24.60000038147</ele>
        <time>2019-08-15T09:51:10.000Z</time>
      </trkpt>
      <trkpt lat="47.27462" lon="-2.30198">
        <ele>24.200000762939</ele>
        <time>2019-08-15T09:51:11.000Z</time>
      </trkpt>
      <trkpt lat="47.27464" lon="-2.30207">
        <ele>23.799999237061</ele>
        <time>2019-08-15T09:51:12.000Z</time>
      </trkpt>
      <trkpt lat="47.27466" lon="-2.30215">
        <ele>23</ele>
        <time>2019-08-15T09:51:13.000Z</time>
      </trkpt>
      <trkpt lat="47.27468" lon="-2.30222">
        <ele>23</ele>
        <time>2019-08-15T09:51:14.000Z</time>
      </trkpt>
      <trkpt lat="47.27474" lon="-2.30245">
        <ele>23</ele>
        <time>2019-08-15T09:51:17.000Z</time>
      </trkpt>
      <trkpt lat="47.2748" lon="-2.3027">
        <ele>22.39999961853</ele>
        <time>2019-08-15T09:51:20.000Z</time>
      </trkpt>
      <trkpt lat="47.27482" lon="-2.30279">
        <ele>22</ele>
        <time>2019-08-15T09:51:21.000Z</time>
      </trkpt>
      <trkpt lat="47.27484" lon="-2.30289">
        <ele>21.39999961853</ele>
        <time>2019-08-15T09:51:22.000Z</time>
      </trkpt>
      <trkpt lat="47.27485" lon="-2.30298">
        <ele>21</ele>
        <time>2019-08-15T09:51:23.000Z</time>
      </trkpt>
      <trkpt lat="47.27487" lon="-2.30308">
        <ele>20.39999961853</ele>
        <time>2019-08-15T09:51:24.000Z</time>
      </trkpt>
      <trkpt lat="47.27491" lon="-2.30327">
        <ele>20.39999961853</ele>
        <time>2019-08-15T09:51:26.000Z</time>
      </trkpt>
      <trkpt lat="47.27499" lon="-2.30369">
        <ele>20</ele>
        <time>2019-08-15T09:51:30.000Z</time>
      </trkpt>
      <trkpt lat="47.27501" lon="-2.30379">
        <ele>19.60000038147</ele>
        <time>2019-08-15T09:51:31.000Z</time>
      </trkpt>
      <trkpt lat="47.27502" lon="-2.30389">
        <ele>19</ele>
        <time>2019-08-15T09:51:32.000Z</time>
      </trkpt>
      <trkpt lat="47.27503" lon="-2.30399">
        <ele>18.60000038147</ele>
        <time>2019-08-15T09:51:33.000Z</time>
      </trkpt>
      <trkpt lat="47.27504" lon="-2.30409">
        <ele>18.200000762939</ele>
        <time>2019-08-15T09:51:34.000Z</time>
      </trkpt>
      <trkpt lat="47.27506" lon="-2.30429">
        <ele>18.200000762939</ele>
        <time>2019-08-15T09:51:36.000Z</time>
      </trkpt>
      <trkpt lat="47.2751" lon="-2.30447">
        <ele>17.200000762939</ele>
        <time>2019-08-15T09:51:38.000Z</time>
      </trkpt>
      <trkpt lat="47.27512" lon="-2.30456">
        <ele>16.799999237061</ele>
        <time>2019-08-15T09:51:39.000Z</time>
      </trkpt>
      <trkpt lat="47.27513" lon="-2.30464">
        <ele>16.39999961853</ele>
        <time>2019-08-15T09:51:40.000Z</time>
      </trkpt>
      <trkpt lat="47.27515" lon="-2.30473">
        <ele>16</ele>
        <time>2019-08-15T09:51:41.000Z</time>
      </trkpt>
      <trkpt lat="47.27522" lon="-2.30507">
        <ele>16</ele>
        <time>2019-08-15T09:51:45.000Z</time>
      </trkpt>
      <trkpt lat="47.27528" lon="-2.30532">
        <ele>16</ele>
        <time>2019-08-15T09:51:48.000Z</time>
      </trkpt>
      <trkpt lat="47.27538" lon="-2.30562">
        <ele>16</ele>
        <time>2019-08-15T09:51:52.000Z</time>
      </trkpt>
      <trkpt lat="47.27546" lon="-2.30585">
        <ele>15.60000038147</ele>
        <time>2019-08-15T09:51:56.000Z</time>
      </trkpt>
      <trkpt lat="47.27546" lon="-2.30587">
        <ele>15.199999809265</ele>
        <time>2019-08-15T09:51:57.000Z</time>
      </trkpt>
      <trkpt lat="47.27547" lon="-2.3059">
        <ele>14.800000190735</ele>
        <time>2019-08-15T09:51:58.000Z</time>
      </trkpt>
      <trkpt lat="47.27547" lon="-2.30592">
        <ele>14.39999961853</ele>
        <time>2019-08-15T09:51:59.000Z</time>
      </trkpt>
      <trkpt lat="47.27547" lon="-2.30594">
        <ele>14</ele>
        <time>2019-08-15T09:52:00.000Z</time>
      </trkpt>
      <trkpt lat="47.27547" lon="-2.30597">
        <ele>14</ele>
        <time>2019-08-15T09:52:01.000Z</time>
      </trkpt>
      <trkpt lat="47.27548" lon="-2.30605">
        <ele>14</ele>
        <time>2019-08-15T09:52:04.000Z</time>
      </trkpt>
      <trkpt lat="47.27549" lon="-2.30611">
        <ele>14</ele>
        <time>2019-08-15T09:52:06.000Z</time>
      </trkpt>
      <trkpt lat="47.27552" lon="-2.3063">
        <ele>14</ele>
        <time>2019-08-15T09:52:11.000Z</time>
      </trkpt>
      <trkpt lat="47.2756" lon="-2.30662">
        <ele>14</ele>
        <time>2019-08-15T09:52:18.000Z</time>
      </trkpt>
      <trkpt lat="47.27566" lon="-2.30685">
        <ele>14</ele>
        <time>2019-08-15T09:52:23.000Z</time>
      </trkpt>
      <trkpt lat="47.27574" lon="-2.30727">
        <ele>14</ele>
        <time>2019-08-15T09:52:31.000Z</time>
      </trkpt>
      <trkpt lat="47.27582" lon="-2.3076">
        <ele>14</ele>
        <time>2019-08-15T09:52:37.000Z</time>
      </trkpt>
      <trkpt lat="47.27586" lon="-2.30771">
        <ele>14</ele>
        <time>2019-08-15T09:52:39.000Z</time>
      </trkpt>
      <trkpt lat="47.27588" lon="-2.30776">
        <ele>14.39999961853</ele>
        <time>2019-08-15T09:52:40.000Z</time>
      </trkpt>
      <trkpt lat="47.27591" lon="-2.30782">
        <ele>14.800000190735</ele>
        <time>2019-08-15T09:52:41.000Z</time>
      </trkpt>
      <trkpt lat="47.27592" lon="-2.30787">
        <ele>15.199999809265</ele>
        <time>2019-08-15T09:52:42.000Z</time>
      </trkpt>
      <trkpt lat="47.27594" lon="-2.30793">
        <ele>15.60000038147</ele>
        <time>2019-08-15T09:52:43.000Z</time>
      </trkpt>
      <trkpt lat="47.27597" lon="-2.30798">
        <ele>16</ele>
        <time>2019-08-15T09:52:44.000Z</time>
      </trkpt>
      <trkpt lat="47.27599" lon="-2.30803">
        <ele>16</ele>
        <time>2019-08-15T09:52:45.000Z</time>
      </trkpt>
      <trkpt lat="47.27607" lon="-2.30818">
        <ele>16</ele>
        <time>2019-08-15T09:52:48.000Z</time>
      </trkpt>
      <trkpt lat="47.27613" lon="-2.30834">
        <ele>16</ele>
        <time>2019-08-15T09:52:51.000Z</time>
      </trkpt>
      <trkpt lat="47.27624" lon="-2.30862">
        <ele>16</ele>
        <time>2019-08-15T09:52:57.000Z</time>
      </trkpt>
      <trkpt lat="47.27636" lon="-2.30888">
        <ele>16</ele>
        <time>2019-08-15T09:53:03.000Z</time>
      </trkpt>
      <trkpt lat="47.27644" lon="-2.30903">
        <ele>16</ele>
        <time>2019-08-15T09:53:06.000Z</time>
      </trkpt>
      <trkpt lat="47.2765" lon="-2.30914">
        <ele>16</ele>
        <time>2019-08-15T09:53:08.000Z</time>
      </trkpt>
      <trkpt lat="47.27663" lon="-2.30946">
        <ele>16</ele>
        <time>2019-08-15T09:53:14.000Z</time>
      </trkpt>
      <trkpt lat="47.27675" lon="-2.30979">
        <ele>16</ele>
        <time>2019-08-15T09:53:20.000Z</time>
      </trkpt>
      <trkpt lat="47.27685" lon="-2.31005">
        <ele>16</ele>
        <time>2019-08-15T09:53:25.000Z</time>
      </trkpt>
      <trkpt lat="47.27699" lon="-2.31036">
        <ele>16</ele>
        <time>2019-08-15T09:53:32.000Z</time>
      </trkpt>
      <trkpt lat="47.27709" lon="-2.31061">
        <ele>16</ele>
        <time>2019-08-15T09:53:38.000Z</time>
      </trkpt>
      <trkpt lat="47.27713" lon="-2.31079">
        <ele>16</ele>
        <time>2019-08-15T09:53:42.000Z</time>
      </trkpt>
      <trkpt lat="47.27712" lon="-2.31085">
        <ele>16</ele>
        <time>2019-08-15T09:53:43.000Z</time>
      </trkpt>
      <trkpt lat="47.27709" lon="-2.31095">
        <ele>16</ele>
        <time>2019-08-15T09:53:45.000Z</time>
      </trkpt>
      <trkpt lat="47.27703" lon="-2.31115">
        <ele>16</ele>
        <time>2019-08-15T09:53:49.000Z</time>
      </trkpt>
      <trkpt lat="47.27694" lon="-2.31151">
        <ele>16</ele>
        <time>2019-08-15T09:53:56.000Z</time>
      </trkpt>
      <trkpt lat="47.2769" lon="-2.31167">
        <ele>15.60000038147</ele>
        <time>2019-08-15T09:53:59.000Z</time>
      </trkpt>
      <trkpt lat="47.27688" lon="-2.31172">
        <ele>15.199999809265</ele>
        <time>2019-08-15T09:54:00.000Z</time>
      </trkpt>
      <trkpt lat="47.27687" lon="-2.31177">
        <ele>14.800000190735</ele>
        <time>2019-08-15T09:54:01.000Z</time>
      </trkpt>
      <trkpt lat="47.27685" lon="-2.31183">
        <ele>14.39999961853</ele>
        <time>2019-08-15T09:54:02.000Z</time>
      </trkpt>
      <trkpt lat="47.27684" lon="-2.31188">
        <ele>14</ele>
        <time>2019-08-15T09:54:03.000Z</time>
      </trkpt>
      <trkpt lat="47.27679" lon="-2.31216">
        <ele>14</ele>
        <time>2019-08-15T09:54:07.000Z</time>
      </trkpt>
      <trkpt lat="47.27678" lon="-2.31223">
        <ele>14</ele>
        <time>2019-08-15T09:54:08.000Z</time>
      </trkpt>
      <trkpt lat="47.27667" lon="-2.31266">
        <ele>14</ele>
        <time>2019-08-15T09:54:14.000Z</time>
      </trkpt>
      <trkpt lat="47.27658" lon="-2.31301">
        <ele>13.60000038147</ele>
        <time>2019-08-15T09:54:19.000Z</time>
      </trkpt>
      <trkpt lat="47.27656" lon="-2.31308">
        <ele>13.199999809265</ele>
        <time>2019-08-15T09:54:20.000Z</time>
      </trkpt>
      <trkpt lat="47.27654" lon="-2.31315">
        <ele>12.60000038147</ele>
        <time>2019-08-15T09:54:21.000Z</time>
      </trkpt>
      <trkpt lat="47.27652" lon="-2.31323">
        <ele>12.199999809265</ele>
        <time>2019-08-15T09:54:22.000Z</time>
      </trkpt>
      <trkpt lat="47.27649" lon="-2.3133">
        <ele>11.800000190735</ele>
        <time>2019-08-15T09:54:23.000Z</time>
      </trkpt>
      <trkpt lat="47.27636" lon="-2.31375">
        <ele>11.800000190735</ele>
        <time>2019-08-15T09:54:29.000Z</time>
      </trkpt>
      <trkpt lat="47.27629" lon="-2.31399">
        <ele>11.39999961853</ele>
        <time>2019-08-15T09:54:32.000Z</time>
      </trkpt>
      <trkpt lat="47.27627" lon="-2.31408">
        <ele>11</ele>
        <time>2019-08-15T09:54:33.000Z</time>
      </trkpt>
      <trkpt lat="47.27625" lon="-2.31416">
        <ele>10.60000038147</ele>
        <time>2019-08-15T09:54:34.000Z</time>
      </trkpt>
      <trkpt lat="47.27623" lon="-2.31425">
        <ele>10.199999809265</ele>
        <time>2019-08-15T09:54:35.000Z</time>
      </trkpt>
      <trkpt lat="47.27621" lon="-2.31433">
        <ele>9.6000003814697</ele>
        <time>2019-08-15T09:54:36.000Z</time>
      </trkpt>
      <trkpt lat="47.27612" lon="-2.31473">
        <ele>9.6000003814697</ele>
        <time>2019-08-15T09:54:41.000Z</time>
      </trkpt>
      <trkpt lat="47.27599" lon="-2.31525">
        <ele>9.6000003814697</ele>
        <time>2019-08-15T09:54:48.000Z</time>
      </trkpt>
      <trkpt lat="47.27582" lon="-2.31575">
        <ele>9.6000003814697</ele>
        <time>2019-08-15T09:54:55.000Z</time>
      </trkpt>
      <trkpt lat="47.27576" lon="-2.31589">
        <ele>9.1999998092651</ele>
        <time>2019-08-15T09:54:57.000Z</time>
      </trkpt>
      <trkpt lat="47.27574" lon="-2.31596">
        <ele>8.8000001907349</ele>
        <time>2019-08-15T09:54:58.000Z</time>
      </trkpt>
      <trkpt lat="47.27572" lon="-2.31603">
        <ele>8.3999996185303</ele>
        <time>2019-08-15T09:54:59.000Z</time>
      </trkpt>
      <trkpt lat="47.2757" lon="-2.3161">
        <ele>8</ele>
        <time>2019-08-15T09:55:00.000Z</time>
      </trkpt>
      <trkpt lat="47.27568" lon="-2.31617">
        <ele>7.5999999046326</ele>
        <time>2019-08-15T09:55:01.000Z</time>
      </trkpt>
      <trkpt lat="47.27555" lon="-2.31664">
        <ele>7.5999999046326</ele>
        <time>2019-08-15T09:55:08.000Z</time>
      </trkpt>
      <trkpt lat="47.27542" lon="-2.31714">
        <ele>7.5999999046326</ele>
        <time>2019-08-15T09:55:14.000Z</time>
      </trkpt>
      <trkpt lat="47.2753" lon="-2.3177">
        <ele>7.1999998092651</ele>
        <time>2019-08-15T09:55:20.000Z</time>
      </trkpt>
      <trkpt lat="47.27528" lon="-2.31779">
        <ele>6.8000001907349</ele>
        <time>2019-08-15T09:55:21.000Z</time>
      </trkpt>
      <trkpt lat="47.27526" lon="-2.31788">
        <ele>6.4000000953674</ele>
        <time>2019-08-15T09:55:22.000Z</time>
      </trkpt>
      <trkpt lat="47.27524" lon="-2.31796">
        <ele>6</ele>
        <time>2019-08-15T09:55:23.000Z</time>
      </trkpt>
      <trkpt lat="47.27522" lon="-2.31803">
        <ele>5.5999999046326</ele>
        <time>2019-08-15T09:55:24.000Z</time>
      </trkpt>
      <trkpt lat="47.27517" lon="-2.31818">
        <ele>5.5999999046326</ele>
        <time>2019-08-15T09:55:26.000Z</time>
      </trkpt>
      <trkpt lat="47.275" lon="-2.31868">
        <ele>5.1999998092651</ele>
        <time>2019-08-15T09:55:33.000Z</time>
      </trkpt>
      <trkpt lat="47.27498" lon="-2.31876">
        <ele>4.8000001907349</ele>
        <time>2019-08-15T09:55:34.000Z</time>
      </trkpt>
      <trkpt lat="47.27495" lon="-2.31884">
        <ele>4.4000000953674</ele>
        <time>2019-08-15T09:55:35.000Z</time>
      </trkpt>
      <trkpt lat="47.27492" lon="-2.31891">
        <ele>4</ele>
        <time>2019-08-15T09:55:36.000Z</time>
      </trkpt>
      <trkpt lat="47.27489" lon="-2.31899">
        <ele>3.5999999046326</ele>
        <time>2019-08-15T09:55:37.000Z</time>
      </trkpt>
      <trkpt lat="47.2748" lon="-2.31921">
        <ele>3.5999999046326</ele>
        <time>2019-08-15T09:55:40.000Z</time>
      </trkpt>
      <trkpt lat="47.27459" lon="-2.3197">
        <ele>3.5999999046326</ele>
        <time>2019-08-15T09:55:47.000Z</time>
      </trkpt>
      <trkpt lat="47.2745" lon="-2.3199">
        <ele>3</ele>
        <time>2019-08-15T09:55:50.000Z</time>
      </trkpt>
      <trkpt lat="47.27447" lon="-2.31997">
        <ele>2.5999999046326</ele>
        <time>2019-08-15T09:55:51.000Z</time>
      </trkpt>
      <trkpt lat="47.27444" lon="-2.32004">
        <ele>2.2000000476837</ele>
        <time>2019-08-15T09:55:52.000Z</time>
      </trkpt>
      <trkpt lat="47.27441" lon="-2.32011">
        <ele>1.7999999523163</ele>
        <time>2019-08-15T09:55:53.000Z</time>
      </trkpt>
      <trkpt lat="47.27438" lon="-2.32018">
        <ele>1.3999999761581</ele>
        <time>2019-08-15T09:55:54.000Z</time>
      </trkpt>
      <trkpt lat="47.27432" lon="-2.32031">
        <ele>1.3999999761581</ele>
        <time>2019-08-15T09:55:56.000Z</time>
      </trkpt>
      <trkpt lat="47.27422" lon="-2.32039">
        <ele>1.3999999761581</ele>
        <time>2019-08-15T09:55:58.000Z</time>
      </trkpt>
      <trkpt lat="47.27407" lon="-2.32039">
        <ele>1.3999999761581</ele>
        <time>2019-08-15T09:56:01.000Z</time>
      </trkpt>
      <trkpt lat="47.27389" lon="-2.32024">
        <ele>1.3999999761581</ele>
        <time>2019-08-15T09:56:05.000Z</time>
      </trkpt>
      <trkpt lat="47.27362" lon="-2.32001">
        <ele>1.3999999761581</ele>
        <time>2019-08-15T09:56:11.000Z</time>
      </trkpt>
      <trkpt lat="47.27348" lon="-2.3199">
        <ele>1.3999999761581</ele>
        <time>2019-08-15T09:56:15.000Z</time>
      </trkpt>
      <trkpt lat="47.27346" lon="-2.31991">
        <ele>1.3999999761581</ele>
        <time>2019-08-15T09:56:16.000Z</time>
      </trkpt>
      <trkpt lat="47.27347" lon="-2.32003">
        <ele>1.3999999761581</ele>
        <time>2019-08-15T09:56:19.000Z</time>
      </trkpt>
      <trkpt lat="47.27355" lon="-2.32018">
        <ele>1.3999999761581</ele>
        <time>2019-08-15T09:56:23.000Z</time>
      </trkpt>
      <trkpt lat="47.27363" lon="-2.32031">
        <ele>1.3999999761581</ele>
        <time>2019-08-15T09:56:27.000Z</time>
      </trkpt>
      <trkpt lat="47.27368" lon="-2.32039">
        <ele>1.3999999761581</ele>
        <time>2019-08-15T09:56:30.000Z</time>
      </trkpt>
      <trkpt lat="47.27376" lon="-2.3205">
        <ele>1.3999999761581</ele>
        <time>2019-08-15T09:56:35.000Z</time>
      </trkpt>
      <trkpt lat="47.27391" lon="-2.32066">
        <ele>1.3999999761581</ele>
        <time>2019-08-15T09:56:41.000Z</time>
      </trkpt>
      <trkpt lat="47.27405" lon="-2.32097">
        <ele>1.3999999761581</ele>
        <time>2019-08-15T09:56:47.000Z</time>
      </trkpt>
      <trkpt lat="47.27405" lon="-2.32117">
        <ele>1.3999999761581</ele>
        <time>2019-08-15T09:56:51.000Z</time>
      </trkpt>
      <trkpt lat="47.27402" lon="-2.32152">
        <ele>1.3999999761581</ele>
        <time>2019-08-15T09:56:57.000Z</time>
      </trkpt>
      <trkpt lat="47.27397" lon="-2.32194">
        <ele>1.3999999761581</ele>
        <time>2019-08-15T09:57:03.000Z</time>
      </trkpt>
      <trkpt lat="47.27392" lon="-2.32243">
        <ele>1.3999999761581</ele>
        <time>2019-08-15T09:57:10.000Z</time>
      </trkpt>
      <trkpt lat="47.27386" lon="-2.32267">
        <ele>1.3999999761581</ele>
        <time>2019-08-15T09:57:14.000Z</time>
      </trkpt>
      <trkpt lat="47.27378" lon="-2.32297">
        <ele>1.7999999523163</ele>
        <time>2019-08-15T09:57:20.000Z</time>
      </trkpt>
      <trkpt lat="47.27377" lon="-2.32302">
        <ele>2.2000000476837</ele>
        <time>2019-08-15T09:57:21.000Z</time>
      </trkpt>
      <trkpt lat="47.27376" lon="-2.32307">
        <ele>2.5999999046326</ele>
        <time>2019-08-15T09:57:22.000Z</time>
      </trkpt>
      <trkpt lat="47.27375" lon="-2.32312">
        <ele>3</ele>
        <time>2019-08-15T09:57:23.000Z</time>
      </trkpt>
      <trkpt lat="47.27374" lon="-2.32317">
        <ele>3.4000000953674</ele>
        <time>2019-08-15T09:57:24.000Z</time>
      </trkpt>
      <trkpt lat="47.27371" lon="-2.32332">
        <ele>3.4000000953674</ele>
        <time>2019-08-15T09:57:27.000Z</time>
      </trkpt>
      <trkpt lat="47.27364" lon="-2.3237">
        <ele>3.4000000953674</ele>
        <time>2019-08-15T09:57:34.000Z</time>
      </trkpt>
      <trkpt lat="47.27354" lon="-2.3241">
        <ele>3.4000000953674</ele>
        <time>2019-08-15T09:57:41.000Z</time>
      </trkpt>
      <trkpt lat="47.27347" lon="-2.3243">
        <ele>3</ele>
        <time>2019-08-15T09:57:45.000Z</time>
      </trkpt>
      <trkpt lat="47.27346" lon="-2.32435">
        <ele>2.5999999046326</ele>
        <time>2019-08-15T09:57:46.000Z</time>
      </trkpt>
      <trkpt lat="47.27344" lon="-2.32439">
        <ele>2.2000000476837</ele>
        <time>2019-08-15T09:57:47.000Z</time>
      </trkpt>
      <trkpt lat="47.27342" lon="-2.32444">
        <ele>1.3999999761581</ele>
        <time>2019-08-15T09:57:48.000Z</time>
      </trkpt>
      <trkpt lat="47.27337" lon="-2.32454">
        <ele>1.3999999761581</ele>
        <time>2019-08-15T09:57:50.000Z</time>
      </trkpt>
      <trkpt lat="47.2733" lon="-2.32468">
        <ele>1.3999999761581</ele>
        <time>2019-08-15T09:57:53.000Z</time>
      </trkpt>
      <trkpt lat="47.27325" lon="-2.32477">
        <ele>1.3999999761581</ele>
        <time>2019-08-15T09:57:55.000Z</time>
      </trkpt>
      <trkpt lat="47.27316" lon="-2.32494">
        <ele>1.3999999761581</ele>
        <time>2019-08-15T09:57:59.000Z</time>
      </trkpt>
      <trkpt lat="47.27298" lon="-2.32524">
        <ele>1.3999999761581</ele>
        <time>2019-08-15T09:58:06.000Z</time>
      </trkpt>
      <trkpt lat="47.27276" lon="-2.32555">
        <ele>1.3999999761581</ele>
        <time>2019-08-15T09:58:13.000Z</time>
      </trkpt>
      <trkpt lat="47.27258" lon="-2.32575">
        <ele>1.7999999523163</ele>
        <time>2019-08-15T09:58:18.000Z</time>
      </trkpt>
      <trkpt lat="47.27254" lon="-2.32579">
        <ele>2.2000000476837</ele>
        <time>2019-08-15T09:58:19.000Z</time>
      </trkpt>
      <trkpt lat="47.27251" lon="-2.32583">
        <ele>2.5999999046326</ele>
        <time>2019-08-15T09:58:20.000Z</time>
      </trkpt>
      <trkpt lat="47.27247" lon="-2.32587">
        <ele>3</ele>
        <time>2019-08-15T09:58:21.000Z</time>
      </trkpt>
      <trkpt lat="47.27244" lon="-2.3259">
        <ele>3.4000000953674</ele>
        <time>2019-08-15T09:58:22.000Z</time>
      </trkpt>
      <trkpt lat="47.27221" lon="-2.32612">
        <ele>3.4000000953674</ele>
        <time>2019-08-15T09:58:28.000Z</time>
      </trkpt>
      <trkpt lat="47.27196" lon="-2.32636">
        <ele>3.4000000953674</ele>
        <time>2019-08-15T09:58:35.000Z</time>
      </trkpt>
      <trkpt lat="47.27188" lon="-2.32643">
        <ele>3.4000000953674</ele>
        <time>2019-08-15T09:58:37.000Z</time>
      </trkpt>
      <trkpt lat="47.27177" lon="-2.32654">
        <ele>3.4000000953674</ele>
        <time>2019-08-15T09:58:40.000Z</time>
      </trkpt>
      <trkpt lat="47.27173" lon="-2.32656">
        <ele>3.4000000953674</ele>
        <time>2019-08-15T09:58:41.000Z</time>
      </trkpt>
      <trkpt lat="47.27165" lon="-2.32663">
        <ele>3.4000000953674</ele>
        <time>2019-08-15T09:58:43.000Z</time>
      </trkpt>
      <trkpt lat="47.27159" lon="-2.32671">
        <ele>3.4000000953674</ele>
        <time>2019-08-15T09:58:45.000Z</time>
      </trkpt>
      <trkpt lat="47.27152" lon="-2.32678">
        <ele>3.4000000953674</ele>
        <time>2019-08-15T09:58:47.000Z</time>
      </trkpt>
      <trkpt lat="47.27139" lon="-2.32692">
        <ele>3.4000000953674</ele>
        <time>2019-08-15T09:58:51.000Z</time>
      </trkpt>
      <trkpt lat="47.27132" lon="-2.32706">
        <ele>3.4000000953674</ele>
        <time>2019-08-15T09:58:54.000Z</time>
      </trkpt>
      <trkpt lat="47.27122" lon="-2.32714">
        <ele>3.4000000953674</ele>
        <time>2019-08-15T09:58:57.000Z</time>
      </trkpt>
      <trkpt lat="47.27119" lon="-2.32717">
        <ele>3.4000000953674</ele>
        <time>2019-08-15T09:58:58.000Z</time>
      </trkpt>
      <trkpt lat="47.27097" lon="-2.32739">
        <ele>3.4000000953674</ele>
        <time>2019-08-15T09:59:05.000Z</time>
      </trkpt>
      <trkpt lat="47.27068" lon="-2.32764">
        <ele>3.4000000953674</ele>
        <time>2019-08-15T09:59:12.000Z</time>
      </trkpt>
      <trkpt lat="47.27039" lon="-2.3279">
        <ele>3.4000000953674</ele>
        <time>2019-08-15T09:59:19.000Z</time>
      </trkpt>
      <trkpt lat="47.27011" lon="-2.32815">
        <ele>3.4000000953674</ele>
        <time>2019-08-15T09:59:26.000Z</time>
      </trkpt>
      <trkpt lat="47.26981" lon="-2.32845">
        <ele>3.4000000953674</ele>
        <time>2019-08-15T09:59:34.000Z</time>
      </trkpt>
      <trkpt lat="47.26949" lon="-2.32874">
        <ele>3.4000000953674</ele>
        <time>2019-08-15T09:59:42.000Z</time>
      </trkpt>
      <trkpt lat="47.26922" lon="-2.329">
        <ele>3.4000000953674</ele>
        <time>2019-08-15T09:59:49.000Z</time>
      </trkpt>
      <trkpt lat="47.26918" lon="-2.32903">
        <ele>3.4000000953674</ele>
        <time>2019-08-15T09:59:50.000Z</time>
      </trkpt>
      <trkpt lat="47.26901" lon="-2.32918">
        <ele>3.4000000953674</ele>
        <time>2019-08-15T09:59:54.000Z</time>
      </trkpt>
      <trkpt lat="47.26879" lon="-2.32938">
        <ele>3.4000000953674</ele>
        <time>2019-08-15T10:00:00.000Z</time>
      </trkpt>
      <trkpt lat="47.26876" lon="-2.32941">
        <ele>3.4000000953674</ele>
        <time>2019-08-15T10:00:01.000Z</time>
      </trkpt>
      <trkpt lat="47.26851" lon="-2.32964">
        <ele>3.4000000953674</ele>
        <time>2019-08-15T10:00:08.000Z</time>
      </trkpt>
      <trkpt lat="47.26841" lon="-2.32972">
        <ele>3</ele>
        <time>2019-08-15T10:00:10.000Z</time>
      </trkpt>
      <trkpt lat="47.26837" lon="-2.32976">
        <ele>2.5999999046326</ele>
        <time>2019-08-15T10:00:11.000Z</time>
      </trkpt>
      <trkpt lat="47.26833" lon="-2.3298">
        <ele>2.2000000476837</ele>
        <time>2019-08-15T10:00:12.000Z</time>
      </trkpt>
      <trkpt lat="47.26828" lon="-2.32984">
        <ele>1.7999999523163</ele>
        <time>2019-08-15T10:00:13.000Z</time>
      </trkpt>
      <trkpt lat="47.26824" lon="-2.32987">
        <ele>1.3999999761581</ele>
        <time>2019-08-15T10:00:14.000Z</time>
      </trkpt>
      <trkpt lat="47.268" lon="-2.33012">
        <ele>1.3999999761581</ele>
        <time>2019-08-15T10:00:20.000Z</time>
      </trkpt>
      <trkpt lat="47.26767" lon="-2.33045">
        <ele>1.3999999761581</ele>
        <time>2019-08-15T10:00:28.000Z</time>
      </trkpt>
      <trkpt lat="47.26764" lon="-2.33049">
        <ele>1.3999999761581</ele>
        <time>2019-08-15T10:00:29.000Z</time>
      </trkpt>
      <trkpt lat="47.26744" lon="-2.33065">
        <ele>1.3999999761581</ele>
        <time>2019-08-15T10:00:35.000Z</time>
      </trkpt>
      <trkpt lat="47.26742" lon="-2.33065">
        <ele>1.3999999761581</ele>
        <time>2019-08-15T10:00:36.000Z</time>
      </trkpt>
      <trkpt lat="47.26737" lon="-2.3306">
        <ele>1.3999999761581</ele>
        <time>2019-08-15T10:00:38.000Z</time>
      </trkpt>
      <trkpt lat="47.26728" lon="-2.33058">
        <ele>1</ele>
        <time>2019-08-15T10:00:41.000Z</time>
      </trkpt>
      <trkpt lat="47.26728" lon="-2.33058">
        <ele>0.60000002384186</ele>
        <time>2019-08-15T10:00:42.000Z</time>
      </trkpt>
      <trkpt lat="47.26726" lon="-2.33061">
        <ele>-0.60000002384186</ele>
        <time>2019-08-15T10:02:36.000Z</time>
      </trkpt>
      <trkpt lat="47.26725" lon="-2.33063">
        <ele>-0.60000002384186</ele>
        <time>2019-08-15T10:02:37.000Z</time>
      </trkpt>
      <trkpt lat="47.26718" lon="-2.33073">
        <ele>-0.60000002384186</ele>
        <time>2019-08-15T10:02:42.000Z</time>
      </trkpt>
      <trkpt lat="47.26711" lon="-2.33081">
        <ele>-0.60000002384186</ele>
        <time>2019-08-15T10:02:45.000Z</time>
      </trkpt>
      <trkpt lat="47.26704" lon="-2.33089">
        <ele>-0.60000002384186</ele>
        <time>2019-08-15T10:02:48.000Z</time>
      </trkpt>
      <trkpt lat="47.26686" lon="-2.33107">
        <ele>-0.60000002384186</ele>
        <time>2019-08-15T10:02:55.000Z</time>
      </trkpt>
      <trkpt lat="47.26667" lon="-2.33123">
        <ele>-0.60000002384186</ele>
        <time>2019-08-15T10:03:01.000Z</time>
      </trkpt>
      <trkpt lat="47.2664" lon="-2.33147">
        <ele>-0.60000002384186</ele>
        <time>2019-08-15T10:03:09.000Z</time>
      </trkpt>
      <trkpt lat="47.26621" lon="-2.33153">
        <ele>-0.60000002384186</ele>
        <time>2019-08-15T10:03:14.000Z</time>
      </trkpt>
      <trkpt lat="47.26598" lon="-2.33152">
        <ele>-0.60000002384186</ele>
        <time>2019-08-15T10:03:20.000Z</time>
      </trkpt>
      <trkpt lat="47.26592" lon="-2.33159">
        <ele>-0.60000002384186</ele>
        <time>2019-08-15T10:03:22.000Z</time>
      </trkpt>
      <trkpt lat="47.26591" lon="-2.33165">
        <ele>-0.60000002384186</ele>
        <time>2019-08-15T10:03:23.000Z</time>
      </trkpt>
      <trkpt lat="47.26583" lon="-2.33186">
        <ele>-0.60000002384186</ele>
        <time>2019-08-15T10:03:27.000Z</time>
      </trkpt>
      <trkpt lat="47.26578" lon="-2.33195">
        <ele>-0.60000002384186</ele>
        <time>2019-08-15T10:03:29.000Z</time>
      </trkpt>
      <trkpt lat="47.2657" lon="-2.33201">
        <ele>-0.60000002384186</ele>
        <time>2019-08-15T10:03:31.000Z</time>
      </trkpt>
      <trkpt lat="47.26559" lon="-2.33208">
        <ele>-0.60000002384186</ele>
        <time>2019-08-15T10:03:34.000Z</time>
      </trkpt>
      <trkpt lat="47.26535" lon="-2.33221">
        <ele>-0.60000002384186</ele>
        <time>2019-08-15T10:03:41.000Z</time>
      </trkpt>
      <trkpt lat="47.26515" lon="-2.33235">
        <ele>-0.60000002384186</ele>
        <time>2019-08-15T10:03:47.000Z</time>
      </trkpt>
      <trkpt lat="47.265" lon="-2.33253">
        <ele>-0.60000002384186</ele>
        <time>2019-08-15T10:03:52.000Z</time>
      </trkpt>
      <trkpt lat="47.26498" lon="-2.33259">
        <ele>-0.60000002384186</ele>
        <time>2019-08-15T10:03:53.000Z</time>
      </trkpt>
      <trkpt lat="47.26502" lon="-2.33279">
        <ele>-0.60000002384186</ele>
        <time>2019-08-15T10:03:57.000Z</time>
      </trkpt>
      <trkpt lat="47.26514" lon="-2.33287">
        <ele>-0.60000002384186</ele>
        <time>2019-08-15T10:04:01.000Z</time>
      </trkpt>
      <trkpt lat="47.26525" lon="-2.33282">
        <ele>-0.60000002384186</ele>
        <time>2019-08-15T10:04:05.000Z</time>
      </trkpt>
      <trkpt lat="47.26527" lon="-2.33282">
        <ele>-0.60000002384186</ele>
        <time>2019-08-15T10:04:06.000Z</time>
      </trkpt>
      <trkpt lat="47.26528" lon="-2.33282">
        <ele>-0.60000002384186</ele>
        <time>2019-08-15T10:04:08.000Z</time>
      </trkpt>
      <trkpt lat="47.2653" lon="-2.33284">
        <ele>-0.60000002384186</ele>
        <time>2019-08-15T10:04:09.000Z</time>
      </trkpt>
      <trkpt lat="47.26535" lon="-2.33295">
        <ele>-0.60000002384186</ele>
        <time>2019-08-15T10:04:13.000Z</time>
      </trkpt>
      <trkpt lat="47.26541" lon="-2.33297">
        <ele>-0.60000002384186</ele>
        <time>2019-08-15T10:04:15.000Z</time>
      </trkpt>
      <trkpt lat="47.26543" lon="-2.33295">
        <ele>-0.60000002384186</ele>
        <time>2019-08-15T10:04:16.000Z</time>
      </trkpt>
      <trkpt lat="47.26557" lon="-2.33281">
        <ele>-0.60000002384186</ele>
        <time>2019-08-15T10:04:21.000Z</time>
      </trkpt>
      <trkpt lat="47.26578" lon="-2.33258">
        <ele>-0.60000002384186</ele>
        <time>2019-08-15T10:04:28.000Z</time>
      </trkpt>
      <trkpt lat="47.26597" lon="-2.33241">
        <ele>-0.60000002384186</ele>
        <time>2019-08-15T10:04:34.000Z</time>
      </trkpt>
      <trkpt lat="47.26606" lon="-2.33231">
        <ele>-0.60000002384186</ele>
        <time>2019-08-15T10:04:37.000Z</time>
      </trkpt>
      <trkpt lat="47.2661" lon="-2.33227">
        <ele>-0.60000002384186</ele>
        <time>2019-08-15T10:04:38.000Z</time>
      </trkpt>
      <trkpt lat="47.26631" lon="-2.33205">
        <ele>-0.60000002384186</ele>
        <time>2019-08-15T10:04:44.000Z</time>
      </trkpt>
      <trkpt lat="47.26638" lon="-2.33198">
        <ele>-0.60000002384186</ele>
        <time>2019-08-15T10:04:46.000Z</time>
      </trkpt>
      <trkpt lat="47.26658" lon="-2.33179">
        <ele>-0.60000002384186</ele>
        <time>2019-08-15T10:04:52.000Z</time>
      </trkpt>
      <trkpt lat="47.26676" lon="-2.33161">
        <ele>-0.60000002384186</ele>
        <time>2019-08-15T10:04:57.000Z</time>
      </trkpt>
      <trkpt lat="47.267" lon="-2.33134">
        <ele>-0.60000002384186</ele>
        <time>2019-08-15T10:05:04.000Z</time>
      </trkpt>
      <trkpt lat="47.26736" lon="-2.33099">
        <ele>-0.60000002384186</ele>
        <time>2019-08-15T10:05:14.000Z</time>
      </trkpt>
      <trkpt lat="47.26751" lon="-2.33086">
        <ele>-0.60000002384186</ele>
        <time>2019-08-15T10:05:19.000Z</time>
      </trkpt>
      <trkpt lat="47.26756" lon="-2.33087">
        <ele>-0.60000002384186</ele>
        <time>2019-08-15T10:05:20.000Z</time>
      </trkpt>
      <trkpt lat="47.26763" lon="-2.33093">
        <ele>-0.60000002384186</ele>
        <time>2019-08-15T10:05:22.000Z</time>
      </trkpt>
      <trkpt lat="47.26767" lon="-2.33112">
        <ele>-0.60000002384186</ele>
        <time>2019-08-15T10:05:25.000Z</time>
      </trkpt>
      <trkpt lat="47.26764" lon="-2.33138">
        <ele>-0.60000002384186</ele>
        <time>2019-08-15T10:05:29.000Z</time>
      </trkpt>
      <trkpt lat="47.26763" lon="-2.33144">
        <ele>-0.60000002384186</ele>
        <time>2019-08-15T10:05:30.000Z</time>
      </trkpt>
      <trkpt lat="47.26757" lon="-2.33169">
        <ele>-0.60000002384186</ele>
        <time>2019-08-15T10:05:34.000Z</time>
      </trkpt>
      <trkpt lat="47.26752" lon="-2.33186">
        <ele>-0.60000002384186</ele>
        <time>2019-08-15T10:05:37.000Z</time>
      </trkpt>
      <trkpt lat="47.2675" lon="-2.33191">
        <ele>-0.60000002384186</ele>
        <time>2019-08-15T10:05:38.000Z</time>
      </trkpt>
      <trkpt lat="47.26741" lon="-2.33219">
        <ele>-0.60000002384186</ele>
        <time>2019-08-15T10:05:43.000Z</time>
      </trkpt>
      <trkpt lat="47.2673" lon="-2.33253">
        <ele>-0.60000002384186</ele>
        <time>2019-08-15T10:05:48.000Z</time>
      </trkpt>
      <trkpt lat="47.26729" lon="-2.33268">
        <ele>-0.60000002384186</ele>
        <time>2019-08-15T10:05:50.000Z</time>
      </trkpt>
      <trkpt lat="47.26735" lon="-2.33297">
        <ele>-0.60000002384186</ele>
        <time>2019-08-15T10:05:54.000Z</time>
      </trkpt>
      <trkpt lat="47.26737" lon="-2.33304">
        <ele>-0.60000002384186</ele>
        <time>2019-08-15T10:05:55.000Z</time>
      </trkpt>
      <trkpt lat="47.26748" lon="-2.33349">
        <ele>-0.60000002384186</ele>
        <time>2019-08-15T10:06:02.000Z</time>
      </trkpt>
      <trkpt lat="47.26751" lon="-2.33376">
        <ele>-0.60000002384186</ele>
        <time>2019-08-15T10:06:06.000Z</time>
      </trkpt>
      <trkpt lat="47.26752" lon="-2.3339">
        <ele>-0.60000002384186</ele>
        <time>2019-08-15T10:06:08.000Z</time>
      </trkpt>
      <trkpt lat="47.26757" lon="-2.3343">
        <ele>-0.60000002384186</ele>
        <time>2019-08-15T10:06:14.000Z</time>
      </trkpt>
      <trkpt lat="47.26762" lon="-2.33482">
        <ele>-0.60000002384186</ele>
        <time>2019-08-15T10:06:22.000Z</time>
      </trkpt>
      <trkpt lat="47.26762" lon="-2.33488">
        <ele>-0.60000002384186</ele>
        <time>2019-08-15T10:06:23.000Z</time>
      </trkpt>
      <trkpt lat="47.26763" lon="-2.33495">
        <ele>-0.60000002384186</ele>
        <time>2019-08-15T10:06:24.000Z</time>
      </trkpt>
      <trkpt lat="47.26767" lon="-2.33508">
        <ele>-0.60000002384186</ele>
        <time>2019-08-15T10:06:26.000Z</time>
      </trkpt>
      <trkpt lat="47.2677" lon="-2.33513">
        <ele>-0.60000002384186</ele>
        <time>2019-08-15T10:06:27.000Z</time>
      </trkpt>
      <trkpt lat="47.26775" lon="-2.33537">
        <ele>-0.60000002384186</ele>
        <time>2019-08-15T10:06:31.000Z</time>
      </trkpt>
      <trkpt lat="47.26777" lon="-2.33557">
        <ele>-0.60000002384186</ele>
        <time>2019-08-15T10:06:34.000Z</time>
      </trkpt>
      <trkpt lat="47.2678" lon="-2.33583">
        <ele>-0.60000002384186</ele>
        <time>2019-08-15T10:06:38.000Z</time>
      </trkpt>
      <trkpt lat="47.2678" lon="-2.33589">
        <ele>-0.60000002384186</ele>
        <time>2019-08-15T10:06:39.000Z</time>
      </trkpt>
      <trkpt lat="47.26778" lon="-2.33627">
        <ele>-0.60000002384186</ele>
        <time>2019-08-15T10:06:45.000Z</time>
      </trkpt>
      <trkpt lat="47.26778" lon="-2.33639">
        <ele>-0.20000000298023</ele>
        <time>2019-08-15T10:06:47.000Z</time>
      </trkpt>
      <trkpt lat="47.26778" lon="-2.33646">
        <ele>0.20000000298023</ele>
        <time>2019-08-15T10:06:48.000Z</time>
      </trkpt>
      <trkpt lat="47.26778" lon="-2.33652">
        <ele>0.60000002384186</ele>
        <time>2019-08-15T10:06:49.000Z</time>
      </trkpt>
      <trkpt lat="47.26778" lon="-2.33657">
        <ele>1</ele>
        <time>2019-08-15T10:06:50.000Z</time>
      </trkpt>
      <trkpt lat="47.26778" lon="-2.33663">
        <ele>1.3999999761581</ele>
        <time>2019-08-15T10:06:51.000Z</time>
      </trkpt>
      <trkpt lat="47.26778" lon="-2.33668">
        <ele>1.3999999761581</ele>
        <time>2019-08-15T10:06:52.000Z</time>
      </trkpt>
      <trkpt lat="47.2678" lon="-2.33697">
        <ele>1.3999999761581</ele>
        <time>2019-08-15T10:06:59.000Z</time>
      </trkpt>
      <trkpt lat="47.26789" lon="-2.33713">
        <ele>1.3999999761581</ele>
        <time>2019-08-15T10:07:05.000Z</time>
      </trkpt>
      <trkpt lat="47.26801" lon="-2.33729">
        <ele>1.7999999523163</ele>
        <time>2019-08-15T10:07:10.000Z</time>
      </trkpt>
      <trkpt lat="47.26804" lon="-2.33732">
        <ele>2.2000000476837</ele>
        <time>2019-08-15T10:07:11.000Z</time>
      </trkpt>
      <trkpt lat="47.26807" lon="-2.33735">
        <ele>2.5999999046326</ele>
        <time>2019-08-15T10:07:12.000Z</time>
      </trkpt>
      <trkpt lat="47.2681" lon="-2.33738">
        <ele>3</ele>
        <time>2019-08-15T10:07:13.000Z</time>
      </trkpt>
      <trkpt lat="47.26813" lon="-2.33742">
        <ele>3.4000000953674</ele>
        <time>2019-08-15T10:07:14.000Z</time>
      </trkpt>
      <trkpt lat="47.26825" lon="-2.33757">
        <ele>3.4000000953674</ele>
        <time>2019-08-15T10:07:18.000Z</time>
      </trkpt>
      <trkpt lat="47.26843" lon="-2.33777">
        <ele>3.4000000953674</ele>
        <time>2019-08-15T10:07:24.000Z</time>
      </trkpt>
      <trkpt lat="47.26844" lon="-2.33782">
        <ele>3.4000000953674</ele>
        <time>2019-08-15T10:07:25.000Z</time>
      </trkpt>
      <trkpt lat="47.26845" lon="-2.33794">
        <ele>3.4000000953674</ele>
        <time>2019-08-15T10:07:27.000Z</time>
      </trkpt>
      <trkpt lat="47.26848" lon="-2.33805">
        <ele>3.4000000953674</ele>
        <time>2019-08-15T10:07:29.000Z</time>
      </trkpt>
      <trkpt lat="47.26852" lon="-2.33822">
        <ele>3.4000000953674</ele>
        <time>2019-08-15T10:07:32.000Z</time>
      </trkpt>
      <trkpt lat="47.26854" lon="-2.33828">
        <ele>3.4000000953674</ele>
        <time>2019-08-15T10:07:33.000Z</time>
      </trkpt>
      <trkpt lat="47.26862" lon="-2.33864">
        <ele>3.4000000953674</ele>
        <time>2019-08-15T10:07:39.000Z</time>
      </trkpt>
      <trkpt lat="47.26864" lon="-2.3387">
        <ele>3.4000000953674</ele>
        <time>2019-08-15T10:07:40.000Z</time>
      </trkpt>
      <trkpt lat="47.26871" lon="-2.33892">
        <ele>4</ele>
        <time>2019-08-15T10:07:44.000Z</time>
      </trkpt>
      <trkpt lat="47.26873" lon="-2.33898">
        <ele>4.4000000953674</ele>
        <time>2019-08-15T10:07:45.000Z</time>
      </trkpt>
      <trkpt lat="47.26874" lon="-2.33904">
        <ele>4.8000001907349</ele>
        <time>2019-08-15T10:07:46.000Z</time>
      </trkpt>
      <trkpt lat="47.26876" lon="-2.3391">
        <ele>5.1999998092651</ele>
        <time>2019-08-15T10:07:47.000Z</time>
      </trkpt>
      <trkpt lat="47.26877" lon="-2.33915">
        <ele>5.5999999046326</ele>
        <time>2019-08-15T10:07:48.000Z</time>
      </trkpt>
      <trkpt lat="47.26891" lon="-2.33966">
        <ele>5.5999999046326</ele>
        <time>2019-08-15T10:07:57.000Z</time>
      </trkpt>
      <trkpt lat="47.269" lon="-2.33986">
        <ele>5.5999999046326</ele>
        <time>2019-08-15T10:08:02.000Z</time>
      </trkpt>
      <trkpt lat="47.26909" lon="-2.3398">
        <ele>5.5999999046326</ele>
        <time>2019-08-15T10:08:05.000Z</time>
      </trkpt>
      <trkpt lat="47.26927" lon="-2.33964">
        <ele>5.5999999046326</ele>
        <time>2019-08-15T10:08:11.000Z</time>
      </trkpt>
      <trkpt lat="47.26933" lon="-2.33966">
        <ele>5.5999999046326</ele>
        <time>2019-08-15T10:08:14.000Z</time>
      </trkpt>
      <trkpt lat="47.26935" lon="-2.33968">
        <ele>5.5999999046326</ele>
        <time>2019-08-15T10:08:15.000Z</time>
      </trkpt>
      <trkpt lat="47.26937" lon="-2.33978">
        <ele>5.5999999046326</ele>
        <time>2019-08-15T10:08:18.000Z</time>
      </trkpt>
      <trkpt lat="47.26939" lon="-2.33987">
        <ele>5.5999999046326</ele>
        <time>2019-08-15T10:08:20.000Z</time>
      </trkpt>
      <trkpt lat="47.26946" lon="-2.34019">
        <ele>5.5999999046326</ele>
        <time>2019-08-15T10:08:26.000Z</time>
      </trkpt>
      <trkpt lat="47.26956" lon="-2.34066">
        <ele>5.5999999046326</ele>
        <time>2019-08-15T10:08:34.000Z</time>
      </trkpt>
      <trkpt lat="47.26968" lon="-2.34119">
        <ele>5.5999999046326</ele>
        <time>2019-08-15T10:08:43.000Z</time>
      </trkpt>
      <trkpt lat="47.26981" lon="-2.34176">
        <ele>5.5999999046326</ele>
        <time>2019-08-15T10:08:52.000Z</time>
      </trkpt>
      <trkpt lat="47.26993" lon="-2.34235">
        <ele>5.5999999046326</ele>
        <time>2019-08-15T10:09:01.000Z</time>
      </trkpt>
      <trkpt lat="47.27007" lon="-2.34288">
        <ele>5.5999999046326</ele>
        <time>2019-08-15T10:09:10.000Z</time>
      </trkpt>
      <trkpt lat="47.27006" lon="-2.34306">
        <ele>5.5999999046326</ele>
        <time>2019-08-15T10:09:14.000Z</time>
      </trkpt>
      <trkpt lat="47.27009" lon="-2.34317">
        <ele>5.5999999046326</ele>
        <time>2019-08-15T10:09:18.000Z</time>
      </trkpt>
      <trkpt lat="47.27009" lon="-2.34317">
        <ele>5.5999999046326</ele>
        <time>2019-08-15T10:09:20.000Z</time>
      </trkpt>
      <trkpt lat="47.27011" lon="-2.34319">
        <ele>5.5999999046326</ele>
        <time>2019-08-15T10:09:48.000Z</time>
      </trkpt>
      <trkpt lat="47.27012" lon="-2.34322">
        <ele>5.5999999046326</ele>
        <time>2019-08-15T10:09:49.000Z</time>
      </trkpt>
      <trkpt lat="47.27013" lon="-2.34348">
        <ele>5.5999999046326</ele>
        <time>2019-08-15T10:09:54.000Z</time>
      </trkpt>
      <trkpt lat="47.27022" lon="-2.34386">
        <ele>5.5999999046326</ele>
        <time>2019-08-15T10:10:01.000Z</time>
      </trkpt>
      <trkpt lat="47.27028" lon="-2.34419">
        <ele>5.5999999046326</ele>
        <time>2019-08-15T10:10:07.000Z</time>
      </trkpt>
      <trkpt lat="47.27031" lon="-2.34441">
        <ele>6</ele>
        <time>2019-08-15T10:10:11.000Z</time>
      </trkpt>
      <trkpt lat="47.27031" lon="-2.34446">
        <ele>6.4000000953674</ele>
        <time>2019-08-15T10:10:12.000Z</time>
      </trkpt>
      <trkpt lat="47.27031" lon="-2.34451">
        <ele>6.8000001907349</ele>
        <time>2019-08-15T10:10:13.000Z</time>
      </trkpt>
      <trkpt lat="47.27031" lon="-2.34456">
        <ele>7.4000000953674</ele>
        <time>2019-08-15T10:10:14.000Z</time>
      </trkpt>
      <trkpt lat="47.2703" lon="-2.34462">
        <ele>7.8000001907349</ele>
        <time>2019-08-15T10:10:15.000Z</time>
      </trkpt>
      <trkpt lat="47.2703" lon="-2.3449">
        <ele>7.8000001907349</ele>
        <time>2019-08-15T10:10:21.000Z</time>
      </trkpt>
      <trkpt lat="47.27029" lon="-2.34504">
        <ele>7.8000001907349</ele>
        <time>2019-08-15T10:10:25.000Z</time>
      </trkpt>
      <trkpt lat="47.27028" lon="-2.34506">
        <ele>7.8000001907349</ele>
        <time>2019-08-15T10:10:26.000Z</time>
      </trkpt>
      <trkpt lat="47.27027" lon="-2.34504">
        <ele>7.8000001907349</ele>
        <time>2019-08-15T10:10:28.000Z</time>
      </trkpt>
      <trkpt lat="47.27027" lon="-2.34504">
        <ele>7.8000001907349</ele>
        <time>2019-08-15T10:10:29.000Z</time>
      </trkpt>
      <trkpt lat="47.27028" lon="-2.34488">
        <ele>5.8000001907349</ele>
        <time>2019-08-15T10:36:11.000Z</time>
      </trkpt>
      <trkpt lat="47.27029" lon="-2.34481">
        <ele>5.8000001907349</ele>
        <time>2019-08-15T10:36:13.000Z</time>
      </trkpt>
      <trkpt lat="47.27028" lon="-2.34469">
        <ele>5.8000001907349</ele>
        <time>2019-08-15T10:36:15.000Z</time>
      </trkpt>
      <trkpt lat="47.27028" lon="-2.34457">
        <ele>5.8000001907349</ele>
        <time>2019-08-15T10:36:17.000Z</time>
      </trkpt>
      <trkpt lat="47.27028" lon="-2.34437">
        <ele>5.8000001907349</ele>
        <time>2019-08-15T10:36:20.000Z</time>
      </trkpt>
      <trkpt lat="47.27026" lon="-2.34422">
        <ele>5.8000001907349</ele>
        <time>2019-08-15T10:36:22.000Z</time>
      </trkpt>
      <trkpt lat="47.27023" lon="-2.34409">
        <ele>5.8000001907349</ele>
        <time>2019-08-15T10:36:24.000Z</time>
      </trkpt>
      <trkpt lat="47.27016" lon="-2.34376">
        <ele>5.8000001907349</ele>
        <time>2019-08-15T10:36:29.000Z</time>
      </trkpt>
      <trkpt lat="47.27013" lon="-2.34364">
        <ele>5.8000001907349</ele>
        <time>2019-08-15T10:36:31.000Z</time>
      </trkpt>
      <trkpt lat="47.27007" lon="-2.3434">
        <ele>5.8000001907349</ele>
        <time>2019-08-15T10:36:35.000Z</time>
      </trkpt>
      <trkpt lat="47.27006" lon="-2.34324">
        <ele>5.8000001907349</ele>
        <time>2019-08-15T10:36:39.000Z</time>
      </trkpt>
      <trkpt lat="47.27004" lon="-2.34302">
        <ele>5.8000001907349</ele>
        <time>2019-08-15T10:36:43.000Z</time>
      </trkpt>
      <trkpt lat="47.27004" lon="-2.34295">
        <ele>5.8000001907349</ele>
        <time>2019-08-15T10:36:44.000Z</time>
      </trkpt>
      <trkpt lat="47.27004" lon="-2.3428">
        <ele>5.8000001907349</ele>
        <time>2019-08-15T10:36:46.000Z</time>
      </trkpt>
      <trkpt lat="47.27002" lon="-2.34273">
        <ele>5.8000001907349</ele>
        <time>2019-08-15T10:36:47.000Z</time>
      </trkpt>
      <trkpt lat="47.26989" lon="-2.34216">
        <ele>5.8000001907349</ele>
        <time>2019-08-15T10:36:55.000Z</time>
      </trkpt>
      <trkpt lat="47.26979" lon="-2.34167">
        <ele>5.8000001907349</ele>
        <time>2019-08-15T10:37:02.000Z</time>
      </trkpt>
      <trkpt lat="47.26966" lon="-2.3411">
        <ele>5.8000001907349</ele>
        <time>2019-08-15T10:37:10.000Z</time>
      </trkpt>
      <trkpt lat="47.26958" lon="-2.3407">
        <ele>5.8000001907349</ele>
        <time>2019-08-15T10:37:16.000Z</time>
      </trkpt>
      <trkpt lat="47.26957" lon="-2.34064">
        <ele>5.4000000953674</ele>
        <time>2019-08-15T10:37:17.000Z</time>
      </trkpt>
      <trkpt lat="47.26955" lon="-2.34058">
        <ele>5</ele>
        <time>2019-08-15T10:37:18.000Z</time>
      </trkpt>
      <trkpt lat="47.26953" lon="-2.34053">
        <ele>4.5999999046326</ele>
        <time>2019-08-15T10:37:19.000Z</time>
      </trkpt>
      <trkpt lat="47.26953" lon="-2.34048">
        <ele>4.1999998092651</ele>
        <time>2019-08-15T10:37:20.000Z</time>
      </trkpt>
      <trkpt lat="47.26952" lon="-2.34041">
        <ele>3.7999999523163</ele>
        <time>2019-08-15T10:37:21.000Z</time>
      </trkpt>
      <trkpt lat="47.26951" lon="-2.34035">
        <ele>3.7999999523163</ele>
        <time>2019-08-15T10:37:22.000Z</time>
      </trkpt>
      <trkpt lat="47.26948" lon="-2.34022">
        <ele>3.7999999523163</ele>
        <time>2019-08-15T10:37:24.000Z</time>
      </trkpt>
      <trkpt lat="47.26935" lon="-2.33968">
        <ele>3.7999999523163</ele>
        <time>2019-08-15T10:37:32.000Z</time>
      </trkpt>
      <trkpt lat="47.26933" lon="-2.33961">
        <ele>3.7999999523163</ele>
        <time>2019-08-15T10:37:33.000Z</time>
      </trkpt>
      <trkpt lat="47.26925" lon="-2.33925">
        <ele>3.7999999523163</ele>
        <time>2019-08-15T10:37:38.000Z</time>
      </trkpt>
      <trkpt lat="47.26914" lon="-2.3388">
        <ele>3.7999999523163</ele>
        <time>2019-08-15T10:37:44.000Z</time>
      </trkpt>
      <trkpt lat="47.26901" lon="-2.33826">
        <ele>3.7999999523163</ele>
        <time>2019-08-15T10:37:51.000Z</time>
      </trkpt>
      <trkpt lat="47.26894" lon="-2.33805">
        <ele>3.7999999523163</ele>
        <time>2019-08-15T10:37:54.000Z</time>
      </trkpt>
      <trkpt lat="47.26888" lon="-2.33794">
        <ele>3.7999999523163</ele>
        <time>2019-08-15T10:37:56.000Z</time>
      </trkpt>
      <trkpt lat="47.26874" lon="-2.33786">
        <ele>3.7999999523163</ele>
        <time>2019-08-15T10:37:59.000Z</time>
      </trkpt>
      <trkpt lat="47.26869" lon="-2.33783">
        <ele>3.7999999523163</ele>
        <time>2019-08-15T10:38:00.000Z</time>
      </trkpt>
      <trkpt lat="47.26842" lon="-2.33769">
        <ele>3.7999999523163</ele>
        <time>2019-08-15T10:38:06.000Z</time>
      </trkpt>
      <trkpt lat="47.26835" lon="-2.33763">
        <ele>3.4000000953674</ele>
        <time>2019-08-15T10:38:08.000Z</time>
      </trkpt>
      <trkpt lat="47.26831" lon="-2.33759">
        <ele>2.7999999523163</ele>
        <time>2019-08-15T10:38:09.000Z</time>
      </trkpt>
      <trkpt lat="47.26827" lon="-2.33755">
        <ele>2.4000000953674</ele>
        <time>2019-08-15T10:38:10.000Z</time>
      </trkpt>
      <trkpt lat="47.26823" lon="-2.3375">
        <ele>1.3999999761581</ele>
        <time>2019-08-15T10:38:11.000Z</time>
      </trkpt>
      <trkpt lat="47.26819" lon="-2.33746">
        <ele>1.3999999761581</ele>
        <time>2019-08-15T10:38:12.000Z</time>
      </trkpt>
      <trkpt lat="47.26783" lon="-2.33707">
        <ele>1.3999999761581</ele>
        <time>2019-08-15T10:38:21.000Z</time>
      </trkpt>
      <trkpt lat="47.26775" lon="-2.33687">
        <ele>1.3999999761581</ele>
        <time>2019-08-15T10:38:24.000Z</time>
      </trkpt>
      <trkpt lat="47.26776" lon="-2.33651">
        <ele>1.3999999761581</ele>
        <time>2019-08-15T10:38:28.000Z</time>
      </trkpt>
      <trkpt lat="47.26777" lon="-2.33593">
        <ele>1.3999999761581</ele>
        <time>2019-08-15T10:38:34.000Z</time>
      </trkpt>
      <trkpt lat="47.26776" lon="-2.33555">
        <ele>1.3999999761581</ele>
        <time>2019-08-15T10:38:38.000Z</time>
      </trkpt>
      <trkpt lat="47.26774" lon="-2.33537">
        <ele>1</ele>
        <time>2019-08-15T10:38:40.000Z</time>
      </trkpt>
      <trkpt lat="47.26772" lon="-2.33528">
        <ele>0.60000002384186</ele>
        <time>2019-08-15T10:38:41.000Z</time>
      </trkpt>
      <trkpt lat="47.2677" lon="-2.33519">
        <ele>3.7</ele>
        <time>2019-08-15T10:38:42.000Z</time>
      </trkpt>
      <trkpt lat="47.26768" lon="-2.3351">
        <ele>-0.40000000596046</ele>
        <time>2019-08-15T10:38:43.000Z</time>
      </trkpt>
      <trkpt lat="47.26767" lon="-2.33501">
        <ele>-0.80000001192093</ele>
        <time>2019-08-15T10:38:44.000Z</time>
      </trkpt>
      <trkpt lat="47.26765" lon="-2.33484">
        <ele>-0.80000001192093</ele>
        <time>2019-08-15T10:38:46.000Z</time>
      </trkpt>
      <trkpt lat="47.26757" lon="-2.3342">
        <ele>-0.80000001192093</ele>
        <time>2019-08-15T10:38:53.000Z</time>
      </trkpt>
      <trkpt lat="47.26751" lon="-2.3337">
        <ele>-0.80000001192093</ele>
        <time>2019-08-15T10:38:59.000Z</time>
      </trkpt>
      <trkpt lat="47.26741" lon="-2.33317">
        <ele>-0.80000001192093</ele>
        <time>2019-08-15T10:39:06.000Z</time>
      </trkpt>
      <trkpt lat="47.26729" lon="-2.33272">
        <ele>-0.80000001192093</ele>
        <time>2019-08-15T10:39:12.000Z</time>
      </trkpt>
      <trkpt lat="47.26728" lon="-2.33264">
        <ele>-0.80000001192093</ele>
        <time>2019-08-15T10:39:13.000Z</time>
      </trkpt>
      <trkpt lat="47.26733" lon="-2.3324">
        <ele>-0.80000001192093</ele>
        <time>2019-08-15T10:39:16.000Z</time>
      </trkpt>
      <trkpt lat="47.26735" lon="-2.33232">
        <ele>-0.80000001192093</ele>
        <time>2019-08-15T10:39:17.000Z</time>
      </trkpt>
      <trkpt lat="47.26747" lon="-2.33192">
        <ele>-0.80000001192093</ele>
        <time>2019-08-15T10:39:22.000Z</time>
      </trkpt>
      <trkpt lat="47.26762" lon="-2.33135">
        <ele>-0.80000001192093</ele>
        <time>2019-08-15T10:39:29.000Z</time>
      </trkpt>
      <trkpt lat="47.26763" lon="-2.33118">
        <ele>-0.80000001192093</ele>
        <time>2019-08-15T10:39:31.000Z</time>
      </trkpt>
      <trkpt lat="47.26761" lon="-2.33103">
        <ele>-0.80000001192093</ele>
        <time>2019-08-15T10:39:33.000Z</time>
      </trkpt>
      <trkpt lat="47.26752" lon="-2.33086">
        <ele>-0.80000001192093</ele>
        <time>2019-08-15T10:39:36.000Z</time>
      </trkpt>
      <trkpt lat="47.26744" lon="-2.33089">
        <ele>-0.80000001192093</ele>
        <time>2019-08-15T10:39:38.000Z</time>
      </trkpt>
      <trkpt lat="47.26738" lon="-2.33097">
        <ele>-0.80000001192093</ele>
        <time>2019-08-15T10:39:40.000Z</time>
      </trkpt>
      <trkpt lat="47.26734" lon="-2.33101">
        <ele>-0.80000001192093</ele>
        <time>2019-08-15T10:39:41.000Z</time>
      </trkpt>
      <trkpt lat="47.2673" lon="-2.33106">
        <ele>-0.80000001192093</ele>
        <time>2019-08-15T10:39:42.000Z</time>
      </trkpt>
      <trkpt lat="47.26699" lon="-2.33136">
        <ele>-0.80000001192093</ele>
        <time>2019-08-15T10:39:49.000Z</time>
      </trkpt>
      <trkpt lat="47.26665" lon="-2.33171">
        <ele>-0.80000001192093</ele>
        <time>2019-08-15T10:39:57.000Z</time>
      </trkpt>
      <trkpt lat="47.26631" lon="-2.33204">
        <ele>-0.80000001192093</ele>
        <time>2019-08-15T10:40:05.000Z</time>
      </trkpt>
      <trkpt lat="47.26602" lon="-2.33234">
        <ele>-0.80000001192093</ele>
        <time>2019-08-15T10:40:12.000Z</time>
      </trkpt>
      <trkpt lat="47.26565" lon="-2.33271">
        <ele>-0.80000001192093</ele>
        <time>2019-08-15T10:40:21.000Z</time>
      </trkpt>
      <trkpt lat="47.26543" lon="-2.33294">
        <ele>-0.80000001192093</ele>
        <time>2019-08-15T10:40:27.000Z</time>
      </trkpt>
      <trkpt lat="47.26535" lon="-2.33298">
        <ele>-0.80000001192093</ele>
        <time>2019-08-15T10:40:30.000Z</time>
      </trkpt>
      <trkpt lat="47.26534" lon="-2.33296">
        <ele>-0.80000001192093</ele>
        <time>2019-08-15T10:40:31.000Z</time>
      </trkpt>
      <trkpt lat="47.26531" lon="-2.33292">
        <ele>-1.2000000476837</ele>
        <time>2019-08-15T10:40:33.000Z</time>
      </trkpt>
      <trkpt lat="47.2653" lon="-2.33288">
        <ele>-1.6000000238419</ele>
        <time>2019-08-15T10:40:34.000Z</time>
      </trkpt>
      <trkpt lat="47.26528" lon="-2.33284">
        <ele>-2</ele>
        <time>2019-08-15T10:40:35.000Z</time>
      </trkpt>
      <trkpt lat="47.26526" lon="-2.33281">
        <ele>-2.4000000953674</ele>
        <time>2019-08-15T10:40:36.000Z</time>
      </trkpt>
      <trkpt lat="47.26522" lon="-2.33281">
        <ele>-2.7999999523163</ele>
        <time>2019-08-15T10:40:37.000Z</time>
      </trkpt>
      <trkpt lat="47.26516" lon="-2.33285">
        <ele>-2.7999999523163</ele>
        <time>2019-08-15T10:40:39.000Z</time>
      </trkpt>
      <trkpt lat="47.26505" lon="-2.3328">
        <ele>-2.7999999523163</ele>
        <time>2019-08-15T10:40:42.000Z</time>
      </trkpt>
      <trkpt lat="47.26494" lon="-2.33277">
        <ele>-2.7999999523163</ele>
        <time>2019-08-15T10:40:45.000Z</time>
      </trkpt>
      <trkpt lat="47.26472" lon="-2.33274">
        <ele>-2.7999999523163</ele>
        <time>2019-08-15T10:40:50.000Z</time>
      </trkpt>
      <trkpt lat="47.26463" lon="-2.33274">
        <ele>-2.7999999523163</ele>
        <time>2019-08-15T10:40:52.000Z</time>
      </trkpt>
      <trkpt lat="47.26449" lon="-2.3327">
        <ele>-2.7999999523163</ele>
        <time>2019-08-15T10:40:55.000Z</time>
      </trkpt>
      <trkpt lat="47.26424" lon="-2.33273">
        <ele>-2.7999999523163</ele>
        <time>2019-08-15T10:41:00.000Z</time>
      </trkpt>
      <trkpt lat="47.26418" lon="-2.33273">
        <ele>-2.7999999523163</ele>
        <time>2019-08-15T10:41:01.000Z</time>
      </trkpt>
      <trkpt lat="47.26385" lon="-2.33264">
        <ele>-2.7999999523163</ele>
        <time>2019-08-15T10:41:07.000Z</time>
      </trkpt>
      <trkpt lat="47.26381" lon="-2.33259">
        <ele>-2.7999999523163</ele>
        <time>2019-08-15T10:41:08.000Z</time>
      </trkpt>
      <trkpt lat="47.26373" lon="-2.33237">
        <ele>-2.7999999523163</ele>
        <time>2019-08-15T10:41:11.000Z</time>
      </trkpt>
      <trkpt lat="47.26371" lon="-2.3321">
        <ele>-2.7999999523163</ele>
        <time>2019-08-15T10:41:14.000Z</time>
      </trkpt>
      <trkpt lat="47.26371" lon="-2.33192">
        <ele>-2.7999999523163</ele>
        <time>2019-08-15T10:41:16.000Z</time>
      </trkpt>
      <trkpt lat="47.26369" lon="-2.33136">
        <ele>-2.7999999523163</ele>
        <time>2019-08-15T10:41:22.000Z</time>
      </trkpt>
      <trkpt lat="47.26366" lon="-2.33049">
        <ele>-2.7999999523163</ele>
        <time>2019-08-15T10:41:31.000Z</time>
      </trkpt>
      <trkpt lat="47.26365" lon="-2.32991">
        <ele>-2.7999999523163</ele>
        <time>2019-08-15T10:41:37.000Z</time>
      </trkpt>
      <trkpt lat="47.26353" lon="-2.32969">
        <ele>-2.7999999523163</ele>
        <time>2019-08-15T10:41:40.000Z</time>
      </trkpt>
      <trkpt lat="47.26339" lon="-2.32937">
        <ele>-2.7999999523163</ele>
        <time>2019-08-15T10:41:44.000Z</time>
      </trkpt>
      <trkpt lat="47.26336" lon="-2.32928">
        <ele>-2.7999999523163</ele>
        <time>2019-08-15T10:41:45.000Z</time>
      </trkpt>
      <trkpt lat="47.2632" lon="-2.32876">
        <ele>-2.7999999523163</ele>
        <time>2019-08-15T10:41:51.000Z</time>
      </trkpt>
      <trkpt lat="47.26316" lon="-2.32868">
        <ele>-2.7999999523163</ele>
        <time>2019-08-15T10:41:52.000Z</time>
      </trkpt>
      <trkpt lat="47.26305" lon="-2.32858">
        <ele>-2.7999999523163</ele>
        <time>2019-08-15T10:41:54.000Z</time>
      </trkpt>
      <trkpt lat="47.26292" lon="-2.32852">
        <ele>-2.7999999523163</ele>
        <time>2019-08-15T10:41:56.000Z</time>
      </trkpt>
      <trkpt lat="47.26288" lon="-2.32846">
        <ele>-2.7999999523163</ele>
        <time>2019-08-15T10:41:57.000Z</time>
      </trkpt>
      <trkpt lat="47.26284" lon="-2.32839">
        <ele>-2.7999999523163</ele>
        <time>2019-08-15T10:41:58.000Z</time>
      </trkpt>
      <trkpt lat="47.26277" lon="-2.32813">
        <ele>-2.7999999523163</ele>
        <time>2019-08-15T10:42:01.000Z</time>
      </trkpt>
      <trkpt lat="47.26274" lon="-2.32804">
        <ele>-2.7999999523163</ele>
        <time>2019-08-15T10:42:02.000Z</time>
      </trkpt>
      <trkpt lat="47.26261" lon="-2.32773">
        <ele>-2.7999999523163</ele>
        <time>2019-08-15T10:42:06.000Z</time>
      </trkpt>
      <trkpt lat="47.26253" lon="-2.32758">
        <ele>-2.7999999523163</ele>
        <time>2019-08-15T10:42:08.000Z</time>
      </trkpt>
      <trkpt lat="47.26236" lon="-2.32733">
        <ele>-2.7999999523163</ele>
        <time>2019-08-15T10:42:12.000Z</time>
      </trkpt>
      <trkpt lat="47.26198" lon="-2.3268">
        <ele>-2.7999999523163</ele>
        <time>2019-08-15T10:42:21.000Z</time>
      </trkpt>
      <trkpt lat="47.26177" lon="-2.32658">
        <ele>-2.4000000953674</ele>
        <time>2019-08-15T10:42:25.000Z</time>
      </trkpt>
      <trkpt lat="47.26171" lon="-2.32655">
        <ele>-2</ele>
        <time>2019-08-15T10:42:26.000Z</time>
      </trkpt>
      <trkpt lat="47.26165" lon="-2.32651">
        <ele>-1.6000000238419</ele>
        <time>2019-08-15T10:42:27.000Z</time>
      </trkpt>
      <trkpt lat="47.26159" lon="-2.32648">
        <ele>-1.2000000476837</ele>
        <time>2019-08-15T10:42:28.000Z</time>
      </trkpt>
      <trkpt lat="47.26153" lon="-2.32645">
        <ele>-0.80000001192093</ele>
        <time>2019-08-15T10:42:29.000Z</time>
      </trkpt>
      <trkpt lat="47.26124" lon="-2.32636">
        <ele>-0.80000001192093</ele>
        <time>2019-08-15T10:42:34.000Z</time>
      </trkpt>
      <trkpt lat="47.26087" lon="-2.32639">
        <ele>-0.80000001192093</ele>
        <time>2019-08-15T10:42:40.000Z</time>
      </trkpt>
      <trkpt lat="47.26037" lon="-2.32649">
        <ele>-0.80000001192093</ele>
        <time>2019-08-15T10:42:48.000Z</time>
      </trkpt>
      <trkpt lat="47.2598" lon="-2.32656">
        <ele>-0.80000001192093</ele>
        <time>2019-08-15T10:42:57.000Z</time>
      </trkpt>
      <trkpt lat="47.25964" lon="-2.32655">
        <ele>-0.80000001192093</ele>
        <time>2019-08-15T10:43:00.000Z</time>
      </trkpt>
      <trkpt lat="47.25961" lon="-2.32655">
        <ele>-0.80000001192093</ele>
        <time>2019-08-15T10:43:01.000Z</time>
      </trkpt>
      <trkpt lat="47.25959" lon="-2.32645">
        <ele>-0.80000001192093</ele>
        <time>2019-08-15T10:43:03.000Z</time>
      </trkpt>
      <trkpt lat="47.25959" lon="-2.32638">
        <ele>-1.2000000476837</ele>
        <time>2019-08-15T10:43:04.000Z</time>
      </trkpt>
      <trkpt lat="47.25959" lon="-2.32632">
        <ele>-1.6000000238419</ele>
        <time>2019-08-15T10:43:05.000Z</time>
      </trkpt>
      <trkpt lat="47.25958" lon="-2.32625">
        <ele>-2.4000000953674</ele>
        <time>2019-08-15T10:43:06.000Z</time>
      </trkpt>
      <trkpt lat="47.25957" lon="-2.32617">
        <ele>-2.7999999523163</ele>
        <time>2019-08-15T10:43:07.000Z</time>
      </trkpt>
      <trkpt lat="47.25955" lon="-2.32609">
        <ele>-2.7999999523163</ele>
        <time>2019-08-15T10:43:08.000Z</time>
      </trkpt>
      <trkpt lat="47.25946" lon="-2.32564">
        <ele>-2.7999999523163</ele>
        <time>2019-08-15T10:43:14.000Z</time>
      </trkpt>
      <trkpt lat="47.25927" lon="-2.32501">
        <ele>-2.7999999523163</ele>
        <time>2019-08-15T10:43:22.000Z</time>
      </trkpt>
      <trkpt lat="47.25919" lon="-2.32478">
        <ele>-2.7999999523163</ele>
        <time>2019-08-15T10:43:25.000Z</time>
      </trkpt>
      <trkpt lat="47.2591" lon="-2.32469">
        <ele>-2.7999999523163</ele>
        <time>2019-08-15T10:43:27.000Z</time>
      </trkpt>
      <trkpt lat="47.25902" lon="-2.32461">
        <ele>-2.7999999523163</ele>
        <time>2019-08-15T10:43:29.000Z</time>
      </trkpt>
      <trkpt lat="47.25904" lon="-2.32449">
        <ele>-2.7999999523163</ele>
        <time>2019-08-15T10:43:31.000Z</time>
      </trkpt>
      <trkpt lat="47.25915" lon="-2.32437">
        <ele>-2.7999999523163</ele>
        <time>2019-08-15T10:43:34.000Z</time>
      </trkpt>
      <trkpt lat="47.25936" lon="-2.32412">
        <ele>-2.7999999523163</ele>
        <time>2019-08-15T10:43:39.000Z</time>
      </trkpt>
      <trkpt lat="47.25961" lon="-2.3238">
        <ele>-2.7999999523163</ele>
        <time>2019-08-15T10:43:45.000Z</time>
      </trkpt>
      <trkpt lat="47.25992" lon="-2.32341">
        <ele>-2.7999999523163</ele>
        <time>2019-08-15T10:43:52.000Z</time>
      </trkpt>
      <trkpt lat="47.2602" lon="-2.32305">
        <ele>-2.7999999523163</ele>
        <time>2019-08-15T10:43:59.000Z</time>
      </trkpt>
      <trkpt lat="47.26032" lon="-2.32289">
        <ele>-2.7999999523163</ele>
        <time>2019-08-15T10:44:02.000Z</time>
      </trkpt>
      <trkpt lat="47.26046" lon="-2.32273">
        <ele>-2.7999999523163</ele>
        <time>2019-08-15T10:44:05.000Z</time>
      </trkpt>
      <trkpt lat="47.26071" lon="-2.32242">
        <ele>-2.7999999523163</ele>
        <time>2019-08-15T10:44:11.000Z</time>
      </trkpt>
      <trkpt lat="47.26097" lon="-2.32205">
        <ele>-2.7999999523163</ele>
        <time>2019-08-15T10:44:17.000Z</time>
      </trkpt>
      <trkpt lat="47.261" lon="-2.32198">
        <ele>-2.7999999523163</ele>
        <time>2019-08-15T10:44:18.000Z</time>
      </trkpt>
      <trkpt lat="47.26112" lon="-2.3217">
        <ele>-2.7999999523163</ele>
        <time>2019-08-15T10:44:22.000Z</time>
      </trkpt>
      <trkpt lat="47.26131" lon="-2.32117">
        <ele>-2.7999999523163</ele>
        <time>2019-08-15T10:44:29.000Z</time>
      </trkpt>
      <trkpt lat="47.26141" lon="-2.32079">
        <ele>-2.7999999523163</ele>
        <time>2019-08-15T10:44:34.000Z</time>
      </trkpt>
      <trkpt lat="47.26158" lon="-2.3203">
        <ele>-2.7999999523163</ele>
        <time>2019-08-15T10:44:41.000Z</time>
      </trkpt>
      <trkpt lat="47.2616" lon="-2.32025">
        <ele>-2.7999999523163</ele>
        <time>2019-08-15T10:44:42.000Z</time>
      </trkpt>
      <trkpt lat="47.26169" lon="-2.3202">
        <ele>-2.7999999523163</ele>
        <time>2019-08-15T10:44:44.000Z</time>
      </trkpt>
      <trkpt lat="47.26182" lon="-2.32024">
        <ele>-2.7999999523163</ele>
        <time>2019-08-15T10:44:47.000Z</time>
      </trkpt>
      <trkpt lat="47.26192" lon="-2.32023">
        <ele>-2.7999999523163</ele>
        <time>2019-08-15T10:44:50.000Z</time>
      </trkpt>
      <trkpt lat="47.26198" lon="-2.32015">
        <ele>-2.7999999523163</ele>
        <time>2019-08-15T10:44:54.000Z</time>
      </trkpt>
      <trkpt lat="47.26203" lon="-2.32004">
        <ele>-2.7999999523163</ele>
        <time>2019-08-15T10:44:58.000Z</time>
      </trkpt>
      <trkpt lat="47.26214" lon="-2.31992">
        <ele>-2.7999999523163</ele>
        <time>2019-08-15T10:45:02.000Z</time>
      </trkpt>
      <trkpt lat="47.26218" lon="-2.31989">
        <ele>-2.7999999523163</ele>
        <time>2019-08-15T10:45:03.000Z</time>
      </trkpt>
      <trkpt lat="47.26232" lon="-2.31972">
        <ele>-2.7999999523163</ele>
        <time>2019-08-15T10:45:07.000Z</time>
      </trkpt>
      <trkpt lat="47.26236" lon="-2.31968">
        <ele>-2.7999999523163</ele>
        <time>2019-08-15T10:45:08.000Z</time>
      </trkpt>
      <trkpt lat="47.26244" lon="-2.31959">
        <ele>-2.7999999523163</ele>
        <time>2019-08-15T10:45:10.000Z</time>
      </trkpt>
      <trkpt lat="47.2625" lon="-2.31949">
        <ele>-2.7999999523163</ele>
        <time>2019-08-15T10:45:12.000Z</time>
      </trkpt>
      <trkpt lat="47.26262" lon="-2.31927">
        <ele>-2.7999999523163</ele>
        <time>2019-08-15T10:45:17.000Z</time>
      </trkpt>
      <trkpt lat="47.26275" lon="-2.3191">
        <ele>-2.7999999523163</ele>
        <time>2019-08-15T10:45:21.000Z</time>
      </trkpt>
      <trkpt lat="47.26279" lon="-2.31906">
        <ele>-2.7999999523163</ele>
        <time>2019-08-15T10:45:22.000Z</time>
      </trkpt>
      <trkpt lat="47.26294" lon="-2.31885">
        <ele>-2.7999999523163</ele>
        <time>2019-08-15T10:45:27.000Z</time>
      </trkpt>
      <trkpt lat="47.26295" lon="-2.31865">
        <ele>-2.7999999523163</ele>
        <time>2019-08-15T10:45:30.000Z</time>
      </trkpt>
      <trkpt lat="47.26297" lon="-2.31836">
        <ele>-2.7999999523163</ele>
        <time>2019-08-15T10:45:35.000Z</time>
      </trkpt>
      <trkpt lat="47.26299" lon="-2.31792">
        <ele>-2.7999999523163</ele>
        <time>2019-08-15T10:45:42.000Z</time>
      </trkpt>
      <trkpt lat="47.26298" lon="-2.31779">
        <ele>-2.7999999523163</ele>
        <time>2019-08-15T10:45:44.000Z</time>
      </trkpt>
      <trkpt lat="47.26296" lon="-2.31755">
        <ele>-2.7999999523163</ele>
        <time>2019-08-15T10:45:48.000Z</time>
      </trkpt>
      <trkpt lat="47.26297" lon="-2.31734">
        <ele>-2.7999999523163</ele>
        <time>2019-08-15T10:45:51.000Z</time>
      </trkpt>
      <trkpt lat="47.26301" lon="-2.31728">
        <ele>-2.7999999523163</ele>
        <time>2019-08-15T10:45:52.000Z</time>
      </trkpt>
      <trkpt lat="47.26313" lon="-2.3172">
        <ele>-2.7999999523163</ele>
        <time>2019-08-15T10:45:55.000Z</time>
      </trkpt>
      <trkpt lat="47.26318" lon="-2.31717">
        <ele>-2.4000000953674</ele>
        <time>2019-08-15T10:45:56.000Z</time>
      </trkpt>
      <trkpt lat="47.26323" lon="-2.31714">
        <ele>-2</ele>
        <time>2019-08-15T10:45:57.000Z</time>
      </trkpt>
      <trkpt lat="47.26327" lon="-2.31711">
        <ele>-1.6000000238419</ele>
        <time>2019-08-15T10:45:58.000Z</time>
      </trkpt>
      <trkpt lat="47.26329" lon="-2.31706">
        <ele>-0.80000001192093</ele>
        <time>2019-08-15T10:45:59.000Z</time>
      </trkpt>
      <trkpt lat="47.2633" lon="-2.31701">
        <ele>-0.80000001192093</ele>
        <time>2019-08-15T10:46:00.000Z</time>
      </trkpt>
      <trkpt lat="47.26339" lon="-2.3169">
        <ele>-0.80000001192093</ele>
        <time>2019-08-15T10:46:03.000Z</time>
      </trkpt>
      <trkpt lat="47.26351" lon="-2.31683">
        <ele>-0.40000000596046</ele>
        <time>2019-08-15T10:46:06.000Z</time>
      </trkpt>
      <trkpt lat="47.26355" lon="-2.3168">
        <ele>7.3</ele>
        <time>2019-08-15T10:46:07.000Z</time>
      </trkpt>
      <trkpt lat="47.26358" lon="-2.31678">
        <ele>0.40000000596046</ele>
        <time>2019-08-15T10:46:08.000Z</time>
      </trkpt>
      <trkpt lat="47.26361" lon="-2.31677">
        <ele>1</ele>
        <time>2019-08-15T10:46:09.000Z</time>
      </trkpt>
      <trkpt lat="47.26365" lon="-2.31675">
        <ele>1.3999999761581</ele>
        <time>2019-08-15T10:46:10.000Z</time>
      </trkpt>
      <trkpt lat="47.26372" lon="-2.31672">
        <ele>1.3999999761581</ele>
        <time>2019-08-15T10:46:12.000Z</time>
      </trkpt>
      <trkpt lat="47.26392" lon="-2.31662">
        <ele>1.3999999761581</ele>
        <time>2019-08-15T10:46:18.000Z</time>
      </trkpt>
      <trkpt lat="47.26406" lon="-2.31654">
        <ele>1.3999999761581</ele>
        <time>2019-08-15T10:46:23.000Z</time>
      </trkpt>
      <trkpt lat="47.2641" lon="-2.31646">
        <ele>1.3999999761581</ele>
        <time>2019-08-15T10:46:25.000Z</time>
      </trkpt>
      <trkpt lat="47.2641" lon="-2.31638">
        <ele>1.3999999761581</ele>
        <time>2019-08-15T10:46:27.000Z</time>
      </trkpt>
      <trkpt lat="47.2641" lon="-2.31616">
        <ele>1.3999999761581</ele>
        <time>2019-08-15T10:46:32.000Z</time>
      </trkpt>
      <trkpt lat="47.26409" lon="-2.31597">
        <ele>1.7999999523163</ele>
        <time>2019-08-15T10:46:36.000Z</time>
      </trkpt>
      <trkpt lat="47.26409" lon="-2.31592">
        <ele>2.2000000476837</ele>
        <time>2019-08-15T10:46:37.000Z</time>
      </trkpt>
      <trkpt lat="47.26409" lon="-2.31588">
        <ele>2.5999999046326</ele>
        <time>2019-08-15T10:46:38.000Z</time>
      </trkpt>
      <trkpt lat="47.26409" lon="-2.31583">
        <ele>3</ele>
        <time>2019-08-15T10:46:39.000Z</time>
      </trkpt>
      <trkpt lat="47.26409" lon="-2.31578">
        <ele>3.4000000953674</ele>
        <time>2019-08-15T10:46:40.000Z</time>
      </trkpt>
      <trkpt lat="47.2641" lon="-2.31558">
        <ele>3.4000000953674</ele>
        <time>2019-08-15T10:46:45.000Z</time>
      </trkpt>
      <trkpt lat="47.26412" lon="-2.31553">
        <ele>3.4000000953674</ele>
        <time>2019-08-15T10:46:47.000Z</time>
      </trkpt>
      <trkpt lat="47.26416" lon="-2.31554">
        <ele>3.4000000953674</ele>
        <time>2019-08-15T10:46:49.000Z</time>
      </trkpt>
      <trkpt lat="47.26416" lon="-2.31554">
        <ele>3.4000000953674</ele>
        <time>2019-08-15T10:46:51.000Z</time>
      </trkpt>
    </trkseg>
  </trk>
</gpx>